<?xml version="1.0" encoding="UTF-8" standalone="no" ?>
<gpx xmlns="http://www.topografix.com/GPX/1/1" xmlns:xsi="http://www.w3.org/2001/XMLSchema-instance" xsi:schemaLocation="http://www.topografix.com/GPX/1/1 http://www.topografix.com/GPX/1/1/gpx.xsd" version="1.1" creator="VisuGPX - https://www.visugpx.com">
  <metadata>
    <name>Tour des baous de Saint-Jeannet 1/2journée</name>
    <desc><![CDATA[Belle sortie à la 1/2 journée (compter 2h30 à 3h selon la cadence)
Montée classique jusqu'à la Bergerie puis petit portage à droite, au bout on récupère la piste du gaz pour revenir prendre la descente de l'avion puis à la balise à gauche pour les ruines du Castelet et le single qui descend jusqu'au fond du vallon de la Cagnes, pour un retour par le route au 4 chemins.]]></desc>
  </metadata>
  <trk>
    <name><![CDATA[Saint-Jeannet Cyclisme]]></name>
    <trkseg>
      <trkpt lat="43.7435" lon="7.14334">
        <ele>313</ele>
        <time>2019-07-25T06:46:37.000Z</time>
      </trkpt>
      <trkpt lat="43.74351" lon="7.14333">
        <ele>312.60000610352</ele>
        <time>2019-07-25T06:46:46.000Z</time>
      </trkpt>
      <trkpt lat="43.74351" lon="7.14333">
        <ele>313.20001220703</ele>
        <time>2019-07-25T06:46:52.000Z</time>
      </trkpt>
      <trkpt lat="43.7435" lon="7.14333">
        <ele>313</ele>
        <time>2019-07-25T06:47:01.000Z</time>
      </trkpt>
      <trkpt lat="43.74349" lon="7.14334">
        <ele>312.79998779297</ele>
        <time>2019-07-25T06:47:09.000Z</time>
      </trkpt>
      <trkpt lat="43.7435" lon="7.14334">
        <ele>312.79998779297</ele>
        <time>2019-07-25T06:47:18.000Z</time>
      </trkpt>
      <trkpt lat="43.7435" lon="7.14334">
        <ele>312.60000610352</ele>
        <time>2019-07-25T06:47:29.000Z</time>
      </trkpt>
      <trkpt lat="43.74353" lon="7.14338">
        <ele>312.60000610352</ele>
        <time>2019-07-25T06:47:38.000Z</time>
      </trkpt>
      <trkpt lat="43.74352" lon="7.1434">
        <ele>312.79998779297</ele>
        <time>2019-07-25T06:47:42.000Z</time>
      </trkpt>
      <trkpt lat="43.74352" lon="7.14343">
        <ele>312.79998779297</ele>
        <time>2019-07-25T06:47:46.000Z</time>
      </trkpt>
      <trkpt lat="43.74353" lon="7.14345">
        <ele>313</ele>
        <time>2019-07-25T06:47:47.000Z</time>
      </trkpt>
      <trkpt lat="43.74352" lon="7.14356">
        <ele>312.79998779297</ele>
        <time>2019-07-25T06:47:50.000Z</time>
      </trkpt>
      <trkpt lat="43.74351" lon="7.14365">
        <ele>312.60000610352</ele>
        <time>2019-07-25T06:47:52.000Z</time>
      </trkpt>
      <trkpt lat="43.74346" lon="7.14393">
        <ele>312.79998779297</ele>
        <time>2019-07-25T06:47:58.000Z</time>
      </trkpt>
      <trkpt lat="43.7434" lon="7.14425">
        <ele>312</ele>
        <time>2019-07-25T06:48:05.000Z</time>
      </trkpt>
      <trkpt lat="43.7434" lon="7.14435">
        <ele>312</ele>
        <time>2019-07-25T06:48:09.000Z</time>
      </trkpt>
      <trkpt lat="43.74346" lon="7.14441">
        <ele>312</ele>
        <time>2019-07-25T06:48:14.000Z</time>
      </trkpt>
      <trkpt lat="43.74348" lon="7.14441">
        <ele>312</ele>
        <time>2019-07-25T06:48:15.000Z</time>
      </trkpt>
      <trkpt lat="43.74352" lon="7.14439">
        <ele>312.79998779297</ele>
        <time>2019-07-25T06:48:19.000Z</time>
      </trkpt>
      <trkpt lat="43.74353" lon="7.1444">
        <ele>313</ele>
        <time>2019-07-25T06:48:20.000Z</time>
      </trkpt>
      <trkpt lat="43.74356" lon="7.14442">
        <ele>313.79998779297</ele>
        <time>2019-07-25T06:48:23.000Z</time>
      </trkpt>
      <trkpt lat="43.74357" lon="7.14441">
        <ele>314</ele>
        <time>2019-07-25T06:48:24.000Z</time>
      </trkpt>
      <trkpt lat="43.74359" lon="7.14441">
        <ele>314.20001220703</ele>
        <time>2019-07-25T06:48:26.000Z</time>
      </trkpt>
      <trkpt lat="43.74362" lon="7.14441">
        <ele>314.60000610352</ele>
        <time>2019-07-25T06:48:28.000Z</time>
      </trkpt>
      <trkpt lat="43.74363" lon="7.14441">
        <ele>314.79998779297</ele>
        <time>2019-07-25T06:48:29.000Z</time>
      </trkpt>
      <trkpt lat="43.74365" lon="7.1444">
        <ele>315.20001220703</ele>
        <time>2019-07-25T06:48:31.000Z</time>
      </trkpt>
      <trkpt lat="43.74366" lon="7.14439">
        <ele>315.39999389648</ele>
        <time>2019-07-25T06:48:32.000Z</time>
      </trkpt>
      <trkpt lat="43.74371" lon="7.14436">
        <ele>316</ele>
        <time>2019-07-25T06:48:36.000Z</time>
      </trkpt>
      <trkpt lat="43.74372" lon="7.14435">
        <ele>316.20001220703</ele>
        <time>2019-07-25T06:48:37.000Z</time>
      </trkpt>
      <trkpt lat="43.74379" lon="7.14437">
        <ele>317</ele>
        <time>2019-07-25T06:48:43.000Z</time>
      </trkpt>
      <trkpt lat="43.7438" lon="7.14437">
        <ele>317.20001220703</ele>
        <time>2019-07-25T06:48:44.000Z</time>
      </trkpt>
      <trkpt lat="43.74388" lon="7.14435">
        <ele>318</ele>
        <time>2019-07-25T06:48:50.000Z</time>
      </trkpt>
      <trkpt lat="43.74389" lon="7.14435">
        <ele>318.20001220703</ele>
        <time>2019-07-25T06:48:51.000Z</time>
      </trkpt>
      <trkpt lat="43.74397" lon="7.14432">
        <ele>319.39999389648</ele>
        <time>2019-07-25T06:48:57.000Z</time>
      </trkpt>
      <trkpt lat="43.74398" lon="7.14432">
        <ele>319.60000610352</ele>
        <time>2019-07-25T06:48:58.000Z</time>
      </trkpt>
      <trkpt lat="43.74404" lon="7.14431">
        <ele>320.39999389648</ele>
        <time>2019-07-25T06:49:03.000Z</time>
      </trkpt>
      <trkpt lat="43.74409" lon="7.1443">
        <ele>321.20001220703</ele>
        <time>2019-07-25T06:49:07.000Z</time>
      </trkpt>
      <trkpt lat="43.74411" lon="7.14429">
        <ele>321.39999389648</ele>
        <time>2019-07-25T06:49:08.000Z</time>
      </trkpt>
      <trkpt lat="43.74412" lon="7.14429">
        <ele>321.60000610352</ele>
        <time>2019-07-25T06:49:09.000Z</time>
      </trkpt>
      <trkpt lat="43.74414" lon="7.14429">
        <ele>322.60000610352</ele>
        <time>2019-07-25T06:49:14.000Z</time>
      </trkpt>
      <trkpt lat="43.74414" lon="7.14428">
        <ele>322.60000610352</ele>
        <time>2019-07-25T06:49:15.000Z</time>
      </trkpt>
      <trkpt lat="43.74415" lon="7.14428">
        <ele>321.79998779297</ele>
        <time>2019-07-25T06:49:21.000Z</time>
      </trkpt>
      <trkpt lat="43.74418" lon="7.14429">
        <ele>322.60000610352</ele>
        <time>2019-07-25T06:49:29.000Z</time>
      </trkpt>
      <trkpt lat="43.74424" lon="7.14425">
        <ele>323.60000610352</ele>
        <time>2019-07-25T06:49:35.000Z</time>
      </trkpt>
      <trkpt lat="43.74425" lon="7.14425">
        <ele>323.79998779297</ele>
        <time>2019-07-25T06:49:36.000Z</time>
      </trkpt>
      <trkpt lat="43.74431" lon="7.14425">
        <ele>324.79998779297</ele>
        <time>2019-07-25T06:49:41.000Z</time>
      </trkpt>
      <trkpt lat="43.74432" lon="7.14424">
        <ele>325.20001220703</ele>
        <time>2019-07-25T06:49:42.000Z</time>
      </trkpt>
      <trkpt lat="43.74437" lon="7.14421">
        <ele>326</ele>
        <time>2019-07-25T06:49:47.000Z</time>
      </trkpt>
      <trkpt lat="43.74438" lon="7.14421">
        <ele>326.20001220703</ele>
        <time>2019-07-25T06:49:48.000Z</time>
      </trkpt>
      <trkpt lat="43.74441" lon="7.14422">
        <ele>327.20001220703</ele>
        <time>2019-07-25T06:49:52.000Z</time>
      </trkpt>
      <trkpt lat="43.74442" lon="7.14421">
        <ele>327.39999389648</ele>
        <time>2019-07-25T06:49:53.000Z</time>
      </trkpt>
      <trkpt lat="43.74448" lon="7.14419">
        <ele>328.39999389648</ele>
        <time>2019-07-25T06:49:58.000Z</time>
      </trkpt>
      <trkpt lat="43.74449" lon="7.1442">
        <ele>328.60000610352</ele>
        <time>2019-07-25T06:49:59.000Z</time>
      </trkpt>
      <trkpt lat="43.74451" lon="7.14421">
        <ele>329.39999389648</ele>
        <time>2019-07-25T06:50:03.000Z</time>
      </trkpt>
      <trkpt lat="43.74452" lon="7.14419">
        <ele>329.60000610352</ele>
        <time>2019-07-25T06:50:04.000Z</time>
      </trkpt>
      <trkpt lat="43.74452" lon="7.14418">
        <ele>329.79998779297</ele>
        <time>2019-07-25T06:50:05.000Z</time>
      </trkpt>
      <trkpt lat="43.74457" lon="7.14414">
        <ele>330.60000610352</ele>
        <time>2019-07-25T06:50:09.000Z</time>
      </trkpt>
      <trkpt lat="43.74458" lon="7.14415">
        <ele>330.79998779297</ele>
        <time>2019-07-25T06:50:10.000Z</time>
      </trkpt>
      <trkpt lat="43.7446" lon="7.14418">
        <ele>331.60000610352</ele>
        <time>2019-07-25T06:50:14.000Z</time>
      </trkpt>
      <trkpt lat="43.74462" lon="7.14418">
        <ele>331.79998779297</ele>
        <time>2019-07-25T06:50:16.000Z</time>
      </trkpt>
      <trkpt lat="43.74465" lon="7.14411">
        <ele>332.39999389648</ele>
        <time>2019-07-25T06:50:21.000Z</time>
      </trkpt>
      <trkpt lat="43.74466" lon="7.1441">
        <ele>332.60000610352</ele>
        <time>2019-07-25T06:50:22.000Z</time>
      </trkpt>
      <trkpt lat="43.74469" lon="7.14412">
        <ele>333.39999389648</ele>
        <time>2019-07-25T06:50:25.000Z</time>
      </trkpt>
      <trkpt lat="43.74469" lon="7.14413">
        <ele>333.60000610352</ele>
        <time>2019-07-25T06:50:26.000Z</time>
      </trkpt>
      <trkpt lat="43.74473" lon="7.1441">
        <ele>334.39999389648</ele>
        <time>2019-07-25T06:50:30.000Z</time>
      </trkpt>
      <trkpt lat="43.74473" lon="7.14409">
        <ele>334.60000610352</ele>
        <time>2019-07-25T06:50:31.000Z</time>
      </trkpt>
      <trkpt lat="43.74473" lon="7.14407">
        <ele>334.79998779297</ele>
        <time>2019-07-25T06:50:32.000Z</time>
      </trkpt>
      <trkpt lat="43.74472" lon="7.14401">
        <ele>335.20001220703</ele>
        <time>2019-07-25T06:50:35.000Z</time>
      </trkpt>
      <trkpt lat="43.74472" lon="7.14393">
        <ele>335.79998779297</ele>
        <time>2019-07-25T06:50:40.000Z</time>
      </trkpt>
      <trkpt lat="43.74472" lon="7.14389">
        <ele>336.20001220703</ele>
        <time>2019-07-25T06:50:42.000Z</time>
      </trkpt>
      <trkpt lat="43.74473" lon="7.14383">
        <ele>337</ele>
        <time>2019-07-25T06:50:46.000Z</time>
      </trkpt>
      <trkpt lat="43.74473" lon="7.14378">
        <ele>337.39999389648</ele>
        <time>2019-07-25T06:50:49.000Z</time>
      </trkpt>
      <trkpt lat="43.74475" lon="7.14374">
        <ele>338</ele>
        <time>2019-07-25T06:50:52.000Z</time>
      </trkpt>
      <trkpt lat="43.74477" lon="7.14372">
        <ele>338.60000610352</ele>
        <time>2019-07-25T06:50:55.000Z</time>
      </trkpt>
      <trkpt lat="43.74481" lon="7.14372">
        <ele>339.20001220703</ele>
        <time>2019-07-25T06:50:58.000Z</time>
      </trkpt>
      <trkpt lat="43.74485" lon="7.14375">
        <ele>339.79998779297</ele>
        <time>2019-07-25T06:51:01.000Z</time>
      </trkpt>
      <trkpt lat="43.74487" lon="7.1438">
        <ele>340.20001220703</ele>
        <time>2019-07-25T06:51:04.000Z</time>
      </trkpt>
      <trkpt lat="43.74488" lon="7.14382">
        <ele>340.20001220703</ele>
        <time>2019-07-25T06:51:05.000Z</time>
      </trkpt>
      <trkpt lat="43.74491" lon="7.14389">
        <ele>340.60000610352</ele>
        <time>2019-07-25T06:51:09.000Z</time>
      </trkpt>
      <trkpt lat="43.74494" lon="7.14398">
        <ele>341.20001220703</ele>
        <time>2019-07-25T06:51:14.000Z</time>
      </trkpt>
      <trkpt lat="43.74498" lon="7.14406">
        <ele>341.79998779297</ele>
        <time>2019-07-25T06:51:19.000Z</time>
      </trkpt>
      <trkpt lat="43.745" lon="7.14411">
        <ele>342.20001220703</ele>
        <time>2019-07-25T06:51:22.000Z</time>
      </trkpt>
      <trkpt lat="43.74506" lon="7.14421">
        <ele>343.39999389648</ele>
        <time>2019-07-25T06:51:29.000Z</time>
      </trkpt>
      <trkpt lat="43.7451" lon="7.14431">
        <ele>344.39999389648</ele>
        <time>2019-07-25T06:51:36.000Z</time>
      </trkpt>
      <trkpt lat="43.74512" lon="7.14434">
        <ele>344.60000610352</ele>
        <time>2019-07-25T06:51:38.000Z</time>
      </trkpt>
      <trkpt lat="43.74517" lon="7.14449">
        <ele>345.20001220703</ele>
        <time>2019-07-25T06:51:46.000Z</time>
      </trkpt>
      <trkpt lat="43.74518" lon="7.14451">
        <ele>345.39999389648</ele>
        <time>2019-07-25T06:51:47.000Z</time>
      </trkpt>
      <trkpt lat="43.74523" lon="7.14462">
        <ele>346.20001220703</ele>
        <time>2019-07-25T06:51:54.000Z</time>
      </trkpt>
      <trkpt lat="43.74525" lon="7.14462">
        <ele>346.39999389648</ele>
        <time>2019-07-25T06:51:56.000Z</time>
      </trkpt>
      <trkpt lat="43.74528" lon="7.14459">
        <ele>346.79998779297</ele>
        <time>2019-07-25T06:51:59.000Z</time>
      </trkpt>
      <trkpt lat="43.74529" lon="7.14452">
        <ele>347.39999389648</ele>
        <time>2019-07-25T06:52:03.000Z</time>
      </trkpt>
      <trkpt lat="43.74529" lon="7.14449">
        <ele>347.79998779297</ele>
        <time>2019-07-25T06:52:05.000Z</time>
      </trkpt>
      <trkpt lat="43.74528" lon="7.1444">
        <ele>348.79998779297</ele>
        <time>2019-07-25T06:52:10.000Z</time>
      </trkpt>
      <trkpt lat="43.74528" lon="7.14435">
        <ele>349.39999389648</ele>
        <time>2019-07-25T06:52:13.000Z</time>
      </trkpt>
      <trkpt lat="43.74528" lon="7.1443">
        <ele>349.79998779297</ele>
        <time>2019-07-25T06:52:16.000Z</time>
      </trkpt>
      <trkpt lat="43.74529" lon="7.14421">
        <ele>351</ele>
        <time>2019-07-25T06:52:21.000Z</time>
      </trkpt>
      <trkpt lat="43.74528" lon="7.14418">
        <ele>351.39999389648</ele>
        <time>2019-07-25T06:52:23.000Z</time>
      </trkpt>
      <trkpt lat="43.74528" lon="7.14413">
        <ele>351.79998779297</ele>
        <time>2019-07-25T06:52:26.000Z</time>
      </trkpt>
      <trkpt lat="43.74529" lon="7.14412">
        <ele>352.20001220703</ele>
        <time>2019-07-25T06:52:27.000Z</time>
      </trkpt>
      <trkpt lat="43.74529" lon="7.14409">
        <ele>352.60000610352</ele>
        <time>2019-07-25T06:52:29.000Z</time>
      </trkpt>
      <trkpt lat="43.74528" lon="7.14405">
        <ele>353.20001220703</ele>
        <time>2019-07-25T06:52:32.000Z</time>
      </trkpt>
      <trkpt lat="43.74527" lon="7.14399">
        <ele>353.79998779297</ele>
        <time>2019-07-25T06:52:35.000Z</time>
      </trkpt>
      <trkpt lat="43.74528" lon="7.14394">
        <ele>354.39999389648</ele>
        <time>2019-07-25T06:52:38.000Z</time>
      </trkpt>
      <trkpt lat="43.74529" lon="7.1439">
        <ele>355</ele>
        <time>2019-07-25T06:52:41.000Z</time>
      </trkpt>
      <trkpt lat="43.74529" lon="7.14386">
        <ele>355.39999389648</ele>
        <time>2019-07-25T06:52:43.000Z</time>
      </trkpt>
      <trkpt lat="43.74529" lon="7.14379">
        <ele>356.60000610352</ele>
        <time>2019-07-25T06:52:48.000Z</time>
      </trkpt>
      <trkpt lat="43.74528" lon="7.14374">
        <ele>357.20001220703</ele>
        <time>2019-07-25T06:52:51.000Z</time>
      </trkpt>
      <trkpt lat="43.74529" lon="7.14371">
        <ele>357.60000610352</ele>
        <time>2019-07-25T06:52:53.000Z</time>
      </trkpt>
      <trkpt lat="43.74528" lon="7.14366">
        <ele>358.39999389648</ele>
        <time>2019-07-25T06:52:57.000Z</time>
      </trkpt>
      <trkpt lat="43.74528" lon="7.14362">
        <ele>358.79998779297</ele>
        <time>2019-07-25T06:52:59.000Z</time>
      </trkpt>
      <trkpt lat="43.74528" lon="7.14357">
        <ele>359.60000610352</ele>
        <time>2019-07-25T06:53:03.000Z</time>
      </trkpt>
      <trkpt lat="43.74528" lon="7.14355">
        <ele>359.79998779297</ele>
        <time>2019-07-25T06:53:04.000Z</time>
      </trkpt>
      <trkpt lat="43.74527" lon="7.14349">
        <ele>361</ele>
        <time>2019-07-25T06:53:08.000Z</time>
      </trkpt>
      <trkpt lat="43.74527" lon="7.14346">
        <ele>361.39999389648</ele>
        <time>2019-07-25T06:53:10.000Z</time>
      </trkpt>
      <trkpt lat="43.74527" lon="7.14342">
        <ele>362</ele>
        <time>2019-07-25T06:53:13.000Z</time>
      </trkpt>
      <trkpt lat="43.74527" lon="7.14337">
        <ele>362.79998779297</ele>
        <time>2019-07-25T06:53:16.000Z</time>
      </trkpt>
      <trkpt lat="43.74527" lon="7.14334">
        <ele>363</ele>
        <time>2019-07-25T06:53:18.000Z</time>
      </trkpt>
      <trkpt lat="43.74527" lon="7.1433">
        <ele>363.79998779297</ele>
        <time>2019-07-25T06:53:21.000Z</time>
      </trkpt>
      <trkpt lat="43.74528" lon="7.1433">
        <ele>364</ele>
        <time>2019-07-25T06:53:22.000Z</time>
      </trkpt>
      <trkpt lat="43.7453" lon="7.14329">
        <ele>364.20001220703</ele>
        <time>2019-07-25T06:53:23.000Z</time>
      </trkpt>
      <trkpt lat="43.74532" lon="7.14329">
        <ele>364.79998779297</ele>
        <time>2019-07-25T06:53:25.000Z</time>
      </trkpt>
      <trkpt lat="43.74536" lon="7.14333">
        <ele>365.20001220703</ele>
        <time>2019-07-25T06:53:28.000Z</time>
      </trkpt>
      <trkpt lat="43.74537" lon="7.14336">
        <ele>365.39999389648</ele>
        <time>2019-07-25T06:53:30.000Z</time>
      </trkpt>
      <trkpt lat="43.7454" lon="7.14344">
        <ele>366.20001220703</ele>
        <time>2019-07-25T06:53:35.000Z</time>
      </trkpt>
      <trkpt lat="43.74541" lon="7.14347">
        <ele>366.39999389648</ele>
        <time>2019-07-25T06:53:37.000Z</time>
      </trkpt>
      <trkpt lat="43.74545" lon="7.14353">
        <ele>367.39999389648</ele>
        <time>2019-07-25T06:53:42.000Z</time>
      </trkpt>
      <trkpt lat="43.74545" lon="7.14355">
        <ele>367.60000610352</ele>
        <time>2019-07-25T06:53:43.000Z</time>
      </trkpt>
      <trkpt lat="43.74546" lon="7.14359">
        <ele>368</ele>
        <time>2019-07-25T06:53:46.000Z</time>
      </trkpt>
      <trkpt lat="43.74545" lon="7.14362">
        <ele>368.20001220703</ele>
        <time>2019-07-25T06:53:48.000Z</time>
      </trkpt>
      <trkpt lat="43.74546" lon="7.14365">
        <ele>368.60000610352</ele>
        <time>2019-07-25T06:53:50.000Z</time>
      </trkpt>
      <trkpt lat="43.74547" lon="7.14368">
        <ele>368.79998779297</ele>
        <time>2019-07-25T06:53:52.000Z</time>
      </trkpt>
      <trkpt lat="43.74549" lon="7.1437">
        <ele>368.79998779297</ele>
        <time>2019-07-25T06:53:54.000Z</time>
      </trkpt>
      <trkpt lat="43.74556" lon="7.14368">
        <ele>369.60000610352</ele>
        <time>2019-07-25T06:53:59.000Z</time>
      </trkpt>
      <trkpt lat="43.74557" lon="7.14366">
        <ele>370</ele>
        <time>2019-07-25T06:54:01.000Z</time>
      </trkpt>
      <trkpt lat="43.74558" lon="7.1436">
        <ele>370.39999389648</ele>
        <time>2019-07-25T06:54:04.000Z</time>
      </trkpt>
      <trkpt lat="43.74559" lon="7.14355">
        <ele>370.79998779297</ele>
        <time>2019-07-25T06:54:07.000Z</time>
      </trkpt>
      <trkpt lat="43.74559" lon="7.14347">
        <ele>371.60000610352</ele>
        <time>2019-07-25T06:54:12.000Z</time>
      </trkpt>
      <trkpt lat="43.74559" lon="7.14345">
        <ele>371.79998779297</ele>
        <time>2019-07-25T06:54:13.000Z</time>
      </trkpt>
      <trkpt lat="43.7456" lon="7.14338">
        <ele>373.20001220703</ele>
        <time>2019-07-25T06:54:18.000Z</time>
      </trkpt>
      <trkpt lat="43.74558" lon="7.14335">
        <ele>373.60000610352</ele>
        <time>2019-07-25T06:54:20.000Z</time>
      </trkpt>
      <trkpt lat="43.74558" lon="7.14329">
        <ele>374.20001220703</ele>
        <time>2019-07-25T06:54:23.000Z</time>
      </trkpt>
      <trkpt lat="43.74559" lon="7.14326">
        <ele>374.79998779297</ele>
        <time>2019-07-25T06:54:26.000Z</time>
      </trkpt>
      <trkpt lat="43.7456" lon="7.14324">
        <ele>375.20001220703</ele>
        <time>2019-07-25T06:54:28.000Z</time>
      </trkpt>
      <trkpt lat="43.74561" lon="7.14317">
        <ele>376</ele>
        <time>2019-07-25T06:54:32.000Z</time>
      </trkpt>
      <trkpt lat="43.74561" lon="7.14315">
        <ele>376.60000610352</ele>
        <time>2019-07-25T06:54:34.000Z</time>
      </trkpt>
      <trkpt lat="43.74561" lon="7.14312">
        <ele>377</ele>
        <time>2019-07-25T06:54:36.000Z</time>
      </trkpt>
      <trkpt lat="43.7456" lon="7.14309">
        <ele>377.39999389648</ele>
        <time>2019-07-25T06:54:38.000Z</time>
      </trkpt>
      <trkpt lat="43.74559" lon="7.14307">
        <ele>377.60000610352</ele>
        <time>2019-07-25T06:54:39.000Z</time>
      </trkpt>
      <trkpt lat="43.74558" lon="7.14299">
        <ele>378.79998779297</ele>
        <time>2019-07-25T06:54:44.000Z</time>
      </trkpt>
      <trkpt lat="43.74561" lon="7.14304">
        <ele>379.79998779297</ele>
        <time>2019-07-25T06:54:48.000Z</time>
      </trkpt>
      <trkpt lat="43.74562" lon="7.14306">
        <ele>380</ele>
        <time>2019-07-25T06:54:49.000Z</time>
      </trkpt>
      <trkpt lat="43.74564" lon="7.14308">
        <ele>380</ele>
        <time>2019-07-25T06:54:51.000Z</time>
      </trkpt>
      <trkpt lat="43.74567" lon="7.14317">
        <ele>380.20001220703</ele>
        <time>2019-07-25T06:54:56.000Z</time>
      </trkpt>
      <trkpt lat="43.7457" lon="7.14325">
        <ele>381</ele>
        <time>2019-07-25T06:55:01.000Z</time>
      </trkpt>
      <trkpt lat="43.74574" lon="7.14333">
        <ele>381.79998779297</ele>
        <time>2019-07-25T06:55:06.000Z</time>
      </trkpt>
      <trkpt lat="43.74575" lon="7.14336">
        <ele>382.20001220703</ele>
        <time>2019-07-25T06:55:08.000Z</time>
      </trkpt>
      <trkpt lat="43.74578" lon="7.14344">
        <ele>383</ele>
        <time>2019-07-25T06:55:13.000Z</time>
      </trkpt>
      <trkpt lat="43.74579" lon="7.14346">
        <ele>383.20001220703</ele>
        <time>2019-07-25T06:55:14.000Z</time>
      </trkpt>
      <trkpt lat="43.74582" lon="7.14354">
        <ele>384</ele>
        <time>2019-07-25T06:55:19.000Z</time>
      </trkpt>
      <trkpt lat="43.74583" lon="7.14356">
        <ele>384.20001220703</ele>
        <time>2019-07-25T06:55:20.000Z</time>
      </trkpt>
      <trkpt lat="43.7459" lon="7.14369">
        <ele>385.39999389648</ele>
        <time>2019-07-25T06:55:27.000Z</time>
      </trkpt>
      <trkpt lat="43.74599" lon="7.14387">
        <ele>385.20001220703</ele>
        <time>2019-07-25T06:55:33.000Z</time>
      </trkpt>
      <trkpt lat="43.74617" lon="7.14415">
        <ele>384.79998779297</ele>
        <time>2019-07-25T06:55:41.000Z</time>
      </trkpt>
      <trkpt lat="43.74638" lon="7.14425">
        <ele>384.20001220703</ele>
        <time>2019-07-25T06:55:47.000Z</time>
      </trkpt>
      <trkpt lat="43.74665" lon="7.14433">
        <ele>383.79998779297</ele>
        <time>2019-07-25T06:55:54.000Z</time>
      </trkpt>
      <trkpt lat="43.74692" lon="7.14453">
        <ele>384.20001220703</ele>
        <time>2019-07-25T06:56:02.000Z</time>
      </trkpt>
      <trkpt lat="43.74714" lon="7.14469">
        <ele>385.20001220703</ele>
        <time>2019-07-25T06:56:09.000Z</time>
      </trkpt>
      <trkpt lat="43.74716" lon="7.14471">
        <ele>385.39999389648</ele>
        <time>2019-07-25T06:56:10.000Z</time>
      </trkpt>
      <trkpt lat="43.74734" lon="7.14488">
        <ele>386.20001220703</ele>
        <time>2019-07-25T06:56:17.000Z</time>
      </trkpt>
      <trkpt lat="43.74736" lon="7.1449">
        <ele>386.39999389648</ele>
        <time>2019-07-25T06:56:18.000Z</time>
      </trkpt>
      <trkpt lat="43.74748" lon="7.145">
        <ele>387</ele>
        <time>2019-07-25T06:56:23.000Z</time>
      </trkpt>
      <trkpt lat="43.74759" lon="7.14504">
        <ele>387.60000610352</ele>
        <time>2019-07-25T06:56:27.000Z</time>
      </trkpt>
      <trkpt lat="43.74764" lon="7.14504">
        <ele>387.79998779297</ele>
        <time>2019-07-25T06:56:29.000Z</time>
      </trkpt>
      <trkpt lat="43.74781" lon="7.14499">
        <ele>388.39999389648</ele>
        <time>2019-07-25T06:56:35.000Z</time>
      </trkpt>
      <trkpt lat="43.74786" lon="7.14497">
        <ele>388.60000610352</ele>
        <time>2019-07-25T06:56:37.000Z</time>
      </trkpt>
      <trkpt lat="43.74793" lon="7.14494">
        <ele>389.20001220703</ele>
        <time>2019-07-25T06:56:41.000Z</time>
      </trkpt>
      <trkpt lat="43.74796" lon="7.14493">
        <ele>389.79998779297</ele>
        <time>2019-07-25T06:56:43.000Z</time>
      </trkpt>
      <trkpt lat="43.74804" lon="7.14489">
        <ele>390.60000610352</ele>
        <time>2019-07-25T06:56:48.000Z</time>
      </trkpt>
      <trkpt lat="43.74806" lon="7.14488">
        <ele>391</ele>
        <time>2019-07-25T06:56:49.000Z</time>
      </trkpt>
      <trkpt lat="43.74811" lon="7.14486">
        <ele>392</ele>
        <time>2019-07-25T06:56:53.000Z</time>
      </trkpt>
      <trkpt lat="43.74814" lon="7.14485">
        <ele>392.79998779297</ele>
        <time>2019-07-25T06:56:55.000Z</time>
      </trkpt>
      <trkpt lat="43.74817" lon="7.14485">
        <ele>393.20001220703</ele>
        <time>2019-07-25T06:56:57.000Z</time>
      </trkpt>
      <trkpt lat="43.74826" lon="7.14482">
        <ele>394.39999389648</ele>
        <time>2019-07-25T06:57:02.000Z</time>
      </trkpt>
      <trkpt lat="43.7483" lon="7.14481">
        <ele>395.20001220703</ele>
        <time>2019-07-25T06:57:05.000Z</time>
      </trkpt>
      <trkpt lat="43.74831" lon="7.14481">
        <ele>395.39999389648</ele>
        <time>2019-07-25T06:57:06.000Z</time>
      </trkpt>
      <trkpt lat="43.74839" lon="7.14479">
        <ele>396.39999389648</ele>
        <time>2019-07-25T06:57:11.000Z</time>
      </trkpt>
      <trkpt lat="43.74848" lon="7.14478">
        <ele>397.60000610352</ele>
        <time>2019-07-25T06:57:17.000Z</time>
      </trkpt>
      <trkpt lat="43.74849" lon="7.14478">
        <ele>397.79998779297</ele>
        <time>2019-07-25T06:57:18.000Z</time>
      </trkpt>
      <trkpt lat="43.74855" lon="7.14476">
        <ele>398.60000610352</ele>
        <time>2019-07-25T06:57:22.000Z</time>
      </trkpt>
      <trkpt lat="43.7486" lon="7.14475">
        <ele>399.20001220703</ele>
        <time>2019-07-25T06:57:25.000Z</time>
      </trkpt>
      <trkpt lat="43.74864" lon="7.14473">
        <ele>399.79998779297</ele>
        <time>2019-07-25T06:57:28.000Z</time>
      </trkpt>
      <trkpt lat="43.74871" lon="7.1447">
        <ele>400.60000610352</ele>
        <time>2019-07-25T06:57:32.000Z</time>
      </trkpt>
      <trkpt lat="43.74875" lon="7.14469">
        <ele>400.79998779297</ele>
        <time>2019-07-25T06:57:34.000Z</time>
      </trkpt>
      <trkpt lat="43.74878" lon="7.14468">
        <ele>401.39999389648</ele>
        <time>2019-07-25T06:57:37.000Z</time>
      </trkpt>
      <trkpt lat="43.7488" lon="7.14466">
        <ele>401.79998779297</ele>
        <time>2019-07-25T06:57:39.000Z</time>
      </trkpt>
      <trkpt lat="43.74882" lon="7.14465">
        <ele>402</ele>
        <time>2019-07-25T06:57:40.000Z</time>
      </trkpt>
      <trkpt lat="43.7489" lon="7.14463">
        <ele>402.79998779297</ele>
        <time>2019-07-25T06:57:46.000Z</time>
      </trkpt>
      <trkpt lat="43.74891" lon="7.14463">
        <ele>403</ele>
        <time>2019-07-25T06:57:47.000Z</time>
      </trkpt>
      <trkpt lat="43.74895" lon="7.14462">
        <ele>403.39999389648</ele>
        <time>2019-07-25T06:57:50.000Z</time>
      </trkpt>
      <trkpt lat="43.74899" lon="7.14461">
        <ele>404</ele>
        <time>2019-07-25T06:57:53.000Z</time>
      </trkpt>
      <trkpt lat="43.74908" lon="7.14461">
        <ele>405</ele>
        <time>2019-07-25T06:57:59.000Z</time>
      </trkpt>
      <trkpt lat="43.74909" lon="7.14461">
        <ele>405.20001220703</ele>
        <time>2019-07-25T06:58:00.000Z</time>
      </trkpt>
      <trkpt lat="43.74916" lon="7.14463">
        <ele>406</ele>
        <time>2019-07-25T06:58:05.000Z</time>
      </trkpt>
      <trkpt lat="43.74917" lon="7.14463">
        <ele>406.20001220703</ele>
        <time>2019-07-25T06:58:06.000Z</time>
      </trkpt>
      <trkpt lat="43.74926" lon="7.14466">
        <ele>407.20001220703</ele>
        <time>2019-07-25T06:58:12.000Z</time>
      </trkpt>
      <trkpt lat="43.7493" lon="7.14467">
        <ele>407.60000610352</ele>
        <time>2019-07-25T06:58:15.000Z</time>
      </trkpt>
      <trkpt lat="43.74936" lon="7.14469">
        <ele>408.20001220703</ele>
        <time>2019-07-25T06:58:19.000Z</time>
      </trkpt>
      <trkpt lat="43.74938" lon="7.1447">
        <ele>408.60000610352</ele>
        <time>2019-07-25T06:58:21.000Z</time>
      </trkpt>
      <trkpt lat="43.74945" lon="7.14471">
        <ele>409.39999389648</ele>
        <time>2019-07-25T06:58:26.000Z</time>
      </trkpt>
      <trkpt lat="43.74948" lon="7.14472">
        <ele>409.79998779297</ele>
        <time>2019-07-25T06:58:28.000Z</time>
      </trkpt>
      <trkpt lat="43.74953" lon="7.14474">
        <ele>410.39999389648</ele>
        <time>2019-07-25T06:58:32.000Z</time>
      </trkpt>
      <trkpt lat="43.74959" lon="7.14476">
        <ele>411.39999389648</ele>
        <time>2019-07-25T06:58:37.000Z</time>
      </trkpt>
      <trkpt lat="43.7496" lon="7.14477">
        <ele>411.60000610352</ele>
        <time>2019-07-25T06:58:38.000Z</time>
      </trkpt>
      <trkpt lat="43.74966" lon="7.14481">
        <ele>412.60000610352</ele>
        <time>2019-07-25T06:58:43.000Z</time>
      </trkpt>
      <trkpt lat="43.74971" lon="7.1448">
        <ele>413.20001220703</ele>
        <time>2019-07-25T06:58:46.000Z</time>
      </trkpt>
      <trkpt lat="43.74977" lon="7.14471">
        <ele>413.60000610352</ele>
        <time>2019-07-25T06:58:51.000Z</time>
      </trkpt>
      <trkpt lat="43.74985" lon="7.14454">
        <ele>414.39999389648</ele>
        <time>2019-07-25T06:58:59.000Z</time>
      </trkpt>
      <trkpt lat="43.74987" lon="7.14451">
        <ele>414.79998779297</ele>
        <time>2019-07-25T06:59:01.000Z</time>
      </trkpt>
      <trkpt lat="43.74992" lon="7.14446">
        <ele>415.79998779297</ele>
        <time>2019-07-25T06:59:05.000Z</time>
      </trkpt>
      <trkpt lat="43.74999" lon="7.14443">
        <ele>417</ele>
        <time>2019-07-25T06:59:10.000Z</time>
      </trkpt>
      <trkpt lat="43.75002" lon="7.14442">
        <ele>417.39999389648</ele>
        <time>2019-07-25T06:59:12.000Z</time>
      </trkpt>
      <trkpt lat="43.75007" lon="7.14442">
        <ele>418</ele>
        <time>2019-07-25T06:59:15.000Z</time>
      </trkpt>
      <trkpt lat="43.75015" lon="7.14442">
        <ele>419</ele>
        <time>2019-07-25T06:59:20.000Z</time>
      </trkpt>
      <trkpt lat="43.75023" lon="7.14445">
        <ele>420.20001220703</ele>
        <time>2019-07-25T06:59:26.000Z</time>
      </trkpt>
      <trkpt lat="43.75024" lon="7.14445">
        <ele>420.20001220703</ele>
        <time>2019-07-25T06:59:27.000Z</time>
      </trkpt>
      <trkpt lat="43.75025" lon="7.14444">
        <ele>420.39999389648</ele>
        <time>2019-07-25T06:59:28.000Z</time>
      </trkpt>
      <trkpt lat="43.75026" lon="7.14439">
        <ele>420.79998779297</ele>
        <time>2019-07-25T06:59:31.000Z</time>
      </trkpt>
      <trkpt lat="43.75027" lon="7.14434">
        <ele>421.20001220703</ele>
        <time>2019-07-25T06:59:33.000Z</time>
      </trkpt>
      <trkpt lat="43.75027" lon="7.14432">
        <ele>421.20001220703</ele>
        <time>2019-07-25T06:59:34.000Z</time>
      </trkpt>
      <trkpt lat="43.75032" lon="7.14422">
        <ele>422.20001220703</ele>
        <time>2019-07-25T06:59:40.000Z</time>
      </trkpt>
      <trkpt lat="43.75034" lon="7.14421">
        <ele>422.39999389648</ele>
        <time>2019-07-25T06:59:41.000Z</time>
      </trkpt>
      <trkpt lat="43.75037" lon="7.14425">
        <ele>422.79998779297</ele>
        <time>2019-07-25T06:59:44.000Z</time>
      </trkpt>
      <trkpt lat="43.75039" lon="7.14431">
        <ele>423.39999389648</ele>
        <time>2019-07-25T06:59:47.000Z</time>
      </trkpt>
      <trkpt lat="43.75039" lon="7.14438">
        <ele>423.79998779297</ele>
        <time>2019-07-25T06:59:50.000Z</time>
      </trkpt>
      <trkpt lat="43.75039" lon="7.1445">
        <ele>424.60000610352</ele>
        <time>2019-07-25T06:59:56.000Z</time>
      </trkpt>
      <trkpt lat="43.75039" lon="7.14453">
        <ele>424.79998779297</ele>
        <time>2019-07-25T06:59:57.000Z</time>
      </trkpt>
      <trkpt lat="43.75039" lon="7.14455">
        <ele>425</ele>
        <time>2019-07-25T06:59:58.000Z</time>
      </trkpt>
      <trkpt lat="43.75037" lon="7.14464">
        <ele>425.39999389648</ele>
        <time>2019-07-25T07:00:03.000Z</time>
      </trkpt>
      <trkpt lat="43.75036" lon="7.1447">
        <ele>425.60000610352</ele>
        <time>2019-07-25T07:00:06.000Z</time>
      </trkpt>
      <trkpt lat="43.75036" lon="7.14479">
        <ele>426.20001220703</ele>
        <time>2019-07-25T07:00:11.000Z</time>
      </trkpt>
      <trkpt lat="43.75035" lon="7.14483">
        <ele>426.60000610352</ele>
        <time>2019-07-25T07:00:13.000Z</time>
      </trkpt>
      <trkpt lat="43.75035" lon="7.14495">
        <ele>427.39999389648</ele>
        <time>2019-07-25T07:00:19.000Z</time>
      </trkpt>
      <trkpt lat="43.75035" lon="7.14499">
        <ele>427.60000610352</ele>
        <time>2019-07-25T07:00:21.000Z</time>
      </trkpt>
      <trkpt lat="43.75035" lon="7.14511">
        <ele>428.60000610352</ele>
        <time>2019-07-25T07:00:27.000Z</time>
      </trkpt>
      <trkpt lat="43.75036" lon="7.14514">
        <ele>428.79998779297</ele>
        <time>2019-07-25T07:00:29.000Z</time>
      </trkpt>
      <trkpt lat="43.75037" lon="7.14524">
        <ele>429.60000610352</ele>
        <time>2019-07-25T07:00:34.000Z</time>
      </trkpt>
      <trkpt lat="43.75037" lon="7.14525">
        <ele>429.79998779297</ele>
        <time>2019-07-25T07:00:35.000Z</time>
      </trkpt>
      <trkpt lat="43.75037" lon="7.14539">
        <ele>430.60000610352</ele>
        <time>2019-07-25T07:00:42.000Z</time>
      </trkpt>
      <trkpt lat="43.75037" lon="7.14544">
        <ele>431</ele>
        <time>2019-07-25T07:00:44.000Z</time>
      </trkpt>
      <trkpt lat="43.75036" lon="7.14555">
        <ele>431.20001220703</ele>
        <time>2019-07-25T07:00:49.000Z</time>
      </trkpt>
      <trkpt lat="43.75037" lon="7.14575">
        <ele>431.39999389648</ele>
        <time>2019-07-25T07:00:56.000Z</time>
      </trkpt>
      <trkpt lat="43.75041" lon="7.1459">
        <ele>432</ele>
        <time>2019-07-25T07:01:02.000Z</time>
      </trkpt>
      <trkpt lat="43.75042" lon="7.14595">
        <ele>432.60000610352</ele>
        <time>2019-07-25T07:01:04.000Z</time>
      </trkpt>
      <trkpt lat="43.75042" lon="7.14601">
        <ele>433.20001220703</ele>
        <time>2019-07-25T07:01:07.000Z</time>
      </trkpt>
      <trkpt lat="43.75041" lon="7.14606">
        <ele>433.60000610352</ele>
        <time>2019-07-25T07:01:09.000Z</time>
      </trkpt>
      <trkpt lat="43.75041" lon="7.14608">
        <ele>433.79998779297</ele>
        <time>2019-07-25T07:01:10.000Z</time>
      </trkpt>
      <trkpt lat="43.75039" lon="7.14614">
        <ele>434.20001220703</ele>
        <time>2019-07-25T07:01:13.000Z</time>
      </trkpt>
      <trkpt lat="43.75038" lon="7.14616">
        <ele>434.20001220703</ele>
        <time>2019-07-25T07:01:14.000Z</time>
      </trkpt>
      <trkpt lat="43.75038" lon="7.14623">
        <ele>434.79998779297</ele>
        <time>2019-07-25T07:01:18.000Z</time>
      </trkpt>
      <trkpt lat="43.75042" lon="7.14626">
        <ele>435.20001220703</ele>
        <time>2019-07-25T07:01:22.000Z</time>
      </trkpt>
      <trkpt lat="43.75043" lon="7.14627">
        <ele>435.39999389648</ele>
        <time>2019-07-25T07:01:23.000Z</time>
      </trkpt>
      <trkpt lat="43.75045" lon="7.1463">
        <ele>435.79998779297</ele>
        <time>2019-07-25T07:01:25.000Z</time>
      </trkpt>
      <trkpt lat="43.75046" lon="7.14633">
        <ele>436.39999389648</ele>
        <time>2019-07-25T07:01:28.000Z</time>
      </trkpt>
      <trkpt lat="43.75047" lon="7.14635">
        <ele>436.60000610352</ele>
        <time>2019-07-25T07:01:30.000Z</time>
      </trkpt>
      <trkpt lat="43.7505" lon="7.14639">
        <ele>437</ele>
        <time>2019-07-25T07:01:33.000Z</time>
      </trkpt>
      <trkpt lat="43.75052" lon="7.1464">
        <ele>437.39999389648</ele>
        <time>2019-07-25T07:01:35.000Z</time>
      </trkpt>
      <trkpt lat="43.75052" lon="7.14642">
        <ele>437.39999389648</ele>
        <time>2019-07-25T07:01:36.000Z</time>
      </trkpt>
      <trkpt lat="43.75053" lon="7.14644">
        <ele>437.79998779297</ele>
        <time>2019-07-25T07:01:38.000Z</time>
      </trkpt>
      <trkpt lat="43.75055" lon="7.14648">
        <ele>438.39999389648</ele>
        <time>2019-07-25T07:01:41.000Z</time>
      </trkpt>
      <trkpt lat="43.75057" lon="7.14651">
        <ele>439</ele>
        <time>2019-07-25T07:01:44.000Z</time>
      </trkpt>
      <trkpt lat="43.75059" lon="7.14654">
        <ele>439.60000610352</ele>
        <time>2019-07-25T07:01:47.000Z</time>
      </trkpt>
      <trkpt lat="43.7506" lon="7.14655">
        <ele>440</ele>
        <time>2019-07-25T07:01:49.000Z</time>
      </trkpt>
      <trkpt lat="43.75061" lon="7.14657">
        <ele>440.20001220703</ele>
        <time>2019-07-25T07:01:50.000Z</time>
      </trkpt>
      <trkpt lat="43.75063" lon="7.1466">
        <ele>440.60000610352</ele>
        <time>2019-07-25T07:01:53.000Z</time>
      </trkpt>
      <trkpt lat="43.75064" lon="7.14662">
        <ele>441</ele>
        <time>2019-07-25T07:01:55.000Z</time>
      </trkpt>
      <trkpt lat="43.75065" lon="7.14661">
        <ele>441</ele>
        <time>2019-07-25T07:01:56.000Z</time>
      </trkpt>
      <trkpt lat="43.75069" lon="7.14659">
        <ele>441.79998779297</ele>
        <time>2019-07-25T07:02:00.000Z</time>
      </trkpt>
      <trkpt lat="43.75073" lon="7.14655">
        <ele>442.60000610352</ele>
        <time>2019-07-25T07:02:04.000Z</time>
      </trkpt>
      <trkpt lat="43.75074" lon="7.14652">
        <ele>442.79998779297</ele>
        <time>2019-07-25T07:02:06.000Z</time>
      </trkpt>
      <trkpt lat="43.75074" lon="7.14651">
        <ele>443</ele>
        <time>2019-07-25T07:02:07.000Z</time>
      </trkpt>
      <trkpt lat="43.75077" lon="7.14646">
        <ele>443.79998779297</ele>
        <time>2019-07-25T07:02:12.000Z</time>
      </trkpt>
      <trkpt lat="43.75078" lon="7.14645">
        <ele>444</ele>
        <time>2019-07-25T07:02:13.000Z</time>
      </trkpt>
      <trkpt lat="43.75079" lon="7.14642">
        <ele>444.20001220703</ele>
        <time>2019-07-25T07:02:15.000Z</time>
      </trkpt>
      <trkpt lat="43.75081" lon="7.14638">
        <ele>445</ele>
        <time>2019-07-25T07:02:19.000Z</time>
      </trkpt>
      <trkpt lat="43.75084" lon="7.14634">
        <ele>445.60000610352</ele>
        <time>2019-07-25T07:02:23.000Z</time>
      </trkpt>
      <trkpt lat="43.75086" lon="7.14633">
        <ele>446</ele>
        <time>2019-07-25T07:02:25.000Z</time>
      </trkpt>
      <trkpt lat="43.7509" lon="7.1463">
        <ele>446.79998779297</ele>
        <time>2019-07-25T07:02:29.000Z</time>
      </trkpt>
      <trkpt lat="43.75092" lon="7.14629">
        <ele>447.20001220703</ele>
        <time>2019-07-25T07:02:31.000Z</time>
      </trkpt>
      <trkpt lat="43.75095" lon="7.14629">
        <ele>448.20001220703</ele>
        <time>2019-07-25T07:02:35.000Z</time>
      </trkpt>
      <trkpt lat="43.75096" lon="7.14629">
        <ele>448.60000610352</ele>
        <time>2019-07-25T07:02:36.000Z</time>
      </trkpt>
      <trkpt lat="43.75097" lon="7.1463">
        <ele>448.79998779297</ele>
        <time>2019-07-25T07:02:37.000Z</time>
      </trkpt>
      <trkpt lat="43.75098" lon="7.14629">
        <ele>449.39999389648</ele>
        <time>2019-07-25T07:02:39.000Z</time>
      </trkpt>
      <trkpt lat="43.75099" lon="7.14628">
        <ele>449.60000610352</ele>
        <time>2019-07-25T07:02:40.000Z</time>
      </trkpt>
      <trkpt lat="43.75099" lon="7.14627">
        <ele>449.60000610352</ele>
        <time>2019-07-25T07:02:41.000Z</time>
      </trkpt>
      <trkpt lat="43.75102" lon="7.14622">
        <ele>450.39999389648</ele>
        <time>2019-07-25T07:02:44.000Z</time>
      </trkpt>
      <trkpt lat="43.75104" lon="7.14623">
        <ele>451</ele>
        <time>2019-07-25T07:02:46.000Z</time>
      </trkpt>
      <trkpt lat="43.75105" lon="7.14622">
        <ele>451.60000610352</ele>
        <time>2019-07-25T07:02:48.000Z</time>
      </trkpt>
      <trkpt lat="43.75106" lon="7.1462">
        <ele>451.79998779297</ele>
        <time>2019-07-25T07:02:49.000Z</time>
      </trkpt>
      <trkpt lat="43.75108" lon="7.14616">
        <ele>452.60000610352</ele>
        <time>2019-07-25T07:02:52.000Z</time>
      </trkpt>
      <trkpt lat="43.75109" lon="7.14616">
        <ele>452.79998779297</ele>
        <time>2019-07-25T07:02:53.000Z</time>
      </trkpt>
      <trkpt lat="43.75112" lon="7.14615">
        <ele>453.79998779297</ele>
        <time>2019-07-25T07:02:57.000Z</time>
      </trkpt>
      <trkpt lat="43.75113" lon="7.14614">
        <ele>454</ele>
        <time>2019-07-25T07:02:58.000Z</time>
      </trkpt>
      <trkpt lat="43.75118" lon="7.14608">
        <ele>455</ele>
        <time>2019-07-25T07:03:05.000Z</time>
      </trkpt>
      <trkpt lat="43.75123" lon="7.14603">
        <ele>456.20001220703</ele>
        <time>2019-07-25T07:03:11.000Z</time>
      </trkpt>
      <trkpt lat="43.75128" lon="7.14591">
        <ele>457.20001220703</ele>
        <time>2019-07-25T07:03:20.000Z</time>
      </trkpt>
      <trkpt lat="43.75132" lon="7.1458">
        <ele>458.39999389648</ele>
        <time>2019-07-25T07:03:28.000Z</time>
      </trkpt>
      <trkpt lat="43.75132" lon="7.14577">
        <ele>458.79998779297</ele>
        <time>2019-07-25T07:03:30.000Z</time>
      </trkpt>
      <trkpt lat="43.75136" lon="7.14569">
        <ele>459.39999389648</ele>
        <time>2019-07-25T07:03:36.000Z</time>
      </trkpt>
      <trkpt lat="43.75137" lon="7.14567">
        <ele>459.60000610352</ele>
        <time>2019-07-25T07:03:37.000Z</time>
      </trkpt>
      <trkpt lat="43.7514" lon="7.14562">
        <ele>460.20001220703</ele>
        <time>2019-07-25T07:03:42.000Z</time>
      </trkpt>
      <trkpt lat="43.75141" lon="7.1456">
        <ele>460.39999389648</ele>
        <time>2019-07-25T07:03:43.000Z</time>
      </trkpt>
      <trkpt lat="43.75142" lon="7.14559">
        <ele>460.79998779297</ele>
        <time>2019-07-25T07:03:44.000Z</time>
      </trkpt>
      <trkpt lat="43.75142" lon="7.14556">
        <ele>461.20001220703</ele>
        <time>2019-07-25T07:03:46.000Z</time>
      </trkpt>
      <trkpt lat="43.75143" lon="7.14552">
        <ele>461.60000610352</ele>
        <time>2019-07-25T07:03:49.000Z</time>
      </trkpt>
      <trkpt lat="43.75143" lon="7.1455">
        <ele>461.79998779297</ele>
        <time>2019-07-25T07:03:50.000Z</time>
      </trkpt>
      <trkpt lat="43.75147" lon="7.14543">
        <ele>462.79998779297</ele>
        <time>2019-07-25T07:03:56.000Z</time>
      </trkpt>
      <trkpt lat="43.7515" lon="7.14539">
        <ele>463.79998779297</ele>
        <time>2019-07-25T07:04:00.000Z</time>
      </trkpt>
      <trkpt lat="43.75151" lon="7.14538">
        <ele>464</ele>
        <time>2019-07-25T07:04:01.000Z</time>
      </trkpt>
      <trkpt lat="43.75151" lon="7.14538">
        <ele>464.20001220703</ele>
        <time>2019-07-25T07:04:02.000Z</time>
      </trkpt>
      <trkpt lat="43.75152" lon="7.14534">
        <ele>465</ele>
        <time>2019-07-25T07:04:06.000Z</time>
      </trkpt>
      <trkpt lat="43.75153" lon="7.1453">
        <ele>465.60000610352</ele>
        <time>2019-07-25T07:04:09.000Z</time>
      </trkpt>
      <trkpt lat="43.75156" lon="7.14528">
        <ele>466.20001220703</ele>
        <time>2019-07-25T07:04:12.000Z</time>
      </trkpt>
      <trkpt lat="43.75157" lon="7.14526">
        <ele>466.79998779297</ele>
        <time>2019-07-25T07:04:15.000Z</time>
      </trkpt>
      <trkpt lat="43.75157" lon="7.14522">
        <ele>467.39999389648</ele>
        <time>2019-07-25T07:04:18.000Z</time>
      </trkpt>
      <trkpt lat="43.75159" lon="7.1452">
        <ele>467.79998779297</ele>
        <time>2019-07-25T07:04:20.000Z</time>
      </trkpt>
      <trkpt lat="43.75159" lon="7.1452">
        <ele>468</ele>
        <time>2019-07-25T07:04:21.000Z</time>
      </trkpt>
      <trkpt lat="43.7516" lon="7.14518">
        <ele>468.39999389648</ele>
        <time>2019-07-25T07:04:23.000Z</time>
      </trkpt>
      <trkpt lat="43.75161" lon="7.14515">
        <ele>469</ele>
        <time>2019-07-25T07:04:27.000Z</time>
      </trkpt>
      <trkpt lat="43.75163" lon="7.14513">
        <ele>469.39999389648</ele>
        <time>2019-07-25T07:04:29.000Z</time>
      </trkpt>
      <trkpt lat="43.75167" lon="7.14513">
        <ele>470.20001220703</ele>
        <time>2019-07-25T07:04:32.000Z</time>
      </trkpt>
      <trkpt lat="43.75168" lon="7.14512">
        <ele>470.60000610352</ele>
        <time>2019-07-25T07:04:33.000Z</time>
      </trkpt>
      <trkpt lat="43.75168" lon="7.1451">
        <ele>471</ele>
        <time>2019-07-25T07:04:35.000Z</time>
      </trkpt>
      <trkpt lat="43.75168" lon="7.14509">
        <ele>471</ele>
        <time>2019-07-25T07:04:36.000Z</time>
      </trkpt>
      <trkpt lat="43.7517" lon="7.14506">
        <ele>471.60000610352</ele>
        <time>2019-07-25T07:04:38.000Z</time>
      </trkpt>
      <trkpt lat="43.75171" lon="7.14506">
        <ele>471.79998779297</ele>
        <time>2019-07-25T07:04:39.000Z</time>
      </trkpt>
      <trkpt lat="43.75171" lon="7.14506">
        <ele>472</ele>
        <time>2019-07-25T07:04:40.000Z</time>
      </trkpt>
      <trkpt lat="43.75173" lon="7.14503">
        <ele>472.60000610352</ele>
        <time>2019-07-25T07:04:43.000Z</time>
      </trkpt>
      <trkpt lat="43.75173" lon="7.14501">
        <ele>473</ele>
        <time>2019-07-25T07:04:44.000Z</time>
      </trkpt>
      <trkpt lat="43.75173" lon="7.14499">
        <ele>473</ele>
        <time>2019-07-25T07:04:45.000Z</time>
      </trkpt>
      <trkpt lat="43.75176" lon="7.14494">
        <ele>474</ele>
        <time>2019-07-25T07:04:50.000Z</time>
      </trkpt>
      <trkpt lat="43.75178" lon="7.14488">
        <ele>475</ele>
        <time>2019-07-25T07:04:55.000Z</time>
      </trkpt>
      <trkpt lat="43.75178" lon="7.14486">
        <ele>475.60000610352</ele>
        <time>2019-07-25T07:04:57.000Z</time>
      </trkpt>
      <trkpt lat="43.75179" lon="7.14484">
        <ele>476.20001220703</ele>
        <time>2019-07-25T07:05:00.000Z</time>
      </trkpt>
      <trkpt lat="43.75181" lon="7.14481">
        <ele>476.79998779297</ele>
        <time>2019-07-25T07:05:03.000Z</time>
      </trkpt>
      <trkpt lat="43.75181" lon="7.1448">
        <ele>477.20001220703</ele>
        <time>2019-07-25T07:05:05.000Z</time>
      </trkpt>
      <trkpt lat="43.75181" lon="7.14473">
        <ele>478.39999389648</ele>
        <time>2019-07-25T07:05:10.000Z</time>
      </trkpt>
      <trkpt lat="43.75182" lon="7.14472">
        <ele>478.60000610352</ele>
        <time>2019-07-25T07:05:11.000Z</time>
      </trkpt>
      <trkpt lat="43.75184" lon="7.14466">
        <ele>479.39999389648</ele>
        <time>2019-07-25T07:05:16.000Z</time>
      </trkpt>
      <trkpt lat="43.75185" lon="7.14465">
        <ele>479.60000610352</ele>
        <time>2019-07-25T07:05:17.000Z</time>
      </trkpt>
      <trkpt lat="43.75186" lon="7.14453">
        <ele>480.20001220703</ele>
        <time>2019-07-25T07:05:24.000Z</time>
      </trkpt>
      <trkpt lat="43.75187" lon="7.14451">
        <ele>480.60000610352</ele>
        <time>2019-07-25T07:05:25.000Z</time>
      </trkpt>
      <trkpt lat="43.75187" lon="7.14444">
        <ele>481.60000610352</ele>
        <time>2019-07-25T07:05:30.000Z</time>
      </trkpt>
      <trkpt lat="43.75187" lon="7.14442">
        <ele>481.79998779297</ele>
        <time>2019-07-25T07:05:31.000Z</time>
      </trkpt>
      <trkpt lat="43.75189" lon="7.14427">
        <ele>482.39999389648</ele>
        <time>2019-07-25T07:05:39.000Z</time>
      </trkpt>
      <trkpt lat="43.75191" lon="7.1442">
        <ele>482.60000610352</ele>
        <time>2019-07-25T07:05:43.000Z</time>
      </trkpt>
      <trkpt lat="43.75193" lon="7.14415">
        <ele>482.79998779297</ele>
        <time>2019-07-25T07:05:46.000Z</time>
      </trkpt>
      <trkpt lat="43.75198" lon="7.14404">
        <ele>483.60000610352</ele>
        <time>2019-07-25T07:05:53.000Z</time>
      </trkpt>
      <trkpt lat="43.75198" lon="7.14402">
        <ele>483.79998779297</ele>
        <time>2019-07-25T07:05:54.000Z</time>
      </trkpt>
      <trkpt lat="43.75202" lon="7.14395">
        <ele>484.79998779297</ele>
        <time>2019-07-25T07:05:59.000Z</time>
      </trkpt>
      <trkpt lat="43.75203" lon="7.14394">
        <ele>485</ele>
        <time>2019-07-25T07:06:00.000Z</time>
      </trkpt>
      <trkpt lat="43.75207" lon="7.14389">
        <ele>486</ele>
        <time>2019-07-25T07:06:05.000Z</time>
      </trkpt>
      <trkpt lat="43.7521" lon="7.14386">
        <ele>486.60000610352</ele>
        <time>2019-07-25T07:06:08.000Z</time>
      </trkpt>
      <trkpt lat="43.75213" lon="7.14384">
        <ele>487.20001220703</ele>
        <time>2019-07-25T07:06:11.000Z</time>
      </trkpt>
      <trkpt lat="43.75216" lon="7.14381">
        <ele>487.79998779297</ele>
        <time>2019-07-25T07:06:15.000Z</time>
      </trkpt>
      <trkpt lat="43.75219" lon="7.14378">
        <ele>488.39999389648</ele>
        <time>2019-07-25T07:06:18.000Z</time>
      </trkpt>
      <trkpt lat="43.75225" lon="7.14376">
        <ele>488.79998779297</ele>
        <time>2019-07-25T07:06:22.000Z</time>
      </trkpt>
      <trkpt lat="43.75238" lon="7.14368">
        <ele>489</ele>
        <time>2019-07-25T07:06:29.000Z</time>
      </trkpt>
      <trkpt lat="43.75251" lon="7.14351">
        <ele>487.20001220703</ele>
        <time>2019-07-25T07:06:34.000Z</time>
      </trkpt>
      <trkpt lat="43.7525" lon="7.14346">
        <ele>486.79998779297</ele>
        <time>2019-07-25T07:06:35.000Z</time>
      </trkpt>
      <trkpt lat="43.75246" lon="7.1434">
        <ele>486</ele>
        <time>2019-07-25T07:06:37.000Z</time>
      </trkpt>
      <trkpt lat="43.75245" lon="7.14338">
        <ele>485.79998779297</ele>
        <time>2019-07-25T07:06:38.000Z</time>
      </trkpt>
      <trkpt lat="43.75243" lon="7.14337">
        <ele>485.60000610352</ele>
        <time>2019-07-25T07:06:39.000Z</time>
      </trkpt>
      <trkpt lat="43.75237" lon="7.14333">
        <ele>487</ele>
        <time>2019-07-25T07:06:43.000Z</time>
      </trkpt>
      <trkpt lat="43.75235" lon="7.14331">
        <ele>487.20001220703</ele>
        <time>2019-07-25T07:06:44.000Z</time>
      </trkpt>
      <trkpt lat="43.75231" lon="7.14326">
        <ele>488.39999389648</ele>
        <time>2019-07-25T07:06:48.000Z</time>
      </trkpt>
      <trkpt lat="43.7523" lon="7.14322">
        <ele>488.79998779297</ele>
        <time>2019-07-25T07:06:50.000Z</time>
      </trkpt>
      <trkpt lat="43.75227" lon="7.14318">
        <ele>489.39999389648</ele>
        <time>2019-07-25T07:06:53.000Z</time>
      </trkpt>
      <trkpt lat="43.75224" lon="7.14315">
        <ele>489.79998779297</ele>
        <time>2019-07-25T07:06:56.000Z</time>
      </trkpt>
      <trkpt lat="43.75221" lon="7.14311">
        <ele>490.39999389648</ele>
        <time>2019-07-25T07:06:59.000Z</time>
      </trkpt>
      <trkpt lat="43.75211" lon="7.14302">
        <ele>491.39999389648</ele>
        <time>2019-07-25T07:07:06.000Z</time>
      </trkpt>
      <trkpt lat="43.75209" lon="7.14301">
        <ele>491.60000610352</ele>
        <time>2019-07-25T07:07:07.000Z</time>
      </trkpt>
      <trkpt lat="43.75197" lon="7.1429">
        <ele>492</ele>
        <time>2019-07-25T07:07:14.000Z</time>
      </trkpt>
      <trkpt lat="43.75185" lon="7.14277">
        <ele>492.39999389648</ele>
        <time>2019-07-25T07:07:22.000Z</time>
      </trkpt>
      <trkpt lat="43.7518" lon="7.14272">
        <ele>492.60000610352</ele>
        <time>2019-07-25T07:07:25.000Z</time>
      </trkpt>
      <trkpt lat="43.75168" lon="7.14262">
        <ele>492.60000610352</ele>
        <time>2019-07-25T07:07:31.000Z</time>
      </trkpt>
      <trkpt lat="43.75153" lon="7.14246">
        <ele>493</ele>
        <time>2019-07-25T07:07:40.000Z</time>
      </trkpt>
      <trkpt lat="43.75147" lon="7.14239">
        <ele>493.60000610352</ele>
        <time>2019-07-25T07:07:44.000Z</time>
      </trkpt>
      <trkpt lat="43.75144" lon="7.14234">
        <ele>494.39999389648</ele>
        <time>2019-07-25T07:07:47.000Z</time>
      </trkpt>
      <trkpt lat="43.75142" lon="7.14231">
        <ele>494.79998779297</ele>
        <time>2019-07-25T07:07:49.000Z</time>
      </trkpt>
      <trkpt lat="43.75137" lon="7.14225">
        <ele>496.20001220703</ele>
        <time>2019-07-25T07:07:53.000Z</time>
      </trkpt>
      <trkpt lat="43.75135" lon="7.14223">
        <ele>496.60000610352</ele>
        <time>2019-07-25T07:07:55.000Z</time>
      </trkpt>
      <trkpt lat="43.7513" lon="7.14219">
        <ele>497.20001220703</ele>
        <time>2019-07-25T07:07:59.000Z</time>
      </trkpt>
      <trkpt lat="43.75125" lon="7.14215">
        <ele>497.79998779297</ele>
        <time>2019-07-25T07:08:03.000Z</time>
      </trkpt>
      <trkpt lat="43.75114" lon="7.14206">
        <ele>498.20001220703</ele>
        <time>2019-07-25T07:08:11.000Z</time>
      </trkpt>
      <trkpt lat="43.75112" lon="7.14205">
        <ele>498.20001220703</ele>
        <time>2019-07-25T07:08:12.000Z</time>
      </trkpt>
      <trkpt lat="43.75103" lon="7.14196">
        <ele>499.20001220703</ele>
        <time>2019-07-25T07:08:19.000Z</time>
      </trkpt>
      <trkpt lat="43.75102" lon="7.14194">
        <ele>499.39999389648</ele>
        <time>2019-07-25T07:08:20.000Z</time>
      </trkpt>
      <trkpt lat="43.75094" lon="7.14188">
        <ele>500.39999389648</ele>
        <time>2019-07-25T07:08:26.000Z</time>
      </trkpt>
      <trkpt lat="43.75092" lon="7.14187">
        <ele>500.39999389648</ele>
        <time>2019-07-25T07:08:27.000Z</time>
      </trkpt>
      <trkpt lat="43.75077" lon="7.14178">
        <ele>500.79998779297</ele>
        <time>2019-07-25T07:08:35.000Z</time>
      </trkpt>
      <trkpt lat="43.75061" lon="7.14171">
        <ele>500.39999389648</ele>
        <time>2019-07-25T07:08:42.000Z</time>
      </trkpt>
      <trkpt lat="43.75052" lon="7.14168">
        <ele>500.20001220703</ele>
        <time>2019-07-25T07:08:48.000Z</time>
      </trkpt>
      <trkpt lat="43.75052" lon="7.14167">
        <ele>500.20001220703</ele>
        <time>2019-07-25T07:08:49.000Z</time>
      </trkpt>
      <trkpt lat="43.75054" lon="7.14162">
        <ele>500.20001220703</ele>
        <time>2019-07-25T07:08:52.000Z</time>
      </trkpt>
      <trkpt lat="43.75056" lon="7.14162">
        <ele>500.60000610352</ele>
        <time>2019-07-25T07:08:56.000Z</time>
      </trkpt>
      <trkpt lat="43.7506" lon="7.14165">
        <ele>501</ele>
        <time>2019-07-25T07:09:05.000Z</time>
      </trkpt>
      <trkpt lat="43.75063" lon="7.14166">
        <ele>501.39999389648</ele>
        <time>2019-07-25T07:09:07.000Z</time>
      </trkpt>
      <trkpt lat="43.75067" lon="7.14165">
        <ele>502.20001220703</ele>
        <time>2019-07-25T07:09:10.000Z</time>
      </trkpt>
      <trkpt lat="43.75067" lon="7.14165">
        <ele>502.60000610352</ele>
        <time>2019-07-25T07:09:11.000Z</time>
      </trkpt>
      <trkpt lat="43.75072" lon="7.14165">
        <ele>503.39999389648</ele>
        <time>2019-07-25T07:09:16.000Z</time>
      </trkpt>
      <trkpt lat="43.75073" lon="7.14165">
        <ele>503.60000610352</ele>
        <time>2019-07-25T07:09:17.000Z</time>
      </trkpt>
      <trkpt lat="43.75079" lon="7.14167">
        <ele>504.60000610352</ele>
        <time>2019-07-25T07:09:23.000Z</time>
      </trkpt>
      <trkpt lat="43.75086" lon="7.1417">
        <ele>505.79998779297</ele>
        <time>2019-07-25T07:09:30.000Z</time>
      </trkpt>
      <trkpt lat="43.75091" lon="7.14173">
        <ele>506.60000610352</ele>
        <time>2019-07-25T07:09:36.000Z</time>
      </trkpt>
      <trkpt lat="43.75093" lon="7.14174">
        <ele>506.79998779297</ele>
        <time>2019-07-25T07:09:37.000Z</time>
      </trkpt>
      <trkpt lat="43.75099" lon="7.14174">
        <ele>507.79998779297</ele>
        <time>2019-07-25T07:09:42.000Z</time>
      </trkpt>
      <trkpt lat="43.75102" lon="7.14175">
        <ele>508.20001220703</ele>
        <time>2019-07-25T07:09:44.000Z</time>
      </trkpt>
      <trkpt lat="43.75104" lon="7.14177">
        <ele>508.79998779297</ele>
        <time>2019-07-25T07:09:47.000Z</time>
      </trkpt>
      <trkpt lat="43.75107" lon="7.14177">
        <ele>509.20001220703</ele>
        <time>2019-07-25T07:09:49.000Z</time>
      </trkpt>
      <trkpt lat="43.75111" lon="7.14177">
        <ele>510</ele>
        <time>2019-07-25T07:09:53.000Z</time>
      </trkpt>
      <trkpt lat="43.75114" lon="7.14178">
        <ele>510.60000610352</ele>
        <time>2019-07-25T07:09:56.000Z</time>
      </trkpt>
      <trkpt lat="43.75116" lon="7.14178">
        <ele>511</ele>
        <time>2019-07-25T07:09:58.000Z</time>
      </trkpt>
      <trkpt lat="43.75118" lon="7.14179">
        <ele>511.39999389648</ele>
        <time>2019-07-25T07:10:01.000Z</time>
      </trkpt>
      <trkpt lat="43.75126" lon="7.14182">
        <ele>512</ele>
        <time>2019-07-25T07:10:08.000Z</time>
      </trkpt>
      <trkpt lat="43.75128" lon="7.14183">
        <ele>512.20001220703</ele>
        <time>2019-07-25T07:10:10.000Z</time>
      </trkpt>
      <trkpt lat="43.75135" lon="7.14185">
        <ele>513.20001220703</ele>
        <time>2019-07-25T07:10:15.000Z</time>
      </trkpt>
      <trkpt lat="43.75137" lon="7.14186">
        <ele>513.59997558594</ele>
        <time>2019-07-25T07:10:17.000Z</time>
      </trkpt>
      <trkpt lat="43.75141" lon="7.14189">
        <ele>514.20001220703</ele>
        <time>2019-07-25T07:10:21.000Z</time>
      </trkpt>
      <trkpt lat="43.75146" lon="7.1419">
        <ele>514.59997558594</ele>
        <time>2019-07-25T07:10:25.000Z</time>
      </trkpt>
      <trkpt lat="43.75152" lon="7.14194">
        <ele>515</ele>
        <time>2019-07-25T07:10:30.000Z</time>
      </trkpt>
      <trkpt lat="43.75154" lon="7.14195">
        <ele>515</ele>
        <time>2019-07-25T07:10:31.000Z</time>
      </trkpt>
      <trkpt lat="43.75159" lon="7.14198">
        <ele>515.20001220703</ele>
        <time>2019-07-25T07:10:35.000Z</time>
      </trkpt>
      <trkpt lat="43.75164" lon="7.14202">
        <ele>515.40002441406</ele>
        <time>2019-07-25T07:10:39.000Z</time>
      </trkpt>
      <trkpt lat="43.75175" lon="7.14211">
        <ele>516</ele>
        <time>2019-07-25T07:10:48.000Z</time>
      </trkpt>
      <trkpt lat="43.75176" lon="7.14211">
        <ele>516.20001220703</ele>
        <time>2019-07-25T07:10:49.000Z</time>
      </trkpt>
      <trkpt lat="43.75181" lon="7.14211">
        <ele>517.40002441406</ele>
        <time>2019-07-25T07:10:53.000Z</time>
      </trkpt>
      <trkpt lat="43.75182" lon="7.14211">
        <ele>517.59997558594</ele>
        <time>2019-07-25T07:10:54.000Z</time>
      </trkpt>
      <trkpt lat="43.75188" lon="7.14213">
        <ele>518.59997558594</ele>
        <time>2019-07-25T07:10:59.000Z</time>
      </trkpt>
      <trkpt lat="43.75199" lon="7.14221">
        <ele>519.40002441406</ele>
        <time>2019-07-25T07:11:08.000Z</time>
      </trkpt>
      <trkpt lat="43.752" lon="7.14222">
        <ele>519.59997558594</ele>
        <time>2019-07-25T07:11:09.000Z</time>
      </trkpt>
      <trkpt lat="43.75206" lon="7.14227">
        <ele>520.20001220703</ele>
        <time>2019-07-25T07:11:14.000Z</time>
      </trkpt>
      <trkpt lat="43.75211" lon="7.14232">
        <ele>520.79998779297</ele>
        <time>2019-07-25T07:11:19.000Z</time>
      </trkpt>
      <trkpt lat="43.75215" lon="7.14236">
        <ele>521.20001220703</ele>
        <time>2019-07-25T07:11:23.000Z</time>
      </trkpt>
      <trkpt lat="43.75222" lon="7.1424">
        <ele>522</ele>
        <time>2019-07-25T07:11:28.000Z</time>
      </trkpt>
      <trkpt lat="43.75224" lon="7.1424">
        <ele>522.59997558594</ele>
        <time>2019-07-25T07:11:30.000Z</time>
      </trkpt>
      <trkpt lat="43.75226" lon="7.1424">
        <ele>523.20001220703</ele>
        <time>2019-07-25T07:11:32.000Z</time>
      </trkpt>
      <trkpt lat="43.7523" lon="7.1424">
        <ele>523.79998779297</ele>
        <time>2019-07-25T07:11:35.000Z</time>
      </trkpt>
      <trkpt lat="43.75233" lon="7.14241">
        <ele>524.40002441406</ele>
        <time>2019-07-25T07:11:38.000Z</time>
      </trkpt>
      <trkpt lat="43.75234" lon="7.14243">
        <ele>524.59997558594</ele>
        <time>2019-07-25T07:11:39.000Z</time>
      </trkpt>
      <trkpt lat="43.75237" lon="7.14244">
        <ele>525</ele>
        <time>2019-07-25T07:11:42.000Z</time>
      </trkpt>
      <trkpt lat="43.7524" lon="7.14244">
        <ele>525.40002441406</ele>
        <time>2019-07-25T07:11:44.000Z</time>
      </trkpt>
      <trkpt lat="43.75245" lon="7.14245">
        <ele>526.40002441406</ele>
        <time>2019-07-25T07:11:48.000Z</time>
      </trkpt>
      <trkpt lat="43.75246" lon="7.14245">
        <ele>526.40002441406</ele>
        <time>2019-07-25T07:11:49.000Z</time>
      </trkpt>
      <trkpt lat="43.75252" lon="7.14246">
        <ele>527.59997558594</ele>
        <time>2019-07-25T07:11:55.000Z</time>
      </trkpt>
      <trkpt lat="43.75255" lon="7.14246">
        <ele>528</ele>
        <time>2019-07-25T07:11:58.000Z</time>
      </trkpt>
      <trkpt lat="43.75259" lon="7.14247">
        <ele>528.59997558594</ele>
        <time>2019-07-25T07:12:01.000Z</time>
      </trkpt>
      <trkpt lat="43.75263" lon="7.14247">
        <ele>529.59997558594</ele>
        <time>2019-07-25T07:12:05.000Z</time>
      </trkpt>
      <trkpt lat="43.75264" lon="7.14247">
        <ele>529.59997558594</ele>
        <time>2019-07-25T07:12:06.000Z</time>
      </trkpt>
      <trkpt lat="43.7527" lon="7.14249">
        <ele>530.59997558594</ele>
        <time>2019-07-25T07:12:11.000Z</time>
      </trkpt>
      <trkpt lat="43.75271" lon="7.14249">
        <ele>531</ele>
        <time>2019-07-25T07:12:12.000Z</time>
      </trkpt>
      <trkpt lat="43.75275" lon="7.14249">
        <ele>531.59997558594</ele>
        <time>2019-07-25T07:12:15.000Z</time>
      </trkpt>
      <trkpt lat="43.75275" lon="7.14249">
        <ele>531.59997558594</ele>
        <time>2019-07-25T07:12:16.000Z</time>
      </trkpt>
      <trkpt lat="43.75278" lon="7.1425">
        <ele>532</ele>
        <time>2019-07-25T07:12:18.000Z</time>
      </trkpt>
      <trkpt lat="43.7528" lon="7.1425">
        <ele>532.59997558594</ele>
        <time>2019-07-25T07:12:20.000Z</time>
      </trkpt>
      <trkpt lat="43.75283" lon="7.1425">
        <ele>533.20001220703</ele>
        <time>2019-07-25T07:12:23.000Z</time>
      </trkpt>
      <trkpt lat="43.75284" lon="7.1425">
        <ele>533.40002441406</ele>
        <time>2019-07-25T07:12:24.000Z</time>
      </trkpt>
      <trkpt lat="43.75287" lon="7.14251">
        <ele>533.59997558594</ele>
        <time>2019-07-25T07:12:26.000Z</time>
      </trkpt>
      <trkpt lat="43.75289" lon="7.14252">
        <ele>534.20001220703</ele>
        <time>2019-07-25T07:12:29.000Z</time>
      </trkpt>
      <trkpt lat="43.75292" lon="7.14253">
        <ele>534.59997558594</ele>
        <time>2019-07-25T07:12:31.000Z</time>
      </trkpt>
      <trkpt lat="43.75298" lon="7.14257">
        <ele>535</ele>
        <time>2019-07-25T07:12:38.000Z</time>
      </trkpt>
      <trkpt lat="43.753" lon="7.14257">
        <ele>535.40002441406</ele>
        <time>2019-07-25T07:12:40.000Z</time>
      </trkpt>
      <trkpt lat="43.75305" lon="7.14263">
        <ele>536</ele>
        <time>2019-07-25T07:12:46.000Z</time>
      </trkpt>
      <trkpt lat="43.75308" lon="7.14265">
        <ele>536.40002441406</ele>
        <time>2019-07-25T07:12:49.000Z</time>
      </trkpt>
      <trkpt lat="43.75311" lon="7.14271">
        <ele>536.59997558594</ele>
        <time>2019-07-25T07:12:54.000Z</time>
      </trkpt>
      <trkpt lat="43.75317" lon="7.14276">
        <ele>537.40002441406</ele>
        <time>2019-07-25T07:13:00.000Z</time>
      </trkpt>
      <trkpt lat="43.7532" lon="7.14277">
        <ele>537.40002441406</ele>
        <time>2019-07-25T07:13:02.000Z</time>
      </trkpt>
      <trkpt lat="43.75328" lon="7.1428">
        <ele>538.40002441406</ele>
        <time>2019-07-25T07:13:09.000Z</time>
      </trkpt>
      <trkpt lat="43.75329" lon="7.14281">
        <ele>538.40002441406</ele>
        <time>2019-07-25T07:13:10.000Z</time>
      </trkpt>
      <trkpt lat="43.75339" lon="7.14283">
        <ele>539.59997558594</ele>
        <time>2019-07-25T07:13:18.000Z</time>
      </trkpt>
      <trkpt lat="43.75348" lon="7.14286">
        <ele>540.59997558594</ele>
        <time>2019-07-25T07:13:24.000Z</time>
      </trkpt>
      <trkpt lat="43.75353" lon="7.14288">
        <ele>541.59997558594</ele>
        <time>2019-07-25T07:13:28.000Z</time>
      </trkpt>
      <trkpt lat="43.75356" lon="7.14289">
        <ele>542.20001220703</ele>
        <time>2019-07-25T07:13:30.000Z</time>
      </trkpt>
      <trkpt lat="43.75357" lon="7.1429">
        <ele>542.40002441406</ele>
        <time>2019-07-25T07:13:31.000Z</time>
      </trkpt>
      <trkpt lat="43.75358" lon="7.1429">
        <ele>542.79998779297</ele>
        <time>2019-07-25T07:13:32.000Z</time>
      </trkpt>
      <trkpt lat="43.75362" lon="7.14292">
        <ele>543.40002441406</ele>
        <time>2019-07-25T07:13:35.000Z</time>
      </trkpt>
      <trkpt lat="43.75366" lon="7.14293">
        <ele>543.79998779297</ele>
        <time>2019-07-25T07:13:37.000Z</time>
      </trkpt>
      <trkpt lat="43.75369" lon="7.14295">
        <ele>544.40002441406</ele>
        <time>2019-07-25T07:13:40.000Z</time>
      </trkpt>
      <trkpt lat="43.75372" lon="7.14296">
        <ele>545</ele>
        <time>2019-07-25T07:13:42.000Z</time>
      </trkpt>
      <trkpt lat="43.75375" lon="7.14298">
        <ele>545.59997558594</ele>
        <time>2019-07-25T07:13:46.000Z</time>
      </trkpt>
      <trkpt lat="43.75378" lon="7.14298">
        <ele>546</ele>
        <time>2019-07-25T07:13:48.000Z</time>
      </trkpt>
      <trkpt lat="43.75382" lon="7.14301">
        <ele>546.79998779297</ele>
        <time>2019-07-25T07:13:53.000Z</time>
      </trkpt>
      <trkpt lat="43.75383" lon="7.14302">
        <ele>547.59997558594</ele>
        <time>2019-07-25T07:13:55.000Z</time>
      </trkpt>
      <trkpt lat="43.75387" lon="7.14301">
        <ele>548.59997558594</ele>
        <time>2019-07-25T07:13:59.000Z</time>
      </trkpt>
      <trkpt lat="43.75387" lon="7.14301">
        <ele>548.59997558594</ele>
        <time>2019-07-25T07:14:00.000Z</time>
      </trkpt>
      <trkpt lat="43.75388" lon="7.14298">
        <ele>549.40002441406</ele>
        <time>2019-07-25T07:14:04.000Z</time>
      </trkpt>
      <trkpt lat="43.75388" lon="7.14297">
        <ele>549.79998779297</ele>
        <time>2019-07-25T07:14:06.000Z</time>
      </trkpt>
      <trkpt lat="43.75388" lon="7.14296">
        <ele>550</ele>
        <time>2019-07-25T07:14:11.000Z</time>
      </trkpt>
      <trkpt lat="43.75387" lon="7.14295">
        <ele>550.40002441406</ele>
        <time>2019-07-25T07:14:16.000Z</time>
      </trkpt>
      <trkpt lat="43.75383" lon="7.14293">
        <ele>550.40002441406</ele>
        <time>2019-07-25T07:14:19.000Z</time>
      </trkpt>
      <trkpt lat="43.75377" lon="7.14289">
        <ele>551</ele>
        <time>2019-07-25T07:14:24.000Z</time>
      </trkpt>
      <trkpt lat="43.75376" lon="7.14289">
        <ele>551.20001220703</ele>
        <time>2019-07-25T07:14:25.000Z</time>
      </trkpt>
      <trkpt lat="43.7537" lon="7.14284">
        <ele>551.79998779297</ele>
        <time>2019-07-25T07:14:30.000Z</time>
      </trkpt>
      <trkpt lat="43.75369" lon="7.14283">
        <ele>552.20001220703</ele>
        <time>2019-07-25T07:14:31.000Z</time>
      </trkpt>
      <trkpt lat="43.75366" lon="7.14279">
        <ele>553.20001220703</ele>
        <time>2019-07-25T07:14:35.000Z</time>
      </trkpt>
      <trkpt lat="43.75364" lon="7.14277">
        <ele>553.79998779297</ele>
        <time>2019-07-25T07:14:37.000Z</time>
      </trkpt>
      <trkpt lat="43.75362" lon="7.14273">
        <ele>554.40002441406</ele>
        <time>2019-07-25T07:14:40.000Z</time>
      </trkpt>
      <trkpt lat="43.7536" lon="7.1427">
        <ele>555.20001220703</ele>
        <time>2019-07-25T07:14:43.000Z</time>
      </trkpt>
      <trkpt lat="43.75359" lon="7.14267">
        <ele>555.59997558594</ele>
        <time>2019-07-25T07:14:45.000Z</time>
      </trkpt>
      <trkpt lat="43.75357" lon="7.14262">
        <ele>556.59997558594</ele>
        <time>2019-07-25T07:14:49.000Z</time>
      </trkpt>
      <trkpt lat="43.75362" lon="7.14259">
        <ele>557.79998779297</ele>
        <time>2019-07-25T07:14:54.000Z</time>
      </trkpt>
      <trkpt lat="43.75363" lon="7.1426">
        <ele>558</ele>
        <time>2019-07-25T07:14:55.000Z</time>
      </trkpt>
      <trkpt lat="43.75364" lon="7.14261">
        <ele>558.20001220703</ele>
        <time>2019-07-25T07:14:57.000Z</time>
      </trkpt>
      <trkpt lat="43.75367" lon="7.14262">
        <ele>558.79998779297</ele>
        <time>2019-07-25T07:15:00.000Z</time>
      </trkpt>
      <trkpt lat="43.75369" lon="7.14261">
        <ele>559.20001220703</ele>
        <time>2019-07-25T07:15:02.000Z</time>
      </trkpt>
      <trkpt lat="43.75375" lon="7.14262">
        <ele>559.79998779297</ele>
        <time>2019-07-25T07:15:06.000Z</time>
      </trkpt>
      <trkpt lat="43.75376" lon="7.14263">
        <ele>559.79998779297</ele>
        <time>2019-07-25T07:15:07.000Z</time>
      </trkpt>
      <trkpt lat="43.75377" lon="7.14264">
        <ele>560.20001220703</ele>
        <time>2019-07-25T07:15:08.000Z</time>
      </trkpt>
      <trkpt lat="43.75381" lon="7.14263">
        <ele>561.20001220703</ele>
        <time>2019-07-25T07:15:12.000Z</time>
      </trkpt>
      <trkpt lat="43.75383" lon="7.14264">
        <ele>561.79998779297</ele>
        <time>2019-07-25T07:15:15.000Z</time>
      </trkpt>
      <trkpt lat="43.75386" lon="7.14264">
        <ele>562.20001220703</ele>
        <time>2019-07-25T07:15:17.000Z</time>
      </trkpt>
      <trkpt lat="43.75388" lon="7.14264">
        <ele>562.79998779297</ele>
        <time>2019-07-25T07:15:20.000Z</time>
      </trkpt>
      <trkpt lat="43.75389" lon="7.14264">
        <ele>563</ele>
        <time>2019-07-25T07:15:21.000Z</time>
      </trkpt>
      <trkpt lat="43.75391" lon="7.14265">
        <ele>563.40002441406</ele>
        <time>2019-07-25T07:15:23.000Z</time>
      </trkpt>
      <trkpt lat="43.75396" lon="7.14265">
        <ele>564.40002441406</ele>
        <time>2019-07-25T07:15:29.000Z</time>
      </trkpt>
      <trkpt lat="43.75399" lon="7.14267">
        <ele>565.20001220703</ele>
        <time>2019-07-25T07:15:34.000Z</time>
      </trkpt>
      <trkpt lat="43.75399" lon="7.14267">
        <ele>565.40002441406</ele>
        <time>2019-07-25T07:15:35.000Z</time>
      </trkpt>
      <trkpt lat="43.75401" lon="7.14269">
        <ele>565.40002441406</ele>
        <time>2019-07-25T07:15:40.000Z</time>
      </trkpt>
      <trkpt lat="43.75405" lon="7.14274">
        <ele>566</ele>
        <time>2019-07-25T07:15:46.000Z</time>
      </trkpt>
      <trkpt lat="43.75408" lon="7.14276">
        <ele>566.59997558594</ele>
        <time>2019-07-25T07:15:49.000Z</time>
      </trkpt>
      <trkpt lat="43.75411" lon="7.14278">
        <ele>567</ele>
        <time>2019-07-25T07:15:52.000Z</time>
      </trkpt>
      <trkpt lat="43.75415" lon="7.14281">
        <ele>567.59997558594</ele>
        <time>2019-07-25T07:15:56.000Z</time>
      </trkpt>
      <trkpt lat="43.75419" lon="7.14283">
        <ele>568.40002441406</ele>
        <time>2019-07-25T07:15:59.000Z</time>
      </trkpt>
      <trkpt lat="43.75421" lon="7.14284">
        <ele>568.59997558594</ele>
        <time>2019-07-25T07:16:01.000Z</time>
      </trkpt>
      <trkpt lat="43.75427" lon="7.14288">
        <ele>569</ele>
        <time>2019-07-25T07:16:07.000Z</time>
      </trkpt>
      <trkpt lat="43.75429" lon="7.14289">
        <ele>569.40002441406</ele>
        <time>2019-07-25T07:16:09.000Z</time>
      </trkpt>
      <trkpt lat="43.75431" lon="7.1429">
        <ele>569.79998779297</ele>
        <time>2019-07-25T07:16:11.000Z</time>
      </trkpt>
      <trkpt lat="43.75436" lon="7.14291">
        <ele>570.40002441406</ele>
        <time>2019-07-25T07:16:14.000Z</time>
      </trkpt>
      <trkpt lat="43.7544" lon="7.14295">
        <ele>571</ele>
        <time>2019-07-25T07:16:18.000Z</time>
      </trkpt>
      <trkpt lat="43.75443" lon="7.14297">
        <ele>571.59997558594</ele>
        <time>2019-07-25T07:16:21.000Z</time>
      </trkpt>
      <trkpt lat="43.75447" lon="7.14301">
        <ele>572</ele>
        <time>2019-07-25T07:16:25.000Z</time>
      </trkpt>
      <trkpt lat="43.75448" lon="7.14301">
        <ele>572.20001220703</ele>
        <time>2019-07-25T07:16:26.000Z</time>
      </trkpt>
      <trkpt lat="43.75455" lon="7.14305">
        <ele>572.59997558594</ele>
        <time>2019-07-25T07:16:31.000Z</time>
      </trkpt>
      <trkpt lat="43.75458" lon="7.14308">
        <ele>573</ele>
        <time>2019-07-25T07:16:34.000Z</time>
      </trkpt>
      <trkpt lat="43.75462" lon="7.14312">
        <ele>573.59997558594</ele>
        <time>2019-07-25T07:16:38.000Z</time>
      </trkpt>
      <trkpt lat="43.75471" lon="7.14316">
        <ele>574.20001220703</ele>
        <time>2019-07-25T07:16:45.000Z</time>
      </trkpt>
      <trkpt lat="43.75474" lon="7.14319">
        <ele>575</ele>
        <time>2019-07-25T07:16:49.000Z</time>
      </trkpt>
      <trkpt lat="43.75476" lon="7.14319">
        <ele>575.20001220703</ele>
        <time>2019-07-25T07:16:50.000Z</time>
      </trkpt>
      <trkpt lat="43.75477" lon="7.14319">
        <ele>575.40002441406</ele>
        <time>2019-07-25T07:16:51.000Z</time>
      </trkpt>
      <trkpt lat="43.75484" lon="7.14321">
        <ele>576.20001220703</ele>
        <time>2019-07-25T07:16:56.000Z</time>
      </trkpt>
      <trkpt lat="43.75485" lon="7.14321">
        <ele>576.59997558594</ele>
        <time>2019-07-25T07:16:57.000Z</time>
      </trkpt>
      <trkpt lat="43.75491" lon="7.14324">
        <ele>577.40002441406</ele>
        <time>2019-07-25T07:17:03.000Z</time>
      </trkpt>
      <trkpt lat="43.75493" lon="7.14324">
        <ele>577.79998779297</ele>
        <time>2019-07-25T07:17:05.000Z</time>
      </trkpt>
      <trkpt lat="43.75496" lon="7.14326">
        <ele>578.20001220703</ele>
        <time>2019-07-25T07:17:09.000Z</time>
      </trkpt>
      <trkpt lat="43.75501" lon="7.14328">
        <ele>578.79998779297</ele>
        <time>2019-07-25T07:17:13.000Z</time>
      </trkpt>
      <trkpt lat="43.75505" lon="7.14328">
        <ele>579.20001220703</ele>
        <time>2019-07-25T07:17:17.000Z</time>
      </trkpt>
      <trkpt lat="43.75509" lon="7.14329">
        <ele>579.59997558594</ele>
        <time>2019-07-25T07:17:20.000Z</time>
      </trkpt>
      <trkpt lat="43.75511" lon="7.14331">
        <ele>580</ele>
        <time>2019-07-25T07:17:22.000Z</time>
      </trkpt>
      <trkpt lat="43.75517" lon="7.14333">
        <ele>580.79998779297</ele>
        <time>2019-07-25T07:17:28.000Z</time>
      </trkpt>
      <trkpt lat="43.75518" lon="7.14334">
        <ele>581</ele>
        <time>2019-07-25T07:17:29.000Z</time>
      </trkpt>
      <trkpt lat="43.75519" lon="7.14334">
        <ele>581.20001220703</ele>
        <time>2019-07-25T07:17:30.000Z</time>
      </trkpt>
      <trkpt lat="43.75522" lon="7.14334">
        <ele>581.79998779297</ele>
        <time>2019-07-25T07:17:33.000Z</time>
      </trkpt>
      <trkpt lat="43.75523" lon="7.14334">
        <ele>582</ele>
        <time>2019-07-25T07:17:34.000Z</time>
      </trkpt>
      <trkpt lat="43.75525" lon="7.14335">
        <ele>582.20001220703</ele>
        <time>2019-07-25T07:17:36.000Z</time>
      </trkpt>
      <trkpt lat="43.75531" lon="7.14336">
        <ele>583</ele>
        <time>2019-07-25T07:17:40.000Z</time>
      </trkpt>
      <trkpt lat="43.75532" lon="7.14334">
        <ele>583.20001220703</ele>
        <time>2019-07-25T07:17:42.000Z</time>
      </trkpt>
      <trkpt lat="43.75537" lon="7.14331">
        <ele>584.20001220703</ele>
        <time>2019-07-25T07:17:46.000Z</time>
      </trkpt>
      <trkpt lat="43.7554" lon="7.1433">
        <ele>585.20001220703</ele>
        <time>2019-07-25T07:17:49.000Z</time>
      </trkpt>
      <trkpt lat="43.75543" lon="7.14331">
        <ele>586.40002441406</ele>
        <time>2019-07-25T07:17:52.000Z</time>
      </trkpt>
      <trkpt lat="43.75548" lon="7.14332">
        <ele>587.59997558594</ele>
        <time>2019-07-25T07:17:58.000Z</time>
      </trkpt>
      <trkpt lat="43.7555" lon="7.14331">
        <ele>587.59997558594</ele>
        <time>2019-07-25T07:17:59.000Z</time>
      </trkpt>
      <trkpt lat="43.75553" lon="7.14331">
        <ele>588</ele>
        <time>2019-07-25T07:18:02.000Z</time>
      </trkpt>
      <trkpt lat="43.75554" lon="7.14331">
        <ele>588</ele>
        <time>2019-07-25T07:18:03.000Z</time>
      </trkpt>
      <trkpt lat="43.75558" lon="7.14331">
        <ele>588.79998779297</ele>
        <time>2019-07-25T07:18:07.000Z</time>
      </trkpt>
      <trkpt lat="43.75561" lon="7.14331">
        <ele>589.40002441406</ele>
        <time>2019-07-25T07:18:10.000Z</time>
      </trkpt>
      <trkpt lat="43.75566" lon="7.14332">
        <ele>590</ele>
        <time>2019-07-25T07:18:14.000Z</time>
      </trkpt>
      <trkpt lat="43.75567" lon="7.14332">
        <ele>590.20001220703</ele>
        <time>2019-07-25T07:18:15.000Z</time>
      </trkpt>
      <trkpt lat="43.75576" lon="7.14331">
        <ele>591.20001220703</ele>
        <time>2019-07-25T07:18:23.000Z</time>
      </trkpt>
      <trkpt lat="43.75577" lon="7.14331">
        <ele>591.40002441406</ele>
        <time>2019-07-25T07:18:24.000Z</time>
      </trkpt>
      <trkpt lat="43.75579" lon="7.14333">
        <ele>591.59997558594</ele>
        <time>2019-07-25T07:18:26.000Z</time>
      </trkpt>
      <trkpt lat="43.75581" lon="7.14334">
        <ele>592</ele>
        <time>2019-07-25T07:18:28.000Z</time>
      </trkpt>
      <trkpt lat="43.75585" lon="7.14333">
        <ele>592.20001220703</ele>
        <time>2019-07-25T07:18:31.000Z</time>
      </trkpt>
      <trkpt lat="43.75586" lon="7.14333">
        <ele>592.20001220703</ele>
        <time>2019-07-25T07:18:32.000Z</time>
      </trkpt>
      <trkpt lat="43.7559" lon="7.14332">
        <ele>593</ele>
        <time>2019-07-25T07:18:35.000Z</time>
      </trkpt>
      <trkpt lat="43.75591" lon="7.14332">
        <ele>593.20001220703</ele>
        <time>2019-07-25T07:18:36.000Z</time>
      </trkpt>
      <trkpt lat="43.75596" lon="7.14333">
        <ele>593.59997558594</ele>
        <time>2019-07-25T07:18:40.000Z</time>
      </trkpt>
      <trkpt lat="43.756" lon="7.14332">
        <ele>594.40002441406</ele>
        <time>2019-07-25T07:18:45.000Z</time>
      </trkpt>
      <trkpt lat="43.75599" lon="7.14332">
        <ele>594.40002441406</ele>
        <time>2019-07-25T07:18:46.000Z</time>
      </trkpt>
      <trkpt lat="43.75602" lon="7.1433">
        <ele>595.20001220703</ele>
        <time>2019-07-25T07:18:54.000Z</time>
      </trkpt>
      <trkpt lat="43.75604" lon="7.1433">
        <ele>595.40002441406</ele>
        <time>2019-07-25T07:18:55.000Z</time>
      </trkpt>
      <trkpt lat="43.75605" lon="7.1433">
        <ele>595.59997558594</ele>
        <time>2019-07-25T07:18:56.000Z</time>
      </trkpt>
      <trkpt lat="43.75607" lon="7.1433">
        <ele>596</ele>
        <time>2019-07-25T07:19:00.000Z</time>
      </trkpt>
      <trkpt lat="43.75608" lon="7.1433">
        <ele>596.40002441406</ele>
        <time>2019-07-25T07:19:08.000Z</time>
      </trkpt>
      <trkpt lat="43.75608" lon="7.1433">
        <ele>596.79998779297</ele>
        <time>2019-07-25T07:19:09.000Z</time>
      </trkpt>
      <trkpt lat="43.75608" lon="7.1433">
        <ele>596.79998779297</ele>
        <time>2019-07-25T07:19:20.000Z</time>
      </trkpt>
      <trkpt lat="43.7561" lon="7.1433">
        <ele>597</ele>
        <time>2019-07-25T07:19:33.000Z</time>
      </trkpt>
      <trkpt lat="43.75612" lon="7.14329">
        <ele>597.40002441406</ele>
        <time>2019-07-25T07:19:40.000Z</time>
      </trkpt>
      <trkpt lat="43.75613" lon="7.14329">
        <ele>597.40002441406</ele>
        <time>2019-07-25T07:19:47.000Z</time>
      </trkpt>
      <trkpt lat="43.75615" lon="7.14328">
        <ele>597.59997558594</ele>
        <time>2019-07-25T07:19:52.000Z</time>
      </trkpt>
      <trkpt lat="43.75615" lon="7.14328">
        <ele>597.79998779297</ele>
        <time>2019-07-25T07:19:54.000Z</time>
      </trkpt>
      <trkpt lat="43.75615" lon="7.14327">
        <ele>598</ele>
        <time>2019-07-25T07:19:58.000Z</time>
      </trkpt>
      <trkpt lat="43.7562" lon="7.14326">
        <ele>598.20001220703</ele>
        <time>2019-07-25T07:20:04.000Z</time>
      </trkpt>
      <trkpt lat="43.75624" lon="7.14325">
        <ele>598.79998779297</ele>
        <time>2019-07-25T07:20:09.000Z</time>
      </trkpt>
      <trkpt lat="43.75631" lon="7.14323">
        <ele>600.20001220703</ele>
        <time>2019-07-25T07:20:14.000Z</time>
      </trkpt>
      <trkpt lat="43.75636" lon="7.14321">
        <ele>601</ele>
        <time>2019-07-25T07:20:19.000Z</time>
      </trkpt>
      <trkpt lat="43.75637" lon="7.1432">
        <ele>601.20001220703</ele>
        <time>2019-07-25T07:20:20.000Z</time>
      </trkpt>
      <trkpt lat="43.75641" lon="7.1432">
        <ele>602.20001220703</ele>
        <time>2019-07-25T07:20:24.000Z</time>
      </trkpt>
      <trkpt lat="43.75642" lon="7.1432">
        <ele>602.59997558594</ele>
        <time>2019-07-25T07:20:25.000Z</time>
      </trkpt>
      <trkpt lat="43.75648" lon="7.14321">
        <ele>603.40002441406</ele>
        <time>2019-07-25T07:20:30.000Z</time>
      </trkpt>
      <trkpt lat="43.75648" lon="7.14321">
        <ele>603.40002441406</ele>
        <time>2019-07-25T07:20:31.000Z</time>
      </trkpt>
      <trkpt lat="43.75649" lon="7.14321">
        <ele>604.40002441406</ele>
        <time>2019-07-25T07:20:35.000Z</time>
      </trkpt>
      <trkpt lat="43.75649" lon="7.14321">
        <ele>604.79998779297</ele>
        <time>2019-07-25T07:20:37.000Z</time>
      </trkpt>
      <trkpt lat="43.75649" lon="7.14321">
        <ele>604.79998779297</ele>
        <time>2019-07-25T07:20:44.000Z</time>
      </trkpt>
      <trkpt lat="43.75655" lon="7.1432">
        <ele>605</ele>
        <time>2019-07-25T07:20:52.000Z</time>
      </trkpt>
      <trkpt lat="43.75659" lon="7.1432">
        <ele>605.79998779297</ele>
        <time>2019-07-25T07:20:56.000Z</time>
      </trkpt>
      <trkpt lat="43.7566" lon="7.1432">
        <ele>606.20001220703</ele>
        <time>2019-07-25T07:20:58.000Z</time>
      </trkpt>
      <trkpt lat="43.75662" lon="7.1432">
        <ele>606.40002441406</ele>
        <time>2019-07-25T07:20:59.000Z</time>
      </trkpt>
      <trkpt lat="43.75666" lon="7.14319">
        <ele>606.79998779297</ele>
        <time>2019-07-25T07:21:02.000Z</time>
      </trkpt>
      <trkpt lat="43.75669" lon="7.14318">
        <ele>607.40002441406</ele>
        <time>2019-07-25T07:21:05.000Z</time>
      </trkpt>
      <trkpt lat="43.7567" lon="7.14318">
        <ele>608</ele>
        <time>2019-07-25T07:21:07.000Z</time>
      </trkpt>
      <trkpt lat="43.7567" lon="7.14318">
        <ele>608.20001220703</ele>
        <time>2019-07-25T07:21:09.000Z</time>
      </trkpt>
      <trkpt lat="43.75671" lon="7.14317">
        <ele>608.79998779297</ele>
        <time>2019-07-25T07:21:12.000Z</time>
      </trkpt>
      <trkpt lat="43.75672" lon="7.14318">
        <ele>608.79998779297</ele>
        <time>2019-07-25T07:21:15.000Z</time>
      </trkpt>
      <trkpt lat="43.75672" lon="7.14317">
        <ele>609</ele>
        <time>2019-07-25T07:21:17.000Z</time>
      </trkpt>
      <trkpt lat="43.75673" lon="7.14318">
        <ele>609</ele>
        <time>2019-07-25T07:21:22.000Z</time>
      </trkpt>
      <trkpt lat="43.7568" lon="7.14316">
        <ele>609.20001220703</ele>
        <time>2019-07-25T07:21:27.000Z</time>
      </trkpt>
      <trkpt lat="43.75684" lon="7.14314">
        <ele>610</ele>
        <time>2019-07-25T07:21:30.000Z</time>
      </trkpt>
      <trkpt lat="43.75687" lon="7.14311">
        <ele>610.79998779297</ele>
        <time>2019-07-25T07:21:33.000Z</time>
      </trkpt>
      <trkpt lat="43.75688" lon="7.1431">
        <ele>611.20001220703</ele>
        <time>2019-07-25T07:21:34.000Z</time>
      </trkpt>
      <trkpt lat="43.7569" lon="7.14312">
        <ele>611.59997558594</ele>
        <time>2019-07-25T07:21:36.000Z</time>
      </trkpt>
      <trkpt lat="43.7569" lon="7.1431">
        <ele>612</ele>
        <time>2019-07-25T07:21:38.000Z</time>
      </trkpt>
      <trkpt lat="43.7569" lon="7.1431">
        <ele>612.20001220703</ele>
        <time>2019-07-25T07:21:40.000Z</time>
      </trkpt>
      <trkpt lat="43.75691" lon="7.14311">
        <ele>612.59997558594</ele>
        <time>2019-07-25T07:21:45.000Z</time>
      </trkpt>
      <trkpt lat="43.75692" lon="7.1431">
        <ele>612.79998779297</ele>
        <time>2019-07-25T07:21:57.000Z</time>
      </trkpt>
      <trkpt lat="43.75695" lon="7.14311">
        <ele>612.79998779297</ele>
        <time>2019-07-25T07:22:07.000Z</time>
      </trkpt>
      <trkpt lat="43.75696" lon="7.14311">
        <ele>612.79998779297</ele>
        <time>2019-07-25T07:22:08.000Z</time>
      </trkpt>
      <trkpt lat="43.75701" lon="7.14311">
        <ele>612.79998779297</ele>
        <time>2019-07-25T07:22:12.000Z</time>
      </trkpt>
      <trkpt lat="43.75705" lon="7.14313">
        <ele>613.40002441406</ele>
        <time>2019-07-25T07:22:15.000Z</time>
      </trkpt>
      <trkpt lat="43.75709" lon="7.14316">
        <ele>614.20001220703</ele>
        <time>2019-07-25T07:22:19.000Z</time>
      </trkpt>
      <trkpt lat="43.75711" lon="7.14316">
        <ele>614.59997558594</ele>
        <time>2019-07-25T07:22:20.000Z</time>
      </trkpt>
      <trkpt lat="43.75717" lon="7.14317">
        <ele>614.79998779297</ele>
        <time>2019-07-25T07:22:24.000Z</time>
      </trkpt>
      <trkpt lat="43.75726" lon="7.14321">
        <ele>615.59997558594</ele>
        <time>2019-07-25T07:22:31.000Z</time>
      </trkpt>
      <trkpt lat="43.75726" lon="7.14321">
        <ele>616.40002441406</ele>
        <time>2019-07-25T07:22:35.000Z</time>
      </trkpt>
      <trkpt lat="43.75728" lon="7.14322">
        <ele>616.79998779297</ele>
        <time>2019-07-25T07:22:37.000Z</time>
      </trkpt>
      <trkpt lat="43.75733" lon="7.14325">
        <ele>616.79998779297</ele>
        <time>2019-07-25T07:22:41.000Z</time>
      </trkpt>
      <trkpt lat="43.75743" lon="7.14327">
        <ele>617.40002441406</ele>
        <time>2019-07-25T07:22:47.000Z</time>
      </trkpt>
      <trkpt lat="43.75752" lon="7.1433">
        <ele>617.59997558594</ele>
        <time>2019-07-25T07:22:53.000Z</time>
      </trkpt>
      <trkpt lat="43.75762" lon="7.1433">
        <ele>617.79998779297</ele>
        <time>2019-07-25T07:22:59.000Z</time>
      </trkpt>
      <trkpt lat="43.75771" lon="7.14331">
        <ele>618.59997558594</ele>
        <time>2019-07-25T07:23:04.000Z</time>
      </trkpt>
      <trkpt lat="43.75774" lon="7.1433">
        <ele>618.79998779297</ele>
        <time>2019-07-25T07:23:06.000Z</time>
      </trkpt>
      <trkpt lat="43.75782" lon="7.14329">
        <ele>619</ele>
        <time>2019-07-25T07:23:11.000Z</time>
      </trkpt>
      <trkpt lat="43.75793" lon="7.14325">
        <ele>619.40002441406</ele>
        <time>2019-07-25T07:23:17.000Z</time>
      </trkpt>
      <trkpt lat="43.75802" lon="7.14319">
        <ele>620</ele>
        <time>2019-07-25T07:23:22.000Z</time>
      </trkpt>
      <trkpt lat="43.7581" lon="7.14314">
        <ele>621</ele>
        <time>2019-07-25T07:23:27.000Z</time>
      </trkpt>
      <trkpt lat="43.75819" lon="7.1431">
        <ele>621.20001220703</ele>
        <time>2019-07-25T07:23:31.000Z</time>
      </trkpt>
      <trkpt lat="43.75835" lon="7.14303">
        <ele>621.40002441406</ele>
        <time>2019-07-25T07:23:39.000Z</time>
      </trkpt>
      <trkpt lat="43.75839" lon="7.14302">
        <ele>622</ele>
        <time>2019-07-25T07:23:41.000Z</time>
      </trkpt>
      <trkpt lat="43.75848" lon="7.143">
        <ele>622.79998779297</ele>
        <time>2019-07-25T07:23:47.000Z</time>
      </trkpt>
      <trkpt lat="43.75851" lon="7.143">
        <ele>623</ele>
        <time>2019-07-25T07:23:49.000Z</time>
      </trkpt>
      <trkpt lat="43.75861" lon="7.14298">
        <ele>623.59997558594</ele>
        <time>2019-07-25T07:23:55.000Z</time>
      </trkpt>
      <trkpt lat="43.75871" lon="7.14296">
        <ele>624.20001220703</ele>
        <time>2019-07-25T07:24:00.000Z</time>
      </trkpt>
      <trkpt lat="43.75876" lon="7.14294">
        <ele>625</ele>
        <time>2019-07-25T07:24:03.000Z</time>
      </trkpt>
      <trkpt lat="43.75878" lon="7.14294">
        <ele>625.20001220703</ele>
        <time>2019-07-25T07:24:04.000Z</time>
      </trkpt>
      <trkpt lat="43.7589" lon="7.14293">
        <ele>625.59997558594</ele>
        <time>2019-07-25T07:24:10.000Z</time>
      </trkpt>
      <trkpt lat="43.75898" lon="7.143">
        <ele>625.59997558594</ele>
        <time>2019-07-25T07:24:13.000Z</time>
      </trkpt>
      <trkpt lat="43.75902" lon="7.14301">
        <ele>625.40002441406</ele>
        <time>2019-07-25T07:24:14.000Z</time>
      </trkpt>
      <trkpt lat="43.75909" lon="7.14301">
        <ele>625</ele>
        <time>2019-07-25T07:24:18.000Z</time>
      </trkpt>
      <trkpt lat="43.75919" lon="7.14302">
        <ele>626.20001220703</ele>
        <time>2019-07-25T07:24:24.000Z</time>
      </trkpt>
      <trkpt lat="43.7592" lon="7.14302">
        <ele>626.40002441406</ele>
        <time>2019-07-25T07:24:25.000Z</time>
      </trkpt>
      <trkpt lat="43.75925" lon="7.14306">
        <ele>627.20001220703</ele>
        <time>2019-07-25T07:24:30.000Z</time>
      </trkpt>
      <trkpt lat="43.75928" lon="7.14307">
        <ele>627.59997558594</ele>
        <time>2019-07-25T07:24:32.000Z</time>
      </trkpt>
      <trkpt lat="43.75933" lon="7.14307">
        <ele>628</ele>
        <time>2019-07-25T07:24:36.000Z</time>
      </trkpt>
      <trkpt lat="43.75939" lon="7.1431">
        <ele>628.59997558594</ele>
        <time>2019-07-25T07:24:40.000Z</time>
      </trkpt>
      <trkpt lat="43.75941" lon="7.14311">
        <ele>629</ele>
        <time>2019-07-25T07:24:42.000Z</time>
      </trkpt>
      <trkpt lat="43.75945" lon="7.1431">
        <ele>629.59997558594</ele>
        <time>2019-07-25T07:24:45.000Z</time>
      </trkpt>
      <trkpt lat="43.75949" lon="7.1431">
        <ele>629.79998779297</ele>
        <time>2019-07-25T07:24:48.000Z</time>
      </trkpt>
      <trkpt lat="43.75952" lon="7.14309">
        <ele>630.20001220703</ele>
        <time>2019-07-25T07:24:51.000Z</time>
      </trkpt>
      <trkpt lat="43.75955" lon="7.14309">
        <ele>630.59997558594</ele>
        <time>2019-07-25T07:24:53.000Z</time>
      </trkpt>
      <trkpt lat="43.75959" lon="7.14308">
        <ele>630.79998779297</ele>
        <time>2019-07-25T07:24:56.000Z</time>
      </trkpt>
      <trkpt lat="43.75965" lon="7.14308">
        <ele>631.20001220703</ele>
        <time>2019-07-25T07:25:00.000Z</time>
      </trkpt>
      <trkpt lat="43.75968" lon="7.14308">
        <ele>631.40002441406</ele>
        <time>2019-07-25T07:25:02.000Z</time>
      </trkpt>
      <trkpt lat="43.75971" lon="7.14309">
        <ele>631.59997558594</ele>
        <time>2019-07-25T07:25:04.000Z</time>
      </trkpt>
      <trkpt lat="43.75972" lon="7.1431">
        <ele>632</ele>
        <time>2019-07-25T07:25:05.000Z</time>
      </trkpt>
      <trkpt lat="43.75974" lon="7.1431">
        <ele>632.40002441406</ele>
        <time>2019-07-25T07:25:08.000Z</time>
      </trkpt>
      <trkpt lat="43.7598" lon="7.14311">
        <ele>633.20001220703</ele>
        <time>2019-07-25T07:25:12.000Z</time>
      </trkpt>
      <trkpt lat="43.75982" lon="7.14311">
        <ele>633.20001220703</ele>
        <time>2019-07-25T07:25:14.000Z</time>
      </trkpt>
      <trkpt lat="43.75992" lon="7.14311">
        <ele>633.59997558594</ele>
        <time>2019-07-25T07:25:21.000Z</time>
      </trkpt>
      <trkpt lat="43.75996" lon="7.14312">
        <ele>634.20001220703</ele>
        <time>2019-07-25T07:25:24.000Z</time>
      </trkpt>
      <trkpt lat="43.76001" lon="7.14313">
        <ele>634.59997558594</ele>
        <time>2019-07-25T07:25:28.000Z</time>
      </trkpt>
      <trkpt lat="43.7601" lon="7.14314">
        <ele>635.20001220703</ele>
        <time>2019-07-25T07:25:34.000Z</time>
      </trkpt>
      <trkpt lat="43.76012" lon="7.14313">
        <ele>635.20001220703</ele>
        <time>2019-07-25T07:25:35.000Z</time>
      </trkpt>
      <trkpt lat="43.76022" lon="7.14317">
        <ele>635.59997558594</ele>
        <time>2019-07-25T07:25:41.000Z</time>
      </trkpt>
      <trkpt lat="43.76033" lon="7.14324">
        <ele>636</ele>
        <time>2019-07-25T07:25:48.000Z</time>
      </trkpt>
      <trkpt lat="43.76036" lon="7.14326">
        <ele>636.40002441406</ele>
        <time>2019-07-25T07:25:50.000Z</time>
      </trkpt>
      <trkpt lat="43.76046" lon="7.14335">
        <ele>637</ele>
        <time>2019-07-25T07:25:57.000Z</time>
      </trkpt>
      <trkpt lat="43.76051" lon="7.14338">
        <ele>637.59997558594</ele>
        <time>2019-07-25T07:26:00.000Z</time>
      </trkpt>
      <trkpt lat="43.76059" lon="7.14343">
        <ele>638.20001220703</ele>
        <time>2019-07-25T07:26:05.000Z</time>
      </trkpt>
      <trkpt lat="43.76066" lon="7.14347">
        <ele>638.59997558594</ele>
        <time>2019-07-25T07:26:09.000Z</time>
      </trkpt>
      <trkpt lat="43.7607" lon="7.1435">
        <ele>639</ele>
        <time>2019-07-25T07:26:12.000Z</time>
      </trkpt>
      <trkpt lat="43.7608" lon="7.14358">
        <ele>639.59997558594</ele>
        <time>2019-07-25T07:26:19.000Z</time>
      </trkpt>
      <trkpt lat="43.76082" lon="7.14359">
        <ele>639.79998779297</ele>
        <time>2019-07-25T07:26:20.000Z</time>
      </trkpt>
      <trkpt lat="43.76093" lon="7.14368">
        <ele>640.59997558594</ele>
        <time>2019-07-25T07:26:28.000Z</time>
      </trkpt>
      <trkpt lat="43.76104" lon="7.14377">
        <ele>641.20001220703</ele>
        <time>2019-07-25T07:26:35.000Z</time>
      </trkpt>
      <trkpt lat="43.76108" lon="7.1438">
        <ele>641.79998779297</ele>
        <time>2019-07-25T07:26:38.000Z</time>
      </trkpt>
      <trkpt lat="43.76118" lon="7.14384">
        <ele>642.40002441406</ele>
        <time>2019-07-25T07:26:44.000Z</time>
      </trkpt>
      <trkpt lat="43.76131" lon="7.14391">
        <ele>642.79998779297</ele>
        <time>2019-07-25T07:26:52.000Z</time>
      </trkpt>
      <trkpt lat="43.76134" lon="7.14393">
        <ele>643</ele>
        <time>2019-07-25T07:26:54.000Z</time>
      </trkpt>
      <trkpt lat="43.76142" lon="7.144">
        <ele>643.40002441406</ele>
        <time>2019-07-25T07:27:00.000Z</time>
      </trkpt>
      <trkpt lat="43.76146" lon="7.14404">
        <ele>644</ele>
        <time>2019-07-25T07:27:03.000Z</time>
      </trkpt>
      <trkpt lat="43.76151" lon="7.14408">
        <ele>644.40002441406</ele>
        <time>2019-07-25T07:27:07.000Z</time>
      </trkpt>
      <trkpt lat="43.76156" lon="7.1441">
        <ele>645</ele>
        <time>2019-07-25T07:27:10.000Z</time>
      </trkpt>
      <trkpt lat="43.76161" lon="7.14411">
        <ele>645.59997558594</ele>
        <time>2019-07-25T07:27:13.000Z</time>
      </trkpt>
      <trkpt lat="43.76166" lon="7.14411">
        <ele>645.79998779297</ele>
        <time>2019-07-25T07:27:16.000Z</time>
      </trkpt>
      <trkpt lat="43.76172" lon="7.14415">
        <ele>646</ele>
        <time>2019-07-25T07:27:19.000Z</time>
      </trkpt>
      <trkpt lat="43.76174" lon="7.14416">
        <ele>646</ele>
        <time>2019-07-25T07:27:20.000Z</time>
      </trkpt>
      <trkpt lat="43.76175" lon="7.14416">
        <ele>646</ele>
        <time>2019-07-25T07:27:21.000Z</time>
      </trkpt>
      <trkpt lat="43.76184" lon="7.14418">
        <ele>646.20001220703</ele>
        <time>2019-07-25T07:27:26.000Z</time>
      </trkpt>
      <trkpt lat="43.76196" lon="7.14418">
        <ele>647</ele>
        <time>2019-07-25T07:27:33.000Z</time>
      </trkpt>
      <trkpt lat="43.76201" lon="7.14419">
        <ele>647.20001220703</ele>
        <time>2019-07-25T07:27:36.000Z</time>
      </trkpt>
      <trkpt lat="43.7621" lon="7.1442">
        <ele>647.79998779297</ele>
        <time>2019-07-25T07:27:41.000Z</time>
      </trkpt>
      <trkpt lat="43.76222" lon="7.14428">
        <ele>648.20001220703</ele>
        <time>2019-07-25T07:27:48.000Z</time>
      </trkpt>
      <trkpt lat="43.76234" lon="7.14432">
        <ele>648.79998779297</ele>
        <time>2019-07-25T07:27:55.000Z</time>
      </trkpt>
      <trkpt lat="43.76249" lon="7.14438">
        <ele>649.20001220703</ele>
        <time>2019-07-25T07:28:03.000Z</time>
      </trkpt>
      <trkpt lat="43.76262" lon="7.14439">
        <ele>650</ele>
        <time>2019-07-25T07:28:10.000Z</time>
      </trkpt>
      <trkpt lat="43.76269" lon="7.14441">
        <ele>650.40002441406</ele>
        <time>2019-07-25T07:28:14.000Z</time>
      </trkpt>
      <trkpt lat="43.76275" lon="7.14442">
        <ele>650.79998779297</ele>
        <time>2019-07-25T07:28:18.000Z</time>
      </trkpt>
      <trkpt lat="43.76283" lon="7.14445">
        <ele>651.40002441406</ele>
        <time>2019-07-25T07:28:23.000Z</time>
      </trkpt>
      <trkpt lat="43.7629" lon="7.14447">
        <ele>651.79998779297</ele>
        <time>2019-07-25T07:28:27.000Z</time>
      </trkpt>
      <trkpt lat="43.76297" lon="7.14451">
        <ele>652.59997558594</ele>
        <time>2019-07-25T07:28:32.000Z</time>
      </trkpt>
      <trkpt lat="43.76302" lon="7.14454">
        <ele>652.79998779297</ele>
        <time>2019-07-25T07:28:35.000Z</time>
      </trkpt>
      <trkpt lat="43.76312" lon="7.14457">
        <ele>653.40002441406</ele>
        <time>2019-07-25T07:28:42.000Z</time>
      </trkpt>
      <trkpt lat="43.76314" lon="7.14457">
        <ele>653.59997558594</ele>
        <time>2019-07-25T07:28:43.000Z</time>
      </trkpt>
      <trkpt lat="43.76323" lon="7.14455">
        <ele>654</ele>
        <time>2019-07-25T07:28:48.000Z</time>
      </trkpt>
      <trkpt lat="43.76337" lon="7.14456">
        <ele>654.40002441406</ele>
        <time>2019-07-25T07:28:55.000Z</time>
      </trkpt>
      <trkpt lat="43.76343" lon="7.14455">
        <ele>654.59997558594</ele>
        <time>2019-07-25T07:28:58.000Z</time>
      </trkpt>
      <trkpt lat="43.76353" lon="7.14451">
        <ele>655</ele>
        <time>2019-07-25T07:29:03.000Z</time>
      </trkpt>
      <trkpt lat="43.76368" lon="7.14447">
        <ele>655.40002441406</ele>
        <time>2019-07-25T07:29:11.000Z</time>
      </trkpt>
      <trkpt lat="43.76373" lon="7.14448">
        <ele>655.79998779297</ele>
        <time>2019-07-25T07:29:14.000Z</time>
      </trkpt>
      <trkpt lat="43.76381" lon="7.14451">
        <ele>656.59997558594</ele>
        <time>2019-07-25T07:29:19.000Z</time>
      </trkpt>
      <trkpt lat="43.76386" lon="7.14453">
        <ele>656.79998779297</ele>
        <time>2019-07-25T07:29:22.000Z</time>
      </trkpt>
      <trkpt lat="43.76392" lon="7.14454">
        <ele>657</ele>
        <time>2019-07-25T07:29:26.000Z</time>
      </trkpt>
      <trkpt lat="43.76399" lon="7.14452">
        <ele>657.79998779297</ele>
        <time>2019-07-25T07:29:31.000Z</time>
      </trkpt>
      <trkpt lat="43.76401" lon="7.14452">
        <ele>658</ele>
        <time>2019-07-25T07:29:32.000Z</time>
      </trkpt>
      <trkpt lat="43.76413" lon="7.14451">
        <ele>658.79998779297</ele>
        <time>2019-07-25T07:29:39.000Z</time>
      </trkpt>
      <trkpt lat="43.76416" lon="7.14451">
        <ele>659</ele>
        <time>2019-07-25T07:29:41.000Z</time>
      </trkpt>
      <trkpt lat="43.76424" lon="7.14452">
        <ele>659.40002441406</ele>
        <time>2019-07-25T07:29:46.000Z</time>
      </trkpt>
      <trkpt lat="43.7643" lon="7.14454">
        <ele>660</ele>
        <time>2019-07-25T07:29:50.000Z</time>
      </trkpt>
      <trkpt lat="43.76434" lon="7.14457">
        <ele>660.40002441406</ele>
        <time>2019-07-25T07:29:53.000Z</time>
      </trkpt>
      <trkpt lat="43.7644" lon="7.14459">
        <ele>661</ele>
        <time>2019-07-25T07:29:57.000Z</time>
      </trkpt>
      <trkpt lat="43.76446" lon="7.14462">
        <ele>662</ele>
        <time>2019-07-25T07:30:01.000Z</time>
      </trkpt>
      <trkpt lat="43.76447" lon="7.14462">
        <ele>662.20001220703</ele>
        <time>2019-07-25T07:30:02.000Z</time>
      </trkpt>
      <trkpt lat="43.76456" lon="7.14463">
        <ele>663</ele>
        <time>2019-07-25T07:30:08.000Z</time>
      </trkpt>
      <trkpt lat="43.76459" lon="7.14463">
        <ele>663.20001220703</ele>
        <time>2019-07-25T07:30:10.000Z</time>
      </trkpt>
      <trkpt lat="43.76465" lon="7.14463">
        <ele>663.79998779297</ele>
        <time>2019-07-25T07:30:15.000Z</time>
      </trkpt>
      <trkpt lat="43.76468" lon="7.14464">
        <ele>664.20001220703</ele>
        <time>2019-07-25T07:30:17.000Z</time>
      </trkpt>
      <trkpt lat="43.76473" lon="7.14463">
        <ele>664.59997558594</ele>
        <time>2019-07-25T07:30:21.000Z</time>
      </trkpt>
      <trkpt lat="43.76478" lon="7.14462">
        <ele>665.40002441406</ele>
        <time>2019-07-25T07:30:25.000Z</time>
      </trkpt>
      <trkpt lat="43.76481" lon="7.14462">
        <ele>665.59997558594</ele>
        <time>2019-07-25T07:30:27.000Z</time>
      </trkpt>
      <trkpt lat="43.76484" lon="7.14461">
        <ele>665.79998779297</ele>
        <time>2019-07-25T07:30:30.000Z</time>
      </trkpt>
      <trkpt lat="43.76486" lon="7.1446">
        <ele>666.20001220703</ele>
        <time>2019-07-25T07:30:32.000Z</time>
      </trkpt>
      <trkpt lat="43.76487" lon="7.14459">
        <ele>666.40002441406</ele>
        <time>2019-07-25T07:30:33.000Z</time>
      </trkpt>
      <trkpt lat="43.76495" lon="7.14458">
        <ele>667.20001220703</ele>
        <time>2019-07-25T07:30:38.000Z</time>
      </trkpt>
      <trkpt lat="43.76498" lon="7.14457">
        <ele>667.59997558594</ele>
        <time>2019-07-25T07:30:40.000Z</time>
      </trkpt>
      <trkpt lat="43.76503" lon="7.14455">
        <ele>668.40002441406</ele>
        <time>2019-07-25T07:30:44.000Z</time>
      </trkpt>
      <trkpt lat="43.76505" lon="7.14454">
        <ele>668.79998779297</ele>
        <time>2019-07-25T07:30:45.000Z</time>
      </trkpt>
      <trkpt lat="43.7651" lon="7.1445">
        <ele>670</ele>
        <time>2019-07-25T07:30:51.000Z</time>
      </trkpt>
      <trkpt lat="43.76515" lon="7.14449">
        <ele>670.79998779297</ele>
        <time>2019-07-25T07:30:56.000Z</time>
      </trkpt>
      <trkpt lat="43.76519" lon="7.14448">
        <ele>671.20001220703</ele>
        <time>2019-07-25T07:30:59.000Z</time>
      </trkpt>
      <trkpt lat="43.76524" lon="7.14445">
        <ele>672</ele>
        <time>2019-07-25T07:31:04.000Z</time>
      </trkpt>
      <trkpt lat="43.76526" lon="7.14442">
        <ele>672.20001220703</ele>
        <time>2019-07-25T07:31:06.000Z</time>
      </trkpt>
      <trkpt lat="43.76531" lon="7.1444">
        <ele>672.79998779297</ele>
        <time>2019-07-25T07:31:10.000Z</time>
      </trkpt>
      <trkpt lat="43.76536" lon="7.14439">
        <ele>673.20001220703</ele>
        <time>2019-07-25T07:31:14.000Z</time>
      </trkpt>
      <trkpt lat="43.7654" lon="7.14436">
        <ele>673.79998779297</ele>
        <time>2019-07-25T07:31:17.000Z</time>
      </trkpt>
      <trkpt lat="43.76549" lon="7.14437">
        <ele>674.40002441406</ele>
        <time>2019-07-25T07:31:23.000Z</time>
      </trkpt>
      <trkpt lat="43.7655" lon="7.14437">
        <ele>674.40002441406</ele>
        <time>2019-07-25T07:31:24.000Z</time>
      </trkpt>
      <trkpt lat="43.7656" lon="7.14439">
        <ele>675.20001220703</ele>
        <time>2019-07-25T07:31:31.000Z</time>
      </trkpt>
      <trkpt lat="43.76563" lon="7.14439">
        <ele>675.40002441406</ele>
        <time>2019-07-25T07:31:33.000Z</time>
      </trkpt>
      <trkpt lat="43.76574" lon="7.14438">
        <ele>675.79998779297</ele>
        <time>2019-07-25T07:31:40.000Z</time>
      </trkpt>
      <trkpt lat="43.76586" lon="7.14438">
        <ele>676.59997558594</ele>
        <time>2019-07-25T07:31:48.000Z</time>
      </trkpt>
      <trkpt lat="43.76588" lon="7.14438">
        <ele>676.59997558594</ele>
        <time>2019-07-25T07:31:49.000Z</time>
      </trkpt>
      <trkpt lat="43.76599" lon="7.14436">
        <ele>677.20001220703</ele>
        <time>2019-07-25T07:31:56.000Z</time>
      </trkpt>
      <trkpt lat="43.76603" lon="7.14434">
        <ele>677.59997558594</ele>
        <time>2019-07-25T07:31:59.000Z</time>
      </trkpt>
      <trkpt lat="43.76607" lon="7.14434">
        <ele>678</ele>
        <time>2019-07-25T07:32:02.000Z</time>
      </trkpt>
      <trkpt lat="43.76616" lon="7.14433">
        <ele>678.79998779297</ele>
        <time>2019-07-25T07:32:09.000Z</time>
      </trkpt>
      <trkpt lat="43.76626" lon="7.14434">
        <ele>679.79998779297</ele>
        <time>2019-07-25T07:32:15.000Z</time>
      </trkpt>
      <trkpt lat="43.76627" lon="7.14435">
        <ele>680</ele>
        <time>2019-07-25T07:32:16.000Z</time>
      </trkpt>
      <trkpt lat="43.76629" lon="7.14435">
        <ele>680.59997558594</ele>
        <time>2019-07-25T07:32:18.000Z</time>
      </trkpt>
      <trkpt lat="43.76632" lon="7.14435">
        <ele>681</ele>
        <time>2019-07-25T07:32:20.000Z</time>
      </trkpt>
      <trkpt lat="43.76633" lon="7.14435">
        <ele>681.40002441406</ele>
        <time>2019-07-25T07:32:21.000Z</time>
      </trkpt>
      <trkpt lat="43.76642" lon="7.14433">
        <ele>681.79998779297</ele>
        <time>2019-07-25T07:32:27.000Z</time>
      </trkpt>
      <trkpt lat="43.76647" lon="7.14434">
        <ele>682.40002441406</ele>
        <time>2019-07-25T07:32:31.000Z</time>
      </trkpt>
      <trkpt lat="43.7665" lon="7.14435">
        <ele>682.59997558594</ele>
        <time>2019-07-25T07:32:33.000Z</time>
      </trkpt>
      <trkpt lat="43.76653" lon="7.14436">
        <ele>683</ele>
        <time>2019-07-25T07:32:36.000Z</time>
      </trkpt>
      <trkpt lat="43.76655" lon="7.14436">
        <ele>683.40002441406</ele>
        <time>2019-07-25T07:32:38.000Z</time>
      </trkpt>
      <trkpt lat="43.76657" lon="7.14436">
        <ele>683.59997558594</ele>
        <time>2019-07-25T07:32:39.000Z</time>
      </trkpt>
      <trkpt lat="43.7666" lon="7.14437">
        <ele>684.40002441406</ele>
        <time>2019-07-25T07:32:45.000Z</time>
      </trkpt>
      <trkpt lat="43.76661" lon="7.14437">
        <ele>684.79998779297</ele>
        <time>2019-07-25T07:32:50.000Z</time>
      </trkpt>
      <trkpt lat="43.76661" lon="7.14437">
        <ele>684.79998779297</ele>
        <time>2019-07-25T07:33:07.000Z</time>
      </trkpt>
      <trkpt lat="43.7666" lon="7.14437">
        <ele>684.79998779297</ele>
        <time>2019-07-25T07:33:22.000Z</time>
      </trkpt>
      <trkpt lat="43.76661" lon="7.14437">
        <ele>684.79998779297</ele>
        <time>2019-07-25T07:33:31.000Z</time>
      </trkpt>
      <trkpt lat="43.76661" lon="7.14437">
        <ele>685</ele>
        <time>2019-07-25T07:33:46.000Z</time>
      </trkpt>
      <trkpt lat="43.76661" lon="7.14436">
        <ele>684.79998779297</ele>
        <time>2019-07-25T07:33:56.000Z</time>
      </trkpt>
      <trkpt lat="43.76661" lon="7.14436">
        <ele>685.20001220703</ele>
        <time>2019-07-25T07:34:08.000Z</time>
      </trkpt>
      <trkpt lat="43.7666" lon="7.14436">
        <ele>684.79998779297</ele>
        <time>2019-07-25T07:34:19.000Z</time>
      </trkpt>
      <trkpt lat="43.76661" lon="7.14436">
        <ele>685</ele>
        <time>2019-07-25T07:34:29.000Z</time>
      </trkpt>
      <trkpt lat="43.76661" lon="7.14436">
        <ele>684.79998779297</ele>
        <time>2019-07-25T07:34:38.000Z</time>
      </trkpt>
      <trkpt lat="43.76661" lon="7.14436">
        <ele>684.59997558594</ele>
        <time>2019-07-25T07:34:55.000Z</time>
      </trkpt>
      <trkpt lat="43.76663" lon="7.14436">
        <ele>684.79998779297</ele>
        <time>2019-07-25T07:35:00.000Z</time>
      </trkpt>
      <trkpt lat="43.7667" lon="7.14436">
        <ele>685.59997558594</ele>
        <time>2019-07-25T07:35:06.000Z</time>
      </trkpt>
      <trkpt lat="43.76673" lon="7.14437">
        <ele>686</ele>
        <time>2019-07-25T07:35:08.000Z</time>
      </trkpt>
      <trkpt lat="43.76673" lon="7.14438">
        <ele>686.20001220703</ele>
        <time>2019-07-25T07:35:09.000Z</time>
      </trkpt>
      <trkpt lat="43.76677" lon="7.14439">
        <ele>686.59997558594</ele>
        <time>2019-07-25T07:35:12.000Z</time>
      </trkpt>
      <trkpt lat="43.76679" lon="7.1444">
        <ele>686.79998779297</ele>
        <time>2019-07-25T07:35:13.000Z</time>
      </trkpt>
      <trkpt lat="43.7668" lon="7.1444">
        <ele>686.79998779297</ele>
        <time>2019-07-25T07:35:14.000Z</time>
      </trkpt>
      <trkpt lat="43.76684" lon="7.14441">
        <ele>687.59997558594</ele>
        <time>2019-07-25T07:35:17.000Z</time>
      </trkpt>
      <trkpt lat="43.76686" lon="7.14443">
        <ele>688</ele>
        <time>2019-07-25T07:35:19.000Z</time>
      </trkpt>
      <trkpt lat="43.7669" lon="7.14443">
        <ele>688.79998779297</ele>
        <time>2019-07-25T07:35:23.000Z</time>
      </trkpt>
      <trkpt lat="43.7669" lon="7.14444">
        <ele>689</ele>
        <time>2019-07-25T07:35:28.000Z</time>
      </trkpt>
      <trkpt lat="43.7669" lon="7.14444">
        <ele>689.20001220703</ele>
        <time>2019-07-25T07:35:38.000Z</time>
      </trkpt>
      <trkpt lat="43.76689" lon="7.14444">
        <ele>689.40002441406</ele>
        <time>2019-07-25T07:35:53.000Z</time>
      </trkpt>
      <trkpt lat="43.7669" lon="7.14444">
        <ele>689.20001220703</ele>
        <time>2019-07-25T07:36:07.000Z</time>
      </trkpt>
      <trkpt lat="43.76692" lon="7.14444">
        <ele>689.40002441406</ele>
        <time>2019-07-25T07:36:14.000Z</time>
      </trkpt>
      <trkpt lat="43.76692" lon="7.14445">
        <ele>689.79998779297</ele>
        <time>2019-07-25T07:36:19.000Z</time>
      </trkpt>
      <trkpt lat="43.76692" lon="7.14445">
        <ele>689.59997558594</ele>
        <time>2019-07-25T07:36:23.000Z</time>
      </trkpt>
      <trkpt lat="43.76693" lon="7.14445">
        <ele>689.79998779297</ele>
        <time>2019-07-25T07:36:28.000Z</time>
      </trkpt>
      <trkpt lat="43.76696" lon="7.14445">
        <ele>689.59997558594</ele>
        <time>2019-07-25T07:36:34.000Z</time>
      </trkpt>
      <trkpt lat="43.76698" lon="7.14446">
        <ele>690.20001220703</ele>
        <time>2019-07-25T07:36:40.000Z</time>
      </trkpt>
      <trkpt lat="43.767" lon="7.14447">
        <ele>690.40002441406</ele>
        <time>2019-07-25T07:36:42.000Z</time>
      </trkpt>
      <trkpt lat="43.76703" lon="7.14448">
        <ele>690.59997558594</ele>
        <time>2019-07-25T07:36:44.000Z</time>
      </trkpt>
      <trkpt lat="43.76704" lon="7.14448">
        <ele>690.79998779297</ele>
        <time>2019-07-25T07:36:45.000Z</time>
      </trkpt>
      <trkpt lat="43.7671" lon="7.14449">
        <ele>691.20001220703</ele>
        <time>2019-07-25T07:36:49.000Z</time>
      </trkpt>
      <trkpt lat="43.76711" lon="7.1445">
        <ele>691.20001220703</ele>
        <time>2019-07-25T07:36:50.000Z</time>
      </trkpt>
      <trkpt lat="43.76715" lon="7.14453">
        <ele>692.20001220703</ele>
        <time>2019-07-25T07:36:53.000Z</time>
      </trkpt>
      <trkpt lat="43.76716" lon="7.14453">
        <ele>692.40002441406</ele>
        <time>2019-07-25T07:36:54.000Z</time>
      </trkpt>
      <trkpt lat="43.76719" lon="7.14454">
        <ele>692.40002441406</ele>
        <time>2019-07-25T07:36:56.000Z</time>
      </trkpt>
      <trkpt lat="43.76721" lon="7.14455">
        <ele>693.20001220703</ele>
        <time>2019-07-25T07:36:58.000Z</time>
      </trkpt>
      <trkpt lat="43.76726" lon="7.14458">
        <ele>694.20001220703</ele>
        <time>2019-07-25T07:37:01.000Z</time>
      </trkpt>
      <trkpt lat="43.76727" lon="7.14459">
        <ele>694.20001220703</ele>
        <time>2019-07-25T07:37:02.000Z</time>
      </trkpt>
      <trkpt lat="43.76735" lon="7.14463">
        <ele>695</ele>
        <time>2019-07-25T07:37:09.000Z</time>
      </trkpt>
      <trkpt lat="43.76739" lon="7.14465">
        <ele>695.20001220703</ele>
        <time>2019-07-25T07:37:12.000Z</time>
      </trkpt>
      <trkpt lat="43.7674" lon="7.14465">
        <ele>695.20001220703</ele>
        <time>2019-07-25T07:37:13.000Z</time>
      </trkpt>
      <trkpt lat="43.76743" lon="7.14466">
        <ele>695.59997558594</ele>
        <time>2019-07-25T07:37:15.000Z</time>
      </trkpt>
      <trkpt lat="43.76748" lon="7.1447">
        <ele>696.40002441406</ele>
        <time>2019-07-25T07:37:20.000Z</time>
      </trkpt>
      <trkpt lat="43.76749" lon="7.14469">
        <ele>696.40002441406</ele>
        <time>2019-07-25T07:37:21.000Z</time>
      </trkpt>
      <trkpt lat="43.76751" lon="7.14469">
        <ele>696.59997558594</ele>
        <time>2019-07-25T07:37:22.000Z</time>
      </trkpt>
      <trkpt lat="43.76758" lon="7.14461">
        <ele>696.59997558594</ele>
        <time>2019-07-25T07:37:27.000Z</time>
      </trkpt>
      <trkpt lat="43.7676" lon="7.14462">
        <ele>697.40002441406</ele>
        <time>2019-07-25T07:37:29.000Z</time>
      </trkpt>
      <trkpt lat="43.76763" lon="7.14462">
        <ele>698.59997558594</ele>
        <time>2019-07-25T07:37:32.000Z</time>
      </trkpt>
      <trkpt lat="43.76764" lon="7.14462">
        <ele>698.79998779297</ele>
        <time>2019-07-25T07:37:33.000Z</time>
      </trkpt>
      <trkpt lat="43.76767" lon="7.14464">
        <ele>699.20001220703</ele>
        <time>2019-07-25T07:37:36.000Z</time>
      </trkpt>
      <trkpt lat="43.76769" lon="7.14465">
        <ele>699.59997558594</ele>
        <time>2019-07-25T07:37:38.000Z</time>
      </trkpt>
      <trkpt lat="43.76777" lon="7.14471">
        <ele>699.79998779297</ele>
        <time>2019-07-25T07:37:44.000Z</time>
      </trkpt>
      <trkpt lat="43.76781" lon="7.14473">
        <ele>700.59997558594</ele>
        <time>2019-07-25T07:37:48.000Z</time>
      </trkpt>
      <trkpt lat="43.76786" lon="7.14475">
        <ele>701</ele>
        <time>2019-07-25T07:37:52.000Z</time>
      </trkpt>
      <trkpt lat="43.76791" lon="7.14477">
        <ele>702</ele>
        <time>2019-07-25T07:37:56.000Z</time>
      </trkpt>
      <trkpt lat="43.76795" lon="7.14477">
        <ele>702.40002441406</ele>
        <time>2019-07-25T07:37:59.000Z</time>
      </trkpt>
      <trkpt lat="43.76801" lon="7.14479">
        <ele>703</ele>
        <time>2019-07-25T07:38:04.000Z</time>
      </trkpt>
      <trkpt lat="43.76807" lon="7.1448">
        <ele>704</ele>
        <time>2019-07-25T07:38:09.000Z</time>
      </trkpt>
      <trkpt lat="43.76808" lon="7.1448">
        <ele>704.20001220703</ele>
        <time>2019-07-25T07:38:10.000Z</time>
      </trkpt>
      <trkpt lat="43.76814" lon="7.14481">
        <ele>705.20001220703</ele>
        <time>2019-07-25T07:38:16.000Z</time>
      </trkpt>
      <trkpt lat="43.76822" lon="7.14481">
        <ele>706.20001220703</ele>
        <time>2019-07-25T07:38:22.000Z</time>
      </trkpt>
      <trkpt lat="43.76823" lon="7.14481">
        <ele>706.40002441406</ele>
        <time>2019-07-25T07:38:23.000Z</time>
      </trkpt>
      <trkpt lat="43.76831" lon="7.14482">
        <ele>707.20001220703</ele>
        <time>2019-07-25T07:38:29.000Z</time>
      </trkpt>
      <trkpt lat="43.76838" lon="7.14484">
        <ele>708.20001220703</ele>
        <time>2019-07-25T07:38:34.000Z</time>
      </trkpt>
      <trkpt lat="43.7684" lon="7.14484">
        <ele>708.59997558594</ele>
        <time>2019-07-25T07:38:36.000Z</time>
      </trkpt>
      <trkpt lat="43.76847" lon="7.14483">
        <ele>709.40002441406</ele>
        <time>2019-07-25T07:38:42.000Z</time>
      </trkpt>
      <trkpt lat="43.7685" lon="7.14483">
        <ele>709.59997558594</ele>
        <time>2019-07-25T07:38:44.000Z</time>
      </trkpt>
      <trkpt lat="43.76853" lon="7.14484">
        <ele>710</ele>
        <time>2019-07-25T07:38:47.000Z</time>
      </trkpt>
      <trkpt lat="43.76856" lon="7.14485">
        <ele>710.40002441406</ele>
        <time>2019-07-25T07:38:49.000Z</time>
      </trkpt>
      <trkpt lat="43.76861" lon="7.14487">
        <ele>711</ele>
        <time>2019-07-25T07:38:53.000Z</time>
      </trkpt>
      <trkpt lat="43.76862" lon="7.14487">
        <ele>711.40002441406</ele>
        <time>2019-07-25T07:38:54.000Z</time>
      </trkpt>
      <trkpt lat="43.76864" lon="7.14487">
        <ele>711.59997558594</ele>
        <time>2019-07-25T07:38:55.000Z</time>
      </trkpt>
      <trkpt lat="43.7687" lon="7.14488">
        <ele>712</ele>
        <time>2019-07-25T07:38:59.000Z</time>
      </trkpt>
      <trkpt lat="43.76877" lon="7.14489">
        <ele>712.59997558594</ele>
        <time>2019-07-25T07:39:04.000Z</time>
      </trkpt>
      <trkpt lat="43.76881" lon="7.14489">
        <ele>712.79998779297</ele>
        <time>2019-07-25T07:39:06.000Z</time>
      </trkpt>
      <trkpt lat="43.7689" lon="7.14489">
        <ele>713.59997558594</ele>
        <time>2019-07-25T07:39:12.000Z</time>
      </trkpt>
      <trkpt lat="43.76893" lon="7.14489">
        <ele>713.79998779297</ele>
        <time>2019-07-25T07:39:14.000Z</time>
      </trkpt>
      <trkpt lat="43.76908" lon="7.14488">
        <ele>714.20001220703</ele>
        <time>2019-07-25T07:39:23.000Z</time>
      </trkpt>
      <trkpt lat="43.76915" lon="7.14485">
        <ele>714.79998779297</ele>
        <time>2019-07-25T07:39:27.000Z</time>
      </trkpt>
      <trkpt lat="43.76922" lon="7.14484">
        <ele>715</ele>
        <time>2019-07-25T07:39:31.000Z</time>
      </trkpt>
      <trkpt lat="43.76929" lon="7.14483">
        <ele>715.79998779297</ele>
        <time>2019-07-25T07:39:36.000Z</time>
      </trkpt>
      <trkpt lat="43.7693" lon="7.14483">
        <ele>715.79998779297</ele>
        <time>2019-07-25T07:39:37.000Z</time>
      </trkpt>
      <trkpt lat="43.76938" lon="7.14481">
        <ele>716.40002441406</ele>
        <time>2019-07-25T07:39:43.000Z</time>
      </trkpt>
      <trkpt lat="43.76941" lon="7.1448">
        <ele>717</ele>
        <time>2019-07-25T07:39:45.000Z</time>
      </trkpt>
      <trkpt lat="43.76946" lon="7.14479">
        <ele>717.59997558594</ele>
        <time>2019-07-25T07:39:49.000Z</time>
      </trkpt>
      <trkpt lat="43.7695" lon="7.14477">
        <ele>718</ele>
        <time>2019-07-25T07:39:52.000Z</time>
      </trkpt>
      <trkpt lat="43.76956" lon="7.14476">
        <ele>718.79998779297</ele>
        <time>2019-07-25T07:39:56.000Z</time>
      </trkpt>
      <trkpt lat="43.76959" lon="7.14476">
        <ele>719.20001220703</ele>
        <time>2019-07-25T07:39:58.000Z</time>
      </trkpt>
      <trkpt lat="43.76965" lon="7.14476">
        <ele>719.79998779297</ele>
        <time>2019-07-25T07:40:02.000Z</time>
      </trkpt>
      <trkpt lat="43.76977" lon="7.14475">
        <ele>719.79998779297</ele>
        <time>2019-07-25T07:40:09.000Z</time>
      </trkpt>
      <trkpt lat="43.76981" lon="7.14474">
        <ele>720.20001220703</ele>
        <time>2019-07-25T07:40:12.000Z</time>
      </trkpt>
      <trkpt lat="43.76988" lon="7.14472">
        <ele>720.79998779297</ele>
        <time>2019-07-25T07:40:16.000Z</time>
      </trkpt>
      <trkpt lat="43.76999" lon="7.14466">
        <ele>721.20001220703</ele>
        <time>2019-07-25T07:40:23.000Z</time>
      </trkpt>
      <trkpt lat="43.77011" lon="7.14465">
        <ele>722.20001220703</ele>
        <time>2019-07-25T07:40:30.000Z</time>
      </trkpt>
      <trkpt lat="43.7702" lon="7.14457">
        <ele>722.79998779297</ele>
        <time>2019-07-25T07:40:38.000Z</time>
      </trkpt>
      <trkpt lat="43.77023" lon="7.14455">
        <ele>723.40002441406</ele>
        <time>2019-07-25T07:40:40.000Z</time>
      </trkpt>
      <trkpt lat="43.77031" lon="7.1445">
        <ele>723.40002441406</ele>
        <time>2019-07-25T07:40:45.000Z</time>
      </trkpt>
      <trkpt lat="43.77037" lon="7.14444">
        <ele>724</ele>
        <time>2019-07-25T07:40:50.000Z</time>
      </trkpt>
      <trkpt lat="43.77043" lon="7.14439">
        <ele>724.40002441406</ele>
        <time>2019-07-25T07:40:54.000Z</time>
      </trkpt>
      <trkpt lat="43.77047" lon="7.14436">
        <ele>724.59997558594</ele>
        <time>2019-07-25T07:40:56.000Z</time>
      </trkpt>
      <trkpt lat="43.77057" lon="7.14429">
        <ele>725</ele>
        <time>2019-07-25T07:41:02.000Z</time>
      </trkpt>
      <trkpt lat="43.77065" lon="7.14419">
        <ele>725.40002441406</ele>
        <time>2019-07-25T07:41:08.000Z</time>
      </trkpt>
      <trkpt lat="43.77076" lon="7.1441">
        <ele>725.79998779297</ele>
        <time>2019-07-25T07:41:15.000Z</time>
      </trkpt>
      <trkpt lat="43.77089" lon="7.14403">
        <ele>726.40002441406</ele>
        <time>2019-07-25T07:41:22.000Z</time>
      </trkpt>
      <trkpt lat="43.77092" lon="7.14401">
        <ele>726.40002441406</ele>
        <time>2019-07-25T07:41:24.000Z</time>
      </trkpt>
      <trkpt lat="43.77102" lon="7.14396">
        <ele>727</ele>
        <time>2019-07-25T07:41:29.000Z</time>
      </trkpt>
      <trkpt lat="43.77113" lon="7.14384">
        <ele>727</ele>
        <time>2019-07-25T07:41:36.000Z</time>
      </trkpt>
      <trkpt lat="43.77121" lon="7.14374">
        <ele>727.59997558594</ele>
        <time>2019-07-25T07:41:41.000Z</time>
      </trkpt>
      <trkpt lat="43.77129" lon="7.14365">
        <ele>727.79998779297</ele>
        <time>2019-07-25T07:41:46.000Z</time>
      </trkpt>
      <trkpt lat="43.77139" lon="7.14349">
        <ele>728.59997558594</ele>
        <time>2019-07-25T07:41:53.000Z</time>
      </trkpt>
      <trkpt lat="43.7714" lon="7.14347">
        <ele>728.79998779297</ele>
        <time>2019-07-25T07:41:54.000Z</time>
      </trkpt>
      <trkpt lat="43.77148" lon="7.14339">
        <ele>729.40002441406</ele>
        <time>2019-07-25T07:41:59.000Z</time>
      </trkpt>
      <trkpt lat="43.77154" lon="7.14332">
        <ele>730</ele>
        <time>2019-07-25T07:42:03.000Z</time>
      </trkpt>
      <trkpt lat="43.77162" lon="7.14325">
        <ele>730</ele>
        <time>2019-07-25T07:42:08.000Z</time>
      </trkpt>
      <trkpt lat="43.77173" lon="7.14309">
        <ele>730.79998779297</ele>
        <time>2019-07-25T07:42:16.000Z</time>
      </trkpt>
      <trkpt lat="43.77183" lon="7.14289">
        <ele>731</ele>
        <time>2019-07-25T07:42:25.000Z</time>
      </trkpt>
      <trkpt lat="43.7719" lon="7.14276">
        <ele>731.59997558594</ele>
        <time>2019-07-25T07:42:31.000Z</time>
      </trkpt>
      <trkpt lat="43.77198" lon="7.1427">
        <ele>732</ele>
        <time>2019-07-25T07:42:36.000Z</time>
      </trkpt>
      <trkpt lat="43.772" lon="7.14268">
        <ele>732.20001220703</ele>
        <time>2019-07-25T07:42:37.000Z</time>
      </trkpt>
      <trkpt lat="43.77214" lon="7.14256">
        <ele>733.20001220703</ele>
        <time>2019-07-25T07:42:45.000Z</time>
      </trkpt>
      <trkpt lat="43.77216" lon="7.14254">
        <ele>733.20001220703</ele>
        <time>2019-07-25T07:42:46.000Z</time>
      </trkpt>
      <trkpt lat="43.77226" lon="7.14242">
        <ele>733.59997558594</ele>
        <time>2019-07-25T07:42:53.000Z</time>
      </trkpt>
      <trkpt lat="43.77236" lon="7.14233">
        <ele>734.20001220703</ele>
        <time>2019-07-25T07:43:00.000Z</time>
      </trkpt>
      <trkpt lat="43.77243" lon="7.14222">
        <ele>734.79998779297</ele>
        <time>2019-07-25T07:43:06.000Z</time>
      </trkpt>
      <trkpt lat="43.77247" lon="7.14214">
        <ele>735.40002441406</ele>
        <time>2019-07-25T07:43:10.000Z</time>
      </trkpt>
      <trkpt lat="43.7725" lon="7.14202">
        <ele>736</ele>
        <time>2019-07-25T07:43:15.000Z</time>
      </trkpt>
      <trkpt lat="43.77249" lon="7.14195">
        <ele>736.59997558594</ele>
        <time>2019-07-25T07:43:18.000Z</time>
      </trkpt>
      <trkpt lat="43.77245" lon="7.14187">
        <ele>736.79998779297</ele>
        <time>2019-07-25T07:43:22.000Z</time>
      </trkpt>
      <trkpt lat="43.77247" lon="7.14176">
        <ele>737</ele>
        <time>2019-07-25T07:43:27.000Z</time>
      </trkpt>
      <trkpt lat="43.77251" lon="7.14168">
        <ele>737.59997558594</ele>
        <time>2019-07-25T07:43:31.000Z</time>
      </trkpt>
      <trkpt lat="43.77257" lon="7.14162">
        <ele>738</ele>
        <time>2019-07-25T07:43:35.000Z</time>
      </trkpt>
      <trkpt lat="43.77262" lon="7.14154">
        <ele>738.59997558594</ele>
        <time>2019-07-25T07:43:40.000Z</time>
      </trkpt>
      <trkpt lat="43.77265" lon="7.1415">
        <ele>738.79998779297</ele>
        <time>2019-07-25T07:43:42.000Z</time>
      </trkpt>
      <trkpt lat="43.77271" lon="7.14142">
        <ele>739.59997558594</ele>
        <time>2019-07-25T07:43:47.000Z</time>
      </trkpt>
      <trkpt lat="43.77274" lon="7.14135">
        <ele>740.20001220703</ele>
        <time>2019-07-25T07:43:51.000Z</time>
      </trkpt>
      <trkpt lat="43.77276" lon="7.14129">
        <ele>740.59997558594</ele>
        <time>2019-07-25T07:43:54.000Z</time>
      </trkpt>
      <trkpt lat="43.7728" lon="7.14122">
        <ele>741.40002441406</ele>
        <time>2019-07-25T07:43:58.000Z</time>
      </trkpt>
      <trkpt lat="43.77284" lon="7.14114">
        <ele>741.79998779297</ele>
        <time>2019-07-25T07:44:02.000Z</time>
      </trkpt>
      <trkpt lat="43.77287" lon="7.14107">
        <ele>742.20001220703</ele>
        <time>2019-07-25T07:44:06.000Z</time>
      </trkpt>
      <trkpt lat="43.77291" lon="7.14097">
        <ele>742.79998779297</ele>
        <time>2019-07-25T07:44:12.000Z</time>
      </trkpt>
      <trkpt lat="43.77292" lon="7.14095">
        <ele>743</ele>
        <time>2019-07-25T07:44:13.000Z</time>
      </trkpt>
      <trkpt lat="43.77295" lon="7.14085">
        <ele>743.79998779297</ele>
        <time>2019-07-25T07:44:18.000Z</time>
      </trkpt>
      <trkpt lat="43.77297" lon="7.14084">
        <ele>744</ele>
        <time>2019-07-25T07:44:19.000Z</time>
      </trkpt>
      <trkpt lat="43.77304" lon="7.14076">
        <ele>744.79998779297</ele>
        <time>2019-07-25T07:44:24.000Z</time>
      </trkpt>
      <trkpt lat="43.77307" lon="7.14073">
        <ele>745.20001220703</ele>
        <time>2019-07-25T07:44:26.000Z</time>
      </trkpt>
      <trkpt lat="43.77315" lon="7.14066">
        <ele>746</ele>
        <time>2019-07-25T07:44:32.000Z</time>
      </trkpt>
      <trkpt lat="43.77325" lon="7.14057">
        <ele>746.79998779297</ele>
        <time>2019-07-25T07:44:40.000Z</time>
      </trkpt>
      <trkpt lat="43.77326" lon="7.14056">
        <ele>747</ele>
        <time>2019-07-25T07:44:41.000Z</time>
      </trkpt>
      <trkpt lat="43.77332" lon="7.14052">
        <ele>747.59997558594</ele>
        <time>2019-07-25T07:44:45.000Z</time>
      </trkpt>
      <trkpt lat="43.77338" lon="7.14049">
        <ele>748.20001220703</ele>
        <time>2019-07-25T07:44:49.000Z</time>
      </trkpt>
      <trkpt lat="43.77342" lon="7.14048">
        <ele>748.79998779297</ele>
        <time>2019-07-25T07:44:52.000Z</time>
      </trkpt>
      <trkpt lat="43.77346" lon="7.14047">
        <ele>749.20001220703</ele>
        <time>2019-07-25T07:44:55.000Z</time>
      </trkpt>
      <trkpt lat="43.77346" lon="7.14048">
        <ele>749.40002441406</ele>
        <time>2019-07-25T07:44:56.000Z</time>
      </trkpt>
      <trkpt lat="43.77346" lon="7.14048">
        <ele>749.59997558594</ele>
        <time>2019-07-25T07:44:58.000Z</time>
      </trkpt>
      <trkpt lat="43.77348" lon="7.14048">
        <ele>750.20001220703</ele>
        <time>2019-07-25T07:45:03.000Z</time>
      </trkpt>
      <trkpt lat="43.77348" lon="7.14047">
        <ele>750.20001220703</ele>
        <time>2019-07-25T07:45:04.000Z</time>
      </trkpt>
      <trkpt lat="43.77352" lon="7.14045">
        <ele>750.40002441406</ele>
        <time>2019-07-25T07:45:08.000Z</time>
      </trkpt>
      <trkpt lat="43.77354" lon="7.14044">
        <ele>750.40002441406</ele>
        <time>2019-07-25T07:45:09.000Z</time>
      </trkpt>
      <trkpt lat="43.77358" lon="7.14042">
        <ele>751</ele>
        <time>2019-07-25T07:45:12.000Z</time>
      </trkpt>
      <trkpt lat="43.77359" lon="7.14042">
        <ele>751.20001220703</ele>
        <time>2019-07-25T07:45:13.000Z</time>
      </trkpt>
      <trkpt lat="43.77364" lon="7.1404">
        <ele>752.20001220703</ele>
        <time>2019-07-25T07:45:16.000Z</time>
      </trkpt>
      <trkpt lat="43.77365" lon="7.1404">
        <ele>752.59997558594</ele>
        <time>2019-07-25T07:45:17.000Z</time>
      </trkpt>
      <trkpt lat="43.77368" lon="7.14038">
        <ele>753.59997558594</ele>
        <time>2019-07-25T07:45:20.000Z</time>
      </trkpt>
      <trkpt lat="43.77368" lon="7.14036">
        <ele>754</ele>
        <time>2019-07-25T07:45:21.000Z</time>
      </trkpt>
      <trkpt lat="43.77372" lon="7.1402">
        <ele>754.40002441406</ele>
        <time>2019-07-25T07:45:29.000Z</time>
      </trkpt>
      <trkpt lat="43.77375" lon="7.14014">
        <ele>754.79998779297</ele>
        <time>2019-07-25T07:45:32.000Z</time>
      </trkpt>
      <trkpt lat="43.7738" lon="7.1401">
        <ele>755</ele>
        <time>2019-07-25T07:45:36.000Z</time>
      </trkpt>
      <trkpt lat="43.77388" lon="7.1401">
        <ele>755.79998779297</ele>
        <time>2019-07-25T07:45:42.000Z</time>
      </trkpt>
      <trkpt lat="43.7739" lon="7.14011">
        <ele>755.79998779297</ele>
        <time>2019-07-25T07:45:43.000Z</time>
      </trkpt>
      <trkpt lat="43.77398" lon="7.14013">
        <ele>756.59997558594</ele>
        <time>2019-07-25T07:45:49.000Z</time>
      </trkpt>
      <trkpt lat="43.774" lon="7.14013">
        <ele>756.79998779297</ele>
        <time>2019-07-25T07:45:50.000Z</time>
      </trkpt>
      <trkpt lat="43.77409" lon="7.1401">
        <ele>757.40002441406</ele>
        <time>2019-07-25T07:45:56.000Z</time>
      </trkpt>
      <trkpt lat="43.77418" lon="7.14005">
        <ele>757.79998779297</ele>
        <time>2019-07-25T07:46:02.000Z</time>
      </trkpt>
      <trkpt lat="43.77422" lon="7.14002">
        <ele>758</ele>
        <time>2019-07-25T07:46:04.000Z</time>
      </trkpt>
      <trkpt lat="43.77432" lon="7.13994">
        <ele>758.59997558594</ele>
        <time>2019-07-25T07:46:11.000Z</time>
      </trkpt>
      <trkpt lat="43.77435" lon="7.13994">
        <ele>759</ele>
        <time>2019-07-25T07:46:13.000Z</time>
      </trkpt>
      <trkpt lat="43.77439" lon="7.13987">
        <ele>759.40002441406</ele>
        <time>2019-07-25T07:46:17.000Z</time>
      </trkpt>
      <trkpt lat="43.77445" lon="7.1397">
        <ele>759.59997558594</ele>
        <time>2019-07-25T07:46:25.000Z</time>
      </trkpt>
      <trkpt lat="43.77449" lon="7.13962">
        <ele>760</ele>
        <time>2019-07-25T07:46:30.000Z</time>
      </trkpt>
      <trkpt lat="43.7745" lon="7.13962">
        <ele>760.20001220703</ele>
        <time>2019-07-25T07:46:31.000Z</time>
      </trkpt>
      <trkpt lat="43.77453" lon="7.13956">
        <ele>761.20001220703</ele>
        <time>2019-07-25T07:46:36.000Z</time>
      </trkpt>
      <trkpt lat="43.77456" lon="7.13947">
        <ele>762</ele>
        <time>2019-07-25T07:46:42.000Z</time>
      </trkpt>
      <trkpt lat="43.77459" lon="7.13948">
        <ele>762.40002441406</ele>
        <time>2019-07-25T07:46:44.000Z</time>
      </trkpt>
      <trkpt lat="43.77461" lon="7.13949">
        <ele>762.79998779297</ele>
        <time>2019-07-25T07:46:46.000Z</time>
      </trkpt>
      <trkpt lat="43.77467" lon="7.13951">
        <ele>763.40002441406</ele>
        <time>2019-07-25T07:46:51.000Z</time>
      </trkpt>
      <trkpt lat="43.77468" lon="7.13952">
        <ele>763.59997558594</ele>
        <time>2019-07-25T07:46:52.000Z</time>
      </trkpt>
      <trkpt lat="43.77467" lon="7.1396">
        <ele>764.20001220703</ele>
        <time>2019-07-25T07:46:57.000Z</time>
      </trkpt>
      <trkpt lat="43.77467" lon="7.13963">
        <ele>764.40002441406</ele>
        <time>2019-07-25T07:46:59.000Z</time>
      </trkpt>
      <trkpt lat="43.77467" lon="7.13971">
        <ele>764.59997558594</ele>
        <time>2019-07-25T07:47:03.000Z</time>
      </trkpt>
      <trkpt lat="43.77467" lon="7.13972">
        <ele>764.59997558594</ele>
        <time>2019-07-25T07:47:04.000Z</time>
      </trkpt>
      <trkpt lat="43.77468" lon="7.13976">
        <ele>764.79998779297</ele>
        <time>2019-07-25T07:47:09.000Z</time>
      </trkpt>
      <trkpt lat="43.77469" lon="7.13975">
        <ele>764.79998779297</ele>
        <time>2019-07-25T07:47:15.000Z</time>
      </trkpt>
      <trkpt lat="43.7747" lon="7.13976">
        <ele>765.20001220703</ele>
        <time>2019-07-25T07:47:20.000Z</time>
      </trkpt>
      <trkpt lat="43.7747" lon="7.13976">
        <ele>764.79998779297</ele>
        <time>2019-07-25T07:47:25.000Z</time>
      </trkpt>
      <trkpt lat="43.7747" lon="7.13977">
        <ele>765</ele>
        <time>2019-07-25T07:47:33.000Z</time>
      </trkpt>
      <trkpt lat="43.7747" lon="7.13977">
        <ele>765.20001220703</ele>
        <time>2019-07-25T07:47:38.000Z</time>
      </trkpt>
      <trkpt lat="43.7747" lon="7.13978">
        <ele>765.20001220703</ele>
        <time>2019-07-25T07:47:48.000Z</time>
      </trkpt>
      <trkpt lat="43.7747" lon="7.13979">
        <ele>764.79998779297</ele>
        <time>2019-07-25T07:47:56.000Z</time>
      </trkpt>
      <trkpt lat="43.7747" lon="7.13979">
        <ele>765</ele>
        <time>2019-07-25T07:48:04.000Z</time>
      </trkpt>
      <trkpt lat="43.77469" lon="7.1398">
        <ele>764.79998779297</ele>
        <time>2019-07-25T07:48:16.000Z</time>
      </trkpt>
      <trkpt lat="43.77469" lon="7.1398">
        <ele>764.79998779297</ele>
        <time>2019-07-25T07:48:22.000Z</time>
      </trkpt>
      <trkpt lat="43.77469" lon="7.13978">
        <ele>764.79998779297</ele>
        <time>2019-07-25T07:48:27.000Z</time>
      </trkpt>
      <trkpt lat="43.77469" lon="7.13979">
        <ele>764.40002441406</ele>
        <time>2019-07-25T07:48:31.000Z</time>
      </trkpt>
      <trkpt lat="43.77469" lon="7.13979">
        <ele>764.79998779297</ele>
        <time>2019-07-25T07:48:38.000Z</time>
      </trkpt>
      <trkpt lat="43.77469" lon="7.13979">
        <ele>764.79998779297</ele>
        <time>2019-07-25T07:48:44.000Z</time>
      </trkpt>
      <trkpt lat="43.77469" lon="7.13979">
        <ele>764.40002441406</ele>
        <time>2019-07-25T07:48:54.000Z</time>
      </trkpt>
      <trkpt lat="43.77469" lon="7.1398">
        <ele>764.59997558594</ele>
        <time>2019-07-25T07:49:03.000Z</time>
      </trkpt>
      <trkpt lat="43.7747" lon="7.13981">
        <ele>764.79998779297</ele>
        <time>2019-07-25T07:49:06.000Z</time>
      </trkpt>
      <trkpt lat="43.7747" lon="7.13981">
        <ele>765</ele>
        <time>2019-07-25T07:49:08.000Z</time>
      </trkpt>
      <trkpt lat="43.7747" lon="7.13981">
        <ele>764.79998779297</ele>
        <time>2019-07-25T07:49:25.000Z</time>
      </trkpt>
      <trkpt lat="43.7747" lon="7.13981">
        <ele>764.79998779297</ele>
        <time>2019-07-25T07:49:35.000Z</time>
      </trkpt>
      <trkpt lat="43.77469" lon="7.13981">
        <ele>764.59997558594</ele>
        <time>2019-07-25T07:49:44.000Z</time>
      </trkpt>
      <trkpt lat="43.77469" lon="7.13982">
        <ele>764.79998779297</ele>
        <time>2019-07-25T07:50:00.000Z</time>
      </trkpt>
      <trkpt lat="43.77469" lon="7.13983">
        <ele>764.79998779297</ele>
        <time>2019-07-25T07:50:11.000Z</time>
      </trkpt>
      <trkpt lat="43.77469" lon="7.13983">
        <ele>764.59997558594</ele>
        <time>2019-07-25T07:50:18.000Z</time>
      </trkpt>
      <trkpt lat="43.77469" lon="7.13981">
        <ele>764.59997558594</ele>
        <time>2019-07-25T07:50:24.000Z</time>
      </trkpt>
      <trkpt lat="43.77469" lon="7.1398">
        <ele>764.59997558594</ele>
        <time>2019-07-25T07:50:26.000Z</time>
      </trkpt>
      <trkpt lat="43.77468" lon="7.13978">
        <ele>764.59997558594</ele>
        <time>2019-07-25T07:50:36.000Z</time>
      </trkpt>
      <trkpt lat="43.77467" lon="7.13979">
        <ele>764.59997558594</ele>
        <time>2019-07-25T07:50:42.000Z</time>
      </trkpt>
      <trkpt lat="43.77467" lon="7.13978">
        <ele>764.79998779297</ele>
        <time>2019-07-25T07:50:52.000Z</time>
      </trkpt>
      <trkpt lat="43.77466" lon="7.13978">
        <ele>764.79998779297</ele>
        <time>2019-07-25T07:51:00.000Z</time>
      </trkpt>
      <trkpt lat="43.77467" lon="7.13979">
        <ele>764.59997558594</ele>
        <time>2019-07-25T07:51:09.000Z</time>
      </trkpt>
      <trkpt lat="43.77466" lon="7.1398">
        <ele>764.59997558594</ele>
        <time>2019-07-25T07:51:25.000Z</time>
      </trkpt>
      <trkpt lat="43.77464" lon="7.13981">
        <ele>764.59997558594</ele>
        <time>2019-07-25T07:51:44.000Z</time>
      </trkpt>
      <trkpt lat="43.77465" lon="7.13981">
        <ele>764.59997558594</ele>
        <time>2019-07-25T07:51:55.000Z</time>
      </trkpt>
      <trkpt lat="43.77466" lon="7.13981">
        <ele>764.59997558594</ele>
        <time>2019-07-25T07:52:05.000Z</time>
      </trkpt>
      <trkpt lat="43.77466" lon="7.1398">
        <ele>764.79998779297</ele>
        <time>2019-07-25T07:52:20.000Z</time>
      </trkpt>
      <trkpt lat="43.77467" lon="7.1398">
        <ele>764.59997558594</ele>
        <time>2019-07-25T07:52:30.000Z</time>
      </trkpt>
      <trkpt lat="43.77467" lon="7.1398">
        <ele>764.59997558594</ele>
        <time>2019-07-25T07:52:43.000Z</time>
      </trkpt>
      <trkpt lat="43.77467" lon="7.13981">
        <ele>764.79998779297</ele>
        <time>2019-07-25T07:52:56.000Z</time>
      </trkpt>
      <trkpt lat="43.77467" lon="7.13982">
        <ele>764.79998779297</ele>
        <time>2019-07-25T07:53:07.000Z</time>
      </trkpt>
      <trkpt lat="43.77466" lon="7.13982">
        <ele>764.59997558594</ele>
        <time>2019-07-25T07:53:17.000Z</time>
      </trkpt>
      <trkpt lat="43.77466" lon="7.13982">
        <ele>764.79998779297</ele>
        <time>2019-07-25T07:53:28.000Z</time>
      </trkpt>
      <trkpt lat="43.77466" lon="7.13983">
        <ele>764.79998779297</ele>
        <time>2019-07-25T07:53:38.000Z</time>
      </trkpt>
      <trkpt lat="43.77468" lon="7.13981">
        <ele>764.79998779297</ele>
        <time>2019-07-25T07:53:55.000Z</time>
      </trkpt>
      <trkpt lat="43.77465" lon="7.13981">
        <ele>764.59997558594</ele>
        <time>2019-07-25T07:54:12.000Z</time>
      </trkpt>
      <trkpt lat="43.77464" lon="7.13981">
        <ele>764.79998779297</ele>
        <time>2019-07-25T07:54:24.000Z</time>
      </trkpt>
      <trkpt lat="43.77463" lon="7.13981">
        <ele>764.79998779297</ele>
        <time>2019-07-25T07:54:34.000Z</time>
      </trkpt>
      <trkpt lat="43.77463" lon="7.1398">
        <ele>764.79998779297</ele>
        <time>2019-07-25T07:54:42.000Z</time>
      </trkpt>
      <trkpt lat="43.77462" lon="7.13978">
        <ele>764.59997558594</ele>
        <time>2019-07-25T07:54:54.000Z</time>
      </trkpt>
      <trkpt lat="43.77462" lon="7.1398">
        <ele>764.59997558594</ele>
        <time>2019-07-25T07:55:06.000Z</time>
      </trkpt>
      <trkpt lat="43.77462" lon="7.13979">
        <ele>764.79998779297</ele>
        <time>2019-07-25T07:55:16.000Z</time>
      </trkpt>
      <trkpt lat="43.77463" lon="7.13982">
        <ele>764.59997558594</ele>
        <time>2019-07-25T07:55:30.000Z</time>
      </trkpt>
      <trkpt lat="43.77463" lon="7.13979">
        <ele>764.59997558594</ele>
        <time>2019-07-25T07:55:42.000Z</time>
      </trkpt>
      <trkpt lat="43.77462" lon="7.13978">
        <ele>764.40002441406</ele>
        <time>2019-07-25T07:55:56.000Z</time>
      </trkpt>
      <trkpt lat="43.77462" lon="7.13976">
        <ele>764.40002441406</ele>
        <time>2019-07-25T07:56:11.000Z</time>
      </trkpt>
      <trkpt lat="43.77463" lon="7.13975">
        <ele>764.79998779297</ele>
        <time>2019-07-25T07:56:20.000Z</time>
      </trkpt>
      <trkpt lat="43.77464" lon="7.13975">
        <ele>764.59997558594</ele>
        <time>2019-07-25T07:56:32.000Z</time>
      </trkpt>
      <trkpt lat="43.77465" lon="7.13975">
        <ele>764.59997558594</ele>
        <time>2019-07-25T07:56:39.000Z</time>
      </trkpt>
      <trkpt lat="43.77466" lon="7.13976">
        <ele>764.40002441406</ele>
        <time>2019-07-25T07:56:50.000Z</time>
      </trkpt>
      <trkpt lat="43.77465" lon="7.13978">
        <ele>764.40002441406</ele>
        <time>2019-07-25T07:57:00.000Z</time>
      </trkpt>
      <trkpt lat="43.77465" lon="7.13979">
        <ele>764.40002441406</ele>
        <time>2019-07-25T07:57:12.000Z</time>
      </trkpt>
      <trkpt lat="43.77465" lon="7.1398">
        <ele>764.40002441406</ele>
        <time>2019-07-25T07:57:27.000Z</time>
      </trkpt>
      <trkpt lat="43.77464" lon="7.1398">
        <ele>764.40002441406</ele>
        <time>2019-07-25T07:57:38.000Z</time>
      </trkpt>
      <trkpt lat="43.77464" lon="7.13982">
        <ele>764.40002441406</ele>
        <time>2019-07-25T07:57:52.000Z</time>
      </trkpt>
      <trkpt lat="43.77464" lon="7.13983">
        <ele>764.20001220703</ele>
        <time>2019-07-25T07:58:05.000Z</time>
      </trkpt>
      <trkpt lat="43.77465" lon="7.13982">
        <ele>764.40002441406</ele>
        <time>2019-07-25T07:58:14.000Z</time>
      </trkpt>
      <trkpt lat="43.77465" lon="7.13982">
        <ele>764.40002441406</ele>
        <time>2019-07-25T07:58:27.000Z</time>
      </trkpt>
      <trkpt lat="43.77465" lon="7.13982">
        <ele>764.40002441406</ele>
        <time>2019-07-25T07:58:46.000Z</time>
      </trkpt>
      <trkpt lat="43.77466" lon="7.13981">
        <ele>764.59997558594</ele>
        <time>2019-07-25T07:58:52.000Z</time>
      </trkpt>
      <trkpt lat="43.77467" lon="7.1398">
        <ele>764.40002441406</ele>
        <time>2019-07-25T07:59:04.000Z</time>
      </trkpt>
      <trkpt lat="43.77468" lon="7.13979">
        <ele>764.40002441406</ele>
        <time>2019-07-25T07:59:16.000Z</time>
      </trkpt>
      <trkpt lat="43.77467" lon="7.13979">
        <ele>764.40002441406</ele>
        <time>2019-07-25T07:59:25.000Z</time>
      </trkpt>
      <trkpt lat="43.77467" lon="7.1398">
        <ele>764.40002441406</ele>
        <time>2019-07-25T07:59:35.000Z</time>
      </trkpt>
      <trkpt lat="43.77467" lon="7.13981">
        <ele>764.79998779297</ele>
        <time>2019-07-25T07:59:39.000Z</time>
      </trkpt>
      <trkpt lat="43.77467" lon="7.1398">
        <ele>764.40002441406</ele>
        <time>2019-07-25T07:59:45.000Z</time>
      </trkpt>
      <trkpt lat="43.77467" lon="7.1398">
        <ele>764.20001220703</ele>
        <time>2019-07-25T07:59:51.000Z</time>
      </trkpt>
      <trkpt lat="43.77466" lon="7.13979">
        <ele>764.20001220703</ele>
        <time>2019-07-25T08:00:00.000Z</time>
      </trkpt>
      <trkpt lat="43.77468" lon="7.13978">
        <ele>764.40002441406</ele>
        <time>2019-07-25T08:00:12.000Z</time>
      </trkpt>
      <trkpt lat="43.77468" lon="7.13978">
        <ele>764.79998779297</ele>
        <time>2019-07-25T08:00:17.000Z</time>
      </trkpt>
      <trkpt lat="43.77469" lon="7.13979">
        <ele>764.79998779297</ele>
        <time>2019-07-25T08:00:29.000Z</time>
      </trkpt>
      <trkpt lat="43.77469" lon="7.13977">
        <ele>764.59997558594</ele>
        <time>2019-07-25T08:00:42.000Z</time>
      </trkpt>
      <trkpt lat="43.7747" lon="7.13977">
        <ele>764.40002441406</ele>
        <time>2019-07-25T08:00:53.000Z</time>
      </trkpt>
      <trkpt lat="43.77469" lon="7.13977">
        <ele>764</ele>
        <time>2019-07-25T08:01:04.000Z</time>
      </trkpt>
      <trkpt lat="43.77469" lon="7.13977">
        <ele>765</ele>
        <time>2019-07-25T08:01:12.000Z</time>
      </trkpt>
      <trkpt lat="43.77467" lon="7.13978">
        <ele>764.40002441406</ele>
        <time>2019-07-25T08:01:22.000Z</time>
      </trkpt>
      <trkpt lat="43.77468" lon="7.13978">
        <ele>764.40002441406</ele>
        <time>2019-07-25T08:01:31.000Z</time>
      </trkpt>
      <trkpt lat="43.77467" lon="7.13978">
        <ele>764.59997558594</ele>
        <time>2019-07-25T08:01:44.000Z</time>
      </trkpt>
      <trkpt lat="43.77467" lon="7.13977">
        <ele>764.40002441406</ele>
        <time>2019-07-25T08:01:56.000Z</time>
      </trkpt>
      <trkpt lat="43.77466" lon="7.13977">
        <ele>764.20001220703</ele>
        <time>2019-07-25T08:02:02.000Z</time>
      </trkpt>
      <trkpt lat="43.77469" lon="7.13976">
        <ele>764.20001220703</ele>
        <time>2019-07-25T08:02:06.000Z</time>
      </trkpt>
      <trkpt lat="43.7747" lon="7.13976">
        <ele>764.40002441406</ele>
        <time>2019-07-25T08:02:08.000Z</time>
      </trkpt>
      <trkpt lat="43.77477" lon="7.13975">
        <ele>765.20001220703</ele>
        <time>2019-07-25T08:02:15.000Z</time>
      </trkpt>
      <trkpt lat="43.7748" lon="7.13974">
        <ele>765.59997558594</ele>
        <time>2019-07-25T08:02:18.000Z</time>
      </trkpt>
      <trkpt lat="43.77484" lon="7.13974">
        <ele>766.40002441406</ele>
        <time>2019-07-25T08:02:23.000Z</time>
      </trkpt>
      <trkpt lat="43.77488" lon="7.13975">
        <ele>766.59997558594</ele>
        <time>2019-07-25T08:02:26.000Z</time>
      </trkpt>
      <trkpt lat="43.77492" lon="7.13978">
        <ele>767.40002441406</ele>
        <time>2019-07-25T08:02:31.000Z</time>
      </trkpt>
      <trkpt lat="43.77494" lon="7.13981">
        <ele>767.59997558594</ele>
        <time>2019-07-25T08:02:35.000Z</time>
      </trkpt>
      <trkpt lat="43.77497" lon="7.13984">
        <ele>768.20001220703</ele>
        <time>2019-07-25T08:02:40.000Z</time>
      </trkpt>
      <trkpt lat="43.77497" lon="7.13984">
        <ele>768.79998779297</ele>
        <time>2019-07-25T08:02:42.000Z</time>
      </trkpt>
      <trkpt lat="43.77498" lon="7.13984">
        <ele>769</ele>
        <time>2019-07-25T08:02:46.000Z</time>
      </trkpt>
      <trkpt lat="43.77501" lon="7.13987">
        <ele>769.59997558594</ele>
        <time>2019-07-25T08:02:53.000Z</time>
      </trkpt>
      <trkpt lat="43.77502" lon="7.13988">
        <ele>769.79998779297</ele>
        <time>2019-07-25T08:02:56.000Z</time>
      </trkpt>
      <trkpt lat="43.77506" lon="7.13991">
        <ele>770.79998779297</ele>
        <time>2019-07-25T08:03:03.000Z</time>
      </trkpt>
      <trkpt lat="43.77507" lon="7.13993">
        <ele>771.79998779297</ele>
        <time>2019-07-25T08:03:11.000Z</time>
      </trkpt>
      <trkpt lat="43.77507" lon="7.13992">
        <ele>771.59997558594</ele>
        <time>2019-07-25T08:03:26.000Z</time>
      </trkpt>
      <trkpt lat="43.77509" lon="7.13995">
        <ele>771.59997558594</ele>
        <time>2019-07-25T08:03:33.000Z</time>
      </trkpt>
      <trkpt lat="43.7751" lon="7.13995">
        <ele>772</ele>
        <time>2019-07-25T08:03:35.000Z</time>
      </trkpt>
      <trkpt lat="43.77512" lon="7.13995">
        <ele>772.59997558594</ele>
        <time>2019-07-25T08:03:40.000Z</time>
      </trkpt>
      <trkpt lat="43.77513" lon="7.13996">
        <ele>773</ele>
        <time>2019-07-25T08:03:43.000Z</time>
      </trkpt>
      <trkpt lat="43.77516" lon="7.14001">
        <ele>773.79998779297</ele>
        <time>2019-07-25T08:03:51.000Z</time>
      </trkpt>
      <trkpt lat="43.77516" lon="7.14001">
        <ele>774</ele>
        <time>2019-07-25T08:03:52.000Z</time>
      </trkpt>
      <trkpt lat="43.77517" lon="7.14004">
        <ele>775</ele>
        <time>2019-07-25T08:03:59.000Z</time>
      </trkpt>
      <trkpt lat="43.77518" lon="7.14005">
        <ele>775.20001220703</ele>
        <time>2019-07-25T08:04:00.000Z</time>
      </trkpt>
      <trkpt lat="43.7752" lon="7.1401">
        <ele>776.20001220703</ele>
        <time>2019-07-25T08:04:06.000Z</time>
      </trkpt>
      <trkpt lat="43.7752" lon="7.1401">
        <ele>776.20001220703</ele>
        <time>2019-07-25T08:04:07.000Z</time>
      </trkpt>
      <trkpt lat="43.77522" lon="7.14014">
        <ele>777.20001220703</ele>
        <time>2019-07-25T08:04:13.000Z</time>
      </trkpt>
      <trkpt lat="43.77522" lon="7.14015">
        <ele>777.40002441406</ele>
        <time>2019-07-25T08:04:14.000Z</time>
      </trkpt>
      <trkpt lat="43.77523" lon="7.14018">
        <ele>778.40002441406</ele>
        <time>2019-07-25T08:04:22.000Z</time>
      </trkpt>
      <trkpt lat="43.77524" lon="7.14019">
        <ele>778.59997558594</ele>
        <time>2019-07-25T08:04:23.000Z</time>
      </trkpt>
      <trkpt lat="43.77525" lon="7.1402">
        <ele>779</ele>
        <time>2019-07-25T08:04:29.000Z</time>
      </trkpt>
      <trkpt lat="43.77526" lon="7.14021">
        <ele>779.20001220703</ele>
        <time>2019-07-25T08:04:30.000Z</time>
      </trkpt>
      <trkpt lat="43.77527" lon="7.14021">
        <ele>779</ele>
        <time>2019-07-25T08:04:33.000Z</time>
      </trkpt>
      <trkpt lat="43.77529" lon="7.14024">
        <ele>779.59997558594</ele>
        <time>2019-07-25T08:04:38.000Z</time>
      </trkpt>
      <trkpt lat="43.77531" lon="7.14025">
        <ele>780</ele>
        <time>2019-07-25T08:04:42.000Z</time>
      </trkpt>
      <trkpt lat="43.77532" lon="7.14028">
        <ele>780.59997558594</ele>
        <time>2019-07-25T08:04:46.000Z</time>
      </trkpt>
      <trkpt lat="43.77533" lon="7.1403">
        <ele>781</ele>
        <time>2019-07-25T08:04:49.000Z</time>
      </trkpt>
      <trkpt lat="43.77535" lon="7.14032">
        <ele>781.59997558594</ele>
        <time>2019-07-25T08:04:54.000Z</time>
      </trkpt>
      <trkpt lat="43.77535" lon="7.14033">
        <ele>781.79998779297</ele>
        <time>2019-07-25T08:04:55.000Z</time>
      </trkpt>
      <trkpt lat="43.77539" lon="7.14032">
        <ele>782.40002441406</ele>
        <time>2019-07-25T08:05:01.000Z</time>
      </trkpt>
      <trkpt lat="43.77541" lon="7.14031">
        <ele>782.79998779297</ele>
        <time>2019-07-25T08:05:04.000Z</time>
      </trkpt>
      <trkpt lat="43.77543" lon="7.14031">
        <ele>783.20001220703</ele>
        <time>2019-07-25T08:05:07.000Z</time>
      </trkpt>
      <trkpt lat="43.77546" lon="7.1403">
        <ele>783.79998779297</ele>
        <time>2019-07-25T08:05:11.000Z</time>
      </trkpt>
      <trkpt lat="43.77548" lon="7.14031">
        <ele>784.20001220703</ele>
        <time>2019-07-25T08:05:14.000Z</time>
      </trkpt>
      <trkpt lat="43.77552" lon="7.14032">
        <ele>785</ele>
        <time>2019-07-25T08:05:20.000Z</time>
      </trkpt>
      <trkpt lat="43.77553" lon="7.14032">
        <ele>785.20001220703</ele>
        <time>2019-07-25T08:05:21.000Z</time>
      </trkpt>
      <trkpt lat="43.77556" lon="7.14033">
        <ele>785.79998779297</ele>
        <time>2019-07-25T08:05:26.000Z</time>
      </trkpt>
      <trkpt lat="43.77555" lon="7.14033">
        <ele>786</ele>
        <time>2019-07-25T08:05:27.000Z</time>
      </trkpt>
      <trkpt lat="43.77558" lon="7.14034">
        <ele>786.59997558594</ele>
        <time>2019-07-25T08:05:31.000Z</time>
      </trkpt>
      <trkpt lat="43.77559" lon="7.14035">
        <ele>786.79998779297</ele>
        <time>2019-07-25T08:05:32.000Z</time>
      </trkpt>
      <trkpt lat="43.77561" lon="7.14038">
        <ele>787</ele>
        <time>2019-07-25T08:05:34.000Z</time>
      </trkpt>
      <trkpt lat="43.77561" lon="7.14039">
        <ele>787.20001220703</ele>
        <time>2019-07-25T08:05:35.000Z</time>
      </trkpt>
      <trkpt lat="43.77562" lon="7.14048">
        <ele>787.40002441406</ele>
        <time>2019-07-25T08:05:42.000Z</time>
      </trkpt>
      <trkpt lat="43.77566" lon="7.14052">
        <ele>787.59997558594</ele>
        <time>2019-07-25T08:05:47.000Z</time>
      </trkpt>
      <trkpt lat="43.7757" lon="7.14053">
        <ele>788</ele>
        <time>2019-07-25T08:05:53.000Z</time>
      </trkpt>
      <trkpt lat="43.77575" lon="7.14055">
        <ele>788.79998779297</ele>
        <time>2019-07-25T08:06:00.000Z</time>
      </trkpt>
      <trkpt lat="43.77575" lon="7.14054">
        <ele>789.20001220703</ele>
        <time>2019-07-25T08:06:01.000Z</time>
      </trkpt>
      <trkpt lat="43.77578" lon="7.14053">
        <ele>789.59997558594</ele>
        <time>2019-07-25T08:06:05.000Z</time>
      </trkpt>
      <trkpt lat="43.77581" lon="7.14053">
        <ele>790</ele>
        <time>2019-07-25T08:06:11.000Z</time>
      </trkpt>
      <trkpt lat="43.77582" lon="7.14054">
        <ele>790.20001220703</ele>
        <time>2019-07-25T08:06:12.000Z</time>
      </trkpt>
      <trkpt lat="43.77585" lon="7.14057">
        <ele>790.59997558594</ele>
        <time>2019-07-25T08:06:16.000Z</time>
      </trkpt>
      <trkpt lat="43.77585" lon="7.14058">
        <ele>790.59997558594</ele>
        <time>2019-07-25T08:06:17.000Z</time>
      </trkpt>
      <trkpt lat="43.77586" lon="7.14061">
        <ele>790.59997558594</ele>
        <time>2019-07-25T08:06:19.000Z</time>
      </trkpt>
      <trkpt lat="43.77587" lon="7.14061">
        <ele>790.59997558594</ele>
        <time>2019-07-25T08:06:20.000Z</time>
      </trkpt>
      <trkpt lat="43.77591" lon="7.1406">
        <ele>791.40002441406</ele>
        <time>2019-07-25T08:06:24.000Z</time>
      </trkpt>
      <trkpt lat="43.77593" lon="7.1406">
        <ele>791.59997558594</ele>
        <time>2019-07-25T08:06:26.000Z</time>
      </trkpt>
      <trkpt lat="43.77594" lon="7.14061">
        <ele>791.79998779297</ele>
        <time>2019-07-25T08:06:27.000Z</time>
      </trkpt>
      <trkpt lat="43.77597" lon="7.14066">
        <ele>792.20001220703</ele>
        <time>2019-07-25T08:06:32.000Z</time>
      </trkpt>
      <trkpt lat="43.77598" lon="7.14067">
        <ele>792.40002441406</ele>
        <time>2019-07-25T08:06:33.000Z</time>
      </trkpt>
      <trkpt lat="43.77598" lon="7.14067">
        <ele>792.59997558594</ele>
        <time>2019-07-25T08:06:35.000Z</time>
      </trkpt>
      <trkpt lat="43.77599" lon="7.14067">
        <ele>792.59997558594</ele>
        <time>2019-07-25T08:06:37.000Z</time>
      </trkpt>
      <trkpt lat="43.77599" lon="7.14068">
        <ele>793</ele>
        <time>2019-07-25T08:06:45.000Z</time>
      </trkpt>
      <trkpt lat="43.776" lon="7.14069">
        <ele>792.79998779297</ele>
        <time>2019-07-25T08:06:53.000Z</time>
      </trkpt>
      <trkpt lat="43.77601" lon="7.14068">
        <ele>793</ele>
        <time>2019-07-25T08:07:01.000Z</time>
      </trkpt>
      <trkpt lat="43.77601" lon="7.14066">
        <ele>793</ele>
        <time>2019-07-25T08:07:13.000Z</time>
      </trkpt>
      <trkpt lat="43.77605" lon="7.14069">
        <ele>793.40002441406</ele>
        <time>2019-07-25T08:07:20.000Z</time>
      </trkpt>
      <trkpt lat="43.77607" lon="7.1407">
        <ele>793.59997558594</ele>
        <time>2019-07-25T08:07:22.000Z</time>
      </trkpt>
      <trkpt lat="43.77607" lon="7.1407">
        <ele>793.79998779297</ele>
        <time>2019-07-25T08:07:23.000Z</time>
      </trkpt>
      <trkpt lat="43.7761" lon="7.14069">
        <ele>794</ele>
        <time>2019-07-25T08:07:26.000Z</time>
      </trkpt>
      <trkpt lat="43.7761" lon="7.14069">
        <ele>794.20001220703</ele>
        <time>2019-07-25T08:07:32.000Z</time>
      </trkpt>
      <trkpt lat="43.77612" lon="7.14068">
        <ele>794.20001220703</ele>
        <time>2019-07-25T08:07:40.000Z</time>
      </trkpt>
      <trkpt lat="43.77614" lon="7.14068">
        <ele>794.59997558594</ele>
        <time>2019-07-25T08:07:44.000Z</time>
      </trkpt>
      <trkpt lat="43.77616" lon="7.14069">
        <ele>794.79998779297</ele>
        <time>2019-07-25T08:07:46.000Z</time>
      </trkpt>
      <trkpt lat="43.77618" lon="7.14071">
        <ele>795.59997558594</ele>
        <time>2019-07-25T08:07:53.000Z</time>
      </trkpt>
      <trkpt lat="43.77618" lon="7.14071">
        <ele>795.59997558594</ele>
        <time>2019-07-25T08:07:57.000Z</time>
      </trkpt>
      <trkpt lat="43.77619" lon="7.14071">
        <ele>795.59997558594</ele>
        <time>2019-07-25T08:08:00.000Z</time>
      </trkpt>
      <trkpt lat="43.77618" lon="7.1407">
        <ele>795.59997558594</ele>
        <time>2019-07-25T08:08:01.000Z</time>
      </trkpt>
      <trkpt lat="43.77618" lon="7.14069">
        <ele>795.40002441406</ele>
        <time>2019-07-25T08:08:03.000Z</time>
      </trkpt>
      <trkpt lat="43.77619" lon="7.1407">
        <ele>795.40002441406</ele>
        <time>2019-07-25T08:08:04.000Z</time>
      </trkpt>
      <trkpt lat="43.7762" lon="7.14072">
        <ele>796</ele>
        <time>2019-07-25T08:08:08.000Z</time>
      </trkpt>
      <trkpt lat="43.77622" lon="7.14069">
        <ele>796.79998779297</ele>
        <time>2019-07-25T08:08:12.000Z</time>
      </trkpt>
      <trkpt lat="43.77622" lon="7.14067">
        <ele>796.79998779297</ele>
        <time>2019-07-25T08:08:14.000Z</time>
      </trkpt>
      <trkpt lat="43.77623" lon="7.14065">
        <ele>797.20001220703</ele>
        <time>2019-07-25T08:08:17.000Z</time>
      </trkpt>
      <trkpt lat="43.77625" lon="7.14066">
        <ele>797.40002441406</ele>
        <time>2019-07-25T08:08:19.000Z</time>
      </trkpt>
      <trkpt lat="43.77627" lon="7.14068">
        <ele>797.59997558594</ele>
        <time>2019-07-25T08:08:22.000Z</time>
      </trkpt>
      <trkpt lat="43.77627" lon="7.14069">
        <ele>797.79998779297</ele>
        <time>2019-07-25T08:08:23.000Z</time>
      </trkpt>
      <trkpt lat="43.77628" lon="7.14073">
        <ele>798.20001220703</ele>
        <time>2019-07-25T08:08:26.000Z</time>
      </trkpt>
      <trkpt lat="43.7763" lon="7.14077">
        <ele>798.79998779297</ele>
        <time>2019-07-25T08:08:31.000Z</time>
      </trkpt>
      <trkpt lat="43.77631" lon="7.14078">
        <ele>799</ele>
        <time>2019-07-25T08:08:33.000Z</time>
      </trkpt>
      <trkpt lat="43.77635" lon="7.14086">
        <ele>798.79998779297</ele>
        <time>2019-07-25T08:08:39.000Z</time>
      </trkpt>
      <trkpt lat="43.77641" lon="7.1409">
        <ele>799.20001220703</ele>
        <time>2019-07-25T08:08:44.000Z</time>
      </trkpt>
      <trkpt lat="43.77648" lon="7.14097">
        <ele>799</ele>
        <time>2019-07-25T08:08:50.000Z</time>
      </trkpt>
      <trkpt lat="43.77654" lon="7.14106">
        <ele>799.20001220703</ele>
        <time>2019-07-25T08:08:56.000Z</time>
      </trkpt>
      <trkpt lat="43.77658" lon="7.14112">
        <ele>799.79998779297</ele>
        <time>2019-07-25T08:09:00.000Z</time>
      </trkpt>
      <trkpt lat="43.77661" lon="7.14115">
        <ele>800</ele>
        <time>2019-07-25T08:09:02.000Z</time>
      </trkpt>
      <trkpt lat="43.77664" lon="7.14116">
        <ele>800.20001220703</ele>
        <time>2019-07-25T08:09:04.000Z</time>
      </trkpt>
      <trkpt lat="43.77667" lon="7.14117">
        <ele>800.40002441406</ele>
        <time>2019-07-25T08:09:06.000Z</time>
      </trkpt>
      <trkpt lat="43.77668" lon="7.14119">
        <ele>800.59997558594</ele>
        <time>2019-07-25T08:09:07.000Z</time>
      </trkpt>
      <trkpt lat="43.77669" lon="7.14121">
        <ele>801</ele>
        <time>2019-07-25T08:09:08.000Z</time>
      </trkpt>
      <trkpt lat="43.77671" lon="7.1413">
        <ele>801.79998779297</ele>
        <time>2019-07-25T08:09:13.000Z</time>
      </trkpt>
      <trkpt lat="43.77674" lon="7.14135">
        <ele>802</ele>
        <time>2019-07-25T08:09:16.000Z</time>
      </trkpt>
      <trkpt lat="43.77677" lon="7.14138">
        <ele>802.59997558594</ele>
        <time>2019-07-25T08:09:19.000Z</time>
      </trkpt>
      <trkpt lat="43.77678" lon="7.1414">
        <ele>803.20001220703</ele>
        <time>2019-07-25T08:09:22.000Z</time>
      </trkpt>
      <trkpt lat="43.77678" lon="7.1414">
        <ele>803.59997558594</ele>
        <time>2019-07-25T08:09:23.000Z</time>
      </trkpt>
      <trkpt lat="43.7768" lon="7.14142">
        <ele>804.20001220703</ele>
        <time>2019-07-25T08:09:30.000Z</time>
      </trkpt>
      <trkpt lat="43.77681" lon="7.14142">
        <ele>804.40002441406</ele>
        <time>2019-07-25T08:09:31.000Z</time>
      </trkpt>
      <trkpt lat="43.77684" lon="7.14145">
        <ele>804.79998779297</ele>
        <time>2019-07-25T08:09:37.000Z</time>
      </trkpt>
      <trkpt lat="43.77688" lon="7.14148">
        <ele>805.20001220703</ele>
        <time>2019-07-25T08:09:44.000Z</time>
      </trkpt>
      <trkpt lat="43.77689" lon="7.14149">
        <ele>805.40002441406</ele>
        <time>2019-07-25T08:09:45.000Z</time>
      </trkpt>
      <trkpt lat="43.77694" lon="7.14153">
        <ele>806</ele>
        <time>2019-07-25T08:09:51.000Z</time>
      </trkpt>
      <trkpt lat="43.77697" lon="7.14154">
        <ele>806.20001220703</ele>
        <time>2019-07-25T08:09:55.000Z</time>
      </trkpt>
      <trkpt lat="43.77698" lon="7.14154">
        <ele>806.40002441406</ele>
        <time>2019-07-25T08:09:56.000Z</time>
      </trkpt>
      <trkpt lat="43.77699" lon="7.14155">
        <ele>806.40002441406</ele>
        <time>2019-07-25T08:09:57.000Z</time>
      </trkpt>
      <trkpt lat="43.77703" lon="7.14158">
        <ele>807</ele>
        <time>2019-07-25T08:10:02.000Z</time>
      </trkpt>
      <trkpt lat="43.77705" lon="7.14159">
        <ele>807.59997558594</ele>
        <time>2019-07-25T08:10:05.000Z</time>
      </trkpt>
      <trkpt lat="43.77709" lon="7.14163">
        <ele>808</ele>
        <time>2019-07-25T08:10:10.000Z</time>
      </trkpt>
      <trkpt lat="43.77712" lon="7.14166">
        <ele>808.59997558594</ele>
        <time>2019-07-25T08:10:13.000Z</time>
      </trkpt>
      <trkpt lat="43.77715" lon="7.1417">
        <ele>809.20001220703</ele>
        <time>2019-07-25T08:10:18.000Z</time>
      </trkpt>
      <trkpt lat="43.77718" lon="7.14173">
        <ele>809.59997558594</ele>
        <time>2019-07-25T08:10:22.000Z</time>
      </trkpt>
      <trkpt lat="43.7772" lon="7.14174">
        <ele>810</ele>
        <time>2019-07-25T08:10:25.000Z</time>
      </trkpt>
      <trkpt lat="43.77724" lon="7.14176">
        <ele>810.59997558594</ele>
        <time>2019-07-25T08:10:30.000Z</time>
      </trkpt>
      <trkpt lat="43.77727" lon="7.14177">
        <ele>811.40002441406</ele>
        <time>2019-07-25T08:10:34.000Z</time>
      </trkpt>
      <trkpt lat="43.77729" lon="7.14178">
        <ele>811.59997558594</ele>
        <time>2019-07-25T08:10:37.000Z</time>
      </trkpt>
      <trkpt lat="43.7773" lon="7.14178">
        <ele>812.20001220703</ele>
        <time>2019-07-25T08:10:40.000Z</time>
      </trkpt>
      <trkpt lat="43.77731" lon="7.14179">
        <ele>812.40002441406</ele>
        <time>2019-07-25T08:10:43.000Z</time>
      </trkpt>
      <trkpt lat="43.77733" lon="7.14179">
        <ele>812.40002441406</ele>
        <time>2019-07-25T08:10:45.000Z</time>
      </trkpt>
      <trkpt lat="43.77739" lon="7.14177">
        <ele>812.59997558594</ele>
        <time>2019-07-25T08:10:50.000Z</time>
      </trkpt>
      <trkpt lat="43.77741" lon="7.14179">
        <ele>812.79998779297</ele>
        <time>2019-07-25T08:10:52.000Z</time>
      </trkpt>
      <trkpt lat="43.77746" lon="7.14182">
        <ele>813.20001220703</ele>
        <time>2019-07-25T08:10:55.000Z</time>
      </trkpt>
      <trkpt lat="43.77756" lon="7.14185">
        <ele>814</ele>
        <time>2019-07-25T08:11:01.000Z</time>
      </trkpt>
      <trkpt lat="43.77767" lon="7.1419">
        <ele>815</ele>
        <time>2019-07-25T08:11:07.000Z</time>
      </trkpt>
      <trkpt lat="43.77776" lon="7.14191">
        <ele>815.40002441406</ele>
        <time>2019-07-25T08:11:12.000Z</time>
      </trkpt>
      <trkpt lat="43.77779" lon="7.14192">
        <ele>815.40002441406</ele>
        <time>2019-07-25T08:11:14.000Z</time>
      </trkpt>
      <trkpt lat="43.7778" lon="7.14193">
        <ele>815.59997558594</ele>
        <time>2019-07-25T08:11:15.000Z</time>
      </trkpt>
      <trkpt lat="43.77783" lon="7.14197">
        <ele>816</ele>
        <time>2019-07-25T08:11:18.000Z</time>
      </trkpt>
      <trkpt lat="43.77786" lon="7.14199">
        <ele>816</ele>
        <time>2019-07-25T08:11:20.000Z</time>
      </trkpt>
      <trkpt lat="43.77789" lon="7.14201">
        <ele>816</ele>
        <time>2019-07-25T08:11:21.000Z</time>
      </trkpt>
      <trkpt lat="43.77802" lon="7.14204">
        <ele>815.40002441406</ele>
        <time>2019-07-25T08:11:26.000Z</time>
      </trkpt>
      <trkpt lat="43.77805" lon="7.14202">
        <ele>815</ele>
        <time>2019-07-25T08:11:27.000Z</time>
      </trkpt>
      <trkpt lat="43.77813" lon="7.142">
        <ele>814.40002441406</ele>
        <time>2019-07-25T08:11:31.000Z</time>
      </trkpt>
      <trkpt lat="43.77817" lon="7.14204">
        <ele>814</ele>
        <time>2019-07-25T08:11:33.000Z</time>
      </trkpt>
      <trkpt lat="43.77823" lon="7.14209">
        <ele>813.79998779297</ele>
        <time>2019-07-25T08:11:35.000Z</time>
      </trkpt>
      <trkpt lat="43.7783" lon="7.14214">
        <ele>813</ele>
        <time>2019-07-25T08:11:37.000Z</time>
      </trkpt>
      <trkpt lat="43.77837" lon="7.14223">
        <ele>812</ele>
        <time>2019-07-25T08:11:40.000Z</time>
      </trkpt>
      <trkpt lat="43.77839" lon="7.14226">
        <ele>812</ele>
        <time>2019-07-25T08:11:41.000Z</time>
      </trkpt>
      <trkpt lat="43.77852" lon="7.1424">
        <ele>812.40002441406</ele>
        <time>2019-07-25T08:11:46.000Z</time>
      </trkpt>
      <trkpt lat="43.77865" lon="7.14246">
        <ele>812.59997558594</ele>
        <time>2019-07-25T08:11:52.000Z</time>
      </trkpt>
      <trkpt lat="43.77867" lon="7.14247">
        <ele>812.79998779297</ele>
        <time>2019-07-25T08:11:56.000Z</time>
      </trkpt>
      <trkpt lat="43.77873" lon="7.14249">
        <ele>813</ele>
        <time>2019-07-25T08:12:00.000Z</time>
      </trkpt>
      <trkpt lat="43.77878" lon="7.1425">
        <ele>813.20001220703</ele>
        <time>2019-07-25T08:12:02.000Z</time>
      </trkpt>
      <trkpt lat="43.77896" lon="7.14249">
        <ele>813.40002441406</ele>
        <time>2019-07-25T08:12:08.000Z</time>
      </trkpt>
      <trkpt lat="43.77918" lon="7.14254">
        <ele>813.59997558594</ele>
        <time>2019-07-25T08:12:15.000Z</time>
      </trkpt>
      <trkpt lat="43.77932" lon="7.14258">
        <ele>814.20001220703</ele>
        <time>2019-07-25T08:12:20.000Z</time>
      </trkpt>
      <trkpt lat="43.77934" lon="7.14258">
        <ele>814.20001220703</ele>
        <time>2019-07-25T08:12:21.000Z</time>
      </trkpt>
      <trkpt lat="43.77947" lon="7.14256">
        <ele>814.79998779297</ele>
        <time>2019-07-25T08:12:26.000Z</time>
      </trkpt>
      <trkpt lat="43.77948" lon="7.14254">
        <ele>814.79998779297</ele>
        <time>2019-07-25T08:12:27.000Z</time>
      </trkpt>
      <trkpt lat="43.77953" lon="7.14251">
        <ele>814.79998779297</ele>
        <time>2019-07-25T08:12:30.000Z</time>
      </trkpt>
      <trkpt lat="43.77963" lon="7.14253">
        <ele>813.59997558594</ele>
        <time>2019-07-25T08:12:34.000Z</time>
      </trkpt>
      <trkpt lat="43.77971" lon="7.14255">
        <ele>813.20001220703</ele>
        <time>2019-07-25T08:12:36.000Z</time>
      </trkpt>
      <trkpt lat="43.77975" lon="7.14257">
        <ele>812.79998779297</ele>
        <time>2019-07-25T08:12:37.000Z</time>
      </trkpt>
      <trkpt lat="43.7798" lon="7.14259">
        <ele>812.20001220703</ele>
        <time>2019-07-25T08:12:38.000Z</time>
      </trkpt>
      <trkpt lat="43.77992" lon="7.14259">
        <ele>811.40002441406</ele>
        <time>2019-07-25T08:12:41.000Z</time>
      </trkpt>
      <trkpt lat="43.78003" lon="7.14257">
        <ele>810.40002441406</ele>
        <time>2019-07-25T08:12:44.000Z</time>
      </trkpt>
      <trkpt lat="43.78007" lon="7.14256">
        <ele>810.20001220703</ele>
        <time>2019-07-25T08:12:45.000Z</time>
      </trkpt>
      <trkpt lat="43.7802" lon="7.14255">
        <ele>809.59997558594</ele>
        <time>2019-07-25T08:12:48.000Z</time>
      </trkpt>
      <trkpt lat="43.78028" lon="7.14253">
        <ele>809.40002441406</ele>
        <time>2019-07-25T08:12:50.000Z</time>
      </trkpt>
      <trkpt lat="43.78034" lon="7.14252">
        <ele>808.79998779297</ele>
        <time>2019-07-25T08:12:52.000Z</time>
      </trkpt>
      <trkpt lat="43.78044" lon="7.14252">
        <ele>809.20001220703</ele>
        <time>2019-07-25T08:12:56.000Z</time>
      </trkpt>
      <trkpt lat="43.78054" lon="7.14247">
        <ele>809.59997558594</ele>
        <time>2019-07-25T08:13:00.000Z</time>
      </trkpt>
      <trkpt lat="43.78056" lon="7.14246">
        <ele>809.59997558594</ele>
        <time>2019-07-25T08:13:01.000Z</time>
      </trkpt>
      <trkpt lat="43.78062" lon="7.14241">
        <ele>809.20001220703</ele>
        <time>2019-07-25T08:13:04.000Z</time>
      </trkpt>
      <trkpt lat="43.78068" lon="7.1424">
        <ele>808.79998779297</ele>
        <time>2019-07-25T08:13:06.000Z</time>
      </trkpt>
      <trkpt lat="43.78074" lon="7.14239">
        <ele>808.59997558594</ele>
        <time>2019-07-25T08:13:08.000Z</time>
      </trkpt>
      <trkpt lat="43.78078" lon="7.14239">
        <ele>808.40002441406</ele>
        <time>2019-07-25T08:13:09.000Z</time>
      </trkpt>
      <trkpt lat="43.78089" lon="7.14237">
        <ele>807.20001220703</ele>
        <time>2019-07-25T08:13:12.000Z</time>
      </trkpt>
      <trkpt lat="43.78092" lon="7.14238">
        <ele>807</ele>
        <time>2019-07-25T08:13:13.000Z</time>
      </trkpt>
      <trkpt lat="43.78112" lon="7.14249">
        <ele>806.59997558594</ele>
        <time>2019-07-25T08:13:19.000Z</time>
      </trkpt>
      <trkpt lat="43.78124" lon="7.14257">
        <ele>807</ele>
        <time>2019-07-25T08:13:24.000Z</time>
      </trkpt>
      <trkpt lat="43.78129" lon="7.14262">
        <ele>806.20001220703</ele>
        <time>2019-07-25T08:13:27.000Z</time>
      </trkpt>
      <trkpt lat="43.78131" lon="7.14264">
        <ele>806</ele>
        <time>2019-07-25T08:13:28.000Z</time>
      </trkpt>
      <trkpt lat="43.7814" lon="7.14265">
        <ele>805.40002441406</ele>
        <time>2019-07-25T08:13:32.000Z</time>
      </trkpt>
      <trkpt lat="43.78145" lon="7.14269">
        <ele>804.79998779297</ele>
        <time>2019-07-25T08:13:34.000Z</time>
      </trkpt>
      <trkpt lat="43.78153" lon="7.14272">
        <ele>803.79998779297</ele>
        <time>2019-07-25T08:13:37.000Z</time>
      </trkpt>
      <trkpt lat="43.78155" lon="7.14273">
        <ele>803.79998779297</ele>
        <time>2019-07-25T08:13:38.000Z</time>
      </trkpt>
      <trkpt lat="43.78162" lon="7.14281">
        <ele>803.20001220703</ele>
        <time>2019-07-25T08:13:42.000Z</time>
      </trkpt>
      <trkpt lat="43.78168" lon="7.14287">
        <ele>802.79998779297</ele>
        <time>2019-07-25T08:13:45.000Z</time>
      </trkpt>
      <trkpt lat="43.78169" lon="7.14288">
        <ele>802.79998779297</ele>
        <time>2019-07-25T08:13:47.000Z</time>
      </trkpt>
      <trkpt lat="43.78169" lon="7.14287">
        <ele>802.40002441406</ele>
        <time>2019-07-25T08:13:54.000Z</time>
      </trkpt>
      <trkpt lat="43.78171" lon="7.14289">
        <ele>802.20001220703</ele>
        <time>2019-07-25T08:13:57.000Z</time>
      </trkpt>
      <trkpt lat="43.78174" lon="7.14291">
        <ele>802.40002441406</ele>
        <time>2019-07-25T08:13:59.000Z</time>
      </trkpt>
      <trkpt lat="43.78182" lon="7.143">
        <ele>802.40002441406</ele>
        <time>2019-07-25T08:14:04.000Z</time>
      </trkpt>
      <trkpt lat="43.78188" lon="7.14306">
        <ele>801.59997558594</ele>
        <time>2019-07-25T08:14:07.000Z</time>
      </trkpt>
      <trkpt lat="43.78189" lon="7.14308">
        <ele>801.40002441406</ele>
        <time>2019-07-25T08:14:08.000Z</time>
      </trkpt>
      <trkpt lat="43.78198" lon="7.1432">
        <ele>801</ele>
        <time>2019-07-25T08:14:12.000Z</time>
      </trkpt>
      <trkpt lat="43.78201" lon="7.14321">
        <ele>801</ele>
        <time>2019-07-25T08:14:13.000Z</time>
      </trkpt>
      <trkpt lat="43.78206" lon="7.14324">
        <ele>800.59997558594</ele>
        <time>2019-07-25T08:14:15.000Z</time>
      </trkpt>
      <trkpt lat="43.78212" lon="7.14329">
        <ele>799.59997558594</ele>
        <time>2019-07-25T08:14:18.000Z</time>
      </trkpt>
      <trkpt lat="43.78214" lon="7.14329">
        <ele>799.59997558594</ele>
        <time>2019-07-25T08:14:19.000Z</time>
      </trkpt>
      <trkpt lat="43.78216" lon="7.14328">
        <ele>798.79998779297</ele>
        <time>2019-07-25T08:14:21.000Z</time>
      </trkpt>
      <trkpt lat="43.78217" lon="7.14327">
        <ele>798.40002441406</ele>
        <time>2019-07-25T08:14:22.000Z</time>
      </trkpt>
      <trkpt lat="43.78221" lon="7.14324">
        <ele>797.59997558594</ele>
        <time>2019-07-25T08:14:24.000Z</time>
      </trkpt>
      <trkpt lat="43.78223" lon="7.14324">
        <ele>797</ele>
        <time>2019-07-25T08:14:25.000Z</time>
      </trkpt>
      <trkpt lat="43.78225" lon="7.14325">
        <ele>796.40002441406</ele>
        <time>2019-07-25T08:14:26.000Z</time>
      </trkpt>
      <trkpt lat="43.78228" lon="7.14327">
        <ele>796</ele>
        <time>2019-07-25T08:14:27.000Z</time>
      </trkpt>
      <trkpt lat="43.7823" lon="7.14328">
        <ele>795.59997558594</ele>
        <time>2019-07-25T08:14:28.000Z</time>
      </trkpt>
      <trkpt lat="43.78236" lon="7.14335">
        <ele>794.59997558594</ele>
        <time>2019-07-25T08:14:30.000Z</time>
      </trkpt>
      <trkpt lat="43.78239" lon="7.14339">
        <ele>794.20001220703</ele>
        <time>2019-07-25T08:14:31.000Z</time>
      </trkpt>
      <trkpt lat="43.78244" lon="7.14348">
        <ele>793.79998779297</ele>
        <time>2019-07-25T08:14:33.000Z</time>
      </trkpt>
      <trkpt lat="43.78247" lon="7.14353">
        <ele>793.59997558594</ele>
        <time>2019-07-25T08:14:34.000Z</time>
      </trkpt>
      <trkpt lat="43.78251" lon="7.14362">
        <ele>793.59997558594</ele>
        <time>2019-07-25T08:14:36.000Z</time>
      </trkpt>
      <trkpt lat="43.78257" lon="7.14368">
        <ele>793.20001220703</ele>
        <time>2019-07-25T08:14:40.000Z</time>
      </trkpt>
      <trkpt lat="43.78268" lon="7.14368">
        <ele>793.40002441406</ele>
        <time>2019-07-25T08:14:44.000Z</time>
      </trkpt>
      <trkpt lat="43.78284" lon="7.14364">
        <ele>792.59997558594</ele>
        <time>2019-07-25T08:14:48.000Z</time>
      </trkpt>
      <trkpt lat="43.78288" lon="7.14361">
        <ele>792.20001220703</ele>
        <time>2019-07-25T08:14:49.000Z</time>
      </trkpt>
      <trkpt lat="43.783" lon="7.14359">
        <ele>790.79998779297</ele>
        <time>2019-07-25T08:14:52.000Z</time>
      </trkpt>
      <trkpt lat="43.78311" lon="7.14358">
        <ele>790.79998779297</ele>
        <time>2019-07-25T08:14:55.000Z</time>
      </trkpt>
      <trkpt lat="43.78317" lon="7.1436">
        <ele>791</ele>
        <time>2019-07-25T08:14:57.000Z</time>
      </trkpt>
      <trkpt lat="43.78327" lon="7.1436">
        <ele>791.40002441406</ele>
        <time>2019-07-25T08:15:01.000Z</time>
      </trkpt>
      <trkpt lat="43.78336" lon="7.14368">
        <ele>791.40002441406</ele>
        <time>2019-07-25T08:15:05.000Z</time>
      </trkpt>
      <trkpt lat="43.78345" lon="7.14381">
        <ele>790</ele>
        <time>2019-07-25T08:15:10.000Z</time>
      </trkpt>
      <trkpt lat="43.78347" lon="7.14382">
        <ele>790</ele>
        <time>2019-07-25T08:15:11.000Z</time>
      </trkpt>
      <trkpt lat="43.78355" lon="7.14384">
        <ele>789.79998779297</ele>
        <time>2019-07-25T08:15:14.000Z</time>
      </trkpt>
      <trkpt lat="43.78363" lon="7.14389">
        <ele>788.40002441406</ele>
        <time>2019-07-25T08:15:17.000Z</time>
      </trkpt>
      <trkpt lat="43.78365" lon="7.14392">
        <ele>788</ele>
        <time>2019-07-25T08:15:18.000Z</time>
      </trkpt>
      <trkpt lat="43.78371" lon="7.14399">
        <ele>787.20001220703</ele>
        <time>2019-07-25T08:15:21.000Z</time>
      </trkpt>
      <trkpt lat="43.78376" lon="7.144">
        <ele>786.79998779297</ele>
        <time>2019-07-25T08:15:23.000Z</time>
      </trkpt>
      <trkpt lat="43.78378" lon="7.14401">
        <ele>786</ele>
        <time>2019-07-25T08:15:24.000Z</time>
      </trkpt>
      <trkpt lat="43.78379" lon="7.14403">
        <ele>786.20001220703</ele>
        <time>2019-07-25T08:15:25.000Z</time>
      </trkpt>
      <trkpt lat="43.78381" lon="7.14408">
        <ele>786</ele>
        <time>2019-07-25T08:15:27.000Z</time>
      </trkpt>
      <trkpt lat="43.78387" lon="7.14418">
        <ele>785</ele>
        <time>2019-07-25T08:15:30.000Z</time>
      </trkpt>
      <trkpt lat="43.78389" lon="7.1442">
        <ele>784.40002441406</ele>
        <time>2019-07-25T08:15:31.000Z</time>
      </trkpt>
      <trkpt lat="43.78392" lon="7.14422">
        <ele>783.59997558594</ele>
        <time>2019-07-25T08:15:32.000Z</time>
      </trkpt>
      <trkpt lat="43.78397" lon="7.14433">
        <ele>783</ele>
        <time>2019-07-25T08:15:35.000Z</time>
      </trkpt>
      <trkpt lat="43.78398" lon="7.14438">
        <ele>782.79998779297</ele>
        <time>2019-07-25T08:15:36.000Z</time>
      </trkpt>
      <trkpt lat="43.78402" lon="7.14446">
        <ele>782.40002441406</ele>
        <time>2019-07-25T08:15:38.000Z</time>
      </trkpt>
      <trkpt lat="43.78407" lon="7.14452">
        <ele>782</ele>
        <time>2019-07-25T08:15:40.000Z</time>
      </trkpt>
      <trkpt lat="43.78422" lon="7.14463">
        <ele>781.59997558594</ele>
        <time>2019-07-25T08:15:45.000Z</time>
      </trkpt>
      <trkpt lat="43.78433" lon="7.14463">
        <ele>781.40002441406</ele>
        <time>2019-07-25T08:15:48.000Z</time>
      </trkpt>
      <trkpt lat="43.78436" lon="7.14463">
        <ele>781</ele>
        <time>2019-07-25T08:15:49.000Z</time>
      </trkpt>
      <trkpt lat="43.78444" lon="7.14467">
        <ele>780.59997558594</ele>
        <time>2019-07-25T08:15:54.000Z</time>
      </trkpt>
      <trkpt lat="43.78444" lon="7.14469">
        <ele>780.79998779297</ele>
        <time>2019-07-25T08:16:00.000Z</time>
      </trkpt>
      <trkpt lat="43.78444" lon="7.1447">
        <ele>780.79998779297</ele>
        <time>2019-07-25T08:16:06.000Z</time>
      </trkpt>
      <trkpt lat="43.78445" lon="7.14473">
        <ele>780.40002441406</ele>
        <time>2019-07-25T08:16:10.000Z</time>
      </trkpt>
      <trkpt lat="43.78446" lon="7.14474">
        <ele>780.40002441406</ele>
        <time>2019-07-25T08:16:11.000Z</time>
      </trkpt>
      <trkpt lat="43.78452" lon="7.14479">
        <ele>780.40002441406</ele>
        <time>2019-07-25T08:16:15.000Z</time>
      </trkpt>
      <trkpt lat="43.78456" lon="7.14483">
        <ele>780.40002441406</ele>
        <time>2019-07-25T08:16:17.000Z</time>
      </trkpt>
      <trkpt lat="43.78469" lon="7.14497">
        <ele>780.20001220703</ele>
        <time>2019-07-25T08:16:24.000Z</time>
      </trkpt>
      <trkpt lat="43.78474" lon="7.14498">
        <ele>780</ele>
        <time>2019-07-25T08:16:26.000Z</time>
      </trkpt>
      <trkpt lat="43.7848" lon="7.14497">
        <ele>779.79998779297</ele>
        <time>2019-07-25T08:16:28.000Z</time>
      </trkpt>
      <trkpt lat="43.78495" lon="7.14493">
        <ele>779.40002441406</ele>
        <time>2019-07-25T08:16:34.000Z</time>
      </trkpt>
      <trkpt lat="43.78509" lon="7.1449">
        <ele>780.40002441406</ele>
        <time>2019-07-25T08:16:41.000Z</time>
      </trkpt>
      <trkpt lat="43.78513" lon="7.14488">
        <ele>780.79998779297</ele>
        <time>2019-07-25T08:16:44.000Z</time>
      </trkpt>
      <trkpt lat="43.78516" lon="7.14491">
        <ele>781</ele>
        <time>2019-07-25T08:16:46.000Z</time>
      </trkpt>
      <trkpt lat="43.78522" lon="7.14494">
        <ele>781</ele>
        <time>2019-07-25T08:16:49.000Z</time>
      </trkpt>
      <trkpt lat="43.78525" lon="7.14492">
        <ele>780.79998779297</ele>
        <time>2019-07-25T08:16:51.000Z</time>
      </trkpt>
      <trkpt lat="43.78527" lon="7.14491">
        <ele>780.79998779297</ele>
        <time>2019-07-25T08:16:55.000Z</time>
      </trkpt>
      <trkpt lat="43.78529" lon="7.14488">
        <ele>781.40002441406</ele>
        <time>2019-07-25T08:17:01.000Z</time>
      </trkpt>
      <trkpt lat="43.78531" lon="7.14482">
        <ele>782.59997558594</ele>
        <time>2019-07-25T08:17:07.000Z</time>
      </trkpt>
      <trkpt lat="43.78532" lon="7.14481">
        <ele>782.79998779297</ele>
        <time>2019-07-25T08:17:08.000Z</time>
      </trkpt>
      <trkpt lat="43.78532" lon="7.14479">
        <ele>783.59997558594</ele>
        <time>2019-07-25T08:17:13.000Z</time>
      </trkpt>
      <trkpt lat="43.78531" lon="7.14478">
        <ele>783.59997558594</ele>
        <time>2019-07-25T08:17:16.000Z</time>
      </trkpt>
      <trkpt lat="43.78531" lon="7.14476">
        <ele>783.59997558594</ele>
        <time>2019-07-25T08:17:17.000Z</time>
      </trkpt>
      <trkpt lat="43.78526" lon="7.14469">
        <ele>783.40002441406</ele>
        <time>2019-07-25T08:17:22.000Z</time>
      </trkpt>
      <trkpt lat="43.78519" lon="7.1446">
        <ele>784.20001220703</ele>
        <time>2019-07-25T08:17:29.000Z</time>
      </trkpt>
      <trkpt lat="43.78516" lon="7.14455">
        <ele>784.79998779297</ele>
        <time>2019-07-25T08:17:33.000Z</time>
      </trkpt>
      <trkpt lat="43.78514" lon="7.1445">
        <ele>785.40002441406</ele>
        <time>2019-07-25T08:17:36.000Z</time>
      </trkpt>
      <trkpt lat="43.78511" lon="7.14443">
        <ele>785.79998779297</ele>
        <time>2019-07-25T08:17:40.000Z</time>
      </trkpt>
      <trkpt lat="43.78511" lon="7.14439">
        <ele>786.20001220703</ele>
        <time>2019-07-25T08:17:42.000Z</time>
      </trkpt>
      <trkpt lat="43.7851" lon="7.14435">
        <ele>786.40002441406</ele>
        <time>2019-07-25T08:17:45.000Z</time>
      </trkpt>
      <trkpt lat="43.78506" lon="7.14431">
        <ele>786.79998779297</ele>
        <time>2019-07-25T08:17:48.000Z</time>
      </trkpt>
      <trkpt lat="43.78506" lon="7.14429">
        <ele>787</ele>
        <time>2019-07-25T08:17:49.000Z</time>
      </trkpt>
      <trkpt lat="43.78498" lon="7.14414">
        <ele>788.20001220703</ele>
        <time>2019-07-25T08:17:58.000Z</time>
      </trkpt>
      <trkpt lat="43.7849" lon="7.14403">
        <ele>788.40002441406</ele>
        <time>2019-07-25T08:18:05.000Z</time>
      </trkpt>
      <trkpt lat="43.78483" lon="7.14398">
        <ele>789.20001220703</ele>
        <time>2019-07-25T08:18:09.000Z</time>
      </trkpt>
      <trkpt lat="43.78481" lon="7.14395">
        <ele>789.20001220703</ele>
        <time>2019-07-25T08:18:11.000Z</time>
      </trkpt>
      <trkpt lat="43.78479" lon="7.14392">
        <ele>789.59997558594</ele>
        <time>2019-07-25T08:18:13.000Z</time>
      </trkpt>
      <trkpt lat="43.78477" lon="7.14386">
        <ele>790.20001220703</ele>
        <time>2019-07-25T08:18:16.000Z</time>
      </trkpt>
      <trkpt lat="43.7847" lon="7.14375">
        <ele>791.20001220703</ele>
        <time>2019-07-25T08:18:23.000Z</time>
      </trkpt>
      <trkpt lat="43.78465" lon="7.14367">
        <ele>792.20001220703</ele>
        <time>2019-07-25T08:18:29.000Z</time>
      </trkpt>
      <trkpt lat="43.78465" lon="7.14365">
        <ele>792.40002441406</ele>
        <time>2019-07-25T08:18:30.000Z</time>
      </trkpt>
      <trkpt lat="43.78462" lon="7.14358">
        <ele>793</ele>
        <time>2019-07-25T08:18:35.000Z</time>
      </trkpt>
      <trkpt lat="43.78461" lon="7.14355">
        <ele>793.40002441406</ele>
        <time>2019-07-25T08:18:37.000Z</time>
      </trkpt>
      <trkpt lat="43.7846" lon="7.14349">
        <ele>794.20001220703</ele>
        <time>2019-07-25T08:18:41.000Z</time>
      </trkpt>
      <trkpt lat="43.78459" lon="7.14348">
        <ele>794.40002441406</ele>
        <time>2019-07-25T08:18:42.000Z</time>
      </trkpt>
      <trkpt lat="43.78458" lon="7.14347">
        <ele>794.40002441406</ele>
        <time>2019-07-25T08:18:43.000Z</time>
      </trkpt>
      <trkpt lat="43.78452" lon="7.14342">
        <ele>795.20001220703</ele>
        <time>2019-07-25T08:18:49.000Z</time>
      </trkpt>
      <trkpt lat="43.78451" lon="7.1434">
        <ele>795.59997558594</ele>
        <time>2019-07-25T08:18:51.000Z</time>
      </trkpt>
      <trkpt lat="43.78448" lon="7.14335">
        <ele>796.40002441406</ele>
        <time>2019-07-25T08:18:55.000Z</time>
      </trkpt>
      <trkpt lat="43.78447" lon="7.14332">
        <ele>796.59997558594</ele>
        <time>2019-07-25T08:18:57.000Z</time>
      </trkpt>
      <trkpt lat="43.78446" lon="7.14331">
        <ele>796.79998779297</ele>
        <time>2019-07-25T08:18:58.000Z</time>
      </trkpt>
      <trkpt lat="43.78442" lon="7.14324">
        <ele>797.40002441406</ele>
        <time>2019-07-25T08:19:04.000Z</time>
      </trkpt>
      <trkpt lat="43.78441" lon="7.1432">
        <ele>797.79998779297</ele>
        <time>2019-07-25T08:19:06.000Z</time>
      </trkpt>
      <trkpt lat="43.78437" lon="7.14317">
        <ele>798</ele>
        <time>2019-07-25T08:19:10.000Z</time>
      </trkpt>
      <trkpt lat="43.78432" lon="7.14312">
        <ele>799</ele>
        <time>2019-07-25T08:19:14.000Z</time>
      </trkpt>
      <trkpt lat="43.78427" lon="7.14305">
        <ele>800.20001220703</ele>
        <time>2019-07-25T08:19:20.000Z</time>
      </trkpt>
      <trkpt lat="43.78419" lon="7.14299">
        <ele>801</ele>
        <time>2019-07-25T08:19:27.000Z</time>
      </trkpt>
      <trkpt lat="43.78412" lon="7.14294">
        <ele>801</ele>
        <time>2019-07-25T08:19:32.000Z</time>
      </trkpt>
      <trkpt lat="43.78411" lon="7.14293">
        <ele>801.20001220703</ele>
        <time>2019-07-25T08:19:33.000Z</time>
      </trkpt>
      <trkpt lat="43.78407" lon="7.14291">
        <ele>801.59997558594</ele>
        <time>2019-07-25T08:19:36.000Z</time>
      </trkpt>
      <trkpt lat="43.78405" lon="7.14288">
        <ele>802</ele>
        <time>2019-07-25T08:19:38.000Z</time>
      </trkpt>
      <trkpt lat="43.78404" lon="7.14285">
        <ele>802.20001220703</ele>
        <time>2019-07-25T08:19:40.000Z</time>
      </trkpt>
      <trkpt lat="43.78401" lon="7.14282">
        <ele>803</ele>
        <time>2019-07-25T08:19:43.000Z</time>
      </trkpt>
      <trkpt lat="43.784" lon="7.14281">
        <ele>803</ele>
        <time>2019-07-25T08:19:44.000Z</time>
      </trkpt>
      <trkpt lat="43.784" lon="7.1428">
        <ele>803.40002441406</ele>
        <time>2019-07-25T08:19:46.000Z</time>
      </trkpt>
      <trkpt lat="43.78399" lon="7.14278">
        <ele>803.59997558594</ele>
        <time>2019-07-25T08:19:48.000Z</time>
      </trkpt>
      <trkpt lat="43.78398" lon="7.14278">
        <ele>803.59997558594</ele>
        <time>2019-07-25T08:19:54.000Z</time>
      </trkpt>
      <trkpt lat="43.78398" lon="7.14278">
        <ele>803.79998779297</ele>
        <time>2019-07-25T08:19:59.000Z</time>
      </trkpt>
      <trkpt lat="43.78397" lon="7.14277">
        <ele>803.20001220703</ele>
        <time>2019-07-25T08:20:02.000Z</time>
      </trkpt>
      <trkpt lat="43.78394" lon="7.14275">
        <ele>803.59997558594</ele>
        <time>2019-07-25T08:20:05.000Z</time>
      </trkpt>
      <trkpt lat="43.78392" lon="7.14273">
        <ele>804</ele>
        <time>2019-07-25T08:20:07.000Z</time>
      </trkpt>
      <trkpt lat="43.78389" lon="7.1427">
        <ele>804.20001220703</ele>
        <time>2019-07-25T08:20:10.000Z</time>
      </trkpt>
      <trkpt lat="43.78388" lon="7.14269">
        <ele>804.40002441406</ele>
        <time>2019-07-25T08:20:11.000Z</time>
      </trkpt>
      <trkpt lat="43.78387" lon="7.14268">
        <ele>804.59997558594</ele>
        <time>2019-07-25T08:20:12.000Z</time>
      </trkpt>
      <trkpt lat="43.78385" lon="7.14265">
        <ele>804.79998779297</ele>
        <time>2019-07-25T08:20:14.000Z</time>
      </trkpt>
      <trkpt lat="43.78384" lon="7.14261">
        <ele>805.20001220703</ele>
        <time>2019-07-25T08:20:16.000Z</time>
      </trkpt>
      <trkpt lat="43.78383" lon="7.14258">
        <ele>805.59997558594</ele>
        <time>2019-07-25T08:20:18.000Z</time>
      </trkpt>
      <trkpt lat="43.7838" lon="7.14254">
        <ele>806</ele>
        <time>2019-07-25T08:20:21.000Z</time>
      </trkpt>
      <trkpt lat="43.78374" lon="7.14249">
        <ele>806.59997558594</ele>
        <time>2019-07-25T08:20:25.000Z</time>
      </trkpt>
      <trkpt lat="43.78372" lon="7.14247">
        <ele>806.79998779297</ele>
        <time>2019-07-25T08:20:27.000Z</time>
      </trkpt>
      <trkpt lat="43.78369" lon="7.14241">
        <ele>807.59997558594</ele>
        <time>2019-07-25T08:20:31.000Z</time>
      </trkpt>
      <trkpt lat="43.78369" lon="7.14238">
        <ele>808</ele>
        <time>2019-07-25T08:20:33.000Z</time>
      </trkpt>
      <trkpt lat="43.78369" lon="7.14234">
        <ele>808.40002441406</ele>
        <time>2019-07-25T08:20:36.000Z</time>
      </trkpt>
      <trkpt lat="43.7837" lon="7.14233">
        <ele>808.59997558594</ele>
        <time>2019-07-25T08:20:37.000Z</time>
      </trkpt>
      <trkpt lat="43.78372" lon="7.14232">
        <ele>809</ele>
        <time>2019-07-25T08:20:39.000Z</time>
      </trkpt>
      <trkpt lat="43.78373" lon="7.14231">
        <ele>809.20001220703</ele>
        <time>2019-07-25T08:20:40.000Z</time>
      </trkpt>
      <trkpt lat="43.78375" lon="7.14231">
        <ele>809.40002441406</ele>
        <time>2019-07-25T08:20:42.000Z</time>
      </trkpt>
      <trkpt lat="43.7838" lon="7.1423">
        <ele>809.59997558594</ele>
        <time>2019-07-25T08:20:45.000Z</time>
      </trkpt>
      <trkpt lat="43.78384" lon="7.14231">
        <ele>809.79998779297</ele>
        <time>2019-07-25T08:20:48.000Z</time>
      </trkpt>
      <trkpt lat="43.78385" lon="7.14234">
        <ele>810</ele>
        <time>2019-07-25T08:20:50.000Z</time>
      </trkpt>
      <trkpt lat="43.78388" lon="7.14237">
        <ele>810.40002441406</ele>
        <time>2019-07-25T08:20:53.000Z</time>
      </trkpt>
      <trkpt lat="43.78391" lon="7.14239">
        <ele>810.59997558594</ele>
        <time>2019-07-25T08:20:56.000Z</time>
      </trkpt>
      <trkpt lat="43.78393" lon="7.1424">
        <ele>810.79998779297</ele>
        <time>2019-07-25T08:20:58.000Z</time>
      </trkpt>
      <trkpt lat="43.78401" lon="7.14242">
        <ele>811.20001220703</ele>
        <time>2019-07-25T08:21:02.000Z</time>
      </trkpt>
      <trkpt lat="43.78403" lon="7.14242">
        <ele>812.20001220703</ele>
        <time>2019-07-25T08:21:06.000Z</time>
      </trkpt>
      <trkpt lat="43.78407" lon="7.14242">
        <ele>812.79998779297</ele>
        <time>2019-07-25T08:21:12.000Z</time>
      </trkpt>
      <trkpt lat="43.78408" lon="7.14242">
        <ele>813.20001220703</ele>
        <time>2019-07-25T08:21:14.000Z</time>
      </trkpt>
      <trkpt lat="43.78411" lon="7.14242">
        <ele>814</ele>
        <time>2019-07-25T08:21:19.000Z</time>
      </trkpt>
      <trkpt lat="43.78412" lon="7.14242">
        <ele>814.20001220703</ele>
        <time>2019-07-25T08:21:21.000Z</time>
      </trkpt>
      <trkpt lat="43.78416" lon="7.14244">
        <ele>815.20001220703</ele>
        <time>2019-07-25T08:21:27.000Z</time>
      </trkpt>
      <trkpt lat="43.78417" lon="7.14245">
        <ele>815.20001220703</ele>
        <time>2019-07-25T08:21:28.000Z</time>
      </trkpt>
      <trkpt lat="43.78422" lon="7.1425">
        <ele>816.20001220703</ele>
        <time>2019-07-25T08:21:35.000Z</time>
      </trkpt>
      <trkpt lat="43.78423" lon="7.1425">
        <ele>816.40002441406</ele>
        <time>2019-07-25T08:21:36.000Z</time>
      </trkpt>
      <trkpt lat="43.78424" lon="7.14252">
        <ele>816.59997558594</ele>
        <time>2019-07-25T08:21:41.000Z</time>
      </trkpt>
      <trkpt lat="43.78425" lon="7.14252">
        <ele>816.79998779297</ele>
        <time>2019-07-25T08:21:43.000Z</time>
      </trkpt>
      <trkpt lat="43.78429" lon="7.14254">
        <ele>816.79998779297</ele>
        <time>2019-07-25T08:21:46.000Z</time>
      </trkpt>
      <trkpt lat="43.7843" lon="7.14254">
        <ele>817</ele>
        <time>2019-07-25T08:21:47.000Z</time>
      </trkpt>
      <trkpt lat="43.78437" lon="7.14256">
        <ele>817.40002441406</ele>
        <time>2019-07-25T08:21:52.000Z</time>
      </trkpt>
      <trkpt lat="43.78438" lon="7.14256">
        <ele>817.40002441406</ele>
        <time>2019-07-25T08:21:53.000Z</time>
      </trkpt>
      <trkpt lat="43.78448" lon="7.14259">
        <ele>818.40002441406</ele>
        <time>2019-07-25T08:22:01.000Z</time>
      </trkpt>
      <trkpt lat="43.7846" lon="7.14262">
        <ele>819.59997558594</ele>
        <time>2019-07-25T08:22:09.000Z</time>
      </trkpt>
      <trkpt lat="43.7846" lon="7.14263">
        <ele>820.79998779297</ele>
        <time>2019-07-25T08:22:13.000Z</time>
      </trkpt>
      <trkpt lat="43.7846" lon="7.14263">
        <ele>820.59997558594</ele>
        <time>2019-07-25T08:22:15.000Z</time>
      </trkpt>
      <trkpt lat="43.78464" lon="7.14264">
        <ele>821</ele>
        <time>2019-07-25T08:22:21.000Z</time>
      </trkpt>
      <trkpt lat="43.78468" lon="7.14265">
        <ele>822</ele>
        <time>2019-07-25T08:22:27.000Z</time>
      </trkpt>
      <trkpt lat="43.78469" lon="7.14265">
        <ele>822.20001220703</ele>
        <time>2019-07-25T08:22:28.000Z</time>
      </trkpt>
      <trkpt lat="43.78474" lon="7.14266">
        <ele>823</ele>
        <time>2019-07-25T08:22:36.000Z</time>
      </trkpt>
      <trkpt lat="43.78478" lon="7.14268">
        <ele>824.20001220703</ele>
        <time>2019-07-25T08:22:43.000Z</time>
      </trkpt>
      <trkpt lat="43.78479" lon="7.14268">
        <ele>824.20001220703</ele>
        <time>2019-07-25T08:22:44.000Z</time>
      </trkpt>
      <trkpt lat="43.78483" lon="7.14266">
        <ele>825.20001220703</ele>
        <time>2019-07-25T08:22:50.000Z</time>
      </trkpt>
      <trkpt lat="43.78484" lon="7.14265">
        <ele>825.40002441406</ele>
        <time>2019-07-25T08:22:52.000Z</time>
      </trkpt>
      <trkpt lat="43.78488" lon="7.14265">
        <ele>826.20001220703</ele>
        <time>2019-07-25T08:22:57.000Z</time>
      </trkpt>
      <trkpt lat="43.78491" lon="7.14266">
        <ele>827</ele>
        <time>2019-07-25T08:23:01.000Z</time>
      </trkpt>
      <trkpt lat="43.78492" lon="7.14266">
        <ele>827.20001220703</ele>
        <time>2019-07-25T08:23:02.000Z</time>
      </trkpt>
      <trkpt lat="43.78493" lon="7.14267">
        <ele>827.40002441406</ele>
        <time>2019-07-25T08:23:04.000Z</time>
      </trkpt>
      <trkpt lat="43.78496" lon="7.14269">
        <ele>828.20001220703</ele>
        <time>2019-07-25T08:23:10.000Z</time>
      </trkpt>
      <trkpt lat="43.78498" lon="7.1427">
        <ele>828.79998779297</ele>
        <time>2019-07-25T08:23:13.000Z</time>
      </trkpt>
      <trkpt lat="43.78502" lon="7.14272">
        <ele>829.79998779297</ele>
        <time>2019-07-25T08:23:19.000Z</time>
      </trkpt>
      <trkpt lat="43.78502" lon="7.14272">
        <ele>829.79998779297</ele>
        <time>2019-07-25T08:23:20.000Z</time>
      </trkpt>
      <trkpt lat="43.78507" lon="7.14275">
        <ele>830.59997558594</ele>
        <time>2019-07-25T08:23:28.000Z</time>
      </trkpt>
      <trkpt lat="43.78508" lon="7.14276">
        <ele>830.79998779297</ele>
        <time>2019-07-25T08:23:30.000Z</time>
      </trkpt>
      <trkpt lat="43.78512" lon="7.1428">
        <ele>831.40002441406</ele>
        <time>2019-07-25T08:23:36.000Z</time>
      </trkpt>
      <trkpt lat="43.78512" lon="7.14281">
        <ele>831.59997558594</ele>
        <time>2019-07-25T08:23:37.000Z</time>
      </trkpt>
      <trkpt lat="43.78514" lon="7.14285">
        <ele>832</ele>
        <time>2019-07-25T08:23:41.000Z</time>
      </trkpt>
      <trkpt lat="43.78515" lon="7.14286">
        <ele>832.59997558594</ele>
        <time>2019-07-25T08:23:46.000Z</time>
      </trkpt>
      <trkpt lat="43.78514" lon="7.14286">
        <ele>832.59997558594</ele>
        <time>2019-07-25T08:23:54.000Z</time>
      </trkpt>
      <trkpt lat="43.78514" lon="7.14286">
        <ele>832.79998779297</ele>
        <time>2019-07-25T08:24:04.000Z</time>
      </trkpt>
      <trkpt lat="43.78514" lon="7.14287">
        <ele>831.40002441406</ele>
        <time>2019-07-25T08:24:12.000Z</time>
      </trkpt>
      <trkpt lat="43.78514" lon="7.14288">
        <ele>832.20001220703</ele>
        <time>2019-07-25T08:24:24.000Z</time>
      </trkpt>
      <trkpt lat="43.78515" lon="7.14289">
        <ele>832.79998779297</ele>
        <time>2019-07-25T08:24:30.000Z</time>
      </trkpt>
      <trkpt lat="43.78517" lon="7.14289">
        <ele>832.79998779297</ele>
        <time>2019-07-25T08:24:32.000Z</time>
      </trkpt>
      <trkpt lat="43.78521" lon="7.14292">
        <ele>833</ele>
        <time>2019-07-25T08:24:35.000Z</time>
      </trkpt>
      <trkpt lat="43.78522" lon="7.14292">
        <ele>833.20001220703</ele>
        <time>2019-07-25T08:24:36.000Z</time>
      </trkpt>
      <trkpt lat="43.78528" lon="7.14291">
        <ele>834</ele>
        <time>2019-07-25T08:24:41.000Z</time>
      </trkpt>
      <trkpt lat="43.78534" lon="7.1429">
        <ele>835.20001220703</ele>
        <time>2019-07-25T08:24:46.000Z</time>
      </trkpt>
      <trkpt lat="43.78537" lon="7.14289">
        <ele>835.20001220703</ele>
        <time>2019-07-25T08:24:48.000Z</time>
      </trkpt>
      <trkpt lat="43.78543" lon="7.14292">
        <ele>836.40002441406</ele>
        <time>2019-07-25T08:24:53.000Z</time>
      </trkpt>
      <trkpt lat="43.78545" lon="7.14293">
        <ele>836.59997558594</ele>
        <time>2019-07-25T08:24:54.000Z</time>
      </trkpt>
      <trkpt lat="43.78551" lon="7.14299">
        <ele>837.20001220703</ele>
        <time>2019-07-25T08:24:59.000Z</time>
      </trkpt>
      <trkpt lat="43.78555" lon="7.14301">
        <ele>837.20001220703</ele>
        <time>2019-07-25T08:25:02.000Z</time>
      </trkpt>
      <trkpt lat="43.78554" lon="7.14304">
        <ele>837.40002441406</ele>
        <time>2019-07-25T08:25:03.000Z</time>
      </trkpt>
      <trkpt lat="43.78554" lon="7.14304">
        <ele>837.59997558594</ele>
        <time>2019-07-25T08:25:04.000Z</time>
      </trkpt>
      <trkpt lat="43.78556" lon="7.14305">
        <ele>838.20001220703</ele>
        <time>2019-07-25T08:25:06.000Z</time>
      </trkpt>
      <trkpt lat="43.78557" lon="7.14306">
        <ele>838.40002441406</ele>
        <time>2019-07-25T08:25:07.000Z</time>
      </trkpt>
      <trkpt lat="43.78558" lon="7.14307">
        <ele>838.40002441406</ele>
        <time>2019-07-25T08:25:08.000Z</time>
      </trkpt>
      <trkpt lat="43.78563" lon="7.14311">
        <ele>838.20001220703</ele>
        <time>2019-07-25T08:25:12.000Z</time>
      </trkpt>
      <trkpt lat="43.78565" lon="7.14312">
        <ele>838.79998779297</ele>
        <time>2019-07-25T08:25:14.000Z</time>
      </trkpt>
      <trkpt lat="43.78573" lon="7.14315">
        <ele>839.59997558594</ele>
        <time>2019-07-25T08:25:20.000Z</time>
      </trkpt>
      <trkpt lat="43.78577" lon="7.14317">
        <ele>839.79998779297</ele>
        <time>2019-07-25T08:25:23.000Z</time>
      </trkpt>
      <trkpt lat="43.78581" lon="7.14319">
        <ele>840.20001220703</ele>
        <time>2019-07-25T08:25:27.000Z</time>
      </trkpt>
      <trkpt lat="43.78588" lon="7.14322">
        <ele>841</ele>
        <time>2019-07-25T08:25:32.000Z</time>
      </trkpt>
      <trkpt lat="43.78591" lon="7.14325">
        <ele>841.40002441406</ele>
        <time>2019-07-25T08:25:35.000Z</time>
      </trkpt>
      <trkpt lat="43.786" lon="7.14335">
        <ele>841.40002441406</ele>
        <time>2019-07-25T08:25:42.000Z</time>
      </trkpt>
      <trkpt lat="43.7861" lon="7.14344">
        <ele>841.59997558594</ele>
        <time>2019-07-25T08:25:49.000Z</time>
      </trkpt>
      <trkpt lat="43.78617" lon="7.14348">
        <ele>842.20001220703</ele>
        <time>2019-07-25T08:25:54.000Z</time>
      </trkpt>
      <trkpt lat="43.78619" lon="7.14348">
        <ele>842.40002441406</ele>
        <time>2019-07-25T08:25:56.000Z</time>
      </trkpt>
      <trkpt lat="43.78625" lon="7.14351">
        <ele>843.20001220703</ele>
        <time>2019-07-25T08:26:00.000Z</time>
      </trkpt>
      <trkpt lat="43.78625" lon="7.14351">
        <ele>843.20001220703</ele>
        <time>2019-07-25T08:26:01.000Z</time>
      </trkpt>
      <trkpt lat="43.78628" lon="7.14351">
        <ele>844</ele>
        <time>2019-07-25T08:26:07.000Z</time>
      </trkpt>
      <trkpt lat="43.78628" lon="7.14351">
        <ele>844.20001220703</ele>
        <time>2019-07-25T08:26:08.000Z</time>
      </trkpt>
      <trkpt lat="43.78633" lon="7.14349">
        <ele>845.20001220703</ele>
        <time>2019-07-25T08:26:15.000Z</time>
      </trkpt>
      <trkpt lat="43.78633" lon="7.14348">
        <ele>845.40002441406</ele>
        <time>2019-07-25T08:26:16.000Z</time>
      </trkpt>
      <trkpt lat="43.78637" lon="7.14347">
        <ele>846.40002441406</ele>
        <time>2019-07-25T08:26:22.000Z</time>
      </trkpt>
      <trkpt lat="43.78641" lon="7.14345">
        <ele>847.40002441406</ele>
        <time>2019-07-25T08:26:28.000Z</time>
      </trkpt>
      <trkpt lat="43.78642" lon="7.14345">
        <ele>847.59997558594</ele>
        <time>2019-07-25T08:26:29.000Z</time>
      </trkpt>
      <trkpt lat="43.78642" lon="7.14344">
        <ele>848.40002441406</ele>
        <time>2019-07-25T08:26:35.000Z</time>
      </trkpt>
      <trkpt lat="43.78644" lon="7.14342">
        <ele>848.40002441406</ele>
        <time>2019-07-25T08:26:41.000Z</time>
      </trkpt>
      <trkpt lat="43.78646" lon="7.14341">
        <ele>848.40002441406</ele>
        <time>2019-07-25T08:26:43.000Z</time>
      </trkpt>
      <trkpt lat="43.78652" lon="7.14336">
        <ele>849.59997558594</ele>
        <time>2019-07-25T08:26:49.000Z</time>
      </trkpt>
      <trkpt lat="43.78653" lon="7.14335">
        <ele>849.79998779297</ele>
        <time>2019-07-25T08:26:50.000Z</time>
      </trkpt>
      <trkpt lat="43.78657" lon="7.1433">
        <ele>850.59997558594</ele>
        <time>2019-07-25T08:26:55.000Z</time>
      </trkpt>
      <trkpt lat="43.78659" lon="7.14326">
        <ele>851.20001220703</ele>
        <time>2019-07-25T08:26:58.000Z</time>
      </trkpt>
      <trkpt lat="43.78661" lon="7.14322">
        <ele>851.79998779297</ele>
        <time>2019-07-25T08:27:01.000Z</time>
      </trkpt>
      <trkpt lat="43.78666" lon="7.14316">
        <ele>852.79998779297</ele>
        <time>2019-07-25T08:27:07.000Z</time>
      </trkpt>
      <trkpt lat="43.78667" lon="7.14315">
        <ele>853</ele>
        <time>2019-07-25T08:27:08.000Z</time>
      </trkpt>
      <trkpt lat="43.78668" lon="7.14314">
        <ele>853</ele>
        <time>2019-07-25T08:27:09.000Z</time>
      </trkpt>
      <trkpt lat="43.78672" lon="7.14313">
        <ele>853.40002441406</ele>
        <time>2019-07-25T08:27:13.000Z</time>
      </trkpt>
      <trkpt lat="43.78675" lon="7.14311">
        <ele>854</ele>
        <time>2019-07-25T08:27:16.000Z</time>
      </trkpt>
      <trkpt lat="43.78681" lon="7.14312">
        <ele>854.79998779297</ele>
        <time>2019-07-25T08:27:20.000Z</time>
      </trkpt>
      <trkpt lat="43.78683" lon="7.14312">
        <ele>855.20001220703</ele>
        <time>2019-07-25T08:27:22.000Z</time>
      </trkpt>
      <trkpt lat="43.78688" lon="7.14314">
        <ele>855.20001220703</ele>
        <time>2019-07-25T08:27:26.000Z</time>
      </trkpt>
      <trkpt lat="43.7869" lon="7.14314">
        <ele>855.40002441406</ele>
        <time>2019-07-25T08:27:28.000Z</time>
      </trkpt>
      <trkpt lat="43.78696" lon="7.14313">
        <ele>856</ele>
        <time>2019-07-25T08:27:32.000Z</time>
      </trkpt>
      <trkpt lat="43.78697" lon="7.14313">
        <ele>856.20001220703</ele>
        <time>2019-07-25T08:27:33.000Z</time>
      </trkpt>
      <trkpt lat="43.78705" lon="7.14315">
        <ele>857</ele>
        <time>2019-07-25T08:27:39.000Z</time>
      </trkpt>
      <trkpt lat="43.78706" lon="7.14315">
        <ele>857.20001220703</ele>
        <time>2019-07-25T08:27:40.000Z</time>
      </trkpt>
      <trkpt lat="43.78718" lon="7.14316">
        <ele>858</ele>
        <time>2019-07-25T08:27:49.000Z</time>
      </trkpt>
      <trkpt lat="43.78722" lon="7.14318">
        <ele>858.40002441406</ele>
        <time>2019-07-25T08:27:52.000Z</time>
      </trkpt>
      <trkpt lat="43.78727" lon="7.14322">
        <ele>858.79998779297</ele>
        <time>2019-07-25T08:27:56.000Z</time>
      </trkpt>
      <trkpt lat="43.78736" lon="7.14326">
        <ele>859.40002441406</ele>
        <time>2019-07-25T08:28:03.000Z</time>
      </trkpt>
      <trkpt lat="43.78738" lon="7.14327">
        <ele>859.40002441406</ele>
        <time>2019-07-25T08:28:04.000Z</time>
      </trkpt>
      <trkpt lat="43.78746" lon="7.14331">
        <ele>860.20001220703</ele>
        <time>2019-07-25T08:28:10.000Z</time>
      </trkpt>
      <trkpt lat="43.78751" lon="7.14333">
        <ele>860.40002441406</ele>
        <time>2019-07-25T08:28:14.000Z</time>
      </trkpt>
      <trkpt lat="43.78756" lon="7.14334">
        <ele>860.79998779297</ele>
        <time>2019-07-25T08:28:17.000Z</time>
      </trkpt>
      <trkpt lat="43.78766" lon="7.14329">
        <ele>861.20001220703</ele>
        <time>2019-07-25T08:28:25.000Z</time>
      </trkpt>
      <trkpt lat="43.78769" lon="7.14327">
        <ele>861.59997558594</ele>
        <time>2019-07-25T08:28:27.000Z</time>
      </trkpt>
      <trkpt lat="43.78775" lon="7.14318">
        <ele>861.79998779297</ele>
        <time>2019-07-25T08:28:33.000Z</time>
      </trkpt>
      <trkpt lat="43.7878" lon="7.14305">
        <ele>862.59997558594</ele>
        <time>2019-07-25T08:28:40.000Z</time>
      </trkpt>
      <trkpt lat="43.7878" lon="7.14303">
        <ele>862.40002441406</ele>
        <time>2019-07-25T08:28:41.000Z</time>
      </trkpt>
      <trkpt lat="43.78785" lon="7.1429">
        <ele>863.59997558594</ele>
        <time>2019-07-25T08:28:48.000Z</time>
      </trkpt>
      <trkpt lat="43.78787" lon="7.14286">
        <ele>864</ele>
        <time>2019-07-25T08:28:50.000Z</time>
      </trkpt>
      <trkpt lat="43.78789" lon="7.14279">
        <ele>864.79998779297</ele>
        <time>2019-07-25T08:28:54.000Z</time>
      </trkpt>
      <trkpt lat="43.7879" lon="7.14275">
        <ele>865</ele>
        <time>2019-07-25T08:28:56.000Z</time>
      </trkpt>
      <trkpt lat="43.78792" lon="7.14272">
        <ele>865.79998779297</ele>
        <time>2019-07-25T08:28:58.000Z</time>
      </trkpt>
      <trkpt lat="43.78792" lon="7.14266">
        <ele>866.79998779297</ele>
        <time>2019-07-25T08:29:02.000Z</time>
      </trkpt>
      <trkpt lat="43.78792" lon="7.14264">
        <ele>867</ele>
        <time>2019-07-25T08:29:03.000Z</time>
      </trkpt>
      <trkpt lat="43.78794" lon="7.1426">
        <ele>867.79998779297</ele>
        <time>2019-07-25T08:29:06.000Z</time>
      </trkpt>
      <trkpt lat="43.78795" lon="7.14255">
        <ele>868.40002441406</ele>
        <time>2019-07-25T08:29:09.000Z</time>
      </trkpt>
      <trkpt lat="43.78796" lon="7.14251">
        <ele>868.59997558594</ele>
        <time>2019-07-25T08:29:11.000Z</time>
      </trkpt>
      <trkpt lat="43.78797" lon="7.1425">
        <ele>869</ele>
        <time>2019-07-25T08:29:12.000Z</time>
      </trkpt>
      <trkpt lat="43.78798" lon="7.14248">
        <ele>869.40002441406</ele>
        <time>2019-07-25T08:29:14.000Z</time>
      </trkpt>
      <trkpt lat="43.788" lon="7.14241">
        <ele>870</ele>
        <time>2019-07-25T08:29:19.000Z</time>
      </trkpt>
      <trkpt lat="43.78801" lon="7.1424">
        <ele>870.20001220703</ele>
        <time>2019-07-25T08:29:20.000Z</time>
      </trkpt>
      <trkpt lat="43.78803" lon="7.14234">
        <ele>870.79998779297</ele>
        <time>2019-07-25T08:29:25.000Z</time>
      </trkpt>
      <trkpt lat="43.78803" lon="7.14232">
        <ele>871</ele>
        <time>2019-07-25T08:29:26.000Z</time>
      </trkpt>
      <trkpt lat="43.78804" lon="7.14226">
        <ele>871.20001220703</ele>
        <time>2019-07-25T08:29:29.000Z</time>
      </trkpt>
      <trkpt lat="43.78806" lon="7.1422">
        <ele>871.59997558594</ele>
        <time>2019-07-25T08:29:33.000Z</time>
      </trkpt>
      <trkpt lat="43.78809" lon="7.14209">
        <ele>872.20001220703</ele>
        <time>2019-07-25T08:29:39.000Z</time>
      </trkpt>
      <trkpt lat="43.7881" lon="7.14205">
        <ele>872.20001220703</ele>
        <time>2019-07-25T08:29:41.000Z</time>
      </trkpt>
      <trkpt lat="43.78814" lon="7.14189">
        <ele>872.79998779297</ele>
        <time>2019-07-25T08:29:49.000Z</time>
      </trkpt>
      <trkpt lat="43.78819" lon="7.14169">
        <ele>873.40002441406</ele>
        <time>2019-07-25T08:29:58.000Z</time>
      </trkpt>
      <trkpt lat="43.78819" lon="7.14167">
        <ele>873.40002441406</ele>
        <time>2019-07-25T08:29:59.000Z</time>
      </trkpt>
      <trkpt lat="43.78822" lon="7.14152">
        <ele>874.40002441406</ele>
        <time>2019-07-25T08:30:06.000Z</time>
      </trkpt>
      <trkpt lat="43.78823" lon="7.1415">
        <ele>874.40002441406</ele>
        <time>2019-07-25T08:30:07.000Z</time>
      </trkpt>
      <trkpt lat="43.78826" lon="7.14141">
        <ele>875.20001220703</ele>
        <time>2019-07-25T08:30:12.000Z</time>
      </trkpt>
      <trkpt lat="43.78829" lon="7.14133">
        <ele>875.59997558594</ele>
        <time>2019-07-25T08:30:16.000Z</time>
      </trkpt>
      <trkpt lat="43.7883" lon="7.14129">
        <ele>875.59997558594</ele>
        <time>2019-07-25T08:30:18.000Z</time>
      </trkpt>
      <trkpt lat="43.78834" lon="7.14116">
        <ele>876.59997558594</ele>
        <time>2019-07-25T08:30:25.000Z</time>
      </trkpt>
      <trkpt lat="43.78835" lon="7.14115">
        <ele>876.59997558594</ele>
        <time>2019-07-25T08:30:26.000Z</time>
      </trkpt>
      <trkpt lat="43.78837" lon="7.14105">
        <ele>877.40002441406</ele>
        <time>2019-07-25T08:30:32.000Z</time>
      </trkpt>
      <trkpt lat="43.78837" lon="7.14103">
        <ele>877.59997558594</ele>
        <time>2019-07-25T08:30:33.000Z</time>
      </trkpt>
      <trkpt lat="43.78838" lon="7.14101">
        <ele>877.59997558594</ele>
        <time>2019-07-25T08:30:34.000Z</time>
      </trkpt>
      <trkpt lat="43.78839" lon="7.14095">
        <ele>877.79998779297</ele>
        <time>2019-07-25T08:30:37.000Z</time>
      </trkpt>
      <trkpt lat="43.78839" lon="7.14088">
        <ele>878</ele>
        <time>2019-07-25T08:30:41.000Z</time>
      </trkpt>
      <trkpt lat="43.78838" lon="7.14081">
        <ele>878.59997558594</ele>
        <time>2019-07-25T08:30:45.000Z</time>
      </trkpt>
      <trkpt lat="43.78838" lon="7.14077">
        <ele>878.79998779297</ele>
        <time>2019-07-25T08:30:47.000Z</time>
      </trkpt>
      <trkpt lat="43.78835" lon="7.14067">
        <ele>879.79998779297</ele>
        <time>2019-07-25T08:30:53.000Z</time>
      </trkpt>
      <trkpt lat="43.78834" lon="7.14065">
        <ele>880</ele>
        <time>2019-07-25T08:30:54.000Z</time>
      </trkpt>
      <trkpt lat="43.78831" lon="7.14057">
        <ele>881</ele>
        <time>2019-07-25T08:30:59.000Z</time>
      </trkpt>
      <trkpt lat="43.78824" lon="7.14044">
        <ele>881.59997558594</ele>
        <time>2019-07-25T08:31:07.000Z</time>
      </trkpt>
      <trkpt lat="43.78823" lon="7.14041">
        <ele>882.20001220703</ele>
        <time>2019-07-25T08:31:09.000Z</time>
      </trkpt>
      <trkpt lat="43.78821" lon="7.14037">
        <ele>883</ele>
        <time>2019-07-25T08:31:12.000Z</time>
      </trkpt>
      <trkpt lat="43.78821" lon="7.14035">
        <ele>883.20001220703</ele>
        <time>2019-07-25T08:31:13.000Z</time>
      </trkpt>
      <trkpt lat="43.78822" lon="7.14027">
        <ele>884.20001220703</ele>
        <time>2019-07-25T08:31:18.000Z</time>
      </trkpt>
      <trkpt lat="43.78825" lon="7.14023">
        <ele>885</ele>
        <time>2019-07-25T08:31:22.000Z</time>
      </trkpt>
      <trkpt lat="43.78827" lon="7.14021">
        <ele>885.40002441406</ele>
        <time>2019-07-25T08:31:24.000Z</time>
      </trkpt>
      <trkpt lat="43.78829" lon="7.1402">
        <ele>885.79998779297</ele>
        <time>2019-07-25T08:31:26.000Z</time>
      </trkpt>
      <trkpt lat="43.78833" lon="7.14017">
        <ele>886.59997558594</ele>
        <time>2019-07-25T08:31:31.000Z</time>
      </trkpt>
      <trkpt lat="43.78834" lon="7.14016">
        <ele>886.79998779297</ele>
        <time>2019-07-25T08:31:32.000Z</time>
      </trkpt>
      <trkpt lat="43.78838" lon="7.14012">
        <ele>887.79998779297</ele>
        <time>2019-07-25T08:31:38.000Z</time>
      </trkpt>
      <trkpt lat="43.78839" lon="7.14011">
        <ele>887.79998779297</ele>
        <time>2019-07-25T08:31:39.000Z</time>
      </trkpt>
      <trkpt lat="43.78842" lon="7.14006">
        <ele>888.59997558594</ele>
        <time>2019-07-25T08:31:44.000Z</time>
      </trkpt>
      <trkpt lat="43.78844" lon="7.14004">
        <ele>888.79998779297</ele>
        <time>2019-07-25T08:31:46.000Z</time>
      </trkpt>
      <trkpt lat="43.7885" lon="7.14">
        <ele>890</ele>
        <time>2019-07-25T08:31:53.000Z</time>
      </trkpt>
      <trkpt lat="43.78856" lon="7.13996">
        <ele>891</ele>
        <time>2019-07-25T08:32:00.000Z</time>
      </trkpt>
      <trkpt lat="43.78858" lon="7.13995">
        <ele>892</ele>
        <time>2019-07-25T08:32:05.000Z</time>
      </trkpt>
      <trkpt lat="43.78859" lon="7.13995">
        <ele>892.20001220703</ele>
        <time>2019-07-25T08:32:06.000Z</time>
      </trkpt>
      <trkpt lat="43.78862" lon="7.13993">
        <ele>892.79998779297</ele>
        <time>2019-07-25T08:32:13.000Z</time>
      </trkpt>
      <trkpt lat="43.78864" lon="7.13992">
        <ele>893.20001220703</ele>
        <time>2019-07-25T08:32:18.000Z</time>
      </trkpt>
      <trkpt lat="43.78866" lon="7.1399">
        <ele>894</ele>
        <time>2019-07-25T08:32:22.000Z</time>
      </trkpt>
      <trkpt lat="43.78867" lon="7.13989">
        <ele>894.20001220703</ele>
        <time>2019-07-25T08:32:24.000Z</time>
      </trkpt>
      <trkpt lat="43.78869" lon="7.13986">
        <ele>894.79998779297</ele>
        <time>2019-07-25T08:32:30.000Z</time>
      </trkpt>
      <trkpt lat="43.78869" lon="7.13984">
        <ele>894.79998779297</ele>
        <time>2019-07-25T08:32:34.000Z</time>
      </trkpt>
      <trkpt lat="43.7887" lon="7.13982">
        <ele>894.79998779297</ele>
        <time>2019-07-25T08:32:36.000Z</time>
      </trkpt>
      <trkpt lat="43.78872" lon="7.13976">
        <ele>895.20001220703</ele>
        <time>2019-07-25T08:32:40.000Z</time>
      </trkpt>
      <trkpt lat="43.78873" lon="7.13974">
        <ele>895.59997558594</ele>
        <time>2019-07-25T08:32:42.000Z</time>
      </trkpt>
      <trkpt lat="43.78876" lon="7.13968">
        <ele>896.40002441406</ele>
        <time>2019-07-25T08:32:46.000Z</time>
      </trkpt>
      <trkpt lat="43.78877" lon="7.13965">
        <ele>896.79998779297</ele>
        <time>2019-07-25T08:32:48.000Z</time>
      </trkpt>
      <trkpt lat="43.78878" lon="7.13962">
        <ele>897.40002441406</ele>
        <time>2019-07-25T08:32:50.000Z</time>
      </trkpt>
      <trkpt lat="43.7888" lon="7.13954">
        <ele>898.40002441406</ele>
        <time>2019-07-25T08:32:55.000Z</time>
      </trkpt>
      <trkpt lat="43.78881" lon="7.13952">
        <ele>899.20001220703</ele>
        <time>2019-07-25T08:32:59.000Z</time>
      </trkpt>
      <trkpt lat="43.78881" lon="7.13951">
        <ele>899.59997558594</ele>
        <time>2019-07-25T08:33:02.000Z</time>
      </trkpt>
      <trkpt lat="43.78881" lon="7.13949">
        <ele>899.59997558594</ele>
        <time>2019-07-25T08:33:03.000Z</time>
      </trkpt>
      <trkpt lat="43.78884" lon="7.13937">
        <ele>900.79998779297</ele>
        <time>2019-07-25T08:33:10.000Z</time>
      </trkpt>
      <trkpt lat="43.78884" lon="7.13936">
        <ele>901</ele>
        <time>2019-07-25T08:33:11.000Z</time>
      </trkpt>
      <trkpt lat="43.78885" lon="7.1393">
        <ele>902</ele>
        <time>2019-07-25T08:33:15.000Z</time>
      </trkpt>
      <trkpt lat="43.78886" lon="7.13926">
        <ele>902.79998779297</ele>
        <time>2019-07-25T08:33:18.000Z</time>
      </trkpt>
      <trkpt lat="43.78887" lon="7.13924">
        <ele>903.20001220703</ele>
        <time>2019-07-25T08:33:20.000Z</time>
      </trkpt>
      <trkpt lat="43.78889" lon="7.13917">
        <ele>904</ele>
        <time>2019-07-25T08:33:25.000Z</time>
      </trkpt>
      <trkpt lat="43.7889" lon="7.13915">
        <ele>904.20001220703</ele>
        <time>2019-07-25T08:33:27.000Z</time>
      </trkpt>
      <trkpt lat="43.78893" lon="7.13906">
        <ele>904.59997558594</ele>
        <time>2019-07-25T08:33:33.000Z</time>
      </trkpt>
      <trkpt lat="43.78895" lon="7.13899">
        <ele>905.20001220703</ele>
        <time>2019-07-25T08:33:39.000Z</time>
      </trkpt>
      <trkpt lat="43.78898" lon="7.13888">
        <ele>906.40002441406</ele>
        <time>2019-07-25T08:33:46.000Z</time>
      </trkpt>
      <trkpt lat="43.78899" lon="7.13885">
        <ele>906.59997558594</ele>
        <time>2019-07-25T08:33:48.000Z</time>
      </trkpt>
      <trkpt lat="43.78903" lon="7.13873">
        <ele>907.20001220703</ele>
        <time>2019-07-25T08:33:55.000Z</time>
      </trkpt>
      <trkpt lat="43.78904" lon="7.13871">
        <ele>907.40002441406</ele>
        <time>2019-07-25T08:33:56.000Z</time>
      </trkpt>
      <trkpt lat="43.78906" lon="7.13863">
        <ele>908.40002441406</ele>
        <time>2019-07-25T08:34:02.000Z</time>
      </trkpt>
      <trkpt lat="43.78906" lon="7.13861">
        <ele>908.59997558594</ele>
        <time>2019-07-25T08:34:03.000Z</time>
      </trkpt>
      <trkpt lat="43.7891" lon="7.1385">
        <ele>909.40002441406</ele>
        <time>2019-07-25T08:34:10.000Z</time>
      </trkpt>
      <trkpt lat="43.7891" lon="7.13849">
        <ele>909.59997558594</ele>
        <time>2019-07-25T08:34:11.000Z</time>
      </trkpt>
      <trkpt lat="43.78913" lon="7.13839">
        <ele>910.40002441406</ele>
        <time>2019-07-25T08:34:17.000Z</time>
      </trkpt>
      <trkpt lat="43.78915" lon="7.13832">
        <ele>910.79998779297</ele>
        <time>2019-07-25T08:34:21.000Z</time>
      </trkpt>
      <trkpt lat="43.78917" lon="7.13825">
        <ele>911.40002441406</ele>
        <time>2019-07-25T08:34:26.000Z</time>
      </trkpt>
      <trkpt lat="43.78918" lon="7.13822">
        <ele>911.59997558594</ele>
        <time>2019-07-25T08:34:28.000Z</time>
      </trkpt>
      <trkpt lat="43.78919" lon="7.1382">
        <ele>911.79998779297</ele>
        <time>2019-07-25T08:34:29.000Z</time>
      </trkpt>
      <trkpt lat="43.78923" lon="7.13806">
        <ele>912.40002441406</ele>
        <time>2019-07-25T08:34:36.000Z</time>
      </trkpt>
      <trkpt lat="43.78931" lon="7.13782">
        <ele>912.20001220703</ele>
        <time>2019-07-25T08:34:43.000Z</time>
      </trkpt>
      <trkpt lat="43.78936" lon="7.13762">
        <ele>912.40002441406</ele>
        <time>2019-07-25T08:34:49.000Z</time>
      </trkpt>
      <trkpt lat="43.78943" lon="7.13736">
        <ele>912.79998779297</ele>
        <time>2019-07-25T08:34:57.000Z</time>
      </trkpt>
      <trkpt lat="43.78951" lon="7.13707">
        <ele>912.40002441406</ele>
        <time>2019-07-25T08:35:03.000Z</time>
      </trkpt>
      <trkpt lat="43.78954" lon="7.13699">
        <ele>911.79998779297</ele>
        <time>2019-07-25T08:35:05.000Z</time>
      </trkpt>
      <trkpt lat="43.78957" lon="7.13684">
        <ele>912.40002441406</ele>
        <time>2019-07-25T08:35:09.000Z</time>
      </trkpt>
      <trkpt lat="43.7896" lon="7.13673">
        <ele>912.79998779297</ele>
        <time>2019-07-25T08:35:12.000Z</time>
      </trkpt>
      <trkpt lat="43.78967" lon="7.13648">
        <ele>913.20001220703</ele>
        <time>2019-07-25T08:35:19.000Z</time>
      </trkpt>
      <trkpt lat="43.78973" lon="7.13633">
        <ele>914.20001220703</ele>
        <time>2019-07-25T08:35:25.000Z</time>
      </trkpt>
      <trkpt lat="43.78975" lon="7.13628">
        <ele>915.59997558594</ele>
        <time>2019-07-25T08:35:28.000Z</time>
      </trkpt>
      <trkpt lat="43.78977" lon="7.13621">
        <ele>916.20001220703</ele>
        <time>2019-07-25T08:35:32.000Z</time>
      </trkpt>
      <trkpt lat="43.78978" lon="7.13616">
        <ele>916.79998779297</ele>
        <time>2019-07-25T08:35:34.000Z</time>
      </trkpt>
      <trkpt lat="43.7898" lon="7.13609">
        <ele>917.79998779297</ele>
        <time>2019-07-25T08:35:37.000Z</time>
      </trkpt>
      <trkpt lat="43.78981" lon="7.13605">
        <ele>918.40002441406</ele>
        <time>2019-07-25T08:35:39.000Z</time>
      </trkpt>
      <trkpt lat="43.78981" lon="7.13602">
        <ele>918.79998779297</ele>
        <time>2019-07-25T08:35:41.000Z</time>
      </trkpt>
      <trkpt lat="43.78984" lon="7.1359">
        <ele>919.79998779297</ele>
        <time>2019-07-25T08:35:47.000Z</time>
      </trkpt>
      <trkpt lat="43.78985" lon="7.13588">
        <ele>919.79998779297</ele>
        <time>2019-07-25T08:35:48.000Z</time>
      </trkpt>
      <trkpt lat="43.7899" lon="7.13574">
        <ele>920.59997558594</ele>
        <time>2019-07-25T08:35:55.000Z</time>
      </trkpt>
      <trkpt lat="43.78998" lon="7.13552">
        <ele>920.20001220703</ele>
        <time>2019-07-25T08:36:02.000Z</time>
      </trkpt>
      <trkpt lat="43.79005" lon="7.13526">
        <ele>920</ele>
        <time>2019-07-25T08:36:09.000Z</time>
      </trkpt>
      <trkpt lat="43.79014" lon="7.13493">
        <ele>918.79998779297</ele>
        <time>2019-07-25T08:36:16.000Z</time>
      </trkpt>
      <trkpt lat="43.79016" lon="7.13487">
        <ele>918.59997558594</ele>
        <time>2019-07-25T08:36:17.000Z</time>
      </trkpt>
      <trkpt lat="43.7902" lon="7.13474">
        <ele>917.59997558594</ele>
        <time>2019-07-25T08:36:19.000Z</time>
      </trkpt>
      <trkpt lat="43.79026" lon="7.13453">
        <ele>917.20001220703</ele>
        <time>2019-07-25T08:36:22.000Z</time>
      </trkpt>
      <trkpt lat="43.79033" lon="7.13431">
        <ele>916.40002441406</ele>
        <time>2019-07-25T08:36:25.000Z</time>
      </trkpt>
      <trkpt lat="43.79038" lon="7.13415">
        <ele>915.40002441406</ele>
        <time>2019-07-25T08:36:27.000Z</time>
      </trkpt>
      <trkpt lat="43.79043" lon="7.13398">
        <ele>914.40002441406</ele>
        <time>2019-07-25T08:36:29.000Z</time>
      </trkpt>
      <trkpt lat="43.79049" lon="7.13378">
        <ele>913.59997558594</ele>
        <time>2019-07-25T08:36:32.000Z</time>
      </trkpt>
      <trkpt lat="43.7905" lon="7.13373">
        <ele>913.59997558594</ele>
        <time>2019-07-25T08:36:33.000Z</time>
      </trkpt>
      <trkpt lat="43.79052" lon="7.13371">
        <ele>912.59997558594</ele>
        <time>2019-07-25T08:36:35.000Z</time>
      </trkpt>
      <trkpt lat="43.79052" lon="7.13368">
        <ele>912.59997558594</ele>
        <time>2019-07-25T08:36:36.000Z</time>
      </trkpt>
      <trkpt lat="43.79054" lon="7.1336">
        <ele>911.40002441406</ele>
        <time>2019-07-25T08:36:38.000Z</time>
      </trkpt>
      <trkpt lat="43.79057" lon="7.13347">
        <ele>911</ele>
        <time>2019-07-25T08:36:41.000Z</time>
      </trkpt>
      <trkpt lat="43.7906" lon="7.13342">
        <ele>910.59997558594</ele>
        <time>2019-07-25T08:36:42.000Z</time>
      </trkpt>
      <trkpt lat="43.79062" lon="7.13336">
        <ele>910.20001220703</ele>
        <time>2019-07-25T08:36:43.000Z</time>
      </trkpt>
      <trkpt lat="43.79066" lon="7.13323">
        <ele>908.79998779297</ele>
        <time>2019-07-25T08:36:45.000Z</time>
      </trkpt>
      <trkpt lat="43.79069" lon="7.13316">
        <ele>907.20001220703</ele>
        <time>2019-07-25T08:36:46.000Z</time>
      </trkpt>
      <trkpt lat="43.79072" lon="7.13308">
        <ele>905.79998779297</ele>
        <time>2019-07-25T08:36:47.000Z</time>
      </trkpt>
      <trkpt lat="43.79073" lon="7.133">
        <ele>904.59997558594</ele>
        <time>2019-07-25T08:36:48.000Z</time>
      </trkpt>
      <trkpt lat="43.79077" lon="7.13287">
        <ele>903.20001220703</ele>
        <time>2019-07-25T08:36:50.000Z</time>
      </trkpt>
      <trkpt lat="43.79078" lon="7.13283">
        <ele>903.20001220703</ele>
        <time>2019-07-25T08:36:51.000Z</time>
      </trkpt>
      <trkpt lat="43.79081" lon="7.13272">
        <ele>904.40002441406</ele>
        <time>2019-07-25T08:36:54.000Z</time>
      </trkpt>
      <trkpt lat="43.79081" lon="7.13268">
        <ele>906</ele>
        <time>2019-07-25T08:36:56.000Z</time>
      </trkpt>
      <trkpt lat="43.79082" lon="7.13262">
        <ele>907</ele>
        <time>2019-07-25T08:36:58.000Z</time>
      </trkpt>
      <trkpt lat="43.79086" lon="7.1325">
        <ele>907.20001220703</ele>
        <time>2019-07-25T08:37:01.000Z</time>
      </trkpt>
      <trkpt lat="43.79088" lon="7.13245">
        <ele>907.20001220703</ele>
        <time>2019-07-25T08:37:02.000Z</time>
      </trkpt>
      <trkpt lat="43.79094" lon="7.1323">
        <ele>906.59997558594</ele>
        <time>2019-07-25T08:37:05.000Z</time>
      </trkpt>
      <trkpt lat="43.79096" lon="7.13226">
        <ele>906.40002441406</ele>
        <time>2019-07-25T08:37:06.000Z</time>
      </trkpt>
      <trkpt lat="43.79099" lon="7.13215">
        <ele>907</ele>
        <time>2019-07-25T08:37:10.000Z</time>
      </trkpt>
      <trkpt lat="43.79105" lon="7.13198">
        <ele>908</ele>
        <time>2019-07-25T08:37:15.000Z</time>
      </trkpt>
      <trkpt lat="43.79107" lon="7.1319">
        <ele>908</ele>
        <time>2019-07-25T08:37:17.000Z</time>
      </trkpt>
      <trkpt lat="43.79114" lon="7.13165">
        <ele>908.40002441406</ele>
        <time>2019-07-25T08:37:24.000Z</time>
      </trkpt>
      <trkpt lat="43.79116" lon="7.1314">
        <ele>909</ele>
        <time>2019-07-25T08:37:31.000Z</time>
      </trkpt>
      <trkpt lat="43.7912" lon="7.13129">
        <ele>910.40002441406</ele>
        <time>2019-07-25T08:37:36.000Z</time>
      </trkpt>
      <trkpt lat="43.79121" lon="7.13127">
        <ele>910.40002441406</ele>
        <time>2019-07-25T08:37:37.000Z</time>
      </trkpt>
      <trkpt lat="43.79125" lon="7.13118">
        <ele>910.59997558594</ele>
        <time>2019-07-25T08:37:41.000Z</time>
      </trkpt>
      <trkpt lat="43.7913" lon="7.13103">
        <ele>911.40002441406</ele>
        <time>2019-07-25T08:37:47.000Z</time>
      </trkpt>
      <trkpt lat="43.79131" lon="7.13101">
        <ele>911.59997558594</ele>
        <time>2019-07-25T08:37:48.000Z</time>
      </trkpt>
      <trkpt lat="43.79134" lon="7.13092">
        <ele>912.59997558594</ele>
        <time>2019-07-25T08:37:54.000Z</time>
      </trkpt>
      <trkpt lat="43.79135" lon="7.1309">
        <ele>913.40002441406</ele>
        <time>2019-07-25T08:37:59.000Z</time>
      </trkpt>
      <trkpt lat="43.79135" lon="7.13091">
        <ele>913.59997558594</ele>
        <time>2019-07-25T08:38:00.000Z</time>
      </trkpt>
      <trkpt lat="43.79134" lon="7.13086">
        <ele>913.79998779297</ele>
        <time>2019-07-25T08:38:06.000Z</time>
      </trkpt>
      <trkpt lat="43.79134" lon="7.13087">
        <ele>914</ele>
        <time>2019-07-25T08:38:11.000Z</time>
      </trkpt>
      <trkpt lat="43.79133" lon="7.13086">
        <ele>913.79998779297</ele>
        <time>2019-07-25T08:38:18.000Z</time>
      </trkpt>
      <trkpt lat="43.7913" lon="7.13084">
        <ele>913.79998779297</ele>
        <time>2019-07-25T08:38:20.000Z</time>
      </trkpt>
      <trkpt lat="43.79125" lon="7.13079">
        <ele>913</ele>
        <time>2019-07-25T08:38:25.000Z</time>
      </trkpt>
      <trkpt lat="43.79124" lon="7.13078">
        <ele>912.40002441406</ele>
        <time>2019-07-25T08:38:27.000Z</time>
      </trkpt>
      <trkpt lat="43.79125" lon="7.13078">
        <ele>912.20001220703</ele>
        <time>2019-07-25T08:38:30.000Z</time>
      </trkpt>
      <trkpt lat="43.79125" lon="7.1308">
        <ele>912.20001220703</ele>
        <time>2019-07-25T08:38:37.000Z</time>
      </trkpt>
      <trkpt lat="43.79126" lon="7.13081">
        <ele>911.79998779297</ele>
        <time>2019-07-25T08:38:52.000Z</time>
      </trkpt>
      <trkpt lat="43.79126" lon="7.13081">
        <ele>912.20001220703</ele>
        <time>2019-07-25T08:39:11.000Z</time>
      </trkpt>
      <trkpt lat="43.79126" lon="7.1308">
        <ele>911.79998779297</ele>
        <time>2019-07-25T08:39:18.000Z</time>
      </trkpt>
      <trkpt lat="43.79125" lon="7.1308">
        <ele>911.79998779297</ele>
        <time>2019-07-25T08:39:31.000Z</time>
      </trkpt>
      <trkpt lat="43.79125" lon="7.13079">
        <ele>911.59997558594</ele>
        <time>2019-07-25T08:39:37.000Z</time>
      </trkpt>
      <trkpt lat="43.79125" lon="7.13078">
        <ele>912</ele>
        <time>2019-07-25T08:39:48.000Z</time>
      </trkpt>
      <trkpt lat="43.79124" lon="7.13078">
        <ele>911.40002441406</ele>
        <time>2019-07-25T08:39:52.000Z</time>
      </trkpt>
      <trkpt lat="43.79125" lon="7.13078">
        <ele>911.40002441406</ele>
        <time>2019-07-25T08:39:57.000Z</time>
      </trkpt>
      <trkpt lat="43.79124" lon="7.13077">
        <ele>911.20001220703</ele>
        <time>2019-07-25T08:40:05.000Z</time>
      </trkpt>
      <trkpt lat="43.79124" lon="7.13077">
        <ele>911.59997558594</ele>
        <time>2019-07-25T08:40:12.000Z</time>
      </trkpt>
      <trkpt lat="43.79124" lon="7.13077">
        <ele>911.20001220703</ele>
        <time>2019-07-25T08:40:21.000Z</time>
      </trkpt>
      <trkpt lat="43.79124" lon="7.13077">
        <ele>910.59997558594</ele>
        <time>2019-07-25T08:40:29.000Z</time>
      </trkpt>
      <trkpt lat="43.79124" lon="7.13076">
        <ele>910.79998779297</ele>
        <time>2019-07-25T08:40:37.000Z</time>
      </trkpt>
      <trkpt lat="43.79123" lon="7.13076">
        <ele>911.40002441406</ele>
        <time>2019-07-25T08:40:43.000Z</time>
      </trkpt>
      <trkpt lat="43.79123" lon="7.13076">
        <ele>911.20001220703</ele>
        <time>2019-07-25T08:40:50.000Z</time>
      </trkpt>
      <trkpt lat="43.79123" lon="7.13076">
        <ele>911</ele>
        <time>2019-07-25T08:40:58.000Z</time>
      </trkpt>
      <trkpt lat="43.79123" lon="7.13077">
        <ele>911</ele>
        <time>2019-07-25T08:41:08.000Z</time>
      </trkpt>
      <trkpt lat="43.79125" lon="7.13076">
        <ele>911.20001220703</ele>
        <time>2019-07-25T08:41:10.000Z</time>
      </trkpt>
      <trkpt lat="43.79124" lon="7.13076">
        <ele>911.40002441406</ele>
        <time>2019-07-25T08:41:11.000Z</time>
      </trkpt>
      <trkpt lat="43.79124" lon="7.13076">
        <ele>910.59997558594</ele>
        <time>2019-07-25T08:41:21.000Z</time>
      </trkpt>
      <trkpt lat="43.79124" lon="7.13075">
        <ele>910.40002441406</ele>
        <time>2019-07-25T08:41:33.000Z</time>
      </trkpt>
      <trkpt lat="43.79124" lon="7.13076">
        <ele>910.40002441406</ele>
        <time>2019-07-25T08:41:40.000Z</time>
      </trkpt>
      <trkpt lat="43.79124" lon="7.13076">
        <ele>910.20001220703</ele>
        <time>2019-07-25T08:41:46.000Z</time>
      </trkpt>
      <trkpt lat="43.79123" lon="7.13076">
        <ele>910.40002441406</ele>
        <time>2019-07-25T08:41:54.000Z</time>
      </trkpt>
      <trkpt lat="43.79123" lon="7.13076">
        <ele>911</ele>
        <time>2019-07-25T08:42:04.000Z</time>
      </trkpt>
      <trkpt lat="43.79122" lon="7.13074">
        <ele>911</ele>
        <time>2019-07-25T08:42:17.000Z</time>
      </trkpt>
      <trkpt lat="43.79122" lon="7.13074">
        <ele>910.79998779297</ele>
        <time>2019-07-25T08:42:26.000Z</time>
      </trkpt>
      <trkpt lat="43.79122" lon="7.13074">
        <ele>910.40002441406</ele>
        <time>2019-07-25T08:42:36.000Z</time>
      </trkpt>
      <trkpt lat="43.79122" lon="7.13074">
        <ele>910.20001220703</ele>
        <time>2019-07-25T08:42:49.000Z</time>
      </trkpt>
      <trkpt lat="43.79122" lon="7.13074">
        <ele>910.40002441406</ele>
        <time>2019-07-25T08:43:00.000Z</time>
      </trkpt>
      <trkpt lat="43.79122" lon="7.13074">
        <ele>911.40002441406</ele>
        <time>2019-07-25T08:43:04.000Z</time>
      </trkpt>
      <trkpt lat="43.79122" lon="7.13074">
        <ele>911.79998779297</ele>
        <time>2019-07-25T08:43:10.000Z</time>
      </trkpt>
      <trkpt lat="43.79122" lon="7.13074">
        <ele>911.20001220703</ele>
        <time>2019-07-25T08:43:21.000Z</time>
      </trkpt>
      <trkpt lat="43.79122" lon="7.13074">
        <ele>911.20001220703</ele>
        <time>2019-07-25T08:43:28.000Z</time>
      </trkpt>
      <trkpt lat="43.79122" lon="7.13074">
        <ele>911.59997558594</ele>
        <time>2019-07-25T08:43:38.000Z</time>
      </trkpt>
      <trkpt lat="43.79122" lon="7.13075">
        <ele>912</ele>
        <time>2019-07-25T08:43:49.000Z</time>
      </trkpt>
      <trkpt lat="43.79122" lon="7.13075">
        <ele>911.40002441406</ele>
        <time>2019-07-25T08:43:58.000Z</time>
      </trkpt>
      <trkpt lat="43.79122" lon="7.13075">
        <ele>912</ele>
        <time>2019-07-25T08:44:04.000Z</time>
      </trkpt>
      <trkpt lat="43.79122" lon="7.13076">
        <ele>912</ele>
        <time>2019-07-25T08:44:13.000Z</time>
      </trkpt>
      <trkpt lat="43.79122" lon="7.13077">
        <ele>911.59997558594</ele>
        <time>2019-07-25T08:44:20.000Z</time>
      </trkpt>
      <trkpt lat="43.79121" lon="7.13077">
        <ele>912</ele>
        <time>2019-07-25T08:44:29.000Z</time>
      </trkpt>
      <trkpt lat="43.79121" lon="7.13077">
        <ele>912</ele>
        <time>2019-07-25T08:44:39.000Z</time>
      </trkpt>
      <trkpt lat="43.79121" lon="7.13078">
        <ele>912.20001220703</ele>
        <time>2019-07-25T08:44:55.000Z</time>
      </trkpt>
      <trkpt lat="43.79121" lon="7.13077">
        <ele>912.20001220703</ele>
        <time>2019-07-25T08:45:12.000Z</time>
      </trkpt>
      <trkpt lat="43.79121" lon="7.13078">
        <ele>912.20001220703</ele>
        <time>2019-07-25T08:45:14.000Z</time>
      </trkpt>
      <trkpt lat="43.79121" lon="7.13077">
        <ele>912.20001220703</ele>
        <time>2019-07-25T08:45:16.000Z</time>
      </trkpt>
      <trkpt lat="43.79121" lon="7.13077">
        <ele>912.20001220703</ele>
        <time>2019-07-25T08:45:21.000Z</time>
      </trkpt>
      <trkpt lat="43.79121" lon="7.13076">
        <ele>912</ele>
        <time>2019-07-25T08:45:27.000Z</time>
      </trkpt>
      <trkpt lat="43.7912" lon="7.13076">
        <ele>911.79998779297</ele>
        <time>2019-07-25T08:45:32.000Z</time>
      </trkpt>
      <trkpt lat="43.79118" lon="7.13075">
        <ele>912</ele>
        <time>2019-07-25T08:45:33.000Z</time>
      </trkpt>
      <trkpt lat="43.79107" lon="7.13067">
        <ele>911.59997558594</ele>
        <time>2019-07-25T08:45:38.000Z</time>
      </trkpt>
      <trkpt lat="43.79099" lon="7.13062">
        <ele>910.59997558594</ele>
        <time>2019-07-25T08:45:41.000Z</time>
      </trkpt>
      <trkpt lat="43.79095" lon="7.13064">
        <ele>910</ele>
        <time>2019-07-25T08:45:42.000Z</time>
      </trkpt>
      <trkpt lat="43.79088" lon="7.1307">
        <ele>908.79998779297</ele>
        <time>2019-07-25T08:45:44.000Z</time>
      </trkpt>
      <trkpt lat="43.79085" lon="7.13072">
        <ele>908.40002441406</ele>
        <time>2019-07-25T08:45:45.000Z</time>
      </trkpt>
      <trkpt lat="43.79081" lon="7.13071">
        <ele>907.59997558594</ele>
        <time>2019-07-25T08:45:46.000Z</time>
      </trkpt>
      <trkpt lat="43.79071" lon="7.13069">
        <ele>905.79998779297</ele>
        <time>2019-07-25T08:45:49.000Z</time>
      </trkpt>
      <trkpt lat="43.79069" lon="7.13071">
        <ele>905.20001220703</ele>
        <time>2019-07-25T08:45:50.000Z</time>
      </trkpt>
      <trkpt lat="43.79067" lon="7.13073">
        <ele>904.79998779297</ele>
        <time>2019-07-25T08:45:51.000Z</time>
      </trkpt>
      <trkpt lat="43.79064" lon="7.13075">
        <ele>904.20001220703</ele>
        <time>2019-07-25T08:45:52.000Z</time>
      </trkpt>
      <trkpt lat="43.7905" lon="7.13084">
        <ele>903</ele>
        <time>2019-07-25T08:45:56.000Z</time>
      </trkpt>
      <trkpt lat="43.79041" lon="7.1309">
        <ele>901</ele>
        <time>2019-07-25T08:45:58.000Z</time>
      </trkpt>
      <trkpt lat="43.79037" lon="7.13094">
        <ele>900</ele>
        <time>2019-07-25T08:45:59.000Z</time>
      </trkpt>
      <trkpt lat="43.79034" lon="7.13098">
        <ele>899</ele>
        <time>2019-07-25T08:46:00.000Z</time>
      </trkpt>
      <trkpt lat="43.79032" lon="7.13104">
        <ele>898.59997558594</ele>
        <time>2019-07-25T08:46:01.000Z</time>
      </trkpt>
      <trkpt lat="43.79025" lon="7.13121">
        <ele>897.59997558594</ele>
        <time>2019-07-25T08:46:04.000Z</time>
      </trkpt>
      <trkpt lat="43.79019" lon="7.13129">
        <ele>897.20001220703</ele>
        <time>2019-07-25T08:46:06.000Z</time>
      </trkpt>
      <trkpt lat="43.79015" lon="7.13132">
        <ele>896.79998779297</ele>
        <time>2019-07-25T08:46:07.000Z</time>
      </trkpt>
      <trkpt lat="43.79012" lon="7.13135">
        <ele>896.40002441406</ele>
        <time>2019-07-25T08:46:08.000Z</time>
      </trkpt>
      <trkpt lat="43.79002" lon="7.1314">
        <ele>896.20001220703</ele>
        <time>2019-07-25T08:46:11.000Z</time>
      </trkpt>
      <trkpt lat="43.78992" lon="7.13146">
        <ele>896.59997558594</ele>
        <time>2019-07-25T08:46:14.000Z</time>
      </trkpt>
      <trkpt lat="43.78985" lon="7.13155">
        <ele>897.20001220703</ele>
        <time>2019-07-25T08:46:17.000Z</time>
      </trkpt>
      <trkpt lat="43.78982" lon="7.13158">
        <ele>897.59997558594</ele>
        <time>2019-07-25T08:46:18.000Z</time>
      </trkpt>
      <trkpt lat="43.7897" lon="7.1317">
        <ele>898.59997558594</ele>
        <time>2019-07-25T08:46:23.000Z</time>
      </trkpt>
      <trkpt lat="43.78965" lon="7.13176">
        <ele>899</ele>
        <time>2019-07-25T08:46:25.000Z</time>
      </trkpt>
      <trkpt lat="43.78953" lon="7.13195">
        <ele>899.79998779297</ele>
        <time>2019-07-25T08:46:30.000Z</time>
      </trkpt>
      <trkpt lat="43.78944" lon="7.13207">
        <ele>899.79998779297</ele>
        <time>2019-07-25T08:46:33.000Z</time>
      </trkpt>
      <trkpt lat="43.78942" lon="7.13212">
        <ele>899.79998779297</ele>
        <time>2019-07-25T08:46:34.000Z</time>
      </trkpt>
      <trkpt lat="43.78933" lon="7.13223">
        <ele>899.59997558594</ele>
        <time>2019-07-25T08:46:37.000Z</time>
      </trkpt>
      <trkpt lat="43.78929" lon="7.13225">
        <ele>899.59997558594</ele>
        <time>2019-07-25T08:46:38.000Z</time>
      </trkpt>
      <trkpt lat="43.78914" lon="7.1323">
        <ele>898.79998779297</ele>
        <time>2019-07-25T08:46:41.000Z</time>
      </trkpt>
      <trkpt lat="43.78909" lon="7.13231">
        <ele>898.59997558594</ele>
        <time>2019-07-25T08:46:42.000Z</time>
      </trkpt>
      <trkpt lat="43.78898" lon="7.13234">
        <ele>898</ele>
        <time>2019-07-25T08:46:44.000Z</time>
      </trkpt>
      <trkpt lat="43.78888" lon="7.13238">
        <ele>897.59997558594</ele>
        <time>2019-07-25T08:46:46.000Z</time>
      </trkpt>
      <trkpt lat="43.78884" lon="7.13241">
        <ele>897.40002441406</ele>
        <time>2019-07-25T08:46:47.000Z</time>
      </trkpt>
      <trkpt lat="43.78875" lon="7.13246">
        <ele>897.20001220703</ele>
        <time>2019-07-25T08:46:49.000Z</time>
      </trkpt>
      <trkpt lat="43.78856" lon="7.13261">
        <ele>897</ele>
        <time>2019-07-25T08:46:54.000Z</time>
      </trkpt>
      <trkpt lat="43.78842" lon="7.13269">
        <ele>896.59997558594</ele>
        <time>2019-07-25T08:46:58.000Z</time>
      </trkpt>
      <trkpt lat="43.78836" lon="7.13283">
        <ele>896.59997558594</ele>
        <time>2019-07-25T08:47:02.000Z</time>
      </trkpt>
      <trkpt lat="43.78832" lon="7.13292">
        <ele>897.59997558594</ele>
        <time>2019-07-25T08:47:06.000Z</time>
      </trkpt>
      <trkpt lat="43.78827" lon="7.133">
        <ele>897.59997558594</ele>
        <time>2019-07-25T08:47:09.000Z</time>
      </trkpt>
      <trkpt lat="43.78822" lon="7.13305">
        <ele>897.59997558594</ele>
        <time>2019-07-25T08:47:11.000Z</time>
      </trkpt>
      <trkpt lat="43.78802" lon="7.13317">
        <ele>897.79998779297</ele>
        <time>2019-07-25T08:47:17.000Z</time>
      </trkpt>
      <trkpt lat="43.78773" lon="7.13329">
        <ele>896.79998779297</ele>
        <time>2019-07-25T08:47:24.000Z</time>
      </trkpt>
      <trkpt lat="43.78752" lon="7.13331">
        <ele>896.20001220703</ele>
        <time>2019-07-25T08:47:29.000Z</time>
      </trkpt>
      <trkpt lat="43.78747" lon="7.13329">
        <ele>895.79998779297</ele>
        <time>2019-07-25T08:47:30.000Z</time>
      </trkpt>
      <trkpt lat="43.78735" lon="7.13323">
        <ele>895</ele>
        <time>2019-07-25T08:47:33.000Z</time>
      </trkpt>
      <trkpt lat="43.78731" lon="7.13321">
        <ele>894.79998779297</ele>
        <time>2019-07-25T08:47:34.000Z</time>
      </trkpt>
      <trkpt lat="43.78725" lon="7.13317">
        <ele>894</ele>
        <time>2019-07-25T08:47:36.000Z</time>
      </trkpt>
      <trkpt lat="43.78722" lon="7.13318">
        <ele>893.40002441406</ele>
        <time>2019-07-25T08:47:37.000Z</time>
      </trkpt>
      <trkpt lat="43.7872" lon="7.13321">
        <ele>893</ele>
        <time>2019-07-25T08:47:38.000Z</time>
      </trkpt>
      <trkpt lat="43.78709" lon="7.13327">
        <ele>892</ele>
        <time>2019-07-25T08:47:42.000Z</time>
      </trkpt>
      <trkpt lat="43.78707" lon="7.13325">
        <ele>891.79998779297</ele>
        <time>2019-07-25T08:47:43.000Z</time>
      </trkpt>
      <trkpt lat="43.787" lon="7.13322">
        <ele>891</ele>
        <time>2019-07-25T08:47:46.000Z</time>
      </trkpt>
      <trkpt lat="43.78696" lon="7.1332">
        <ele>890.79998779297</ele>
        <time>2019-07-25T08:47:47.000Z</time>
      </trkpt>
      <trkpt lat="43.78685" lon="7.13317">
        <ele>890.20001220703</ele>
        <time>2019-07-25T08:47:50.000Z</time>
      </trkpt>
      <trkpt lat="43.78671" lon="7.13315">
        <ele>890.40002441406</ele>
        <time>2019-07-25T08:47:54.000Z</time>
      </trkpt>
      <trkpt lat="43.78652" lon="7.13313">
        <ele>891.40002441406</ele>
        <time>2019-07-25T08:47:59.000Z</time>
      </trkpt>
      <trkpt lat="43.78645" lon="7.13313">
        <ele>892</ele>
        <time>2019-07-25T08:48:01.000Z</time>
      </trkpt>
      <trkpt lat="43.78638" lon="7.13309">
        <ele>892.40002441406</ele>
        <time>2019-07-25T08:48:04.000Z</time>
      </trkpt>
      <trkpt lat="43.78636" lon="7.1331">
        <ele>892.20001220703</ele>
        <time>2019-07-25T08:48:05.000Z</time>
      </trkpt>
      <trkpt lat="43.78631" lon="7.13309">
        <ele>891.79998779297</ele>
        <time>2019-07-25T08:48:07.000Z</time>
      </trkpt>
      <trkpt lat="43.7863" lon="7.13308">
        <ele>891.79998779297</ele>
        <time>2019-07-25T08:48:08.000Z</time>
      </trkpt>
      <trkpt lat="43.7862" lon="7.13297">
        <ele>891.40002441406</ele>
        <time>2019-07-25T08:48:13.000Z</time>
      </trkpt>
      <trkpt lat="43.78617" lon="7.13294">
        <ele>891.40002441406</ele>
        <time>2019-07-25T08:48:14.000Z</time>
      </trkpt>
      <trkpt lat="43.78611" lon="7.1329">
        <ele>890.79998779297</ele>
        <time>2019-07-25T08:48:16.000Z</time>
      </trkpt>
      <trkpt lat="43.78602" lon="7.13287">
        <ele>889.59997558594</ele>
        <time>2019-07-25T08:48:18.000Z</time>
      </trkpt>
      <trkpt lat="43.78592" lon="7.13283">
        <ele>888</ele>
        <time>2019-07-25T08:48:20.000Z</time>
      </trkpt>
      <trkpt lat="43.78583" lon="7.13274">
        <ele>887.59997558594</ele>
        <time>2019-07-25T08:48:22.000Z</time>
      </trkpt>
      <trkpt lat="43.7858" lon="7.13269">
        <ele>887</ele>
        <time>2019-07-25T08:48:23.000Z</time>
      </trkpt>
      <trkpt lat="43.78576" lon="7.13256">
        <ele>886.40002441406</ele>
        <time>2019-07-25T08:48:25.000Z</time>
      </trkpt>
      <trkpt lat="43.78568" lon="7.13248">
        <ele>885.40002441406</ele>
        <time>2019-07-25T08:48:27.000Z</time>
      </trkpt>
      <trkpt lat="43.78563" lon="7.13246">
        <ele>884.40002441406</ele>
        <time>2019-07-25T08:48:28.000Z</time>
      </trkpt>
      <trkpt lat="43.78557" lon="7.13244">
        <ele>883.79998779297</ele>
        <time>2019-07-25T08:48:29.000Z</time>
      </trkpt>
      <trkpt lat="43.78547" lon="7.13235">
        <ele>882.40002441406</ele>
        <time>2019-07-25T08:48:31.000Z</time>
      </trkpt>
      <trkpt lat="43.78542" lon="7.13229">
        <ele>881.59997558594</ele>
        <time>2019-07-25T08:48:32.000Z</time>
      </trkpt>
      <trkpt lat="43.78536" lon="7.13225">
        <ele>881</ele>
        <time>2019-07-25T08:48:33.000Z</time>
      </trkpt>
      <trkpt lat="43.78527" lon="7.13215">
        <ele>879.79998779297</ele>
        <time>2019-07-25T08:48:35.000Z</time>
      </trkpt>
      <trkpt lat="43.78521" lon="7.13209">
        <ele>879.59997558594</ele>
        <time>2019-07-25T08:48:36.000Z</time>
      </trkpt>
      <trkpt lat="43.78511" lon="7.13197">
        <ele>878.59997558594</ele>
        <time>2019-07-25T08:48:38.000Z</time>
      </trkpt>
      <trkpt lat="43.78501" lon="7.13191">
        <ele>877</ele>
        <time>2019-07-25T08:48:40.000Z</time>
      </trkpt>
      <trkpt lat="43.78492" lon="7.13185">
        <ele>876</ele>
        <time>2019-07-25T08:48:42.000Z</time>
      </trkpt>
      <trkpt lat="43.78485" lon="7.13179">
        <ele>875.20001220703</ele>
        <time>2019-07-25T08:48:44.000Z</time>
      </trkpt>
      <trkpt lat="43.78477" lon="7.13172">
        <ele>874.79998779297</ele>
        <time>2019-07-25T08:48:46.000Z</time>
      </trkpt>
      <trkpt lat="43.78472" lon="7.1317">
        <ele>874</ele>
        <time>2019-07-25T08:48:47.000Z</time>
      </trkpt>
      <trkpt lat="43.78467" lon="7.13168">
        <ele>873.20001220703</ele>
        <time>2019-07-25T08:48:48.000Z</time>
      </trkpt>
      <trkpt lat="43.78462" lon="7.13165">
        <ele>872.79998779297</ele>
        <time>2019-07-25T08:48:49.000Z</time>
      </trkpt>
      <trkpt lat="43.78451" lon="7.13161">
        <ele>871.59997558594</ele>
        <time>2019-07-25T08:48:51.000Z</time>
      </trkpt>
      <trkpt lat="43.78446" lon="7.13158">
        <ele>871.40002441406</ele>
        <time>2019-07-25T08:48:52.000Z</time>
      </trkpt>
      <trkpt lat="43.78432" lon="7.13142">
        <ele>870.40002441406</ele>
        <time>2019-07-25T08:48:55.000Z</time>
      </trkpt>
      <trkpt lat="43.78422" lon="7.1313">
        <ele>869</ele>
        <time>2019-07-25T08:48:57.000Z</time>
      </trkpt>
      <trkpt lat="43.78416" lon="7.13125">
        <ele>868.40002441406</ele>
        <time>2019-07-25T08:48:58.000Z</time>
      </trkpt>
      <trkpt lat="43.78411" lon="7.13119">
        <ele>868</ele>
        <time>2019-07-25T08:48:59.000Z</time>
      </trkpt>
      <trkpt lat="43.78407" lon="7.13118">
        <ele>867.40002441406</ele>
        <time>2019-07-25T08:49:00.000Z</time>
      </trkpt>
      <trkpt lat="43.78404" lon="7.13118">
        <ele>866.79998779297</ele>
        <time>2019-07-25T08:49:01.000Z</time>
      </trkpt>
      <trkpt lat="43.78401" lon="7.13117">
        <ele>865.40002441406</ele>
        <time>2019-07-25T08:49:02.000Z</time>
      </trkpt>
      <trkpt lat="43.78394" lon="7.13115">
        <ele>864.79998779297</ele>
        <time>2019-07-25T08:49:04.000Z</time>
      </trkpt>
      <trkpt lat="43.7839" lon="7.13114">
        <ele>863.79998779297</ele>
        <time>2019-07-25T08:49:05.000Z</time>
      </trkpt>
      <trkpt lat="43.78377" lon="7.1311">
        <ele>863.20001220703</ele>
        <time>2019-07-25T08:49:08.000Z</time>
      </trkpt>
      <trkpt lat="43.78369" lon="7.13101">
        <ele>863.20001220703</ele>
        <time>2019-07-25T08:49:10.000Z</time>
      </trkpt>
      <trkpt lat="43.78365" lon="7.13095">
        <ele>862.79998779297</ele>
        <time>2019-07-25T08:49:11.000Z</time>
      </trkpt>
      <trkpt lat="43.78357" lon="7.13083">
        <ele>861.59997558594</ele>
        <time>2019-07-25T08:49:13.000Z</time>
      </trkpt>
      <trkpt lat="43.78354" lon="7.13079">
        <ele>861</ele>
        <time>2019-07-25T08:49:14.000Z</time>
      </trkpt>
      <trkpt lat="43.78352" lon="7.13075">
        <ele>860.40002441406</ele>
        <time>2019-07-25T08:49:15.000Z</time>
      </trkpt>
      <trkpt lat="43.78347" lon="7.13068">
        <ele>859.79998779297</ele>
        <time>2019-07-25T08:49:17.000Z</time>
      </trkpt>
      <trkpt lat="43.78343" lon="7.13067">
        <ele>859.20001220703</ele>
        <time>2019-07-25T08:49:18.000Z</time>
      </trkpt>
      <trkpt lat="43.78334" lon="7.1306">
        <ele>857.59997558594</ele>
        <time>2019-07-25T08:49:21.000Z</time>
      </trkpt>
      <trkpt lat="43.78322" lon="7.13045">
        <ele>857</ele>
        <time>2019-07-25T08:49:25.000Z</time>
      </trkpt>
      <trkpt lat="43.7832" lon="7.1304">
        <ele>857</ele>
        <time>2019-07-25T08:49:26.000Z</time>
      </trkpt>
      <trkpt lat="43.78319" lon="7.13035">
        <ele>856.59997558594</ele>
        <time>2019-07-25T08:49:27.000Z</time>
      </trkpt>
      <trkpt lat="43.78315" lon="7.13025">
        <ele>856</ele>
        <time>2019-07-25T08:49:30.000Z</time>
      </trkpt>
      <trkpt lat="43.78314" lon="7.13018">
        <ele>856.40002441406</ele>
        <time>2019-07-25T08:49:32.000Z</time>
      </trkpt>
      <trkpt lat="43.78313" lon="7.13012">
        <ele>856.40002441406</ele>
        <time>2019-07-25T08:49:34.000Z</time>
      </trkpt>
      <trkpt lat="43.78311" lon="7.13005">
        <ele>856.40002441406</ele>
        <time>2019-07-25T08:49:36.000Z</time>
      </trkpt>
      <trkpt lat="43.78307" lon="7.13">
        <ele>856</ele>
        <time>2019-07-25T08:49:38.000Z</time>
      </trkpt>
      <trkpt lat="43.78304" lon="7.12998">
        <ele>855.59997558594</ele>
        <time>2019-07-25T08:49:39.000Z</time>
      </trkpt>
      <trkpt lat="43.78301" lon="7.12997">
        <ele>855.20001220703</ele>
        <time>2019-07-25T08:49:40.000Z</time>
      </trkpt>
      <trkpt lat="43.78298" lon="7.12994">
        <ele>854.79998779297</ele>
        <time>2019-07-25T08:49:41.000Z</time>
      </trkpt>
      <trkpt lat="43.78293" lon="7.12989">
        <ele>854</ele>
        <time>2019-07-25T08:49:43.000Z</time>
      </trkpt>
      <trkpt lat="43.78287" lon="7.12988">
        <ele>854.20001220703</ele>
        <time>2019-07-25T08:49:45.000Z</time>
      </trkpt>
      <trkpt lat="43.78284" lon="7.12985">
        <ele>854.20001220703</ele>
        <time>2019-07-25T08:49:47.000Z</time>
      </trkpt>
      <trkpt lat="43.78283" lon="7.12984">
        <ele>854</ele>
        <time>2019-07-25T08:49:48.000Z</time>
      </trkpt>
      <trkpt lat="43.78276" lon="7.12972">
        <ele>853.20001220703</ele>
        <time>2019-07-25T08:49:55.000Z</time>
      </trkpt>
      <trkpt lat="43.78275" lon="7.12971">
        <ele>853</ele>
        <time>2019-07-25T08:49:56.000Z</time>
      </trkpt>
      <trkpt lat="43.78269" lon="7.12963">
        <ele>853</ele>
        <time>2019-07-25T08:50:00.000Z</time>
      </trkpt>
      <trkpt lat="43.78269" lon="7.12963">
        <ele>853</ele>
        <time>2019-07-25T08:50:01.000Z</time>
      </trkpt>
      <trkpt lat="43.78267" lon="7.12962">
        <ele>853.20001220703</ele>
        <time>2019-07-25T08:50:10.000Z</time>
      </trkpt>
      <trkpt lat="43.78264" lon="7.12957">
        <ele>853.79998779297</ele>
        <time>2019-07-25T08:50:17.000Z</time>
      </trkpt>
      <trkpt lat="43.78263" lon="7.12957">
        <ele>854</ele>
        <time>2019-07-25T08:50:18.000Z</time>
      </trkpt>
      <trkpt lat="43.78261" lon="7.12955">
        <ele>854.20001220703</ele>
        <time>2019-07-25T08:50:23.000Z</time>
      </trkpt>
      <trkpt lat="43.78254" lon="7.1295">
        <ele>854.40002441406</ele>
        <time>2019-07-25T08:50:27.000Z</time>
      </trkpt>
      <trkpt lat="43.78253" lon="7.12947">
        <ele>854.40002441406</ele>
        <time>2019-07-25T08:50:28.000Z</time>
      </trkpt>
      <trkpt lat="43.78246" lon="7.12938">
        <ele>854.20001220703</ele>
        <time>2019-07-25T08:50:31.000Z</time>
      </trkpt>
      <trkpt lat="43.78241" lon="7.12935">
        <ele>853.59997558594</ele>
        <time>2019-07-25T08:50:35.000Z</time>
      </trkpt>
      <trkpt lat="43.7824" lon="7.12932">
        <ele>853.40002441406</ele>
        <time>2019-07-25T08:50:41.000Z</time>
      </trkpt>
      <trkpt lat="43.78238" lon="7.12928">
        <ele>853</ele>
        <time>2019-07-25T08:50:48.000Z</time>
      </trkpt>
      <trkpt lat="43.78238" lon="7.12927">
        <ele>852.79998779297</ele>
        <time>2019-07-25T08:50:49.000Z</time>
      </trkpt>
      <trkpt lat="43.78238" lon="7.12927">
        <ele>852.20001220703</ele>
        <time>2019-07-25T08:50:55.000Z</time>
      </trkpt>
      <trkpt lat="43.78235" lon="7.12923">
        <ele>852.20001220703</ele>
        <time>2019-07-25T08:50:58.000Z</time>
      </trkpt>
      <trkpt lat="43.78233" lon="7.12922">
        <ele>852.40002441406</ele>
        <time>2019-07-25T08:50:59.000Z</time>
      </trkpt>
      <trkpt lat="43.78229" lon="7.12922">
        <ele>851.79998779297</ele>
        <time>2019-07-25T08:51:02.000Z</time>
      </trkpt>
      <trkpt lat="43.78227" lon="7.12922">
        <ele>851.20001220703</ele>
        <time>2019-07-25T08:51:04.000Z</time>
      </trkpt>
      <trkpt lat="43.78223" lon="7.12915">
        <ele>850.59997558594</ele>
        <time>2019-07-25T08:51:07.000Z</time>
      </trkpt>
      <trkpt lat="43.78221" lon="7.12913">
        <ele>850.59997558594</ele>
        <time>2019-07-25T08:51:08.000Z</time>
      </trkpt>
      <trkpt lat="43.78213" lon="7.12903">
        <ele>850.40002441406</ele>
        <time>2019-07-25T08:51:12.000Z</time>
      </trkpt>
      <trkpt lat="43.78212" lon="7.129">
        <ele>850</ele>
        <time>2019-07-25T08:51:13.000Z</time>
      </trkpt>
      <trkpt lat="43.78209" lon="7.12898">
        <ele>849.59997558594</ele>
        <time>2019-07-25T08:51:15.000Z</time>
      </trkpt>
      <trkpt lat="43.78206" lon="7.12896">
        <ele>849</ele>
        <time>2019-07-25T08:51:16.000Z</time>
      </trkpt>
      <trkpt lat="43.782" lon="7.1289">
        <ele>848.40002441406</ele>
        <time>2019-07-25T08:51:18.000Z</time>
      </trkpt>
      <trkpt lat="43.78195" lon="7.12884">
        <ele>847.59997558594</ele>
        <time>2019-07-25T08:51:20.000Z</time>
      </trkpt>
      <trkpt lat="43.78194" lon="7.12882">
        <ele>847.40002441406</ele>
        <time>2019-07-25T08:51:21.000Z</time>
      </trkpt>
      <trkpt lat="43.78188" lon="7.12874">
        <ele>846.20001220703</ele>
        <time>2019-07-25T08:51:24.000Z</time>
      </trkpt>
      <trkpt lat="43.78179" lon="7.12866">
        <ele>845.20001220703</ele>
        <time>2019-07-25T08:51:27.000Z</time>
      </trkpt>
      <trkpt lat="43.78177" lon="7.12862">
        <ele>844.79998779297</ele>
        <time>2019-07-25T08:51:28.000Z</time>
      </trkpt>
      <trkpt lat="43.78171" lon="7.12853">
        <ele>844</ele>
        <time>2019-07-25T08:51:31.000Z</time>
      </trkpt>
      <trkpt lat="43.78163" lon="7.12845">
        <ele>842.59997558594</ele>
        <time>2019-07-25T08:51:33.000Z</time>
      </trkpt>
      <trkpt lat="43.7816" lon="7.1284">
        <ele>842</ele>
        <time>2019-07-25T08:51:34.000Z</time>
      </trkpt>
      <trkpt lat="43.78156" lon="7.12836">
        <ele>841.40002441406</ele>
        <time>2019-07-25T08:51:35.000Z</time>
      </trkpt>
      <trkpt lat="43.78141" lon="7.12828">
        <ele>840.40002441406</ele>
        <time>2019-07-25T08:51:39.000Z</time>
      </trkpt>
      <trkpt lat="43.7813" lon="7.12817">
        <ele>838.79998779297</ele>
        <time>2019-07-25T08:51:43.000Z</time>
      </trkpt>
      <trkpt lat="43.78121" lon="7.12804">
        <ele>837.79998779297</ele>
        <time>2019-07-25T08:51:47.000Z</time>
      </trkpt>
      <trkpt lat="43.7812" lon="7.12799">
        <ele>838</ele>
        <time>2019-07-25T08:51:48.000Z</time>
      </trkpt>
      <trkpt lat="43.78112" lon="7.12787">
        <ele>838</ele>
        <time>2019-07-25T08:51:52.000Z</time>
      </trkpt>
      <trkpt lat="43.78104" lon="7.12777">
        <ele>838.20001220703</ele>
        <time>2019-07-25T08:51:55.000Z</time>
      </trkpt>
      <trkpt lat="43.78101" lon="7.12774">
        <ele>838.20001220703</ele>
        <time>2019-07-25T08:51:56.000Z</time>
      </trkpt>
      <trkpt lat="43.78101" lon="7.12771">
        <ele>838</ele>
        <time>2019-07-25T08:51:57.000Z</time>
      </trkpt>
      <trkpt lat="43.78103" lon="7.12766">
        <ele>837.79998779297</ele>
        <time>2019-07-25T08:51:59.000Z</time>
      </trkpt>
      <trkpt lat="43.78102" lon="7.1276">
        <ele>837.79998779297</ele>
        <time>2019-07-25T08:52:00.000Z</time>
      </trkpt>
      <trkpt lat="43.78098" lon="7.12751">
        <ele>837.59997558594</ele>
        <time>2019-07-25T08:52:02.000Z</time>
      </trkpt>
      <trkpt lat="43.78095" lon="7.12741">
        <ele>836.59997558594</ele>
        <time>2019-07-25T08:52:04.000Z</time>
      </trkpt>
      <trkpt lat="43.78091" lon="7.12731">
        <ele>835.20001220703</ele>
        <time>2019-07-25T08:52:06.000Z</time>
      </trkpt>
      <trkpt lat="43.78086" lon="7.12723">
        <ele>833.79998779297</ele>
        <time>2019-07-25T08:52:08.000Z</time>
      </trkpt>
      <trkpt lat="43.78083" lon="7.12715">
        <ele>833.20001220703</ele>
        <time>2019-07-25T08:52:10.000Z</time>
      </trkpt>
      <trkpt lat="43.78082" lon="7.12706">
        <ele>833</ele>
        <time>2019-07-25T08:52:12.000Z</time>
      </trkpt>
      <trkpt lat="43.78081" lon="7.12701">
        <ele>832.79998779297</ele>
        <time>2019-07-25T08:52:13.000Z</time>
      </trkpt>
      <trkpt lat="43.7808" lon="7.12696">
        <ele>832.79998779297</ele>
        <time>2019-07-25T08:52:14.000Z</time>
      </trkpt>
      <trkpt lat="43.78079" lon="7.12692">
        <ele>832.40002441406</ele>
        <time>2019-07-25T08:52:17.000Z</time>
      </trkpt>
      <trkpt lat="43.78077" lon="7.12688">
        <ele>832</ele>
        <time>2019-07-25T08:52:22.000Z</time>
      </trkpt>
      <trkpt lat="43.78075" lon="7.12687">
        <ele>831.79998779297</ele>
        <time>2019-07-25T08:52:23.000Z</time>
      </trkpt>
      <trkpt lat="43.78065" lon="7.1268">
        <ele>832</ele>
        <time>2019-07-25T08:52:28.000Z</time>
      </trkpt>
      <trkpt lat="43.78061" lon="7.12678">
        <ele>832</ele>
        <time>2019-07-25T08:52:30.000Z</time>
      </trkpt>
      <trkpt lat="43.78057" lon="7.12676">
        <ele>832</ele>
        <time>2019-07-25T08:52:32.000Z</time>
      </trkpt>
      <trkpt lat="43.78044" lon="7.12674">
        <ele>832.59997558594</ele>
        <time>2019-07-25T08:52:37.000Z</time>
      </trkpt>
      <trkpt lat="43.78031" lon="7.12662">
        <ele>832.79998779297</ele>
        <time>2019-07-25T08:52:43.000Z</time>
      </trkpt>
      <trkpt lat="43.7802" lon="7.12654">
        <ele>832.20001220703</ele>
        <time>2019-07-25T08:52:47.000Z</time>
      </trkpt>
      <trkpt lat="43.78011" lon="7.12642">
        <ele>832.20001220703</ele>
        <time>2019-07-25T08:52:51.000Z</time>
      </trkpt>
      <trkpt lat="43.78011" lon="7.1264">
        <ele>832.20001220703</ele>
        <time>2019-07-25T08:52:52.000Z</time>
      </trkpt>
      <trkpt lat="43.78011" lon="7.12637">
        <ele>832.40002441406</ele>
        <time>2019-07-25T08:52:56.000Z</time>
      </trkpt>
      <trkpt lat="43.78011" lon="7.12637">
        <ele>832.20001220703</ele>
        <time>2019-07-25T08:53:01.000Z</time>
      </trkpt>
      <trkpt lat="43.78011" lon="7.12636">
        <ele>832.20001220703</ele>
        <time>2019-07-25T08:53:08.000Z</time>
      </trkpt>
      <trkpt lat="43.78013" lon="7.12631">
        <ele>831.79998779297</ele>
        <time>2019-07-25T08:53:12.000Z</time>
      </trkpt>
      <trkpt lat="43.78014" lon="7.12628">
        <ele>831.79998779297</ele>
        <time>2019-07-25T08:53:13.000Z</time>
      </trkpt>
      <trkpt lat="43.78014" lon="7.12625">
        <ele>831.59997558594</ele>
        <time>2019-07-25T08:53:14.000Z</time>
      </trkpt>
      <trkpt lat="43.78016" lon="7.12613">
        <ele>831.20001220703</ele>
        <time>2019-07-25T08:53:17.000Z</time>
      </trkpt>
      <trkpt lat="43.78016" lon="7.12608">
        <ele>830.79998779297</ele>
        <time>2019-07-25T08:53:18.000Z</time>
      </trkpt>
      <trkpt lat="43.78015" lon="7.12602">
        <ele>830.20001220703</ele>
        <time>2019-07-25T08:53:19.000Z</time>
      </trkpt>
      <trkpt lat="43.78016" lon="7.12597">
        <ele>829.59997558594</ele>
        <time>2019-07-25T08:53:20.000Z</time>
      </trkpt>
      <trkpt lat="43.78017" lon="7.12592">
        <ele>829.20001220703</ele>
        <time>2019-07-25T08:53:21.000Z</time>
      </trkpt>
      <trkpt lat="43.78019" lon="7.12587">
        <ele>828.79998779297</ele>
        <time>2019-07-25T08:53:22.000Z</time>
      </trkpt>
      <trkpt lat="43.78022" lon="7.12582">
        <ele>828.79998779297</ele>
        <time>2019-07-25T08:53:23.000Z</time>
      </trkpt>
      <trkpt lat="43.78026" lon="7.12577">
        <ele>828.40002441406</ele>
        <time>2019-07-25T08:53:24.000Z</time>
      </trkpt>
      <trkpt lat="43.78028" lon="7.12572">
        <ele>827.79998779297</ele>
        <time>2019-07-25T08:53:25.000Z</time>
      </trkpt>
      <trkpt lat="43.78028" lon="7.12561">
        <ele>826.59997558594</ele>
        <time>2019-07-25T08:53:27.000Z</time>
      </trkpt>
      <trkpt lat="43.7803" lon="7.12548">
        <ele>825.40002441406</ele>
        <time>2019-07-25T08:53:29.000Z</time>
      </trkpt>
      <trkpt lat="43.78032" lon="7.12543">
        <ele>825</ele>
        <time>2019-07-25T08:53:30.000Z</time>
      </trkpt>
      <trkpt lat="43.78033" lon="7.12538">
        <ele>824</ele>
        <time>2019-07-25T08:53:31.000Z</time>
      </trkpt>
      <trkpt lat="43.78033" lon="7.12528">
        <ele>823.40002441406</ele>
        <time>2019-07-25T08:53:33.000Z</time>
      </trkpt>
      <trkpt lat="43.78035" lon="7.12521">
        <ele>822.79998779297</ele>
        <time>2019-07-25T08:53:34.000Z</time>
      </trkpt>
      <trkpt lat="43.78036" lon="7.12515">
        <ele>822.20001220703</ele>
        <time>2019-07-25T08:53:35.000Z</time>
      </trkpt>
      <trkpt lat="43.78037" lon="7.12509">
        <ele>821.59997558594</ele>
        <time>2019-07-25T08:53:36.000Z</time>
      </trkpt>
      <trkpt lat="43.78037" lon="7.12504">
        <ele>821</ele>
        <time>2019-07-25T08:53:37.000Z</time>
      </trkpt>
      <trkpt lat="43.78036" lon="7.12492">
        <ele>820.20001220703</ele>
        <time>2019-07-25T08:53:39.000Z</time>
      </trkpt>
      <trkpt lat="43.78037" lon="7.12477">
        <ele>819</ele>
        <time>2019-07-25T08:53:41.000Z</time>
      </trkpt>
      <trkpt lat="43.78037" lon="7.1246">
        <ele>817.20001220703</ele>
        <time>2019-07-25T08:53:43.000Z</time>
      </trkpt>
      <trkpt lat="43.78038" lon="7.12452">
        <ele>816.20001220703</ele>
        <time>2019-07-25T08:53:44.000Z</time>
      </trkpt>
      <trkpt lat="43.78039" lon="7.12446">
        <ele>815.59997558594</ele>
        <time>2019-07-25T08:53:45.000Z</time>
      </trkpt>
      <trkpt lat="43.78041" lon="7.12438">
        <ele>814.79998779297</ele>
        <time>2019-07-25T08:53:46.000Z</time>
      </trkpt>
      <trkpt lat="43.78043" lon="7.1243">
        <ele>813.79998779297</ele>
        <time>2019-07-25T08:53:47.000Z</time>
      </trkpt>
      <trkpt lat="43.78045" lon="7.12417">
        <ele>812</ele>
        <time>2019-07-25T08:53:49.000Z</time>
      </trkpt>
      <trkpt lat="43.78045" lon="7.12413">
        <ele>811.40002441406</ele>
        <time>2019-07-25T08:53:50.000Z</time>
      </trkpt>
      <trkpt lat="43.78044" lon="7.12409">
        <ele>810.59997558594</ele>
        <time>2019-07-25T08:53:51.000Z</time>
      </trkpt>
      <trkpt lat="43.78044" lon="7.12405">
        <ele>809.79998779297</ele>
        <time>2019-07-25T08:53:52.000Z</time>
      </trkpt>
      <trkpt lat="43.78045" lon="7.124">
        <ele>809.40002441406</ele>
        <time>2019-07-25T08:53:53.000Z</time>
      </trkpt>
      <trkpt lat="43.78052" lon="7.12389">
        <ele>809</ele>
        <time>2019-07-25T08:53:55.000Z</time>
      </trkpt>
      <trkpt lat="43.7806" lon="7.12379">
        <ele>808.20001220703</ele>
        <time>2019-07-25T08:53:57.000Z</time>
      </trkpt>
      <trkpt lat="43.78064" lon="7.12374">
        <ele>807.40002441406</ele>
        <time>2019-07-25T08:53:58.000Z</time>
      </trkpt>
      <trkpt lat="43.78067" lon="7.1237">
        <ele>806.59997558594</ele>
        <time>2019-07-25T08:53:59.000Z</time>
      </trkpt>
      <trkpt lat="43.78068" lon="7.12365">
        <ele>806</ele>
        <time>2019-07-25T08:54:00.000Z</time>
      </trkpt>
      <trkpt lat="43.78069" lon="7.12359">
        <ele>805</ele>
        <time>2019-07-25T08:54:01.000Z</time>
      </trkpt>
      <trkpt lat="43.7807" lon="7.12353">
        <ele>804.20001220703</ele>
        <time>2019-07-25T08:54:02.000Z</time>
      </trkpt>
      <trkpt lat="43.78072" lon="7.12346">
        <ele>803.20001220703</ele>
        <time>2019-07-25T08:54:03.000Z</time>
      </trkpt>
      <trkpt lat="43.78074" lon="7.12339">
        <ele>803.59997558594</ele>
        <time>2019-07-25T08:54:04.000Z</time>
      </trkpt>
      <trkpt lat="43.78075" lon="7.12333">
        <ele>803.59997558594</ele>
        <time>2019-07-25T08:54:05.000Z</time>
      </trkpt>
      <trkpt lat="43.78078" lon="7.12321">
        <ele>801.79998779297</ele>
        <time>2019-07-25T08:54:07.000Z</time>
      </trkpt>
      <trkpt lat="43.78081" lon="7.12317">
        <ele>801.40002441406</ele>
        <time>2019-07-25T08:54:08.000Z</time>
      </trkpt>
      <trkpt lat="43.78085" lon="7.12311">
        <ele>800.20001220703</ele>
        <time>2019-07-25T08:54:10.000Z</time>
      </trkpt>
      <trkpt lat="43.78087" lon="7.12307">
        <ele>800</ele>
        <time>2019-07-25T08:54:11.000Z</time>
      </trkpt>
      <trkpt lat="43.78094" lon="7.12293">
        <ele>799</ele>
        <time>2019-07-25T08:54:14.000Z</time>
      </trkpt>
      <trkpt lat="43.78095" lon="7.12288">
        <ele>798.40002441406</ele>
        <time>2019-07-25T08:54:15.000Z</time>
      </trkpt>
      <trkpt lat="43.78097" lon="7.12281">
        <ele>797.79998779297</ele>
        <time>2019-07-25T08:54:16.000Z</time>
      </trkpt>
      <trkpt lat="43.78101" lon="7.12272">
        <ele>796.20001220703</ele>
        <time>2019-07-25T08:54:18.000Z</time>
      </trkpt>
      <trkpt lat="43.78103" lon="7.1227">
        <ele>795</ele>
        <time>2019-07-25T08:54:19.000Z</time>
      </trkpt>
      <trkpt lat="43.78107" lon="7.12265">
        <ele>793.79998779297</ele>
        <time>2019-07-25T08:54:21.000Z</time>
      </trkpt>
      <trkpt lat="43.78107" lon="7.12263">
        <ele>792.79998779297</ele>
        <time>2019-07-25T08:54:22.000Z</time>
      </trkpt>
      <trkpt lat="43.78108" lon="7.1226">
        <ele>791.79998779297</ele>
        <time>2019-07-25T08:54:23.000Z</time>
      </trkpt>
      <trkpt lat="43.78109" lon="7.12257">
        <ele>791.20001220703</ele>
        <time>2019-07-25T08:54:24.000Z</time>
      </trkpt>
      <trkpt lat="43.78115" lon="7.12252">
        <ele>789.40002441406</ele>
        <time>2019-07-25T08:54:26.000Z</time>
      </trkpt>
      <trkpt lat="43.78116" lon="7.12249">
        <ele>788.40002441406</ele>
        <time>2019-07-25T08:54:27.000Z</time>
      </trkpt>
      <trkpt lat="43.78117" lon="7.12241">
        <ele>786.59997558594</ele>
        <time>2019-07-25T08:54:29.000Z</time>
      </trkpt>
      <trkpt lat="43.78117" lon="7.12237">
        <ele>785.59997558594</ele>
        <time>2019-07-25T08:54:30.000Z</time>
      </trkpt>
      <trkpt lat="43.78117" lon="7.12234">
        <ele>784.40002441406</ele>
        <time>2019-07-25T08:54:31.000Z</time>
      </trkpt>
      <trkpt lat="43.78118" lon="7.12227">
        <ele>782.79998779297</ele>
        <time>2019-07-25T08:54:33.000Z</time>
      </trkpt>
      <trkpt lat="43.78117" lon="7.12223">
        <ele>781.59997558594</ele>
        <time>2019-07-25T08:54:34.000Z</time>
      </trkpt>
      <trkpt lat="43.78117" lon="7.12214">
        <ele>780</ele>
        <time>2019-07-25T08:54:36.000Z</time>
      </trkpt>
      <trkpt lat="43.78116" lon="7.12211">
        <ele>779.20001220703</ele>
        <time>2019-07-25T08:54:37.000Z</time>
      </trkpt>
      <trkpt lat="43.78115" lon="7.12207">
        <ele>778.20001220703</ele>
        <time>2019-07-25T08:54:38.000Z</time>
      </trkpt>
      <trkpt lat="43.78113" lon="7.12198">
        <ele>777.40002441406</ele>
        <time>2019-07-25T08:54:40.000Z</time>
      </trkpt>
      <trkpt lat="43.78116" lon="7.12186">
        <ele>777</ele>
        <time>2019-07-25T08:54:42.000Z</time>
      </trkpt>
      <trkpt lat="43.78118" lon="7.1218">
        <ele>776.40002441406</ele>
        <time>2019-07-25T08:54:43.000Z</time>
      </trkpt>
      <trkpt lat="43.78119" lon="7.12176">
        <ele>776.20001220703</ele>
        <time>2019-07-25T08:54:44.000Z</time>
      </trkpt>
      <trkpt lat="43.7812" lon="7.12168">
        <ele>776</ele>
        <time>2019-07-25T08:54:46.000Z</time>
      </trkpt>
      <trkpt lat="43.78119" lon="7.12162">
        <ele>775.40002441406</ele>
        <time>2019-07-25T08:54:47.000Z</time>
      </trkpt>
      <trkpt lat="43.78118" lon="7.12156">
        <ele>774.59997558594</ele>
        <time>2019-07-25T08:54:48.000Z</time>
      </trkpt>
      <trkpt lat="43.7812" lon="7.12148">
        <ele>773.20001220703</ele>
        <time>2019-07-25T08:54:50.000Z</time>
      </trkpt>
      <trkpt lat="43.78125" lon="7.12142">
        <ele>771.79998779297</ele>
        <time>2019-07-25T08:54:52.000Z</time>
      </trkpt>
      <trkpt lat="43.78129" lon="7.12139">
        <ele>769.79998779297</ele>
        <time>2019-07-25T08:54:54.000Z</time>
      </trkpt>
      <trkpt lat="43.78133" lon="7.12133">
        <ele>768</ele>
        <time>2019-07-25T08:54:56.000Z</time>
      </trkpt>
      <trkpt lat="43.78136" lon="7.12126">
        <ele>767</ele>
        <time>2019-07-25T08:54:58.000Z</time>
      </trkpt>
      <trkpt lat="43.78137" lon="7.12122">
        <ele>766.20001220703</ele>
        <time>2019-07-25T08:54:59.000Z</time>
      </trkpt>
      <trkpt lat="43.78138" lon="7.12118">
        <ele>765.20001220703</ele>
        <time>2019-07-25T08:55:00.000Z</time>
      </trkpt>
      <trkpt lat="43.7814" lon="7.12107">
        <ele>763.59997558594</ele>
        <time>2019-07-25T08:55:02.000Z</time>
      </trkpt>
      <trkpt lat="43.7814" lon="7.12102">
        <ele>762.59997558594</ele>
        <time>2019-07-25T08:55:03.000Z</time>
      </trkpt>
      <trkpt lat="43.78142" lon="7.12095">
        <ele>760.20001220703</ele>
        <time>2019-07-25T08:55:05.000Z</time>
      </trkpt>
      <trkpt lat="43.78143" lon="7.1209">
        <ele>759</ele>
        <time>2019-07-25T08:55:06.000Z</time>
      </trkpt>
      <trkpt lat="43.78144" lon="7.12082">
        <ele>757.40002441406</ele>
        <time>2019-07-25T08:55:08.000Z</time>
      </trkpt>
      <trkpt lat="43.78143" lon="7.12074">
        <ele>756.59997558594</ele>
        <time>2019-07-25T08:55:10.000Z</time>
      </trkpt>
      <trkpt lat="43.78142" lon="7.1207">
        <ele>756.20001220703</ele>
        <time>2019-07-25T08:55:11.000Z</time>
      </trkpt>
      <trkpt lat="43.78141" lon="7.12067">
        <ele>755</ele>
        <time>2019-07-25T08:55:14.000Z</time>
      </trkpt>
      <trkpt lat="43.7814" lon="7.12066">
        <ele>755</ele>
        <time>2019-07-25T08:55:18.000Z</time>
      </trkpt>
      <trkpt lat="43.7814" lon="7.12064">
        <ele>754.40002441406</ele>
        <time>2019-07-25T08:55:24.000Z</time>
      </trkpt>
      <trkpt lat="43.78139" lon="7.12063">
        <ele>754.59997558594</ele>
        <time>2019-07-25T08:55:32.000Z</time>
      </trkpt>
      <trkpt lat="43.78139" lon="7.12058">
        <ele>754.40002441406</ele>
        <time>2019-07-25T08:55:37.000Z</time>
      </trkpt>
      <trkpt lat="43.78138" lon="7.12055">
        <ele>754.40002441406</ele>
        <time>2019-07-25T08:55:38.000Z</time>
      </trkpt>
      <trkpt lat="43.78134" lon="7.12042">
        <ele>753.79998779297</ele>
        <time>2019-07-25T08:55:42.000Z</time>
      </trkpt>
      <trkpt lat="43.78132" lon="7.12039">
        <ele>753.59997558594</ele>
        <time>2019-07-25T08:55:43.000Z</time>
      </trkpt>
      <trkpt lat="43.78127" lon="7.1203">
        <ele>752.59997558594</ele>
        <time>2019-07-25T08:55:46.000Z</time>
      </trkpt>
      <trkpt lat="43.78122" lon="7.12024">
        <ele>751.40002441406</ele>
        <time>2019-07-25T08:55:48.000Z</time>
      </trkpt>
      <trkpt lat="43.78117" lon="7.12018">
        <ele>750.79998779297</ele>
        <time>2019-07-25T08:55:50.000Z</time>
      </trkpt>
      <trkpt lat="43.78114" lon="7.12016">
        <ele>750.40002441406</ele>
        <time>2019-07-25T08:55:51.000Z</time>
      </trkpt>
      <trkpt lat="43.7811" lon="7.12013">
        <ele>749.20001220703</ele>
        <time>2019-07-25T08:55:53.000Z</time>
      </trkpt>
      <trkpt lat="43.78107" lon="7.12005">
        <ele>747.79998779297</ele>
        <time>2019-07-25T08:55:55.000Z</time>
      </trkpt>
      <trkpt lat="43.78099" lon="7.11997">
        <ele>746</ele>
        <time>2019-07-25T08:55:58.000Z</time>
      </trkpt>
      <trkpt lat="43.78094" lon="7.1199">
        <ele>744.40002441406</ele>
        <time>2019-07-25T08:56:00.000Z</time>
      </trkpt>
      <trkpt lat="43.7809" lon="7.11981">
        <ele>743.20001220703</ele>
        <time>2019-07-25T08:56:02.000Z</time>
      </trkpt>
      <trkpt lat="43.78087" lon="7.11973">
        <ele>741.79998779297</ele>
        <time>2019-07-25T08:56:04.000Z</time>
      </trkpt>
      <trkpt lat="43.78084" lon="7.11967">
        <ele>740.20001220703</ele>
        <time>2019-07-25T08:56:06.000Z</time>
      </trkpt>
      <trkpt lat="43.7808" lon="7.11959">
        <ele>738.79998779297</ele>
        <time>2019-07-25T08:56:08.000Z</time>
      </trkpt>
      <trkpt lat="43.78073" lon="7.11955">
        <ele>737.20001220703</ele>
        <time>2019-07-25T08:56:10.000Z</time>
      </trkpt>
      <trkpt lat="43.7807" lon="7.11954">
        <ele>736.59997558594</ele>
        <time>2019-07-25T08:56:11.000Z</time>
      </trkpt>
      <trkpt lat="43.78067" lon="7.11952">
        <ele>735.79998779297</ele>
        <time>2019-07-25T08:56:12.000Z</time>
      </trkpt>
      <trkpt lat="43.78061" lon="7.11944">
        <ele>734.79998779297</ele>
        <time>2019-07-25T08:56:14.000Z</time>
      </trkpt>
      <trkpt lat="43.78055" lon="7.11937">
        <ele>733.59997558594</ele>
        <time>2019-07-25T08:56:16.000Z</time>
      </trkpt>
      <trkpt lat="43.78051" lon="7.11934">
        <ele>732.59997558594</ele>
        <time>2019-07-25T08:56:17.000Z</time>
      </trkpt>
      <trkpt lat="43.78045" lon="7.1193">
        <ele>730.59997558594</ele>
        <time>2019-07-25T08:56:19.000Z</time>
      </trkpt>
      <trkpt lat="43.78039" lon="7.11928">
        <ele>729.20001220703</ele>
        <time>2019-07-25T08:56:21.000Z</time>
      </trkpt>
      <trkpt lat="43.78028" lon="7.11925">
        <ele>728.20001220703</ele>
        <time>2019-07-25T08:56:24.000Z</time>
      </trkpt>
      <trkpt lat="43.78017" lon="7.11918">
        <ele>726.79998779297</ele>
        <time>2019-07-25T08:56:28.000Z</time>
      </trkpt>
      <trkpt lat="43.78011" lon="7.11916">
        <ele>725.79998779297</ele>
        <time>2019-07-25T08:56:30.000Z</time>
      </trkpt>
      <trkpt lat="43.78008" lon="7.11916">
        <ele>725.20001220703</ele>
        <time>2019-07-25T08:56:31.000Z</time>
      </trkpt>
      <trkpt lat="43.78004" lon="7.11917">
        <ele>724.59997558594</ele>
        <time>2019-07-25T08:56:32.000Z</time>
      </trkpt>
      <trkpt lat="43.77997" lon="7.11916">
        <ele>724.20001220703</ele>
        <time>2019-07-25T08:56:35.000Z</time>
      </trkpt>
      <trkpt lat="43.77995" lon="7.11914">
        <ele>724.40002441406</ele>
        <time>2019-07-25T08:56:36.000Z</time>
      </trkpt>
      <trkpt lat="43.77993" lon="7.11907">
        <ele>724.40002441406</ele>
        <time>2019-07-25T08:56:39.000Z</time>
      </trkpt>
      <trkpt lat="43.77992" lon="7.11902">
        <ele>724.20001220703</ele>
        <time>2019-07-25T08:56:43.000Z</time>
      </trkpt>
      <trkpt lat="43.77989" lon="7.11899">
        <ele>723.59997558594</ele>
        <time>2019-07-25T08:56:46.000Z</time>
      </trkpt>
      <trkpt lat="43.77987" lon="7.11897">
        <ele>722.79998779297</ele>
        <time>2019-07-25T08:56:48.000Z</time>
      </trkpt>
      <trkpt lat="43.77984" lon="7.11895">
        <ele>722.40002441406</ele>
        <time>2019-07-25T08:56:50.000Z</time>
      </trkpt>
      <trkpt lat="43.77982" lon="7.11894">
        <ele>722</ele>
        <time>2019-07-25T08:56:52.000Z</time>
      </trkpt>
      <trkpt lat="43.77979" lon="7.11894">
        <ele>721.59997558594</ele>
        <time>2019-07-25T08:56:58.000Z</time>
      </trkpt>
      <trkpt lat="43.77975" lon="7.11894">
        <ele>721.40002441406</ele>
        <time>2019-07-25T08:57:03.000Z</time>
      </trkpt>
      <trkpt lat="43.77974" lon="7.11893">
        <ele>721.20001220703</ele>
        <time>2019-07-25T08:57:05.000Z</time>
      </trkpt>
      <trkpt lat="43.77974" lon="7.11891">
        <ele>721</ele>
        <time>2019-07-25T08:57:06.000Z</time>
      </trkpt>
      <trkpt lat="43.77971" lon="7.11887">
        <ele>720.40002441406</ele>
        <time>2019-07-25T08:57:11.000Z</time>
      </trkpt>
      <trkpt lat="43.77969" lon="7.11887">
        <ele>720.40002441406</ele>
        <time>2019-07-25T08:57:13.000Z</time>
      </trkpt>
      <trkpt lat="43.77964" lon="7.11886">
        <ele>720.59997558594</ele>
        <time>2019-07-25T08:57:16.000Z</time>
      </trkpt>
      <trkpt lat="43.77956" lon="7.11888">
        <ele>720.79998779297</ele>
        <time>2019-07-25T08:57:21.000Z</time>
      </trkpt>
      <trkpt lat="43.77953" lon="7.11886">
        <ele>720.79998779297</ele>
        <time>2019-07-25T08:57:23.000Z</time>
      </trkpt>
      <trkpt lat="43.77952" lon="7.11885">
        <ele>720.79998779297</ele>
        <time>2019-07-25T08:57:24.000Z</time>
      </trkpt>
      <trkpt lat="43.7795" lon="7.11883">
        <ele>720.79998779297</ele>
        <time>2019-07-25T08:57:25.000Z</time>
      </trkpt>
      <trkpt lat="43.77948" lon="7.11882">
        <ele>720.40002441406</ele>
        <time>2019-07-25T08:57:28.000Z</time>
      </trkpt>
      <trkpt lat="43.77947" lon="7.11881">
        <ele>720.20001220703</ele>
        <time>2019-07-25T08:57:29.000Z</time>
      </trkpt>
      <trkpt lat="43.77943" lon="7.11877">
        <ele>720</ele>
        <time>2019-07-25T08:57:35.000Z</time>
      </trkpt>
      <trkpt lat="43.77937" lon="7.11872">
        <ele>719.79998779297</ele>
        <time>2019-07-25T08:57:41.000Z</time>
      </trkpt>
      <trkpt lat="43.77932" lon="7.11867">
        <ele>719.59997558594</ele>
        <time>2019-07-25T08:57:46.000Z</time>
      </trkpt>
      <trkpt lat="43.77928" lon="7.11858">
        <ele>719.79998779297</ele>
        <time>2019-07-25T08:57:50.000Z</time>
      </trkpt>
      <trkpt lat="43.77923" lon="7.11852">
        <ele>719.59997558594</ele>
        <time>2019-07-25T08:57:52.000Z</time>
      </trkpt>
      <trkpt lat="43.77915" lon="7.11844">
        <ele>719.20001220703</ele>
        <time>2019-07-25T08:57:55.000Z</time>
      </trkpt>
      <trkpt lat="43.77912" lon="7.11843">
        <ele>719.20001220703</ele>
        <time>2019-07-25T08:57:56.000Z</time>
      </trkpt>
      <trkpt lat="43.779" lon="7.11832">
        <ele>719.79998779297</ele>
        <time>2019-07-25T08:58:01.000Z</time>
      </trkpt>
      <trkpt lat="43.77894" lon="7.11824">
        <ele>719.79998779297</ele>
        <time>2019-07-25T08:58:03.000Z</time>
      </trkpt>
      <trkpt lat="43.77889" lon="7.11814">
        <ele>719.40002441406</ele>
        <time>2019-07-25T08:58:05.000Z</time>
      </trkpt>
      <trkpt lat="43.77883" lon="7.11803">
        <ele>718.59997558594</ele>
        <time>2019-07-25T08:58:07.000Z</time>
      </trkpt>
      <trkpt lat="43.7788" lon="7.11799">
        <ele>718.20001220703</ele>
        <time>2019-07-25T08:58:08.000Z</time>
      </trkpt>
      <trkpt lat="43.77875" lon="7.11794">
        <ele>717.79998779297</ele>
        <time>2019-07-25T08:58:10.000Z</time>
      </trkpt>
      <trkpt lat="43.77866" lon="7.11782">
        <ele>717.40002441406</ele>
        <time>2019-07-25T08:58:13.000Z</time>
      </trkpt>
      <trkpt lat="43.77859" lon="7.11773">
        <ele>717.20001220703</ele>
        <time>2019-07-25T08:58:15.000Z</time>
      </trkpt>
      <trkpt lat="43.77853" lon="7.11768">
        <ele>716</ele>
        <time>2019-07-25T08:58:17.000Z</time>
      </trkpt>
      <trkpt lat="43.77844" lon="7.11758">
        <ele>714.59997558594</ele>
        <time>2019-07-25T08:58:20.000Z</time>
      </trkpt>
      <trkpt lat="43.7784" lon="7.11755">
        <ele>714.20001220703</ele>
        <time>2019-07-25T08:58:21.000Z</time>
      </trkpt>
      <trkpt lat="43.77834" lon="7.11748">
        <ele>713.79998779297</ele>
        <time>2019-07-25T08:58:23.000Z</time>
      </trkpt>
      <trkpt lat="43.77831" lon="7.11745">
        <ele>713.40002441406</ele>
        <time>2019-07-25T08:58:24.000Z</time>
      </trkpt>
      <trkpt lat="43.77829" lon="7.11743">
        <ele>713.40002441406</ele>
        <time>2019-07-25T08:58:25.000Z</time>
      </trkpt>
      <trkpt lat="43.77828" lon="7.11739">
        <ele>713.20001220703</ele>
        <time>2019-07-25T08:58:26.000Z</time>
      </trkpt>
      <trkpt lat="43.77825" lon="7.11726">
        <ele>713.40002441406</ele>
        <time>2019-07-25T08:58:30.000Z</time>
      </trkpt>
      <trkpt lat="43.7782" lon="7.11709">
        <ele>712.59997558594</ele>
        <time>2019-07-25T08:58:34.000Z</time>
      </trkpt>
      <trkpt lat="43.77817" lon="7.11705">
        <ele>712</ele>
        <time>2019-07-25T08:58:36.000Z</time>
      </trkpt>
      <trkpt lat="43.77818" lon="7.11705">
        <ele>711.79998779297</ele>
        <time>2019-07-25T08:58:37.000Z</time>
      </trkpt>
      <trkpt lat="43.77816" lon="7.11704">
        <ele>711</ele>
        <time>2019-07-25T08:58:45.000Z</time>
      </trkpt>
      <trkpt lat="43.77816" lon="7.11703">
        <ele>710.79998779297</ele>
        <time>2019-07-25T08:58:50.000Z</time>
      </trkpt>
      <trkpt lat="43.77815" lon="7.11703">
        <ele>710.79998779297</ele>
        <time>2019-07-25T08:59:03.000Z</time>
      </trkpt>
      <trkpt lat="43.77815" lon="7.11702">
        <ele>710.79998779297</ele>
        <time>2019-07-25T08:59:14.000Z</time>
      </trkpt>
      <trkpt lat="43.77814" lon="7.11702">
        <ele>710.79998779297</ele>
        <time>2019-07-25T08:59:19.000Z</time>
      </trkpt>
      <trkpt lat="43.7781" lon="7.11702">
        <ele>710.79998779297</ele>
        <time>2019-07-25T08:59:27.000Z</time>
      </trkpt>
      <trkpt lat="43.77801" lon="7.11704">
        <ele>710.59997558594</ele>
        <time>2019-07-25T08:59:32.000Z</time>
      </trkpt>
      <trkpt lat="43.77791" lon="7.11712">
        <ele>711.40002441406</ele>
        <time>2019-07-25T08:59:37.000Z</time>
      </trkpt>
      <trkpt lat="43.77787" lon="7.11713">
        <ele>711.79998779297</ele>
        <time>2019-07-25T08:59:39.000Z</time>
      </trkpt>
      <trkpt lat="43.77785" lon="7.11714">
        <ele>712</ele>
        <time>2019-07-25T08:59:40.000Z</time>
      </trkpt>
      <trkpt lat="43.77782" lon="7.11715">
        <ele>712</ele>
        <time>2019-07-25T08:59:41.000Z</time>
      </trkpt>
      <trkpt lat="43.77778" lon="7.11718">
        <ele>712</ele>
        <time>2019-07-25T08:59:43.000Z</time>
      </trkpt>
      <trkpt lat="43.77773" lon="7.11722">
        <ele>712.40002441406</ele>
        <time>2019-07-25T08:59:45.000Z</time>
      </trkpt>
      <trkpt lat="43.77764" lon="7.11731">
        <ele>712.59997558594</ele>
        <time>2019-07-25T08:59:48.000Z</time>
      </trkpt>
      <trkpt lat="43.77761" lon="7.11735">
        <ele>712.59997558594</ele>
        <time>2019-07-25T08:59:49.000Z</time>
      </trkpt>
      <trkpt lat="43.77755" lon="7.1174">
        <ele>712.59997558594</ele>
        <time>2019-07-25T08:59:52.000Z</time>
      </trkpt>
      <trkpt lat="43.77749" lon="7.11745">
        <ele>712.40002441406</ele>
        <time>2019-07-25T08:59:54.000Z</time>
      </trkpt>
      <trkpt lat="43.7774" lon="7.11753">
        <ele>712.59997558594</ele>
        <time>2019-07-25T08:59:57.000Z</time>
      </trkpt>
      <trkpt lat="43.77731" lon="7.11763">
        <ele>712.79998779297</ele>
        <time>2019-07-25T09:00:01.000Z</time>
      </trkpt>
      <trkpt lat="43.77722" lon="7.11781">
        <ele>712.59997558594</ele>
        <time>2019-07-25T09:00:06.000Z</time>
      </trkpt>
      <trkpt lat="43.77717" lon="7.11791">
        <ele>712.59997558594</ele>
        <time>2019-07-25T09:00:08.000Z</time>
      </trkpt>
      <trkpt lat="43.77709" lon="7.11806">
        <ele>712</ele>
        <time>2019-07-25T09:00:11.000Z</time>
      </trkpt>
      <trkpt lat="43.77703" lon="7.11815">
        <ele>711.59997558594</ele>
        <time>2019-07-25T09:00:13.000Z</time>
      </trkpt>
      <trkpt lat="43.77701" lon="7.11821">
        <ele>711.40002441406</ele>
        <time>2019-07-25T09:00:14.000Z</time>
      </trkpt>
      <trkpt lat="43.77699" lon="7.11825">
        <ele>711.20001220703</ele>
        <time>2019-07-25T09:00:15.000Z</time>
      </trkpt>
      <trkpt lat="43.77694" lon="7.11835">
        <ele>711</ele>
        <time>2019-07-25T09:00:17.000Z</time>
      </trkpt>
      <trkpt lat="43.77686" lon="7.11851">
        <ele>710</ele>
        <time>2019-07-25T09:00:20.000Z</time>
      </trkpt>
      <trkpt lat="43.77685" lon="7.11856">
        <ele>709.20001220703</ele>
        <time>2019-07-25T09:00:21.000Z</time>
      </trkpt>
      <trkpt lat="43.7768" lon="7.1186">
        <ele>707.20001220703</ele>
        <time>2019-07-25T09:00:23.000Z</time>
      </trkpt>
      <trkpt lat="43.77674" lon="7.11858">
        <ele>706</ele>
        <time>2019-07-25T09:00:25.000Z</time>
      </trkpt>
      <trkpt lat="43.77671" lon="7.11858">
        <ele>705.79998779297</ele>
        <time>2019-07-25T09:00:27.000Z</time>
      </trkpt>
      <trkpt lat="43.77668" lon="7.1186">
        <ele>706.40002441406</ele>
        <time>2019-07-25T09:00:32.000Z</time>
      </trkpt>
      <trkpt lat="43.77664" lon="7.11864">
        <ele>707</ele>
        <time>2019-07-25T09:00:39.000Z</time>
      </trkpt>
      <trkpt lat="43.77664" lon="7.11865">
        <ele>707.20001220703</ele>
        <time>2019-07-25T09:00:40.000Z</time>
      </trkpt>
      <trkpt lat="43.77663" lon="7.11865">
        <ele>707.40002441406</ele>
        <time>2019-07-25T09:00:45.000Z</time>
      </trkpt>
      <trkpt lat="43.77658" lon="7.11867">
        <ele>707.40002441406</ele>
        <time>2019-07-25T09:00:52.000Z</time>
      </trkpt>
      <trkpt lat="43.77649" lon="7.11871">
        <ele>707.59997558594</ele>
        <time>2019-07-25T09:00:56.000Z</time>
      </trkpt>
      <trkpt lat="43.77646" lon="7.11873">
        <ele>707.59997558594</ele>
        <time>2019-07-25T09:00:57.000Z</time>
      </trkpt>
      <trkpt lat="43.7763" lon="7.11876">
        <ele>707.59997558594</ele>
        <time>2019-07-25T09:01:02.000Z</time>
      </trkpt>
      <trkpt lat="43.77618" lon="7.11871">
        <ele>707.20001220703</ele>
        <time>2019-07-25T09:01:06.000Z</time>
      </trkpt>
      <trkpt lat="43.77609" lon="7.1187">
        <ele>706.59997558594</ele>
        <time>2019-07-25T09:01:10.000Z</time>
      </trkpt>
      <trkpt lat="43.77606" lon="7.11873">
        <ele>706.20001220703</ele>
        <time>2019-07-25T09:01:12.000Z</time>
      </trkpt>
      <trkpt lat="43.77602" lon="7.11877">
        <ele>706.40002441406</ele>
        <time>2019-07-25T09:01:15.000Z</time>
      </trkpt>
      <trkpt lat="43.77592" lon="7.11884">
        <ele>707.20001220703</ele>
        <time>2019-07-25T09:01:20.000Z</time>
      </trkpt>
      <trkpt lat="43.77581" lon="7.1189">
        <ele>706.79998779297</ele>
        <time>2019-07-25T09:01:24.000Z</time>
      </trkpt>
      <trkpt lat="43.77574" lon="7.11889">
        <ele>706.20001220703</ele>
        <time>2019-07-25T09:01:26.000Z</time>
      </trkpt>
      <trkpt lat="43.77567" lon="7.1189">
        <ele>705.79998779297</ele>
        <time>2019-07-25T09:01:28.000Z</time>
      </trkpt>
      <trkpt lat="43.77564" lon="7.11891">
        <ele>705</ele>
        <time>2019-07-25T09:01:29.000Z</time>
      </trkpt>
      <trkpt lat="43.77561" lon="7.11891">
        <ele>704.59997558594</ele>
        <time>2019-07-25T09:01:30.000Z</time>
      </trkpt>
      <trkpt lat="43.77558" lon="7.11891">
        <ele>703.79998779297</ele>
        <time>2019-07-25T09:01:31.000Z</time>
      </trkpt>
      <trkpt lat="43.77555" lon="7.11891">
        <ele>703.40002441406</ele>
        <time>2019-07-25T09:01:32.000Z</time>
      </trkpt>
      <trkpt lat="43.77553" lon="7.1189">
        <ele>702.79998779297</ele>
        <time>2019-07-25T09:01:33.000Z</time>
      </trkpt>
      <trkpt lat="43.77545" lon="7.11886">
        <ele>703</ele>
        <time>2019-07-25T09:01:36.000Z</time>
      </trkpt>
      <trkpt lat="43.77539" lon="7.11884">
        <ele>703.40002441406</ele>
        <time>2019-07-25T09:01:38.000Z</time>
      </trkpt>
      <trkpt lat="43.77535" lon="7.11884">
        <ele>703.20001220703</ele>
        <time>2019-07-25T09:01:40.000Z</time>
      </trkpt>
      <trkpt lat="43.7753" lon="7.11885">
        <ele>703.59997558594</ele>
        <time>2019-07-25T09:01:43.000Z</time>
      </trkpt>
      <trkpt lat="43.77529" lon="7.11884">
        <ele>703.79998779297</ele>
        <time>2019-07-25T09:01:44.000Z</time>
      </trkpt>
      <trkpt lat="43.77526" lon="7.11883">
        <ele>704</ele>
        <time>2019-07-25T09:01:45.000Z</time>
      </trkpt>
      <trkpt lat="43.7752" lon="7.11878">
        <ele>704.20001220703</ele>
        <time>2019-07-25T09:01:47.000Z</time>
      </trkpt>
      <trkpt lat="43.77511" lon="7.11877">
        <ele>704</ele>
        <time>2019-07-25T09:01:50.000Z</time>
      </trkpt>
      <trkpt lat="43.77509" lon="7.11877">
        <ele>703.79998779297</ele>
        <time>2019-07-25T09:01:51.000Z</time>
      </trkpt>
      <trkpt lat="43.77495" lon="7.11873">
        <ele>704</ele>
        <time>2019-07-25T09:01:57.000Z</time>
      </trkpt>
      <trkpt lat="43.77492" lon="7.11871">
        <ele>704</ele>
        <time>2019-07-25T09:01:59.000Z</time>
      </trkpt>
      <trkpt lat="43.77488" lon="7.1187">
        <ele>704</ele>
        <time>2019-07-25T09:02:01.000Z</time>
      </trkpt>
      <trkpt lat="43.77487" lon="7.1187">
        <ele>703.79998779297</ele>
        <time>2019-07-25T09:02:02.000Z</time>
      </trkpt>
      <trkpt lat="43.7748" lon="7.11873">
        <ele>703.79998779297</ele>
        <time>2019-07-25T09:02:07.000Z</time>
      </trkpt>
      <trkpt lat="43.77476" lon="7.11874">
        <ele>703.79998779297</ele>
        <time>2019-07-25T09:02:12.000Z</time>
      </trkpt>
      <trkpt lat="43.77472" lon="7.11876">
        <ele>704</ele>
        <time>2019-07-25T09:02:18.000Z</time>
      </trkpt>
      <trkpt lat="43.77468" lon="7.11877">
        <ele>704</ele>
        <time>2019-07-25T09:02:23.000Z</time>
      </trkpt>
      <trkpt lat="43.77462" lon="7.1188">
        <ele>704.20001220703</ele>
        <time>2019-07-25T09:02:30.000Z</time>
      </trkpt>
      <trkpt lat="43.77458" lon="7.1188">
        <ele>704</ele>
        <time>2019-07-25T09:02:36.000Z</time>
      </trkpt>
      <trkpt lat="43.77455" lon="7.11882">
        <ele>703.59997558594</ele>
        <time>2019-07-25T09:02:42.000Z</time>
      </trkpt>
      <trkpt lat="43.77452" lon="7.11885">
        <ele>703.59997558594</ele>
        <time>2019-07-25T09:02:49.000Z</time>
      </trkpt>
      <trkpt lat="43.77449" lon="7.11886">
        <ele>703.20001220703</ele>
        <time>2019-07-25T09:02:54.000Z</time>
      </trkpt>
      <trkpt lat="43.77446" lon="7.11889">
        <ele>703.20001220703</ele>
        <time>2019-07-25T09:02:56.000Z</time>
      </trkpt>
      <trkpt lat="43.77437" lon="7.11893">
        <ele>703.79998779297</ele>
        <time>2019-07-25T09:03:01.000Z</time>
      </trkpt>
      <trkpt lat="43.77436" lon="7.11894">
        <ele>703.79998779297</ele>
        <time>2019-07-25T09:03:02.000Z</time>
      </trkpt>
      <trkpt lat="43.77429" lon="7.11898">
        <ele>704.79998779297</ele>
        <time>2019-07-25T09:03:07.000Z</time>
      </trkpt>
      <trkpt lat="43.77428" lon="7.11899">
        <ele>705</ele>
        <time>2019-07-25T09:03:08.000Z</time>
      </trkpt>
      <trkpt lat="43.77422" lon="7.119">
        <ele>705.20001220703</ele>
        <time>2019-07-25T09:03:12.000Z</time>
      </trkpt>
      <trkpt lat="43.77417" lon="7.11904">
        <ele>706</ele>
        <time>2019-07-25T09:03:18.000Z</time>
      </trkpt>
      <trkpt lat="43.77417" lon="7.11904">
        <ele>706</ele>
        <time>2019-07-25T09:03:19.000Z</time>
      </trkpt>
      <trkpt lat="43.77416" lon="7.11905">
        <ele>706.59997558594</ele>
        <time>2019-07-25T09:03:23.000Z</time>
      </trkpt>
      <trkpt lat="43.77414" lon="7.11906">
        <ele>707</ele>
        <time>2019-07-25T09:03:28.000Z</time>
      </trkpt>
      <trkpt lat="43.77414" lon="7.11906">
        <ele>707</ele>
        <time>2019-07-25T09:03:29.000Z</time>
      </trkpt>
      <trkpt lat="43.7741" lon="7.1191">
        <ele>707.59997558594</ele>
        <time>2019-07-25T09:03:37.000Z</time>
      </trkpt>
      <trkpt lat="43.77407" lon="7.11913">
        <ele>708.20001220703</ele>
        <time>2019-07-25T09:03:41.000Z</time>
      </trkpt>
      <trkpt lat="43.77406" lon="7.11913">
        <ele>708.40002441406</ele>
        <time>2019-07-25T09:03:42.000Z</time>
      </trkpt>
      <trkpt lat="43.77404" lon="7.11913">
        <ele>708.79998779297</ele>
        <time>2019-07-25T09:03:44.000Z</time>
      </trkpt>
      <trkpt lat="43.77401" lon="7.11913">
        <ele>709.20001220703</ele>
        <time>2019-07-25T09:03:47.000Z</time>
      </trkpt>
      <trkpt lat="43.77398" lon="7.11913">
        <ele>709.59997558594</ele>
        <time>2019-07-25T09:03:51.000Z</time>
      </trkpt>
      <trkpt lat="43.77395" lon="7.11914">
        <ele>710.20001220703</ele>
        <time>2019-07-25T09:03:57.000Z</time>
      </trkpt>
      <trkpt lat="43.77395" lon="7.11915">
        <ele>710.40002441406</ele>
        <time>2019-07-25T09:03:58.000Z</time>
      </trkpt>
      <trkpt lat="43.77391" lon="7.11916">
        <ele>711</ele>
        <time>2019-07-25T09:04:04.000Z</time>
      </trkpt>
      <trkpt lat="43.77388" lon="7.11915">
        <ele>711.40002441406</ele>
        <time>2019-07-25T09:04:08.000Z</time>
      </trkpt>
      <trkpt lat="43.77386" lon="7.11914">
        <ele>712</ele>
        <time>2019-07-25T09:04:13.000Z</time>
      </trkpt>
      <trkpt lat="43.77383" lon="7.11915">
        <ele>712.59997558594</ele>
        <time>2019-07-25T09:04:20.000Z</time>
      </trkpt>
      <trkpt lat="43.7738" lon="7.11916">
        <ele>713.20001220703</ele>
        <time>2019-07-25T09:04:27.000Z</time>
      </trkpt>
      <trkpt lat="43.7738" lon="7.11914">
        <ele>713.40002441406</ele>
        <time>2019-07-25T09:04:28.000Z</time>
      </trkpt>
      <trkpt lat="43.77378" lon="7.11915">
        <ele>713.59997558594</ele>
        <time>2019-07-25T09:04:30.000Z</time>
      </trkpt>
      <trkpt lat="43.77378" lon="7.11915">
        <ele>713.79998779297</ele>
        <time>2019-07-25T09:04:31.000Z</time>
      </trkpt>
      <trkpt lat="43.77373" lon="7.11915">
        <ele>714.40002441406</ele>
        <time>2019-07-25T09:04:37.000Z</time>
      </trkpt>
      <trkpt lat="43.77369" lon="7.11915">
        <ele>714.79998779297</ele>
        <time>2019-07-25T09:04:42.000Z</time>
      </trkpt>
      <trkpt lat="43.77367" lon="7.11915">
        <ele>714.79998779297</ele>
        <time>2019-07-25T09:04:44.000Z</time>
      </trkpt>
      <trkpt lat="43.77365" lon="7.11917">
        <ele>715.20001220703</ele>
        <time>2019-07-25T09:04:50.000Z</time>
      </trkpt>
      <trkpt lat="43.77362" lon="7.11918">
        <ele>715.79998779297</ele>
        <time>2019-07-25T09:04:55.000Z</time>
      </trkpt>
      <trkpt lat="43.77361" lon="7.11919">
        <ele>716.40002441406</ele>
        <time>2019-07-25T09:05:01.000Z</time>
      </trkpt>
      <trkpt lat="43.7736" lon="7.11922">
        <ele>717</ele>
        <time>2019-07-25T09:05:05.000Z</time>
      </trkpt>
      <trkpt lat="43.77359" lon="7.11923">
        <ele>717.40002441406</ele>
        <time>2019-07-25T09:05:08.000Z</time>
      </trkpt>
      <trkpt lat="43.77357" lon="7.11925">
        <ele>718</ele>
        <time>2019-07-25T09:05:11.000Z</time>
      </trkpt>
      <trkpt lat="43.77354" lon="7.11926">
        <ele>718.40002441406</ele>
        <time>2019-07-25T09:05:15.000Z</time>
      </trkpt>
      <trkpt lat="43.77351" lon="7.11928">
        <ele>719</ele>
        <time>2019-07-25T09:05:21.000Z</time>
      </trkpt>
      <trkpt lat="43.77346" lon="7.11932">
        <ele>719.79998779297</ele>
        <time>2019-07-25T09:05:29.000Z</time>
      </trkpt>
      <trkpt lat="43.77345" lon="7.11932">
        <ele>720</ele>
        <time>2019-07-25T09:05:31.000Z</time>
      </trkpt>
      <trkpt lat="43.77344" lon="7.11934">
        <ele>720.40002441406</ele>
        <time>2019-07-25T09:05:34.000Z</time>
      </trkpt>
      <trkpt lat="43.77341" lon="7.11938">
        <ele>721</ele>
        <time>2019-07-25T09:05:40.000Z</time>
      </trkpt>
      <trkpt lat="43.77341" lon="7.11939">
        <ele>721.20001220703</ele>
        <time>2019-07-25T09:05:41.000Z</time>
      </trkpt>
      <trkpt lat="43.77337" lon="7.11943">
        <ele>722</ele>
        <time>2019-07-25T09:05:48.000Z</time>
      </trkpt>
      <trkpt lat="43.77336" lon="7.11943">
        <ele>722.20001220703</ele>
        <time>2019-07-25T09:05:49.000Z</time>
      </trkpt>
      <trkpt lat="43.77334" lon="7.11946">
        <ele>722.59997558594</ele>
        <time>2019-07-25T09:05:55.000Z</time>
      </trkpt>
      <trkpt lat="43.7733" lon="7.11947">
        <ele>723.20001220703</ele>
        <time>2019-07-25T09:06:01.000Z</time>
      </trkpt>
      <trkpt lat="43.77329" lon="7.11948">
        <ele>723.40002441406</ele>
        <time>2019-07-25T09:06:02.000Z</time>
      </trkpt>
      <trkpt lat="43.77326" lon="7.11951">
        <ele>724.20001220703</ele>
        <time>2019-07-25T09:06:09.000Z</time>
      </trkpt>
      <trkpt lat="43.7732" lon="7.11955">
        <ele>725.20001220703</ele>
        <time>2019-07-25T09:06:17.000Z</time>
      </trkpt>
      <trkpt lat="43.7732" lon="7.11954">
        <ele>725.20001220703</ele>
        <time>2019-07-25T09:06:18.000Z</time>
      </trkpt>
      <trkpt lat="43.77318" lon="7.11955">
        <ele>725.40002441406</ele>
        <time>2019-07-25T09:06:23.000Z</time>
      </trkpt>
      <trkpt lat="43.77317" lon="7.11956">
        <ele>725.40002441406</ele>
        <time>2019-07-25T09:06:24.000Z</time>
      </trkpt>
      <trkpt lat="43.77311" lon="7.11961">
        <ele>725.79998779297</ele>
        <time>2019-07-25T09:06:30.000Z</time>
      </trkpt>
      <trkpt lat="43.77308" lon="7.11961">
        <ele>725.79998779297</ele>
        <time>2019-07-25T09:06:31.000Z</time>
      </trkpt>
      <trkpt lat="43.77303" lon="7.11959">
        <ele>726.40002441406</ele>
        <time>2019-07-25T09:06:34.000Z</time>
      </trkpt>
      <trkpt lat="43.77302" lon="7.11959">
        <ele>726.59997558594</ele>
        <time>2019-07-25T09:06:35.000Z</time>
      </trkpt>
      <trkpt lat="43.77299" lon="7.1196">
        <ele>726.79998779297</ele>
        <time>2019-07-25T09:06:37.000Z</time>
      </trkpt>
      <trkpt lat="43.77295" lon="7.11966">
        <ele>727.59997558594</ele>
        <time>2019-07-25T09:06:41.000Z</time>
      </trkpt>
      <trkpt lat="43.77294" lon="7.11968">
        <ele>727.79998779297</ele>
        <time>2019-07-25T09:06:42.000Z</time>
      </trkpt>
      <trkpt lat="43.77289" lon="7.11974">
        <ele>728.59997558594</ele>
        <time>2019-07-25T09:06:47.000Z</time>
      </trkpt>
      <trkpt lat="43.77287" lon="7.11975">
        <ele>728.59997558594</ele>
        <time>2019-07-25T09:06:48.000Z</time>
      </trkpt>
      <trkpt lat="43.77283" lon="7.1198">
        <ele>729.59997558594</ele>
        <time>2019-07-25T09:06:52.000Z</time>
      </trkpt>
      <trkpt lat="43.77281" lon="7.11983">
        <ele>730</ele>
        <time>2019-07-25T09:06:54.000Z</time>
      </trkpt>
      <trkpt lat="43.7728" lon="7.11985">
        <ele>730.20001220703</ele>
        <time>2019-07-25T09:06:55.000Z</time>
      </trkpt>
      <trkpt lat="43.77278" lon="7.11987">
        <ele>730.59997558594</ele>
        <time>2019-07-25T09:06:57.000Z</time>
      </trkpt>
      <trkpt lat="43.77275" lon="7.1199">
        <ele>731.20001220703</ele>
        <time>2019-07-25T09:07:02.000Z</time>
      </trkpt>
      <trkpt lat="43.77273" lon="7.11993">
        <ele>731.20001220703</ele>
        <time>2019-07-25T09:07:13.000Z</time>
      </trkpt>
      <trkpt lat="43.77272" lon="7.11994">
        <ele>731</ele>
        <time>2019-07-25T09:07:19.000Z</time>
      </trkpt>
      <trkpt lat="43.77271" lon="7.11995">
        <ele>730.79998779297</ele>
        <time>2019-07-25T09:07:25.000Z</time>
      </trkpt>
      <trkpt lat="43.77268" lon="7.11997">
        <ele>731</ele>
        <time>2019-07-25T09:07:31.000Z</time>
      </trkpt>
      <trkpt lat="43.77261" lon="7.11998">
        <ele>731.79998779297</ele>
        <time>2019-07-25T09:07:36.000Z</time>
      </trkpt>
      <trkpt lat="43.77257" lon="7.11999">
        <ele>733</ele>
        <time>2019-07-25T09:07:40.000Z</time>
      </trkpt>
      <trkpt lat="43.77254" lon="7.11998">
        <ele>733.40002441406</ele>
        <time>2019-07-25T09:07:43.000Z</time>
      </trkpt>
      <trkpt lat="43.77252" lon="7.11998">
        <ele>734</ele>
        <time>2019-07-25T09:07:45.000Z</time>
      </trkpt>
      <trkpt lat="43.77249" lon="7.11999">
        <ele>735</ele>
        <time>2019-07-25T09:07:49.000Z</time>
      </trkpt>
      <trkpt lat="43.77248" lon="7.11998">
        <ele>735.20001220703</ele>
        <time>2019-07-25T09:07:50.000Z</time>
      </trkpt>
      <trkpt lat="43.77247" lon="7.12">
        <ele>735.59997558594</ele>
        <time>2019-07-25T09:07:59.000Z</time>
      </trkpt>
      <trkpt lat="43.77246" lon="7.12001">
        <ele>735.59997558594</ele>
        <time>2019-07-25T09:08:01.000Z</time>
      </trkpt>
      <trkpt lat="43.77241" lon="7.12003">
        <ele>735.79998779297</ele>
        <time>2019-07-25T09:08:05.000Z</time>
      </trkpt>
      <trkpt lat="43.7724" lon="7.12004">
        <ele>736</ele>
        <time>2019-07-25T09:08:06.000Z</time>
      </trkpt>
      <trkpt lat="43.77239" lon="7.12006">
        <ele>736.40002441406</ele>
        <time>2019-07-25T09:08:08.000Z</time>
      </trkpt>
      <trkpt lat="43.77238" lon="7.12008">
        <ele>736.59997558594</ele>
        <time>2019-07-25T09:08:09.000Z</time>
      </trkpt>
      <trkpt lat="43.77231" lon="7.12011">
        <ele>737.40002441406</ele>
        <time>2019-07-25T09:08:14.000Z</time>
      </trkpt>
      <trkpt lat="43.7723" lon="7.12011">
        <ele>737.40002441406</ele>
        <time>2019-07-25T09:08:15.000Z</time>
      </trkpt>
      <trkpt lat="43.77229" lon="7.12012">
        <ele>737.59997558594</ele>
        <time>2019-07-25T09:08:16.000Z</time>
      </trkpt>
      <trkpt lat="43.77225" lon="7.12012">
        <ele>738</ele>
        <time>2019-07-25T09:08:19.000Z</time>
      </trkpt>
      <trkpt lat="43.77223" lon="7.12013">
        <ele>738.59997558594</ele>
        <time>2019-07-25T09:08:21.000Z</time>
      </trkpt>
      <trkpt lat="43.77219" lon="7.12013">
        <ele>739.20001220703</ele>
        <time>2019-07-25T09:08:24.000Z</time>
      </trkpt>
      <trkpt lat="43.77216" lon="7.12013">
        <ele>739.59997558594</ele>
        <time>2019-07-25T09:08:26.000Z</time>
      </trkpt>
      <trkpt lat="43.77214" lon="7.12015">
        <ele>740.20001220703</ele>
        <time>2019-07-25T09:08:29.000Z</time>
      </trkpt>
      <trkpt lat="43.7721" lon="7.12017">
        <ele>740.79998779297</ele>
        <time>2019-07-25T09:08:32.000Z</time>
      </trkpt>
      <trkpt lat="43.77207" lon="7.12018">
        <ele>740.79998779297</ele>
        <time>2019-07-25T09:08:34.000Z</time>
      </trkpt>
      <trkpt lat="43.77203" lon="7.12019">
        <ele>741</ele>
        <time>2019-07-25T09:08:37.000Z</time>
      </trkpt>
      <trkpt lat="43.772" lon="7.12018">
        <ele>741.40002441406</ele>
        <time>2019-07-25T09:08:39.000Z</time>
      </trkpt>
      <trkpt lat="43.77197" lon="7.12017">
        <ele>741.79998779297</ele>
        <time>2019-07-25T09:08:41.000Z</time>
      </trkpt>
      <trkpt lat="43.77194" lon="7.12017">
        <ele>742.40002441406</ele>
        <time>2019-07-25T09:08:43.000Z</time>
      </trkpt>
      <trkpt lat="43.77192" lon="7.12018">
        <ele>742.59997558594</ele>
        <time>2019-07-25T09:08:45.000Z</time>
      </trkpt>
      <trkpt lat="43.77189" lon="7.12018">
        <ele>742.79998779297</ele>
        <time>2019-07-25T09:08:47.000Z</time>
      </trkpt>
      <trkpt lat="43.77187" lon="7.12018">
        <ele>743</ele>
        <time>2019-07-25T09:08:48.000Z</time>
      </trkpt>
      <trkpt lat="43.77184" lon="7.12018">
        <ele>743.20001220703</ele>
        <time>2019-07-25T09:08:50.000Z</time>
      </trkpt>
      <trkpt lat="43.77182" lon="7.1202">
        <ele>743.40002441406</ele>
        <time>2019-07-25T09:08:51.000Z</time>
      </trkpt>
      <trkpt lat="43.77181" lon="7.12023">
        <ele>743.59997558594</ele>
        <time>2019-07-25T09:08:53.000Z</time>
      </trkpt>
      <trkpt lat="43.77179" lon="7.12029">
        <ele>743.79998779297</ele>
        <time>2019-07-25T09:08:56.000Z</time>
      </trkpt>
      <trkpt lat="43.77173" lon="7.12032">
        <ele>744</ele>
        <time>2019-07-25T09:08:59.000Z</time>
      </trkpt>
      <trkpt lat="43.77171" lon="7.12032">
        <ele>744.40002441406</ele>
        <time>2019-07-25T09:09:00.000Z</time>
      </trkpt>
      <trkpt lat="43.77162" lon="7.12033">
        <ele>744.79998779297</ele>
        <time>2019-07-25T09:09:05.000Z</time>
      </trkpt>
      <trkpt lat="43.77157" lon="7.12035">
        <ele>745</ele>
        <time>2019-07-25T09:09:08.000Z</time>
      </trkpt>
      <trkpt lat="43.77152" lon="7.12038">
        <ele>745.20001220703</ele>
        <time>2019-07-25T09:09:11.000Z</time>
      </trkpt>
      <trkpt lat="43.7714" lon="7.12048">
        <ele>746</ele>
        <time>2019-07-25T09:09:18.000Z</time>
      </trkpt>
      <trkpt lat="43.77139" lon="7.12049">
        <ele>746</ele>
        <time>2019-07-25T09:09:19.000Z</time>
      </trkpt>
      <trkpt lat="43.77129" lon="7.12054">
        <ele>747</ele>
        <time>2019-07-25T09:09:24.000Z</time>
      </trkpt>
      <trkpt lat="43.77126" lon="7.12056">
        <ele>747.20001220703</ele>
        <time>2019-07-25T09:09:27.000Z</time>
      </trkpt>
      <trkpt lat="43.77124" lon="7.12057">
        <ele>747.20001220703</ele>
        <time>2019-07-25T09:09:28.000Z</time>
      </trkpt>
      <trkpt lat="43.77108" lon="7.1206">
        <ele>748</ele>
        <time>2019-07-25T09:09:35.000Z</time>
      </trkpt>
      <trkpt lat="43.77105" lon="7.12062">
        <ele>748.20001220703</ele>
        <time>2019-07-25T09:09:37.000Z</time>
      </trkpt>
      <trkpt lat="43.77103" lon="7.12063">
        <ele>748.79998779297</ele>
        <time>2019-07-25T09:09:39.000Z</time>
      </trkpt>
      <trkpt lat="43.77098" lon="7.12061">
        <ele>749.20001220703</ele>
        <time>2019-07-25T09:09:42.000Z</time>
      </trkpt>
      <trkpt lat="43.77097" lon="7.12061">
        <ele>749.40002441406</ele>
        <time>2019-07-25T09:09:43.000Z</time>
      </trkpt>
      <trkpt lat="43.77094" lon="7.12066">
        <ele>749.59997558594</ele>
        <time>2019-07-25T09:09:46.000Z</time>
      </trkpt>
      <trkpt lat="43.77093" lon="7.12067">
        <ele>749.59997558594</ele>
        <time>2019-07-25T09:09:47.000Z</time>
      </trkpt>
      <trkpt lat="43.77092" lon="7.12068">
        <ele>749.59997558594</ele>
        <time>2019-07-25T09:09:48.000Z</time>
      </trkpt>
      <trkpt lat="43.7709" lon="7.12068">
        <ele>750</ele>
        <time>2019-07-25T09:09:52.000Z</time>
      </trkpt>
      <trkpt lat="43.77088" lon="7.12068">
        <ele>750.40002441406</ele>
        <time>2019-07-25T09:09:58.000Z</time>
      </trkpt>
      <trkpt lat="43.77087" lon="7.12068">
        <ele>750.40002441406</ele>
        <time>2019-07-25T09:10:01.000Z</time>
      </trkpt>
      <trkpt lat="43.77084" lon="7.1207">
        <ele>750.40002441406</ele>
        <time>2019-07-25T09:10:04.000Z</time>
      </trkpt>
      <trkpt lat="43.77083" lon="7.1207">
        <ele>750.20001220703</ele>
        <time>2019-07-25T09:10:05.000Z</time>
      </trkpt>
      <trkpt lat="43.77076" lon="7.1207">
        <ele>750.59997558594</ele>
        <time>2019-07-25T09:10:10.000Z</time>
      </trkpt>
      <trkpt lat="43.77072" lon="7.12072">
        <ele>751</ele>
        <time>2019-07-25T09:10:15.000Z</time>
      </trkpt>
      <trkpt lat="43.77068" lon="7.12074">
        <ele>751.20001220703</ele>
        <time>2019-07-25T09:10:22.000Z</time>
      </trkpt>
      <trkpt lat="43.77066" lon="7.12074">
        <ele>751.20001220703</ele>
        <time>2019-07-25T09:10:24.000Z</time>
      </trkpt>
      <trkpt lat="43.77063" lon="7.12073">
        <ele>751</ele>
        <time>2019-07-25T09:10:26.000Z</time>
      </trkpt>
      <trkpt lat="43.77057" lon="7.12077">
        <ele>750.59997558594</ele>
        <time>2019-07-25T09:10:31.000Z</time>
      </trkpt>
      <trkpt lat="43.77055" lon="7.12077">
        <ele>750.59997558594</ele>
        <time>2019-07-25T09:10:32.000Z</time>
      </trkpt>
      <trkpt lat="43.77047" lon="7.12075">
        <ele>750.59997558594</ele>
        <time>2019-07-25T09:10:36.000Z</time>
      </trkpt>
      <trkpt lat="43.77041" lon="7.12073">
        <ele>750.79998779297</ele>
        <time>2019-07-25T09:10:39.000Z</time>
      </trkpt>
      <trkpt lat="43.77038" lon="7.12072">
        <ele>750.79998779297</ele>
        <time>2019-07-25T09:10:41.000Z</time>
      </trkpt>
      <trkpt lat="43.77036" lon="7.1207">
        <ele>750.59997558594</ele>
        <time>2019-07-25T09:10:42.000Z</time>
      </trkpt>
      <trkpt lat="43.77034" lon="7.12068">
        <ele>750</ele>
        <time>2019-07-25T09:10:44.000Z</time>
      </trkpt>
      <trkpt lat="43.77029" lon="7.12068">
        <ele>749.79998779297</ele>
        <time>2019-07-25T09:10:47.000Z</time>
      </trkpt>
      <trkpt lat="43.77021" lon="7.12068">
        <ele>749.20001220703</ele>
        <time>2019-07-25T09:10:50.000Z</time>
      </trkpt>
      <trkpt lat="43.77017" lon="7.12068">
        <ele>749</ele>
        <time>2019-07-25T09:10:52.000Z</time>
      </trkpt>
      <trkpt lat="43.77015" lon="7.12067">
        <ele>749</ele>
        <time>2019-07-25T09:10:54.000Z</time>
      </trkpt>
      <trkpt lat="43.77012" lon="7.12065">
        <ele>748.79998779297</ele>
        <time>2019-07-25T09:10:56.000Z</time>
      </trkpt>
      <trkpt lat="43.77006" lon="7.12064">
        <ele>748.59997558594</ele>
        <time>2019-07-25T09:11:00.000Z</time>
      </trkpt>
      <trkpt lat="43.77002" lon="7.12067">
        <ele>748.20001220703</ele>
        <time>2019-07-25T09:11:05.000Z</time>
      </trkpt>
      <trkpt lat="43.76999" lon="7.12067">
        <ele>748.20001220703</ele>
        <time>2019-07-25T09:11:12.000Z</time>
      </trkpt>
      <trkpt lat="43.76999" lon="7.12067">
        <ele>748.20001220703</ele>
        <time>2019-07-25T09:11:13.000Z</time>
      </trkpt>
      <trkpt lat="43.76996" lon="7.12066">
        <ele>748.20001220703</ele>
        <time>2019-07-25T09:11:21.000Z</time>
      </trkpt>
      <trkpt lat="43.76994" lon="7.12067">
        <ele>748.20001220703</ele>
        <time>2019-07-25T09:11:26.000Z</time>
      </trkpt>
      <trkpt lat="43.76988" lon="7.1207">
        <ele>748.20001220703</ele>
        <time>2019-07-25T09:11:34.000Z</time>
      </trkpt>
      <trkpt lat="43.76982" lon="7.12072">
        <ele>748</ele>
        <time>2019-07-25T09:11:41.000Z</time>
      </trkpt>
      <trkpt lat="43.76978" lon="7.12076">
        <ele>748</ele>
        <time>2019-07-25T09:11:47.000Z</time>
      </trkpt>
      <trkpt lat="43.76973" lon="7.12081">
        <ele>748.40002441406</ele>
        <time>2019-07-25T09:11:54.000Z</time>
      </trkpt>
      <trkpt lat="43.76969" lon="7.12083">
        <ele>748.79998779297</ele>
        <time>2019-07-25T09:12:00.000Z</time>
      </trkpt>
      <trkpt lat="43.76967" lon="7.12084">
        <ele>748.40002441406</ele>
        <time>2019-07-25T09:12:04.000Z</time>
      </trkpt>
      <trkpt lat="43.76966" lon="7.12085">
        <ele>748.40002441406</ele>
        <time>2019-07-25T09:12:05.000Z</time>
      </trkpt>
      <trkpt lat="43.76964" lon="7.12086">
        <ele>748.20001220703</ele>
        <time>2019-07-25T09:12:07.000Z</time>
      </trkpt>
      <trkpt lat="43.76961" lon="7.12089">
        <ele>748</ele>
        <time>2019-07-25T09:12:09.000Z</time>
      </trkpt>
      <trkpt lat="43.76953" lon="7.12099">
        <ele>747.79998779297</ele>
        <time>2019-07-25T09:12:16.000Z</time>
      </trkpt>
      <trkpt lat="43.76952" lon="7.121">
        <ele>747.79998779297</ele>
        <time>2019-07-25T09:12:17.000Z</time>
      </trkpt>
      <trkpt lat="43.7695" lon="7.12107">
        <ele>747.79998779297</ele>
        <time>2019-07-25T09:12:22.000Z</time>
      </trkpt>
      <trkpt lat="43.76946" lon="7.1212">
        <ele>747.59997558594</ele>
        <time>2019-07-25T09:12:27.000Z</time>
      </trkpt>
      <trkpt lat="43.76943" lon="7.12128">
        <ele>746.59997558594</ele>
        <time>2019-07-25T09:12:30.000Z</time>
      </trkpt>
      <trkpt lat="43.76939" lon="7.12136">
        <ele>745.40002441406</ele>
        <time>2019-07-25T09:12:33.000Z</time>
      </trkpt>
      <trkpt lat="43.76937" lon="7.12146">
        <ele>744.59997558594</ele>
        <time>2019-07-25T09:12:35.000Z</time>
      </trkpt>
      <trkpt lat="43.76935" lon="7.12153">
        <ele>743.79998779297</ele>
        <time>2019-07-25T09:12:36.000Z</time>
      </trkpt>
      <trkpt lat="43.76934" lon="7.12158">
        <ele>742.79998779297</ele>
        <time>2019-07-25T09:12:37.000Z</time>
      </trkpt>
      <trkpt lat="43.76931" lon="7.12161">
        <ele>741.59997558594</ele>
        <time>2019-07-25T09:12:38.000Z</time>
      </trkpt>
      <trkpt lat="43.76928" lon="7.12161">
        <ele>740.79998779297</ele>
        <time>2019-07-25T09:12:39.000Z</time>
      </trkpt>
      <trkpt lat="43.76925" lon="7.12161">
        <ele>739.59997558594</ele>
        <time>2019-07-25T09:12:40.000Z</time>
      </trkpt>
      <trkpt lat="43.76918" lon="7.12165">
        <ele>738.20001220703</ele>
        <time>2019-07-25T09:12:42.000Z</time>
      </trkpt>
      <trkpt lat="43.76914" lon="7.12165">
        <ele>737.79998779297</ele>
        <time>2019-07-25T09:12:43.000Z</time>
      </trkpt>
      <trkpt lat="43.76907" lon="7.12163">
        <ele>737</ele>
        <time>2019-07-25T09:12:45.000Z</time>
      </trkpt>
      <trkpt lat="43.76896" lon="7.12167">
        <ele>736.20001220703</ele>
        <time>2019-07-25T09:12:48.000Z</time>
      </trkpt>
      <trkpt lat="43.76891" lon="7.12169">
        <ele>735.79998779297</ele>
        <time>2019-07-25T09:12:49.000Z</time>
      </trkpt>
      <trkpt lat="43.76877" lon="7.12173">
        <ele>734.59997558594</ele>
        <time>2019-07-25T09:12:52.000Z</time>
      </trkpt>
      <trkpt lat="43.76867" lon="7.12172">
        <ele>733.20001220703</ele>
        <time>2019-07-25T09:12:54.000Z</time>
      </trkpt>
      <trkpt lat="43.76862" lon="7.12171">
        <ele>732.40002441406</ele>
        <time>2019-07-25T09:12:55.000Z</time>
      </trkpt>
      <trkpt lat="43.76856" lon="7.1217">
        <ele>731.59997558594</ele>
        <time>2019-07-25T09:12:56.000Z</time>
      </trkpt>
      <trkpt lat="43.76851" lon="7.12168">
        <ele>731.20001220703</ele>
        <time>2019-07-25T09:12:57.000Z</time>
      </trkpt>
      <trkpt lat="43.76844" lon="7.12167">
        <ele>730.79998779297</ele>
        <time>2019-07-25T09:12:58.000Z</time>
      </trkpt>
      <trkpt lat="43.76838" lon="7.12166">
        <ele>730.20001220703</ele>
        <time>2019-07-25T09:12:59.000Z</time>
      </trkpt>
      <trkpt lat="43.76834" lon="7.12167">
        <ele>729.59997558594</ele>
        <time>2019-07-25T09:13:00.000Z</time>
      </trkpt>
      <trkpt lat="43.7683" lon="7.12168">
        <ele>729.40002441406</ele>
        <time>2019-07-25T09:13:01.000Z</time>
      </trkpt>
      <trkpt lat="43.76823" lon="7.12167">
        <ele>729</ele>
        <time>2019-07-25T09:13:03.000Z</time>
      </trkpt>
      <trkpt lat="43.76819" lon="7.12167">
        <ele>728.40002441406</ele>
        <time>2019-07-25T09:13:04.000Z</time>
      </trkpt>
      <trkpt lat="43.76817" lon="7.12169">
        <ele>727.59997558594</ele>
        <time>2019-07-25T09:13:05.000Z</time>
      </trkpt>
      <trkpt lat="43.76815" lon="7.12178">
        <ele>726.79998779297</ele>
        <time>2019-07-25T09:13:07.000Z</time>
      </trkpt>
      <trkpt lat="43.76812" lon="7.12181">
        <ele>726</ele>
        <time>2019-07-25T09:13:08.000Z</time>
      </trkpt>
      <trkpt lat="43.76803" lon="7.12188">
        <ele>725.40002441406</ele>
        <time>2019-07-25T09:13:10.000Z</time>
      </trkpt>
      <trkpt lat="43.76798" lon="7.12191">
        <ele>724.79998779297</ele>
        <time>2019-07-25T09:13:11.000Z</time>
      </trkpt>
      <trkpt lat="43.76788" lon="7.12192">
        <ele>724.20001220703</ele>
        <time>2019-07-25T09:13:13.000Z</time>
      </trkpt>
      <trkpt lat="43.76783" lon="7.12193">
        <ele>723.79998779297</ele>
        <time>2019-07-25T09:13:14.000Z</time>
      </trkpt>
      <trkpt lat="43.76771" lon="7.12202">
        <ele>722.40002441406</ele>
        <time>2019-07-25T09:13:17.000Z</time>
      </trkpt>
      <trkpt lat="43.76755" lon="7.12216">
        <ele>721.20001220703</ele>
        <time>2019-07-25T09:13:21.000Z</time>
      </trkpt>
      <trkpt lat="43.76745" lon="7.12231">
        <ele>720.40002441406</ele>
        <time>2019-07-25T09:13:24.000Z</time>
      </trkpt>
      <trkpt lat="43.76743" lon="7.12236">
        <ele>720.40002441406</ele>
        <time>2019-07-25T09:13:25.000Z</time>
      </trkpt>
      <trkpt lat="43.7674" lon="7.12241">
        <ele>720</ele>
        <time>2019-07-25T09:13:26.000Z</time>
      </trkpt>
      <trkpt lat="43.76736" lon="7.12241">
        <ele>719.20001220703</ele>
        <time>2019-07-25T09:13:27.000Z</time>
      </trkpt>
      <trkpt lat="43.76733" lon="7.12239">
        <ele>718.79998779297</ele>
        <time>2019-07-25T09:13:28.000Z</time>
      </trkpt>
      <trkpt lat="43.76726" lon="7.12236">
        <ele>718.20001220703</ele>
        <time>2019-07-25T09:13:30.000Z</time>
      </trkpt>
      <trkpt lat="43.76716" lon="7.12231">
        <ele>718.20001220703</ele>
        <time>2019-07-25T09:13:32.000Z</time>
      </trkpt>
      <trkpt lat="43.76711" lon="7.12227">
        <ele>718</ele>
        <time>2019-07-25T09:13:33.000Z</time>
      </trkpt>
      <trkpt lat="43.76706" lon="7.12224">
        <ele>717.59997558594</ele>
        <time>2019-07-25T09:13:34.000Z</time>
      </trkpt>
      <trkpt lat="43.76695" lon="7.12219">
        <ele>716.79998779297</ele>
        <time>2019-07-25T09:13:36.000Z</time>
      </trkpt>
      <trkpt lat="43.76691" lon="7.12215">
        <ele>716.59997558594</ele>
        <time>2019-07-25T09:13:37.000Z</time>
      </trkpt>
      <trkpt lat="43.76689" lon="7.12212">
        <ele>716.20001220703</ele>
        <time>2019-07-25T09:13:38.000Z</time>
      </trkpt>
      <trkpt lat="43.76686" lon="7.12211">
        <ele>715.79998779297</ele>
        <time>2019-07-25T09:13:39.000Z</time>
      </trkpt>
      <trkpt lat="43.76682" lon="7.12212">
        <ele>715.20001220703</ele>
        <time>2019-07-25T09:13:40.000Z</time>
      </trkpt>
      <trkpt lat="43.76674" lon="7.12214">
        <ele>715</ele>
        <time>2019-07-25T09:13:42.000Z</time>
      </trkpt>
      <trkpt lat="43.76666" lon="7.12215">
        <ele>714.59997558594</ele>
        <time>2019-07-25T09:13:44.000Z</time>
      </trkpt>
      <trkpt lat="43.7666" lon="7.12215">
        <ele>714.40002441406</ele>
        <time>2019-07-25T09:13:46.000Z</time>
      </trkpt>
      <trkpt lat="43.76656" lon="7.12213">
        <ele>714.40002441406</ele>
        <time>2019-07-25T09:13:47.000Z</time>
      </trkpt>
      <trkpt lat="43.76652" lon="7.12211">
        <ele>713.79998779297</ele>
        <time>2019-07-25T09:13:48.000Z</time>
      </trkpt>
      <trkpt lat="43.76648" lon="7.12211">
        <ele>713.59997558594</ele>
        <time>2019-07-25T09:13:49.000Z</time>
      </trkpt>
      <trkpt lat="43.7664" lon="7.12211">
        <ele>712</ele>
        <time>2019-07-25T09:13:51.000Z</time>
      </trkpt>
      <trkpt lat="43.76633" lon="7.1221">
        <ele>711</ele>
        <time>2019-07-25T09:13:53.000Z</time>
      </trkpt>
      <trkpt lat="43.76629" lon="7.12208">
        <ele>710.79998779297</ele>
        <time>2019-07-25T09:13:54.000Z</time>
      </trkpt>
      <trkpt lat="43.7662" lon="7.12208">
        <ele>710</ele>
        <time>2019-07-25T09:13:56.000Z</time>
      </trkpt>
      <trkpt lat="43.76615" lon="7.12208">
        <ele>709.59997558594</ele>
        <time>2019-07-25T09:13:57.000Z</time>
      </trkpt>
      <trkpt lat="43.76607" lon="7.12208">
        <ele>708.40002441406</ele>
        <time>2019-07-25T09:13:59.000Z</time>
      </trkpt>
      <trkpt lat="43.76604" lon="7.12207">
        <ele>707.40002441406</ele>
        <time>2019-07-25T09:14:00.000Z</time>
      </trkpt>
      <trkpt lat="43.76601" lon="7.12205">
        <ele>706.59997558594</ele>
        <time>2019-07-25T09:14:01.000Z</time>
      </trkpt>
      <trkpt lat="43.76596" lon="7.12204">
        <ele>705.40002441406</ele>
        <time>2019-07-25T09:14:03.000Z</time>
      </trkpt>
      <trkpt lat="43.76592" lon="7.12205">
        <ele>705</ele>
        <time>2019-07-25T09:14:04.000Z</time>
      </trkpt>
      <trkpt lat="43.76576" lon="7.12207">
        <ele>704.40002441406</ele>
        <time>2019-07-25T09:14:08.000Z</time>
      </trkpt>
      <trkpt lat="43.7657" lon="7.12204">
        <ele>704.20001220703</ele>
        <time>2019-07-25T09:14:10.000Z</time>
      </trkpt>
      <trkpt lat="43.76566" lon="7.12205">
        <ele>703.79998779297</ele>
        <time>2019-07-25T09:14:11.000Z</time>
      </trkpt>
      <trkpt lat="43.76562" lon="7.12207">
        <ele>703.40002441406</ele>
        <time>2019-07-25T09:14:12.000Z</time>
      </trkpt>
      <trkpt lat="43.76558" lon="7.12207">
        <ele>703</ele>
        <time>2019-07-25T09:14:13.000Z</time>
      </trkpt>
      <trkpt lat="43.76551" lon="7.12204">
        <ele>702.59997558594</ele>
        <time>2019-07-25T09:14:15.000Z</time>
      </trkpt>
      <trkpt lat="43.76548" lon="7.12204">
        <ele>702.20001220703</ele>
        <time>2019-07-25T09:14:16.000Z</time>
      </trkpt>
      <trkpt lat="43.76545" lon="7.12205">
        <ele>702</ele>
        <time>2019-07-25T09:14:17.000Z</time>
      </trkpt>
      <trkpt lat="43.76541" lon="7.12208">
        <ele>701.79998779297</ele>
        <time>2019-07-25T09:14:18.000Z</time>
      </trkpt>
      <trkpt lat="43.76528" lon="7.1221">
        <ele>700.79998779297</ele>
        <time>2019-07-25T09:14:21.000Z</time>
      </trkpt>
      <trkpt lat="43.76517" lon="7.12213">
        <ele>699.59997558594</ele>
        <time>2019-07-25T09:14:24.000Z</time>
      </trkpt>
      <trkpt lat="43.76513" lon="7.12216">
        <ele>698.79998779297</ele>
        <time>2019-07-25T09:14:25.000Z</time>
      </trkpt>
      <trkpt lat="43.76508" lon="7.12218">
        <ele>698.20001220703</ele>
        <time>2019-07-25T09:14:26.000Z</time>
      </trkpt>
      <trkpt lat="43.76498" lon="7.12225">
        <ele>697.20001220703</ele>
        <time>2019-07-25T09:14:28.000Z</time>
      </trkpt>
      <trkpt lat="43.76493" lon="7.12227">
        <ele>696.79998779297</ele>
        <time>2019-07-25T09:14:29.000Z</time>
      </trkpt>
      <trkpt lat="43.76484" lon="7.12234">
        <ele>696.40002441406</ele>
        <time>2019-07-25T09:14:32.000Z</time>
      </trkpt>
      <trkpt lat="43.76479" lon="7.12241">
        <ele>695.79998779297</ele>
        <time>2019-07-25T09:14:34.000Z</time>
      </trkpt>
      <trkpt lat="43.76473" lon="7.12248">
        <ele>694.79998779297</ele>
        <time>2019-07-25T09:14:36.000Z</time>
      </trkpt>
      <trkpt lat="43.7647" lon="7.12251">
        <ele>694.59997558594</ele>
        <time>2019-07-25T09:14:37.000Z</time>
      </trkpt>
      <trkpt lat="43.76464" lon="7.12256">
        <ele>694.59997558594</ele>
        <time>2019-07-25T09:14:39.000Z</time>
      </trkpt>
      <trkpt lat="43.7646" lon="7.1226">
        <ele>695.59997558594</ele>
        <time>2019-07-25T09:14:43.000Z</time>
      </trkpt>
      <trkpt lat="43.76455" lon="7.12268">
        <ele>696.20001220703</ele>
        <time>2019-07-25T09:14:50.000Z</time>
      </trkpt>
      <trkpt lat="43.76455" lon="7.12269">
        <ele>696.59997558594</ele>
        <time>2019-07-25T09:14:52.000Z</time>
      </trkpt>
      <trkpt lat="43.76455" lon="7.12271">
        <ele>697.40002441406</ele>
        <time>2019-07-25T09:14:56.000Z</time>
      </trkpt>
      <trkpt lat="43.76454" lon="7.12273">
        <ele>697.59997558594</ele>
        <time>2019-07-25T09:14:58.000Z</time>
      </trkpt>
      <trkpt lat="43.76453" lon="7.12275">
        <ele>698.20001220703</ele>
        <time>2019-07-25T09:15:01.000Z</time>
      </trkpt>
      <trkpt lat="43.76453" lon="7.12278">
        <ele>698.79998779297</ele>
        <time>2019-07-25T09:15:06.000Z</time>
      </trkpt>
      <trkpt lat="43.76452" lon="7.12279">
        <ele>698.79998779297</ele>
        <time>2019-07-25T09:15:07.000Z</time>
      </trkpt>
      <trkpt lat="43.76452" lon="7.12283">
        <ele>699.79998779297</ele>
        <time>2019-07-25T09:15:14.000Z</time>
      </trkpt>
      <trkpt lat="43.76449" lon="7.12287">
        <ele>701</ele>
        <time>2019-07-25T09:15:20.000Z</time>
      </trkpt>
      <trkpt lat="43.76449" lon="7.12288">
        <ele>701.20001220703</ele>
        <time>2019-07-25T09:15:21.000Z</time>
      </trkpt>
      <trkpt lat="43.76447" lon="7.12294">
        <ele>702</ele>
        <time>2019-07-25T09:15:29.000Z</time>
      </trkpt>
      <trkpt lat="43.76446" lon="7.12299">
        <ele>703</ele>
        <time>2019-07-25T09:15:35.000Z</time>
      </trkpt>
      <trkpt lat="43.76446" lon="7.12301">
        <ele>703.40002441406</ele>
        <time>2019-07-25T09:15:37.000Z</time>
      </trkpt>
      <trkpt lat="43.76446" lon="7.12306">
        <ele>704.20001220703</ele>
        <time>2019-07-25T09:15:43.000Z</time>
      </trkpt>
      <trkpt lat="43.76446" lon="7.12306">
        <ele>704.20001220703</ele>
        <time>2019-07-25T09:15:44.000Z</time>
      </trkpt>
      <trkpt lat="43.76445" lon="7.1231">
        <ele>704.79998779297</ele>
        <time>2019-07-25T09:15:48.000Z</time>
      </trkpt>
      <trkpt lat="43.76444" lon="7.12312">
        <ele>705</ele>
        <time>2019-07-25T09:15:49.000Z</time>
      </trkpt>
      <trkpt lat="43.76438" lon="7.12318">
        <ele>705</ele>
        <time>2019-07-25T09:15:53.000Z</time>
      </trkpt>
      <trkpt lat="43.76435" lon="7.1232">
        <ele>705.20001220703</ele>
        <time>2019-07-25T09:15:55.000Z</time>
      </trkpt>
      <trkpt lat="43.76433" lon="7.12321">
        <ele>705.40002441406</ele>
        <time>2019-07-25T09:15:56.000Z</time>
      </trkpt>
      <trkpt lat="43.7643" lon="7.12323">
        <ele>705.40002441406</ele>
        <time>2019-07-25T09:15:59.000Z</time>
      </trkpt>
      <trkpt lat="43.76419" lon="7.12324">
        <ele>705.79998779297</ele>
        <time>2019-07-25T09:16:04.000Z</time>
      </trkpt>
      <trkpt lat="43.76415" lon="7.12324">
        <ele>705.79998779297</ele>
        <time>2019-07-25T09:16:06.000Z</time>
      </trkpt>
      <trkpt lat="43.76407" lon="7.12326">
        <ele>705.40002441406</ele>
        <time>2019-07-25T09:16:09.000Z</time>
      </trkpt>
      <trkpt lat="43.76393" lon="7.12328">
        <ele>705</ele>
        <time>2019-07-25T09:16:13.000Z</time>
      </trkpt>
      <trkpt lat="43.76378" lon="7.12329">
        <ele>704</ele>
        <time>2019-07-25T09:16:17.000Z</time>
      </trkpt>
      <trkpt lat="43.76371" lon="7.12327">
        <ele>702.59997558594</ele>
        <time>2019-07-25T09:16:19.000Z</time>
      </trkpt>
      <trkpt lat="43.76365" lon="7.12327">
        <ele>701.40002441406</ele>
        <time>2019-07-25T09:16:21.000Z</time>
      </trkpt>
      <trkpt lat="43.76358" lon="7.12325">
        <ele>700.40002441406</ele>
        <time>2019-07-25T09:16:23.000Z</time>
      </trkpt>
      <trkpt lat="43.76355" lon="7.12325">
        <ele>700</ele>
        <time>2019-07-25T09:16:24.000Z</time>
      </trkpt>
      <trkpt lat="43.76344" lon="7.12324">
        <ele>699</ele>
        <time>2019-07-25T09:16:27.000Z</time>
      </trkpt>
      <trkpt lat="43.76338" lon="7.12322">
        <ele>697.79998779297</ele>
        <time>2019-07-25T09:16:29.000Z</time>
      </trkpt>
      <trkpt lat="43.76332" lon="7.12321">
        <ele>696.59997558594</ele>
        <time>2019-07-25T09:16:31.000Z</time>
      </trkpt>
      <trkpt lat="43.76323" lon="7.12319">
        <ele>695.40002441406</ele>
        <time>2019-07-25T09:16:34.000Z</time>
      </trkpt>
      <trkpt lat="43.76313" lon="7.12316">
        <ele>694.20001220703</ele>
        <time>2019-07-25T09:16:38.000Z</time>
      </trkpt>
      <trkpt lat="43.76311" lon="7.12317">
        <ele>693.79998779297</ele>
        <time>2019-07-25T09:16:39.000Z</time>
      </trkpt>
      <trkpt lat="43.7631" lon="7.12318">
        <ele>693.20001220703</ele>
        <time>2019-07-25T09:16:40.000Z</time>
      </trkpt>
      <trkpt lat="43.76309" lon="7.12318">
        <ele>692.20001220703</ele>
        <time>2019-07-25T09:16:41.000Z</time>
      </trkpt>
      <trkpt lat="43.76308" lon="7.12318">
        <ele>691.40002441406</ele>
        <time>2019-07-25T09:16:42.000Z</time>
      </trkpt>
      <trkpt lat="43.76306" lon="7.12318">
        <ele>691</ele>
        <time>2019-07-25T09:16:43.000Z</time>
      </trkpt>
      <trkpt lat="43.76302" lon="7.12318">
        <ele>690</ele>
        <time>2019-07-25T09:16:45.000Z</time>
      </trkpt>
      <trkpt lat="43.76297" lon="7.12319">
        <ele>689.79998779297</ele>
        <time>2019-07-25T09:16:47.000Z</time>
      </trkpt>
      <trkpt lat="43.76291" lon="7.1232">
        <ele>688.79998779297</ele>
        <time>2019-07-25T09:16:51.000Z</time>
      </trkpt>
      <trkpt lat="43.7629" lon="7.12321">
        <ele>688.59997558594</ele>
        <time>2019-07-25T09:16:59.000Z</time>
      </trkpt>
      <trkpt lat="43.76289" lon="7.12321">
        <ele>688.59997558594</ele>
        <time>2019-07-25T09:17:17.000Z</time>
      </trkpt>
      <trkpt lat="43.76289" lon="7.1232">
        <ele>688.40002441406</ele>
        <time>2019-07-25T09:17:38.000Z</time>
      </trkpt>
      <trkpt lat="43.76289" lon="7.12322">
        <ele>688.20001220703</ele>
        <time>2019-07-25T09:17:55.000Z</time>
      </trkpt>
      <trkpt lat="43.76288" lon="7.12323">
        <ele>688.20001220703</ele>
        <time>2019-07-25T09:18:04.000Z</time>
      </trkpt>
      <trkpt lat="43.76288" lon="7.12324">
        <ele>688.40002441406</ele>
        <time>2019-07-25T09:18:16.000Z</time>
      </trkpt>
      <trkpt lat="43.76288" lon="7.12325">
        <ele>687.79998779297</ele>
        <time>2019-07-25T09:18:23.000Z</time>
      </trkpt>
      <trkpt lat="43.76288" lon="7.12326">
        <ele>687.79998779297</ele>
        <time>2019-07-25T09:18:35.000Z</time>
      </trkpt>
      <trkpt lat="43.76288" lon="7.12326">
        <ele>687.79998779297</ele>
        <time>2019-07-25T09:18:45.000Z</time>
      </trkpt>
      <trkpt lat="43.76291" lon="7.12328">
        <ele>687.59997558594</ele>
        <time>2019-07-25T09:18:51.000Z</time>
      </trkpt>
      <trkpt lat="43.76294" lon="7.12332">
        <ele>687</ele>
        <time>2019-07-25T09:18:56.000Z</time>
      </trkpt>
      <trkpt lat="43.76295" lon="7.12334">
        <ele>686.59997558594</ele>
        <time>2019-07-25T09:18:57.000Z</time>
      </trkpt>
      <trkpt lat="43.76294" lon="7.12338">
        <ele>686</ele>
        <time>2019-07-25T09:19:01.000Z</time>
      </trkpt>
      <trkpt lat="43.76293" lon="7.12338">
        <ele>685.40002441406</ele>
        <time>2019-07-25T09:19:03.000Z</time>
      </trkpt>
      <trkpt lat="43.76288" lon="7.12338">
        <ele>685</ele>
        <time>2019-07-25T09:19:06.000Z</time>
      </trkpt>
      <trkpt lat="43.7628" lon="7.12338">
        <ele>684.20001220703</ele>
        <time>2019-07-25T09:19:10.000Z</time>
      </trkpt>
      <trkpt lat="43.76265" lon="7.12335">
        <ele>683.59997558594</ele>
        <time>2019-07-25T09:19:15.000Z</time>
      </trkpt>
      <trkpt lat="43.76262" lon="7.12335">
        <ele>683.20001220703</ele>
        <time>2019-07-25T09:19:16.000Z</time>
      </trkpt>
      <trkpt lat="43.76252" lon="7.12335">
        <ele>682.20001220703</ele>
        <time>2019-07-25T09:19:19.000Z</time>
      </trkpt>
      <trkpt lat="43.76249" lon="7.12334">
        <ele>682</ele>
        <time>2019-07-25T09:19:20.000Z</time>
      </trkpt>
      <trkpt lat="43.76237" lon="7.12334">
        <ele>681.20001220703</ele>
        <time>2019-07-25T09:19:24.000Z</time>
      </trkpt>
      <trkpt lat="43.76224" lon="7.12335">
        <ele>680.59997558594</ele>
        <time>2019-07-25T09:19:28.000Z</time>
      </trkpt>
      <trkpt lat="43.76215" lon="7.12339">
        <ele>680</ele>
        <time>2019-07-25T09:19:31.000Z</time>
      </trkpt>
      <trkpt lat="43.76209" lon="7.12343">
        <ele>679.79998779297</ele>
        <time>2019-07-25T09:19:33.000Z</time>
      </trkpt>
      <trkpt lat="43.76204" lon="7.12346">
        <ele>679.79998779297</ele>
        <time>2019-07-25T09:19:37.000Z</time>
      </trkpt>
      <trkpt lat="43.76201" lon="7.12349">
        <ele>679.59997558594</ele>
        <time>2019-07-25T09:19:47.000Z</time>
      </trkpt>
      <trkpt lat="43.76192" lon="7.12353">
        <ele>679.40002441406</ele>
        <time>2019-07-25T09:19:51.000Z</time>
      </trkpt>
      <trkpt lat="43.7619" lon="7.12353">
        <ele>679.40002441406</ele>
        <time>2019-07-25T09:19:52.000Z</time>
      </trkpt>
      <trkpt lat="43.76184" lon="7.12352">
        <ele>679.20001220703</ele>
        <time>2019-07-25T09:19:55.000Z</time>
      </trkpt>
      <trkpt lat="43.76173" lon="7.12352">
        <ele>679.79998779297</ele>
        <time>2019-07-25T09:20:01.000Z</time>
      </trkpt>
      <trkpt lat="43.76172" lon="7.12352">
        <ele>679.79998779297</ele>
        <time>2019-07-25T09:20:05.000Z</time>
      </trkpt>
      <trkpt lat="43.76172" lon="7.12352">
        <ele>679.79998779297</ele>
        <time>2019-07-25T09:20:11.000Z</time>
      </trkpt>
      <trkpt lat="43.76172" lon="7.12355">
        <ele>679.59997558594</ele>
        <time>2019-07-25T09:20:24.000Z</time>
      </trkpt>
      <trkpt lat="43.76172" lon="7.12355">
        <ele>679.79998779297</ele>
        <time>2019-07-25T09:20:33.000Z</time>
      </trkpt>
      <trkpt lat="43.76172" lon="7.12356">
        <ele>679.79998779297</ele>
        <time>2019-07-25T09:20:44.000Z</time>
      </trkpt>
      <trkpt lat="43.76171" lon="7.12358">
        <ele>679.79998779297</ele>
        <time>2019-07-25T09:20:50.000Z</time>
      </trkpt>
      <trkpt lat="43.76174" lon="7.1236">
        <ele>679</ele>
        <time>2019-07-25T09:20:57.000Z</time>
      </trkpt>
      <trkpt lat="43.76174" lon="7.1236">
        <ele>679</ele>
        <time>2019-07-25T09:20:58.000Z</time>
      </trkpt>
      <trkpt lat="43.76178" lon="7.12364">
        <ele>678.20001220703</ele>
        <time>2019-07-25T09:21:04.000Z</time>
      </trkpt>
      <trkpt lat="43.76183" lon="7.12366">
        <ele>677.79998779297</ele>
        <time>2019-07-25T09:21:07.000Z</time>
      </trkpt>
      <trkpt lat="43.76185" lon="7.12366">
        <ele>677.40002441406</ele>
        <time>2019-07-25T09:21:09.000Z</time>
      </trkpt>
      <trkpt lat="43.76186" lon="7.12369">
        <ele>676.79998779297</ele>
        <time>2019-07-25T09:21:12.000Z</time>
      </trkpt>
      <trkpt lat="43.76186" lon="7.1237">
        <ele>675.79998779297</ele>
        <time>2019-07-25T09:21:15.000Z</time>
      </trkpt>
      <trkpt lat="43.76186" lon="7.12372">
        <ele>675.40002441406</ele>
        <time>2019-07-25T09:21:17.000Z</time>
      </trkpt>
      <trkpt lat="43.76187" lon="7.12374">
        <ele>675</ele>
        <time>2019-07-25T09:21:21.000Z</time>
      </trkpt>
      <trkpt lat="43.76186" lon="7.12378">
        <ele>674.59997558594</ele>
        <time>2019-07-25T09:21:27.000Z</time>
      </trkpt>
      <trkpt lat="43.76187" lon="7.12379">
        <ele>674.20001220703</ele>
        <time>2019-07-25T09:21:29.000Z</time>
      </trkpt>
      <trkpt lat="43.7619" lon="7.12383">
        <ele>673.20001220703</ele>
        <time>2019-07-25T09:21:34.000Z</time>
      </trkpt>
      <trkpt lat="43.76191" lon="7.12385">
        <ele>672</ele>
        <time>2019-07-25T09:21:38.000Z</time>
      </trkpt>
      <trkpt lat="43.7619" lon="7.12386">
        <ele>671.40002441406</ele>
        <time>2019-07-25T09:21:42.000Z</time>
      </trkpt>
      <trkpt lat="43.7619" lon="7.12392">
        <ele>670.59997558594</ele>
        <time>2019-07-25T09:21:48.000Z</time>
      </trkpt>
      <trkpt lat="43.7619" lon="7.12393">
        <ele>670</ele>
        <time>2019-07-25T09:21:50.000Z</time>
      </trkpt>
      <trkpt lat="43.76192" lon="7.12395">
        <ele>669.40002441406</ele>
        <time>2019-07-25T09:21:54.000Z</time>
      </trkpt>
      <trkpt lat="43.76194" lon="7.12396">
        <ele>669</ele>
        <time>2019-07-25T09:21:56.000Z</time>
      </trkpt>
      <trkpt lat="43.76195" lon="7.12397">
        <ele>668.40002441406</ele>
        <time>2019-07-25T09:21:57.000Z</time>
      </trkpt>
      <trkpt lat="43.76198" lon="7.12401">
        <ele>667</ele>
        <time>2019-07-25T09:22:01.000Z</time>
      </trkpt>
      <trkpt lat="43.76198" lon="7.12402">
        <ele>666</ele>
        <time>2019-07-25T09:22:09.000Z</time>
      </trkpt>
      <trkpt lat="43.76198" lon="7.12403">
        <ele>665.79998779297</ele>
        <time>2019-07-25T09:22:10.000Z</time>
      </trkpt>
      <trkpt lat="43.76199" lon="7.12406">
        <ele>665.20001220703</ele>
        <time>2019-07-25T09:22:15.000Z</time>
      </trkpt>
      <trkpt lat="43.76201" lon="7.12407">
        <ele>664.79998779297</ele>
        <time>2019-07-25T09:22:23.000Z</time>
      </trkpt>
      <trkpt lat="43.76202" lon="7.1241">
        <ele>664.40002441406</ele>
        <time>2019-07-25T09:22:29.000Z</time>
      </trkpt>
      <trkpt lat="43.76201" lon="7.1241">
        <ele>663.79998779297</ele>
        <time>2019-07-25T09:22:33.000Z</time>
      </trkpt>
      <trkpt lat="43.762" lon="7.12411">
        <ele>663.20001220703</ele>
        <time>2019-07-25T09:22:37.000Z</time>
      </trkpt>
      <trkpt lat="43.76199" lon="7.12413">
        <ele>662.59997558594</ele>
        <time>2019-07-25T09:22:41.000Z</time>
      </trkpt>
      <trkpt lat="43.76198" lon="7.12413">
        <ele>662.20001220703</ele>
        <time>2019-07-25T09:22:44.000Z</time>
      </trkpt>
      <trkpt lat="43.76198" lon="7.12414">
        <ele>661.59997558594</ele>
        <time>2019-07-25T09:22:47.000Z</time>
      </trkpt>
      <trkpt lat="43.76197" lon="7.12415">
        <ele>661.20001220703</ele>
        <time>2019-07-25T09:22:49.000Z</time>
      </trkpt>
      <trkpt lat="43.76196" lon="7.12416">
        <ele>661.20001220703</ele>
        <time>2019-07-25T09:22:54.000Z</time>
      </trkpt>
      <trkpt lat="43.76195" lon="7.12416">
        <ele>661</ele>
        <time>2019-07-25T09:23:00.000Z</time>
      </trkpt>
      <trkpt lat="43.76192" lon="7.12414">
        <ele>661</ele>
        <time>2019-07-25T09:23:02.000Z</time>
      </trkpt>
      <trkpt lat="43.76186" lon="7.12412">
        <ele>660.59997558594</ele>
        <time>2019-07-25T09:23:05.000Z</time>
      </trkpt>
      <trkpt lat="43.76181" lon="7.1241">
        <ele>659.20001220703</ele>
        <time>2019-07-25T09:23:08.000Z</time>
      </trkpt>
      <trkpt lat="43.76177" lon="7.12408">
        <ele>658</ele>
        <time>2019-07-25T09:23:11.000Z</time>
      </trkpt>
      <trkpt lat="43.76173" lon="7.12408">
        <ele>657.40002441406</ele>
        <time>2019-07-25T09:23:13.000Z</time>
      </trkpt>
      <trkpt lat="43.76172" lon="7.12409">
        <ele>657.20001220703</ele>
        <time>2019-07-25T09:23:14.000Z</time>
      </trkpt>
      <trkpt lat="43.76171" lon="7.12409">
        <ele>656.79998779297</ele>
        <time>2019-07-25T09:23:15.000Z</time>
      </trkpt>
      <trkpt lat="43.76169" lon="7.12409">
        <ele>656</ele>
        <time>2019-07-25T09:23:17.000Z</time>
      </trkpt>
      <trkpt lat="43.76168" lon="7.12409">
        <ele>655.59997558594</ele>
        <time>2019-07-25T09:23:18.000Z</time>
      </trkpt>
      <trkpt lat="43.76166" lon="7.12409">
        <ele>655.20001220703</ele>
        <time>2019-07-25T09:23:20.000Z</time>
      </trkpt>
      <trkpt lat="43.76161" lon="7.12408">
        <ele>654.40002441406</ele>
        <time>2019-07-25T09:23:22.000Z</time>
      </trkpt>
      <trkpt lat="43.76153" lon="7.12406">
        <ele>653.40002441406</ele>
        <time>2019-07-25T09:23:25.000Z</time>
      </trkpt>
      <trkpt lat="43.7615" lon="7.12407">
        <ele>653</ele>
        <time>2019-07-25T09:23:26.000Z</time>
      </trkpt>
      <trkpt lat="43.76147" lon="7.12407">
        <ele>652.40002441406</ele>
        <time>2019-07-25T09:23:28.000Z</time>
      </trkpt>
      <trkpt lat="43.76145" lon="7.12409">
        <ele>652.20001220703</ele>
        <time>2019-07-25T09:23:29.000Z</time>
      </trkpt>
      <trkpt lat="43.76146" lon="7.12411">
        <ele>651.40002441406</ele>
        <time>2019-07-25T09:23:31.000Z</time>
      </trkpt>
      <trkpt lat="43.76148" lon="7.12412">
        <ele>651</ele>
        <time>2019-07-25T09:23:32.000Z</time>
      </trkpt>
      <trkpt lat="43.76156" lon="7.12414">
        <ele>649.59997558594</ele>
        <time>2019-07-25T09:23:35.000Z</time>
      </trkpt>
      <trkpt lat="43.76159" lon="7.12417">
        <ele>649</ele>
        <time>2019-07-25T09:23:37.000Z</time>
      </trkpt>
      <trkpt lat="43.76161" lon="7.12418">
        <ele>648.40002441406</ele>
        <time>2019-07-25T09:23:38.000Z</time>
      </trkpt>
      <trkpt lat="43.76165" lon="7.12422">
        <ele>648.20001220703</ele>
        <time>2019-07-25T09:23:40.000Z</time>
      </trkpt>
      <trkpt lat="43.76169" lon="7.12426">
        <ele>647.40002441406</ele>
        <time>2019-07-25T09:23:42.000Z</time>
      </trkpt>
      <trkpt lat="43.76174" lon="7.12431">
        <ele>646.20001220703</ele>
        <time>2019-07-25T09:23:44.000Z</time>
      </trkpt>
      <trkpt lat="43.76175" lon="7.12434">
        <ele>645.79998779297</ele>
        <time>2019-07-25T09:23:45.000Z</time>
      </trkpt>
      <trkpt lat="43.76174" lon="7.12436">
        <ele>645</ele>
        <time>2019-07-25T09:23:47.000Z</time>
      </trkpt>
      <trkpt lat="43.76172" lon="7.12435">
        <ele>644.79998779297</ele>
        <time>2019-07-25T09:23:48.000Z</time>
      </trkpt>
      <trkpt lat="43.76163" lon="7.12432">
        <ele>643.59997558594</ele>
        <time>2019-07-25T09:23:52.000Z</time>
      </trkpt>
      <trkpt lat="43.76155" lon="7.12432">
        <ele>642.20001220703</ele>
        <time>2019-07-25T09:23:55.000Z</time>
      </trkpt>
      <trkpt lat="43.76152" lon="7.12433">
        <ele>641.40002441406</ele>
        <time>2019-07-25T09:23:57.000Z</time>
      </trkpt>
      <trkpt lat="43.76151" lon="7.12434">
        <ele>641</ele>
        <time>2019-07-25T09:23:58.000Z</time>
      </trkpt>
      <trkpt lat="43.76151" lon="7.12435">
        <ele>640.79998779297</ele>
        <time>2019-07-25T09:23:59.000Z</time>
      </trkpt>
      <trkpt lat="43.76151" lon="7.12436">
        <ele>640.20001220703</ele>
        <time>2019-07-25T09:24:00.000Z</time>
      </trkpt>
      <trkpt lat="43.76152" lon="7.12436">
        <ele>640</ele>
        <time>2019-07-25T09:24:01.000Z</time>
      </trkpt>
      <trkpt lat="43.76154" lon="7.12437">
        <ele>639.59997558594</ele>
        <time>2019-07-25T09:24:03.000Z</time>
      </trkpt>
      <trkpt lat="43.76157" lon="7.12439">
        <ele>639.40002441406</ele>
        <time>2019-07-25T09:24:05.000Z</time>
      </trkpt>
      <trkpt lat="43.76161" lon="7.12441">
        <ele>638.79998779297</ele>
        <time>2019-07-25T09:24:07.000Z</time>
      </trkpt>
      <trkpt lat="43.76164" lon="7.12443">
        <ele>638.40002441406</ele>
        <time>2019-07-25T09:24:09.000Z</time>
      </trkpt>
      <trkpt lat="43.76164" lon="7.12443">
        <ele>638.20001220703</ele>
        <time>2019-07-25T09:24:10.000Z</time>
      </trkpt>
      <trkpt lat="43.76164" lon="7.12443">
        <ele>637.79998779297</ele>
        <time>2019-07-25T09:24:12.000Z</time>
      </trkpt>
      <trkpt lat="43.76164" lon="7.12444">
        <ele>637.20001220703</ele>
        <time>2019-07-25T09:24:15.000Z</time>
      </trkpt>
      <trkpt lat="43.76162" lon="7.12446">
        <ele>636.79998779297</ele>
        <time>2019-07-25T09:24:21.000Z</time>
      </trkpt>
      <trkpt lat="43.76163" lon="7.12448">
        <ele>636.59997558594</ele>
        <time>2019-07-25T09:24:22.000Z</time>
      </trkpt>
      <trkpt lat="43.76162" lon="7.12449">
        <ele>636.40002441406</ele>
        <time>2019-07-25T09:24:24.000Z</time>
      </trkpt>
      <trkpt lat="43.76152" lon="7.12451">
        <ele>636</ele>
        <time>2019-07-25T09:24:28.000Z</time>
      </trkpt>
      <trkpt lat="43.76148" lon="7.12452">
        <ele>635.40002441406</ele>
        <time>2019-07-25T09:24:29.000Z</time>
      </trkpt>
      <trkpt lat="43.76141" lon="7.12451">
        <ele>634.20001220703</ele>
        <time>2019-07-25T09:24:31.000Z</time>
      </trkpt>
      <trkpt lat="43.76139" lon="7.1245">
        <ele>633.59997558594</ele>
        <time>2019-07-25T09:24:32.000Z</time>
      </trkpt>
      <trkpt lat="43.76136" lon="7.12448">
        <ele>633</ele>
        <time>2019-07-25T09:24:33.000Z</time>
      </trkpt>
      <trkpt lat="43.76129" lon="7.12445">
        <ele>632</ele>
        <time>2019-07-25T09:24:35.000Z</time>
      </trkpt>
      <trkpt lat="43.76119" lon="7.12442">
        <ele>631.40002441406</ele>
        <time>2019-07-25T09:24:37.000Z</time>
      </trkpt>
      <trkpt lat="43.76116" lon="7.12441">
        <ele>630.79998779297</ele>
        <time>2019-07-25T09:24:38.000Z</time>
      </trkpt>
      <trkpt lat="43.76112" lon="7.12442">
        <ele>629.79998779297</ele>
        <time>2019-07-25T09:24:40.000Z</time>
      </trkpt>
      <trkpt lat="43.76112" lon="7.12442">
        <ele>629.20001220703</ele>
        <time>2019-07-25T09:24:41.000Z</time>
      </trkpt>
      <trkpt lat="43.76112" lon="7.12443">
        <ele>628.79998779297</ele>
        <time>2019-07-25T09:24:43.000Z</time>
      </trkpt>
      <trkpt lat="43.76119" lon="7.12446">
        <ele>628</ele>
        <time>2019-07-25T09:24:49.000Z</time>
      </trkpt>
      <trkpt lat="43.76121" lon="7.12449">
        <ele>627</ele>
        <time>2019-07-25T09:24:51.000Z</time>
      </trkpt>
      <trkpt lat="43.76127" lon="7.12455">
        <ele>626.20001220703</ele>
        <time>2019-07-25T09:24:54.000Z</time>
      </trkpt>
      <trkpt lat="43.76132" lon="7.12457">
        <ele>625.59997558594</ele>
        <time>2019-07-25T09:24:56.000Z</time>
      </trkpt>
      <trkpt lat="43.76134" lon="7.12458">
        <ele>624.59997558594</ele>
        <time>2019-07-25T09:24:59.000Z</time>
      </trkpt>
      <trkpt lat="43.76134" lon="7.12458">
        <ele>624.40002441406</ele>
        <time>2019-07-25T09:25:00.000Z</time>
      </trkpt>
      <trkpt lat="43.76133" lon="7.12459">
        <ele>623.79998779297</ele>
        <time>2019-07-25T09:25:05.000Z</time>
      </trkpt>
      <trkpt lat="43.76132" lon="7.12459">
        <ele>623.59997558594</ele>
        <time>2019-07-25T09:25:21.000Z</time>
      </trkpt>
      <trkpt lat="43.76127" lon="7.12459">
        <ele>623.20001220703</ele>
        <time>2019-07-25T09:25:27.000Z</time>
      </trkpt>
      <trkpt lat="43.76124" lon="7.12459">
        <ele>622</ele>
        <time>2019-07-25T09:25:32.000Z</time>
      </trkpt>
      <trkpt lat="43.76123" lon="7.12459">
        <ele>621.20001220703</ele>
        <time>2019-07-25T09:25:37.000Z</time>
      </trkpt>
      <trkpt lat="43.76123" lon="7.1246">
        <ele>621</ele>
        <time>2019-07-25T09:25:40.000Z</time>
      </trkpt>
      <trkpt lat="43.76125" lon="7.12462">
        <ele>620.79998779297</ele>
        <time>2019-07-25T09:25:42.000Z</time>
      </trkpt>
      <trkpt lat="43.76132" lon="7.12472">
        <ele>619.59997558594</ele>
        <time>2019-07-25T09:25:48.000Z</time>
      </trkpt>
      <trkpt lat="43.76133" lon="7.12476">
        <ele>618</ele>
        <time>2019-07-25T09:25:51.000Z</time>
      </trkpt>
      <trkpt lat="43.76133" lon="7.12479">
        <ele>616.79998779297</ele>
        <time>2019-07-25T09:25:53.000Z</time>
      </trkpt>
      <trkpt lat="43.76133" lon="7.1248">
        <ele>615.40002441406</ele>
        <time>2019-07-25T09:25:55.000Z</time>
      </trkpt>
      <trkpt lat="43.76134" lon="7.12482">
        <ele>613.79998779297</ele>
        <time>2019-07-25T09:25:58.000Z</time>
      </trkpt>
      <trkpt lat="43.76134" lon="7.12484">
        <ele>613.40002441406</ele>
        <time>2019-07-25T09:25:59.000Z</time>
      </trkpt>
      <trkpt lat="43.76137" lon="7.12489">
        <ele>612.79998779297</ele>
        <time>2019-07-25T09:26:01.000Z</time>
      </trkpt>
      <trkpt lat="43.7614" lon="7.12493">
        <ele>612</ele>
        <time>2019-07-25T09:26:03.000Z</time>
      </trkpt>
      <trkpt lat="43.76142" lon="7.12495">
        <ele>611.59997558594</ele>
        <time>2019-07-25T09:26:04.000Z</time>
      </trkpt>
      <trkpt lat="43.76146" lon="7.12498">
        <ele>610.40002441406</ele>
        <time>2019-07-25T09:26:06.000Z</time>
      </trkpt>
      <trkpt lat="43.76151" lon="7.12502">
        <ele>609.20001220703</ele>
        <time>2019-07-25T09:26:08.000Z</time>
      </trkpt>
      <trkpt lat="43.76153" lon="7.12503">
        <ele>608.79998779297</ele>
        <time>2019-07-25T09:26:09.000Z</time>
      </trkpt>
      <trkpt lat="43.76157" lon="7.12507">
        <ele>608.40002441406</ele>
        <time>2019-07-25T09:26:11.000Z</time>
      </trkpt>
      <trkpt lat="43.76157" lon="7.12509">
        <ele>608</ele>
        <time>2019-07-25T09:26:12.000Z</time>
      </trkpt>
      <trkpt lat="43.76157" lon="7.1251">
        <ele>607.40002441406</ele>
        <time>2019-07-25T09:26:13.000Z</time>
      </trkpt>
      <trkpt lat="43.76158" lon="7.12512">
        <ele>607</ele>
        <time>2019-07-25T09:26:14.000Z</time>
      </trkpt>
      <trkpt lat="43.76159" lon="7.12518">
        <ele>605.59997558594</ele>
        <time>2019-07-25T09:26:16.000Z</time>
      </trkpt>
      <trkpt lat="43.7616" lon="7.12521">
        <ele>605.20001220703</ele>
        <time>2019-07-25T09:26:17.000Z</time>
      </trkpt>
      <trkpt lat="43.7616" lon="7.12525">
        <ele>604.59997558594</ele>
        <time>2019-07-25T09:26:18.000Z</time>
      </trkpt>
      <trkpt lat="43.7616" lon="7.1253">
        <ele>603.20001220703</ele>
        <time>2019-07-25T09:26:20.000Z</time>
      </trkpt>
      <trkpt lat="43.7616" lon="7.12533">
        <ele>602.40002441406</ele>
        <time>2019-07-25T09:26:21.000Z</time>
      </trkpt>
      <trkpt lat="43.76161" lon="7.12535">
        <ele>601.79998779297</ele>
        <time>2019-07-25T09:26:22.000Z</time>
      </trkpt>
      <trkpt lat="43.76161" lon="7.12537">
        <ele>600.40002441406</ele>
        <time>2019-07-25T09:26:25.000Z</time>
      </trkpt>
      <trkpt lat="43.76161" lon="7.12538">
        <ele>599.40002441406</ele>
        <time>2019-07-25T09:26:28.000Z</time>
      </trkpt>
      <trkpt lat="43.7616" lon="7.12539">
        <ele>599</ele>
        <time>2019-07-25T09:26:31.000Z</time>
      </trkpt>
      <trkpt lat="43.76158" lon="7.12543">
        <ele>598.20001220703</ele>
        <time>2019-07-25T09:26:36.000Z</time>
      </trkpt>
      <trkpt lat="43.76156" lon="7.12545">
        <ele>597.79998779297</ele>
        <time>2019-07-25T09:26:38.000Z</time>
      </trkpt>
      <trkpt lat="43.76156" lon="7.12546">
        <ele>597.40002441406</ele>
        <time>2019-07-25T09:26:39.000Z</time>
      </trkpt>
      <trkpt lat="43.76155" lon="7.12546">
        <ele>597</ele>
        <time>2019-07-25T09:26:40.000Z</time>
      </trkpt>
      <trkpt lat="43.76154" lon="7.12548">
        <ele>595.79998779297</ele>
        <time>2019-07-25T09:26:43.000Z</time>
      </trkpt>
      <trkpt lat="43.76154" lon="7.12549">
        <ele>595</ele>
        <time>2019-07-25T09:26:45.000Z</time>
      </trkpt>
      <trkpt lat="43.76155" lon="7.1255">
        <ele>594.59997558594</ele>
        <time>2019-07-25T09:26:46.000Z</time>
      </trkpt>
      <trkpt lat="43.76157" lon="7.12556">
        <ele>594.20001220703</ele>
        <time>2019-07-25T09:26:48.000Z</time>
      </trkpt>
      <trkpt lat="43.76159" lon="7.12566">
        <ele>593.59997558594</ele>
        <time>2019-07-25T09:26:51.000Z</time>
      </trkpt>
      <trkpt lat="43.76161" lon="7.12569">
        <ele>593</ele>
        <time>2019-07-25T09:26:52.000Z</time>
      </trkpt>
      <trkpt lat="43.76162" lon="7.12572">
        <ele>592.20001220703</ele>
        <time>2019-07-25T09:26:53.000Z</time>
      </trkpt>
      <trkpt lat="43.76163" lon="7.12576">
        <ele>591</ele>
        <time>2019-07-25T09:26:55.000Z</time>
      </trkpt>
      <trkpt lat="43.76164" lon="7.12579">
        <ele>590.20001220703</ele>
        <time>2019-07-25T09:26:56.000Z</time>
      </trkpt>
      <trkpt lat="43.76164" lon="7.12581">
        <ele>589.79998779297</ele>
        <time>2019-07-25T09:26:57.000Z</time>
      </trkpt>
      <trkpt lat="43.76163" lon="7.12585">
        <ele>588.79998779297</ele>
        <time>2019-07-25T09:26:59.000Z</time>
      </trkpt>
      <trkpt lat="43.76162" lon="7.12585">
        <ele>588.40002441406</ele>
        <time>2019-07-25T09:27:00.000Z</time>
      </trkpt>
      <trkpt lat="43.76161" lon="7.12584">
        <ele>587.59997558594</ele>
        <time>2019-07-25T09:27:02.000Z</time>
      </trkpt>
      <trkpt lat="43.76159" lon="7.12582">
        <ele>587</ele>
        <time>2019-07-25T09:27:04.000Z</time>
      </trkpt>
      <trkpt lat="43.76157" lon="7.12581">
        <ele>586.79998779297</ele>
        <time>2019-07-25T09:27:05.000Z</time>
      </trkpt>
      <trkpt lat="43.76155" lon="7.1258">
        <ele>586.59997558594</ele>
        <time>2019-07-25T09:27:06.000Z</time>
      </trkpt>
      <trkpt lat="43.7615" lon="7.12577">
        <ele>586</ele>
        <time>2019-07-25T09:27:08.000Z</time>
      </trkpt>
      <trkpt lat="43.76147" lon="7.12575">
        <ele>585.59997558594</ele>
        <time>2019-07-25T09:27:09.000Z</time>
      </trkpt>
      <trkpt lat="43.7614" lon="7.12572">
        <ele>584.20001220703</ele>
        <time>2019-07-25T09:27:12.000Z</time>
      </trkpt>
      <trkpt lat="43.76139" lon="7.12572">
        <ele>583.59997558594</ele>
        <time>2019-07-25T09:27:13.000Z</time>
      </trkpt>
      <trkpt lat="43.76138" lon="7.12573">
        <ele>583</ele>
        <time>2019-07-25T09:27:14.000Z</time>
      </trkpt>
      <trkpt lat="43.76138" lon="7.12574">
        <ele>581.59997558594</ele>
        <time>2019-07-25T09:27:16.000Z</time>
      </trkpt>
      <trkpt lat="43.76139" lon="7.12575">
        <ele>581</ele>
        <time>2019-07-25T09:27:17.000Z</time>
      </trkpt>
      <trkpt lat="43.7614" lon="7.12576">
        <ele>580.59997558594</ele>
        <time>2019-07-25T09:27:18.000Z</time>
      </trkpt>
      <trkpt lat="43.76143" lon="7.12584">
        <ele>579.79998779297</ele>
        <time>2019-07-25T09:27:20.000Z</time>
      </trkpt>
      <trkpt lat="43.76145" lon="7.12593">
        <ele>579.20001220703</ele>
        <time>2019-07-25T09:27:22.000Z</time>
      </trkpt>
      <trkpt lat="43.76143" lon="7.12595">
        <ele>578.59997558594</ele>
        <time>2019-07-25T09:27:23.000Z</time>
      </trkpt>
      <trkpt lat="43.7614" lon="7.12597">
        <ele>578</ele>
        <time>2019-07-25T09:27:24.000Z</time>
      </trkpt>
      <trkpt lat="43.76133" lon="7.12602">
        <ele>576.79998779297</ele>
        <time>2019-07-25T09:27:27.000Z</time>
      </trkpt>
      <trkpt lat="43.76129" lon="7.12605">
        <ele>577</ele>
        <time>2019-07-25T09:27:29.000Z</time>
      </trkpt>
      <trkpt lat="43.76119" lon="7.12613">
        <ele>577.79998779297</ele>
        <time>2019-07-25T09:27:33.000Z</time>
      </trkpt>
      <trkpt lat="43.76116" lon="7.12622">
        <ele>578</ele>
        <time>2019-07-25T09:27:37.000Z</time>
      </trkpt>
      <trkpt lat="43.76114" lon="7.12627">
        <ele>578.40002441406</ele>
        <time>2019-07-25T09:27:41.000Z</time>
      </trkpt>
      <trkpt lat="43.76113" lon="7.12631">
        <ele>578</ele>
        <time>2019-07-25T09:27:43.000Z</time>
      </trkpt>
      <trkpt lat="43.76115" lon="7.12636">
        <ele>577.59997558594</ele>
        <time>2019-07-25T09:27:45.000Z</time>
      </trkpt>
      <trkpt lat="43.7612" lon="7.12652">
        <ele>576.79998779297</ele>
        <time>2019-07-25T09:27:49.000Z</time>
      </trkpt>
      <trkpt lat="43.7612" lon="7.12657">
        <ele>576.40002441406</ele>
        <time>2019-07-25T09:27:50.000Z</time>
      </trkpt>
      <trkpt lat="43.76119" lon="7.12667">
        <ele>575.40002441406</ele>
        <time>2019-07-25T09:27:52.000Z</time>
      </trkpt>
      <trkpt lat="43.76116" lon="7.12686">
        <ele>574.59997558594</ele>
        <time>2019-07-25T09:27:56.000Z</time>
      </trkpt>
      <trkpt lat="43.76114" lon="7.12689">
        <ele>574.20001220703</ele>
        <time>2019-07-25T09:27:57.000Z</time>
      </trkpt>
      <trkpt lat="43.76111" lon="7.12698">
        <ele>573.40002441406</ele>
        <time>2019-07-25T09:27:59.000Z</time>
      </trkpt>
      <trkpt lat="43.7611" lon="7.12703">
        <ele>573</ele>
        <time>2019-07-25T09:28:00.000Z</time>
      </trkpt>
      <trkpt lat="43.7611" lon="7.1271">
        <ele>571.79998779297</ele>
        <time>2019-07-25T09:28:02.000Z</time>
      </trkpt>
      <trkpt lat="43.76104" lon="7.12716">
        <ele>571.79998779297</ele>
        <time>2019-07-25T09:28:05.000Z</time>
      </trkpt>
      <trkpt lat="43.76101" lon="7.12717">
        <ele>572</ele>
        <time>2019-07-25T09:28:06.000Z</time>
      </trkpt>
      <trkpt lat="43.76098" lon="7.12719">
        <ele>571.79998779297</ele>
        <time>2019-07-25T09:28:08.000Z</time>
      </trkpt>
      <trkpt lat="43.7609" lon="7.12722">
        <ele>570.40002441406</ele>
        <time>2019-07-25T09:28:11.000Z</time>
      </trkpt>
      <trkpt lat="43.76087" lon="7.12724">
        <ele>570.20001220703</ele>
        <time>2019-07-25T09:28:12.000Z</time>
      </trkpt>
      <trkpt lat="43.76081" lon="7.1273">
        <ele>569.40002441406</ele>
        <time>2019-07-25T09:28:14.000Z</time>
      </trkpt>
      <trkpt lat="43.76073" lon="7.12735">
        <ele>568.20001220703</ele>
        <time>2019-07-25T09:28:17.000Z</time>
      </trkpt>
      <trkpt lat="43.7607" lon="7.12732">
        <ele>567.20001220703</ele>
        <time>2019-07-25T09:28:19.000Z</time>
      </trkpt>
      <trkpt lat="43.76069" lon="7.12732">
        <ele>566.20001220703</ele>
        <time>2019-07-25T09:28:20.000Z</time>
      </trkpt>
      <trkpt lat="43.76067" lon="7.12733">
        <ele>565.59997558594</ele>
        <time>2019-07-25T09:28:21.000Z</time>
      </trkpt>
      <trkpt lat="43.7606" lon="7.12735">
        <ele>564.59997558594</ele>
        <time>2019-07-25T09:28:23.000Z</time>
      </trkpt>
      <trkpt lat="43.76052" lon="7.12739">
        <ele>563</ele>
        <time>2019-07-25T09:28:26.000Z</time>
      </trkpt>
      <trkpt lat="43.76049" lon="7.12741">
        <ele>562.40002441406</ele>
        <time>2019-07-25T09:28:27.000Z</time>
      </trkpt>
      <trkpt lat="43.76046" lon="7.12742">
        <ele>561.59997558594</ele>
        <time>2019-07-25T09:28:28.000Z</time>
      </trkpt>
      <trkpt lat="43.76041" lon="7.12742">
        <ele>560</ele>
        <time>2019-07-25T09:28:30.000Z</time>
      </trkpt>
      <trkpt lat="43.76039" lon="7.1274">
        <ele>559.40002441406</ele>
        <time>2019-07-25T09:28:31.000Z</time>
      </trkpt>
      <trkpt lat="43.7604" lon="7.12738">
        <ele>558.79998779297</ele>
        <time>2019-07-25T09:28:32.000Z</time>
      </trkpt>
      <trkpt lat="43.76043" lon="7.12735">
        <ele>557.79998779297</ele>
        <time>2019-07-25T09:28:34.000Z</time>
      </trkpt>
      <trkpt lat="43.76044" lon="7.12733">
        <ele>557.40002441406</ele>
        <time>2019-07-25T09:28:35.000Z</time>
      </trkpt>
      <trkpt lat="43.76045" lon="7.12728">
        <ele>556.59997558594</ele>
        <time>2019-07-25T09:28:37.000Z</time>
      </trkpt>
      <trkpt lat="43.76047" lon="7.12726">
        <ele>556.20001220703</ele>
        <time>2019-07-25T09:28:38.000Z</time>
      </trkpt>
      <trkpt lat="43.76049" lon="7.12723">
        <ele>555.20001220703</ele>
        <time>2019-07-25T09:28:40.000Z</time>
      </trkpt>
      <trkpt lat="43.76048" lon="7.12722">
        <ele>554.79998779297</ele>
        <time>2019-07-25T09:28:41.000Z</time>
      </trkpt>
      <trkpt lat="43.76048" lon="7.12722">
        <ele>554.79998779297</ele>
        <time>2019-07-25T09:28:42.000Z</time>
      </trkpt>
      <trkpt lat="43.76046" lon="7.12723">
        <ele>554.20001220703</ele>
        <time>2019-07-25T09:28:43.000Z</time>
      </trkpt>
      <trkpt lat="43.76044" lon="7.12723">
        <ele>554</ele>
        <time>2019-07-25T09:28:44.000Z</time>
      </trkpt>
      <trkpt lat="43.76041" lon="7.12722">
        <ele>553.59997558594</ele>
        <time>2019-07-25T09:28:46.000Z</time>
      </trkpt>
      <trkpt lat="43.76037" lon="7.1272">
        <ele>553.20001220703</ele>
        <time>2019-07-25T09:28:48.000Z</time>
      </trkpt>
      <trkpt lat="43.76037" lon="7.12717">
        <ele>552.59997558594</ele>
        <time>2019-07-25T09:28:49.000Z</time>
      </trkpt>
      <trkpt lat="43.76038" lon="7.12714">
        <ele>552.20001220703</ele>
        <time>2019-07-25T09:28:50.000Z</time>
      </trkpt>
      <trkpt lat="43.76039" lon="7.1271">
        <ele>551.40002441406</ele>
        <time>2019-07-25T09:28:51.000Z</time>
      </trkpt>
      <trkpt lat="43.76042" lon="7.12704">
        <ele>549.79998779297</ele>
        <time>2019-07-25T09:28:53.000Z</time>
      </trkpt>
      <trkpt lat="43.76042" lon="7.12701">
        <ele>549.20001220703</ele>
        <time>2019-07-25T09:28:54.000Z</time>
      </trkpt>
      <trkpt lat="43.76042" lon="7.12699">
        <ele>548.59997558594</ele>
        <time>2019-07-25T09:28:55.000Z</time>
      </trkpt>
      <trkpt lat="43.7604" lon="7.12696">
        <ele>547.40002441406</ele>
        <time>2019-07-25T09:28:57.000Z</time>
      </trkpt>
      <trkpt lat="43.76036" lon="7.12698">
        <ele>546</ele>
        <time>2019-07-25T09:29:00.000Z</time>
      </trkpt>
      <trkpt lat="43.76029" lon="7.12704">
        <ele>544.79998779297</ele>
        <time>2019-07-25T09:29:02.000Z</time>
      </trkpt>
      <trkpt lat="43.76027" lon="7.12706">
        <ele>544.40002441406</ele>
        <time>2019-07-25T09:29:03.000Z</time>
      </trkpt>
      <trkpt lat="43.76024" lon="7.12705">
        <ele>543.79998779297</ele>
        <time>2019-07-25T09:29:05.000Z</time>
      </trkpt>
      <trkpt lat="43.76023" lon="7.12704">
        <ele>543.59997558594</ele>
        <time>2019-07-25T09:29:06.000Z</time>
      </trkpt>
      <trkpt lat="43.76025" lon="7.12699">
        <ele>542.79998779297</ele>
        <time>2019-07-25T09:29:09.000Z</time>
      </trkpt>
      <trkpt lat="43.76026" lon="7.12696">
        <ele>542.40002441406</ele>
        <time>2019-07-25T09:29:10.000Z</time>
      </trkpt>
      <trkpt lat="43.76024" lon="7.12693">
        <ele>541.59997558594</ele>
        <time>2019-07-25T09:29:12.000Z</time>
      </trkpt>
      <trkpt lat="43.76022" lon="7.12694">
        <ele>541.20001220703</ele>
        <time>2019-07-25T09:29:13.000Z</time>
      </trkpt>
      <trkpt lat="43.76017" lon="7.12697">
        <ele>540.20001220703</ele>
        <time>2019-07-25T09:29:15.000Z</time>
      </trkpt>
      <trkpt lat="43.76009" lon="7.12699">
        <ele>539.40002441406</ele>
        <time>2019-07-25T09:29:17.000Z</time>
      </trkpt>
      <trkpt lat="43.76007" lon="7.12701">
        <ele>539.20001220703</ele>
        <time>2019-07-25T09:29:18.000Z</time>
      </trkpt>
      <trkpt lat="43.76003" lon="7.12704">
        <ele>538.40002441406</ele>
        <time>2019-07-25T09:29:20.000Z</time>
      </trkpt>
      <trkpt lat="43.76001" lon="7.12704">
        <ele>537.79998779297</ele>
        <time>2019-07-25T09:29:21.000Z</time>
      </trkpt>
      <trkpt lat="43.75999" lon="7.127">
        <ele>536.79998779297</ele>
        <time>2019-07-25T09:29:23.000Z</time>
      </trkpt>
      <trkpt lat="43.76001" lon="7.12695">
        <ele>535.59997558594</ele>
        <time>2019-07-25T09:29:25.000Z</time>
      </trkpt>
      <trkpt lat="43.76002" lon="7.12689">
        <ele>535</ele>
        <time>2019-07-25T09:29:27.000Z</time>
      </trkpt>
      <trkpt lat="43.76001" lon="7.12688">
        <ele>534.40002441406</ele>
        <time>2019-07-25T09:29:28.000Z</time>
      </trkpt>
      <trkpt lat="43.75998" lon="7.12689">
        <ele>533.40002441406</ele>
        <time>2019-07-25T09:29:30.000Z</time>
      </trkpt>
      <trkpt lat="43.75996" lon="7.12691">
        <ele>533</ele>
        <time>2019-07-25T09:29:31.000Z</time>
      </trkpt>
      <trkpt lat="43.75994" lon="7.12695">
        <ele>531.79998779297</ele>
        <time>2019-07-25T09:29:34.000Z</time>
      </trkpt>
      <trkpt lat="43.75992" lon="7.12697">
        <ele>531.20001220703</ele>
        <time>2019-07-25T09:29:41.000Z</time>
      </trkpt>
      <trkpt lat="43.7599" lon="7.12698">
        <ele>530.79998779297</ele>
        <time>2019-07-25T09:29:45.000Z</time>
      </trkpt>
      <trkpt lat="43.7599" lon="7.12698">
        <ele>530.59997558594</ele>
        <time>2019-07-25T09:29:46.000Z</time>
      </trkpt>
      <trkpt lat="43.75989" lon="7.12695">
        <ele>530.40002441406</ele>
        <time>2019-07-25T09:29:54.000Z</time>
      </trkpt>
      <trkpt lat="43.75989" lon="7.12693">
        <ele>529.59997558594</ele>
        <time>2019-07-25T09:29:58.000Z</time>
      </trkpt>
      <trkpt lat="43.75988" lon="7.12692">
        <ele>529.20001220703</ele>
        <time>2019-07-25T09:30:01.000Z</time>
      </trkpt>
      <trkpt lat="43.75987" lon="7.12691">
        <ele>528.59997558594</ele>
        <time>2019-07-25T09:30:07.000Z</time>
      </trkpt>
      <trkpt lat="43.75986" lon="7.12691">
        <ele>528.40002441406</ele>
        <time>2019-07-25T09:30:09.000Z</time>
      </trkpt>
      <trkpt lat="43.75981" lon="7.12695">
        <ele>528</ele>
        <time>2019-07-25T09:30:14.000Z</time>
      </trkpt>
      <trkpt lat="43.75979" lon="7.12695">
        <ele>527.59997558594</ele>
        <time>2019-07-25T09:30:15.000Z</time>
      </trkpt>
      <trkpt lat="43.75978" lon="7.12694">
        <ele>527.40002441406</ele>
        <time>2019-07-25T09:30:16.000Z</time>
      </trkpt>
      <trkpt lat="43.75974" lon="7.12691">
        <ele>526.40002441406</ele>
        <time>2019-07-25T09:30:19.000Z</time>
      </trkpt>
      <trkpt lat="43.75972" lon="7.1269">
        <ele>526</ele>
        <time>2019-07-25T09:30:20.000Z</time>
      </trkpt>
      <trkpt lat="43.75969" lon="7.12689">
        <ele>525.20001220703</ele>
        <time>2019-07-25T09:30:22.000Z</time>
      </trkpt>
      <trkpt lat="43.75968" lon="7.12688">
        <ele>525</ele>
        <time>2019-07-25T09:30:23.000Z</time>
      </trkpt>
      <trkpt lat="43.75967" lon="7.12686">
        <ele>524.20001220703</ele>
        <time>2019-07-25T09:30:24.000Z</time>
      </trkpt>
      <trkpt lat="43.75968" lon="7.12684">
        <ele>523.59997558594</ele>
        <time>2019-07-25T09:30:25.000Z</time>
      </trkpt>
      <trkpt lat="43.7597" lon="7.12676">
        <ele>521.79998779297</ele>
        <time>2019-07-25T09:30:28.000Z</time>
      </trkpt>
      <trkpt lat="43.75973" lon="7.12672">
        <ele>520.20001220703</ele>
        <time>2019-07-25T09:30:32.000Z</time>
      </trkpt>
      <trkpt lat="43.75973" lon="7.12672">
        <ele>519.20001220703</ele>
        <time>2019-07-25T09:30:35.000Z</time>
      </trkpt>
      <trkpt lat="43.75973" lon="7.1267">
        <ele>518.79998779297</ele>
        <time>2019-07-25T09:30:36.000Z</time>
      </trkpt>
      <trkpt lat="43.75972" lon="7.12666">
        <ele>518.79998779297</ele>
        <time>2019-07-25T09:30:38.000Z</time>
      </trkpt>
      <trkpt lat="43.75969" lon="7.12663">
        <ele>518</ele>
        <time>2019-07-25T09:30:41.000Z</time>
      </trkpt>
      <trkpt lat="43.75967" lon="7.12663">
        <ele>517.59997558594</ele>
        <time>2019-07-25T09:30:42.000Z</time>
      </trkpt>
      <trkpt lat="43.75963" lon="7.12665">
        <ele>516.79998779297</ele>
        <time>2019-07-25T09:30:44.000Z</time>
      </trkpt>
      <trkpt lat="43.75956" lon="7.12666">
        <ele>515.79998779297</ele>
        <time>2019-07-25T09:30:47.000Z</time>
      </trkpt>
      <trkpt lat="43.75956" lon="7.12663">
        <ele>514.79998779297</ele>
        <time>2019-07-25T09:30:50.000Z</time>
      </trkpt>
      <trkpt lat="43.75958" lon="7.12655">
        <ele>513.79998779297</ele>
        <time>2019-07-25T09:30:53.000Z</time>
      </trkpt>
      <trkpt lat="43.7596" lon="7.12652">
        <ele>513.20001220703</ele>
        <time>2019-07-25T09:30:54.000Z</time>
      </trkpt>
      <trkpt lat="43.75961" lon="7.1265">
        <ele>513</ele>
        <time>2019-07-25T09:30:55.000Z</time>
      </trkpt>
      <trkpt lat="43.75961" lon="7.12648">
        <ele>512.59997558594</ele>
        <time>2019-07-25T09:30:56.000Z</time>
      </trkpt>
      <trkpt lat="43.7596" lon="7.12646">
        <ele>512.40002441406</ele>
        <time>2019-07-25T09:30:57.000Z</time>
      </trkpt>
      <trkpt lat="43.75957" lon="7.12646">
        <ele>511.39999389648</ele>
        <time>2019-07-25T09:30:59.000Z</time>
      </trkpt>
      <trkpt lat="43.75953" lon="7.12647">
        <ele>510.79998779297</ele>
        <time>2019-07-25T09:31:01.000Z</time>
      </trkpt>
      <trkpt lat="43.75951" lon="7.12648">
        <ele>510.20001220703</ele>
        <time>2019-07-25T09:31:02.000Z</time>
      </trkpt>
      <trkpt lat="43.75948" lon="7.12649">
        <ele>509</ele>
        <time>2019-07-25T09:31:04.000Z</time>
      </trkpt>
      <trkpt lat="43.75945" lon="7.1265">
        <ele>508.20001220703</ele>
        <time>2019-07-25T09:31:06.000Z</time>
      </trkpt>
      <trkpt lat="43.75943" lon="7.1265">
        <ele>507.79998779297</ele>
        <time>2019-07-25T09:31:07.000Z</time>
      </trkpt>
      <trkpt lat="43.7594" lon="7.12651">
        <ele>506.60000610352</ele>
        <time>2019-07-25T09:31:10.000Z</time>
      </trkpt>
      <trkpt lat="43.75938" lon="7.1265">
        <ele>506.39999389648</ele>
        <time>2019-07-25T09:31:11.000Z</time>
      </trkpt>
      <trkpt lat="43.75935" lon="7.12647">
        <ele>505.20001220703</ele>
        <time>2019-07-25T09:31:13.000Z</time>
      </trkpt>
      <trkpt lat="43.75933" lon="7.12641">
        <ele>503.79998779297</ele>
        <time>2019-07-25T09:31:15.000Z</time>
      </trkpt>
      <trkpt lat="43.75933" lon="7.12638">
        <ele>502.79998779297</ele>
        <time>2019-07-25T09:31:16.000Z</time>
      </trkpt>
      <trkpt lat="43.75933" lon="7.12636">
        <ele>502.20001220703</ele>
        <time>2019-07-25T09:31:17.000Z</time>
      </trkpt>
      <trkpt lat="43.75932" lon="7.12634">
        <ele>501</ele>
        <time>2019-07-25T09:31:18.000Z</time>
      </trkpt>
      <trkpt lat="43.75929" lon="7.12633">
        <ele>500.20001220703</ele>
        <time>2019-07-25T09:31:20.000Z</time>
      </trkpt>
      <trkpt lat="43.75927" lon="7.12632">
        <ele>499.60000610352</ele>
        <time>2019-07-25T09:31:21.000Z</time>
      </trkpt>
      <trkpt lat="43.75925" lon="7.1263">
        <ele>499.20001220703</ele>
        <time>2019-07-25T09:31:22.000Z</time>
      </trkpt>
      <trkpt lat="43.75924" lon="7.12628">
        <ele>498.60000610352</ele>
        <time>2019-07-25T09:31:23.000Z</time>
      </trkpt>
      <trkpt lat="43.75923" lon="7.12623">
        <ele>497.60000610352</ele>
        <time>2019-07-25T09:31:25.000Z</time>
      </trkpt>
      <trkpt lat="43.75924" lon="7.1262">
        <ele>497.20001220703</ele>
        <time>2019-07-25T09:31:26.000Z</time>
      </trkpt>
      <trkpt lat="43.75925" lon="7.12617">
        <ele>496.60000610352</ele>
        <time>2019-07-25T09:31:27.000Z</time>
      </trkpt>
      <trkpt lat="43.75926" lon="7.12614">
        <ele>496</ele>
        <time>2019-07-25T09:31:28.000Z</time>
      </trkpt>
      <trkpt lat="43.75926" lon="7.12612">
        <ele>495.39999389648</ele>
        <time>2019-07-25T09:31:29.000Z</time>
      </trkpt>
      <trkpt lat="43.75924" lon="7.12611">
        <ele>494.79998779297</ele>
        <time>2019-07-25T09:31:31.000Z</time>
      </trkpt>
      <trkpt lat="43.7592" lon="7.12612">
        <ele>494</ele>
        <time>2019-07-25T09:31:33.000Z</time>
      </trkpt>
      <trkpt lat="43.75919" lon="7.12612">
        <ele>493.39999389648</ele>
        <time>2019-07-25T09:31:34.000Z</time>
      </trkpt>
      <trkpt lat="43.75917" lon="7.12606">
        <ele>492</ele>
        <time>2019-07-25T09:31:37.000Z</time>
      </trkpt>
      <trkpt lat="43.75915" lon="7.126">
        <ele>490.79998779297</ele>
        <time>2019-07-25T09:31:40.000Z</time>
      </trkpt>
      <trkpt lat="43.75914" lon="7.126">
        <ele>490.39999389648</ele>
        <time>2019-07-25T09:31:41.000Z</time>
      </trkpt>
      <trkpt lat="43.75912" lon="7.12598">
        <ele>489.60000610352</ele>
        <time>2019-07-25T09:31:42.000Z</time>
      </trkpt>
      <trkpt lat="43.75909" lon="7.126">
        <ele>488.79998779297</ele>
        <time>2019-07-25T09:31:44.000Z</time>
      </trkpt>
      <trkpt lat="43.75908" lon="7.12601">
        <ele>488.20001220703</ele>
        <time>2019-07-25T09:31:45.000Z</time>
      </trkpt>
      <trkpt lat="43.75904" lon="7.12602">
        <ele>487.79998779297</ele>
        <time>2019-07-25T09:31:47.000Z</time>
      </trkpt>
      <trkpt lat="43.75901" lon="7.12602">
        <ele>487.20001220703</ele>
        <time>2019-07-25T09:31:48.000Z</time>
      </trkpt>
      <trkpt lat="43.75895" lon="7.12602">
        <ele>486</ele>
        <time>2019-07-25T09:31:50.000Z</time>
      </trkpt>
      <trkpt lat="43.75892" lon="7.12601">
        <ele>485.60000610352</ele>
        <time>2019-07-25T09:31:51.000Z</time>
      </trkpt>
      <trkpt lat="43.75889" lon="7.12602">
        <ele>484.60000610352</ele>
        <time>2019-07-25T09:31:52.000Z</time>
      </trkpt>
      <trkpt lat="43.75883" lon="7.12605">
        <ele>483</ele>
        <time>2019-07-25T09:31:54.000Z</time>
      </trkpt>
      <trkpt lat="43.75882" lon="7.12605">
        <ele>482.60000610352</ele>
        <time>2019-07-25T09:31:55.000Z</time>
      </trkpt>
      <trkpt lat="43.75877" lon="7.12602">
        <ele>482</ele>
        <time>2019-07-25T09:31:57.000Z</time>
      </trkpt>
      <trkpt lat="43.75873" lon="7.12603">
        <ele>481.20001220703</ele>
        <time>2019-07-25T09:31:59.000Z</time>
      </trkpt>
      <trkpt lat="43.75872" lon="7.12603">
        <ele>480.79998779297</ele>
        <time>2019-07-25T09:32:00.000Z</time>
      </trkpt>
      <trkpt lat="43.75868" lon="7.12603">
        <ele>479.60000610352</ele>
        <time>2019-07-25T09:32:03.000Z</time>
      </trkpt>
      <trkpt lat="43.7586" lon="7.12603">
        <ele>478.39999389648</ele>
        <time>2019-07-25T09:32:07.000Z</time>
      </trkpt>
      <trkpt lat="43.75858" lon="7.12603">
        <ele>478.20001220703</ele>
        <time>2019-07-25T09:32:08.000Z</time>
      </trkpt>
      <trkpt lat="43.75853" lon="7.12604">
        <ele>477</ele>
        <time>2019-07-25T09:32:10.000Z</time>
      </trkpt>
      <trkpt lat="43.75849" lon="7.12604">
        <ele>475.60000610352</ele>
        <time>2019-07-25T09:32:12.000Z</time>
      </trkpt>
      <trkpt lat="43.75847" lon="7.12606">
        <ele>475.20001220703</ele>
        <time>2019-07-25T09:32:13.000Z</time>
      </trkpt>
      <trkpt lat="43.75845" lon="7.12608">
        <ele>474.60000610352</ele>
        <time>2019-07-25T09:32:14.000Z</time>
      </trkpt>
      <trkpt lat="43.75842" lon="7.12611">
        <ele>474.20001220703</ele>
        <time>2019-07-25T09:32:16.000Z</time>
      </trkpt>
      <trkpt lat="43.75842" lon="7.12611">
        <ele>473.79998779297</ele>
        <time>2019-07-25T09:32:17.000Z</time>
      </trkpt>
      <trkpt lat="43.75842" lon="7.12611">
        <ele>473.60000610352</ele>
        <time>2019-07-25T09:32:18.000Z</time>
      </trkpt>
      <trkpt lat="43.75842" lon="7.12613">
        <ele>472.20001220703</ele>
        <time>2019-07-25T09:32:23.000Z</time>
      </trkpt>
      <trkpt lat="43.75842" lon="7.12613">
        <ele>472.20001220703</ele>
        <time>2019-07-25T09:32:24.000Z</time>
      </trkpt>
      <trkpt lat="43.75841" lon="7.12615">
        <ele>472.39999389648</ele>
        <time>2019-07-25T09:32:33.000Z</time>
      </trkpt>
      <trkpt lat="43.75841" lon="7.12616">
        <ele>472.20001220703</ele>
        <time>2019-07-25T09:32:34.000Z</time>
      </trkpt>
      <trkpt lat="43.75837" lon="7.12618">
        <ele>472</ele>
        <time>2019-07-25T09:32:37.000Z</time>
      </trkpt>
      <trkpt lat="43.75834" lon="7.12622">
        <ele>471.60000610352</ele>
        <time>2019-07-25T09:32:39.000Z</time>
      </trkpt>
      <trkpt lat="43.75829" lon="7.12628">
        <ele>471</ele>
        <time>2019-07-25T09:32:41.000Z</time>
      </trkpt>
      <trkpt lat="43.75828" lon="7.12631">
        <ele>470.79998779297</ele>
        <time>2019-07-25T09:32:42.000Z</time>
      </trkpt>
      <trkpt lat="43.75825" lon="7.12636">
        <ele>469.79998779297</ele>
        <time>2019-07-25T09:32:44.000Z</time>
      </trkpt>
      <trkpt lat="43.75822" lon="7.12635">
        <ele>468.39999389648</ele>
        <time>2019-07-25T09:32:47.000Z</time>
      </trkpt>
      <trkpt lat="43.7582" lon="7.12634">
        <ele>468</ele>
        <time>2019-07-25T09:32:48.000Z</time>
      </trkpt>
      <trkpt lat="43.75811" lon="7.12631">
        <ele>467.20001220703</ele>
        <time>2019-07-25T09:32:52.000Z</time>
      </trkpt>
      <trkpt lat="43.75804" lon="7.12629">
        <ele>466</ele>
        <time>2019-07-25T09:32:55.000Z</time>
      </trkpt>
      <trkpt lat="43.75802" lon="7.12628">
        <ele>465.60000610352</ele>
        <time>2019-07-25T09:32:56.000Z</time>
      </trkpt>
      <trkpt lat="43.758" lon="7.12628">
        <ele>465</ele>
        <time>2019-07-25T09:32:57.000Z</time>
      </trkpt>
      <trkpt lat="43.75792" lon="7.12626">
        <ele>464</ele>
        <time>2019-07-25T09:32:59.000Z</time>
      </trkpt>
      <trkpt lat="43.75788" lon="7.12624">
        <ele>463.39999389648</ele>
        <time>2019-07-25T09:33:00.000Z</time>
      </trkpt>
      <trkpt lat="43.75781" lon="7.12623">
        <ele>462.20001220703</ele>
        <time>2019-07-25T09:33:02.000Z</time>
      </trkpt>
      <trkpt lat="43.75777" lon="7.12621">
        <ele>461.60000610352</ele>
        <time>2019-07-25T09:33:03.000Z</time>
      </trkpt>
      <trkpt lat="43.75773" lon="7.12619">
        <ele>460.60000610352</ele>
        <time>2019-07-25T09:33:04.000Z</time>
      </trkpt>
      <trkpt lat="43.75765" lon="7.12618">
        <ele>459</ele>
        <time>2019-07-25T09:33:06.000Z</time>
      </trkpt>
      <trkpt lat="43.75762" lon="7.12618">
        <ele>458.39999389648</ele>
        <time>2019-07-25T09:33:07.000Z</time>
      </trkpt>
      <trkpt lat="43.7576" lon="7.12618">
        <ele>457.79998779297</ele>
        <time>2019-07-25T09:33:08.000Z</time>
      </trkpt>
      <trkpt lat="43.75757" lon="7.12617">
        <ele>457.20001220703</ele>
        <time>2019-07-25T09:33:09.000Z</time>
      </trkpt>
      <trkpt lat="43.75757" lon="7.12615">
        <ele>456.60000610352</ele>
        <time>2019-07-25T09:33:10.000Z</time>
      </trkpt>
      <trkpt lat="43.75758" lon="7.12613">
        <ele>456</ele>
        <time>2019-07-25T09:33:11.000Z</time>
      </trkpt>
      <trkpt lat="43.7576" lon="7.12607">
        <ele>455.20001220703</ele>
        <time>2019-07-25T09:33:13.000Z</time>
      </trkpt>
      <trkpt lat="43.7576" lon="7.12604">
        <ele>454.79998779297</ele>
        <time>2019-07-25T09:33:14.000Z</time>
      </trkpt>
      <trkpt lat="43.75759" lon="7.12603">
        <ele>454.20001220703</ele>
        <time>2019-07-25T09:33:15.000Z</time>
      </trkpt>
      <trkpt lat="43.75756" lon="7.12601">
        <ele>453</ele>
        <time>2019-07-25T09:33:17.000Z</time>
      </trkpt>
      <trkpt lat="43.75753" lon="7.12601">
        <ele>452.60000610352</ele>
        <time>2019-07-25T09:33:18.000Z</time>
      </trkpt>
      <trkpt lat="43.7575" lon="7.12601">
        <ele>452</ele>
        <time>2019-07-25T09:33:19.000Z</time>
      </trkpt>
      <trkpt lat="43.75744" lon="7.12601">
        <ele>451.20001220703</ele>
        <time>2019-07-25T09:33:22.000Z</time>
      </trkpt>
      <trkpt lat="43.75745" lon="7.12599">
        <ele>450.60000610352</ele>
        <time>2019-07-25T09:33:23.000Z</time>
      </trkpt>
      <trkpt lat="43.75749" lon="7.12595">
        <ele>449.60000610352</ele>
        <time>2019-07-25T09:33:25.000Z</time>
      </trkpt>
      <trkpt lat="43.75755" lon="7.12589">
        <ele>448.39999389648</ele>
        <time>2019-07-25T09:33:27.000Z</time>
      </trkpt>
      <trkpt lat="43.75759" lon="7.12585">
        <ele>447.20001220703</ele>
        <time>2019-07-25T09:33:29.000Z</time>
      </trkpt>
      <trkpt lat="43.75763" lon="7.12579">
        <ele>446</ele>
        <time>2019-07-25T09:33:31.000Z</time>
      </trkpt>
      <trkpt lat="43.75765" lon="7.12577">
        <ele>445.60000610352</ele>
        <time>2019-07-25T09:33:32.000Z</time>
      </trkpt>
      <trkpt lat="43.75766" lon="7.12574">
        <ele>444.60000610352</ele>
        <time>2019-07-25T09:33:34.000Z</time>
      </trkpt>
      <trkpt lat="43.75767" lon="7.12572">
        <ele>444</ele>
        <time>2019-07-25T09:33:35.000Z</time>
      </trkpt>
      <trkpt lat="43.75771" lon="7.12566">
        <ele>443.39999389648</ele>
        <time>2019-07-25T09:33:37.000Z</time>
      </trkpt>
      <trkpt lat="43.75772" lon="7.12562">
        <ele>442.39999389648</ele>
        <time>2019-07-25T09:33:39.000Z</time>
      </trkpt>
      <trkpt lat="43.75771" lon="7.12562">
        <ele>442</ele>
        <time>2019-07-25T09:33:40.000Z</time>
      </trkpt>
      <trkpt lat="43.75768" lon="7.12563">
        <ele>440.79998779297</ele>
        <time>2019-07-25T09:33:42.000Z</time>
      </trkpt>
      <trkpt lat="43.75768" lon="7.12562">
        <ele>440.39999389648</ele>
        <time>2019-07-25T09:33:43.000Z</time>
      </trkpt>
      <trkpt lat="43.75769" lon="7.12557">
        <ele>439.60000610352</ele>
        <time>2019-07-25T09:33:46.000Z</time>
      </trkpt>
      <trkpt lat="43.75769" lon="7.12556">
        <ele>439.39999389648</ele>
        <time>2019-07-25T09:33:47.000Z</time>
      </trkpt>
      <trkpt lat="43.75767" lon="7.12553">
        <ele>438.39999389648</ele>
        <time>2019-07-25T09:33:50.000Z</time>
      </trkpt>
      <trkpt lat="43.75767" lon="7.12553">
        <ele>437.79998779297</ele>
        <time>2019-07-25T09:33:52.000Z</time>
      </trkpt>
      <trkpt lat="43.75766" lon="7.12553">
        <ele>437.39999389648</ele>
        <time>2019-07-25T09:33:53.000Z</time>
      </trkpt>
      <trkpt lat="43.75765" lon="7.12553">
        <ele>436.79998779297</ele>
        <time>2019-07-25T09:34:00.000Z</time>
      </trkpt>
      <trkpt lat="43.7576" lon="7.1255">
        <ele>436.39999389648</ele>
        <time>2019-07-25T09:34:08.000Z</time>
      </trkpt>
      <trkpt lat="43.75758" lon="7.12548">
        <ele>435.20001220703</ele>
        <time>2019-07-25T09:34:14.000Z</time>
      </trkpt>
      <trkpt lat="43.75757" lon="7.12545">
        <ele>434.79998779297</ele>
        <time>2019-07-25T09:34:24.000Z</time>
      </trkpt>
      <trkpt lat="43.75757" lon="7.12546">
        <ele>434.20001220703</ele>
        <time>2019-07-25T09:34:31.000Z</time>
      </trkpt>
      <trkpt lat="43.75756" lon="7.12546">
        <ele>434</ele>
        <time>2019-07-25T09:34:32.000Z</time>
      </trkpt>
      <trkpt lat="43.75757" lon="7.12545">
        <ele>433.39999389648</ele>
        <time>2019-07-25T09:34:39.000Z</time>
      </trkpt>
      <trkpt lat="43.75755" lon="7.12543">
        <ele>433</ele>
        <time>2019-07-25T09:34:46.000Z</time>
      </trkpt>
      <trkpt lat="43.75753" lon="7.12546">
        <ele>432.20001220703</ele>
        <time>2019-07-25T09:34:52.000Z</time>
      </trkpt>
      <trkpt lat="43.75748" lon="7.12552">
        <ele>432</ele>
        <time>2019-07-25T09:34:55.000Z</time>
      </trkpt>
      <trkpt lat="43.75744" lon="7.12557">
        <ele>432.20001220703</ele>
        <time>2019-07-25T09:34:57.000Z</time>
      </trkpt>
      <trkpt lat="43.75736" lon="7.12563">
        <ele>431</ele>
        <time>2019-07-25T09:35:00.000Z</time>
      </trkpt>
      <trkpt lat="43.75734" lon="7.12565">
        <ele>430.20001220703</ele>
        <time>2019-07-25T09:35:01.000Z</time>
      </trkpt>
      <trkpt lat="43.75732" lon="7.12566">
        <ele>429.20001220703</ele>
        <time>2019-07-25T09:35:02.000Z</time>
      </trkpt>
      <trkpt lat="43.7573" lon="7.12565">
        <ele>428.39999389648</ele>
        <time>2019-07-25T09:35:03.000Z</time>
      </trkpt>
      <trkpt lat="43.75729" lon="7.12564">
        <ele>428</ele>
        <time>2019-07-25T09:35:04.000Z</time>
      </trkpt>
      <trkpt lat="43.75729" lon="7.12562">
        <ele>427.39999389648</ele>
        <time>2019-07-25T09:35:05.000Z</time>
      </trkpt>
      <trkpt lat="43.75729" lon="7.12559">
        <ele>426.79998779297</ele>
        <time>2019-07-25T09:35:06.000Z</time>
      </trkpt>
      <trkpt lat="43.75725" lon="7.12556">
        <ele>425</ele>
        <time>2019-07-25T09:35:09.000Z</time>
      </trkpt>
      <trkpt lat="43.7572" lon="7.12555">
        <ele>423.79998779297</ele>
        <time>2019-07-25T09:35:11.000Z</time>
      </trkpt>
      <trkpt lat="43.75716" lon="7.12554">
        <ele>423.20001220703</ele>
        <time>2019-07-25T09:35:12.000Z</time>
      </trkpt>
      <trkpt lat="43.75712" lon="7.12553">
        <ele>422.79998779297</ele>
        <time>2019-07-25T09:35:13.000Z</time>
      </trkpt>
      <trkpt lat="43.75704" lon="7.12552">
        <ele>421.79998779297</ele>
        <time>2019-07-25T09:35:15.000Z</time>
      </trkpt>
      <trkpt lat="43.75696" lon="7.12553">
        <ele>420.60000610352</ele>
        <time>2019-07-25T09:35:17.000Z</time>
      </trkpt>
      <trkpt lat="43.75684" lon="7.1255">
        <ele>419.39999389648</ele>
        <time>2019-07-25T09:35:20.000Z</time>
      </trkpt>
      <trkpt lat="43.75681" lon="7.12549">
        <ele>419</ele>
        <time>2019-07-25T09:35:21.000Z</time>
      </trkpt>
      <trkpt lat="43.75674" lon="7.12548">
        <ele>418.60000610352</ele>
        <time>2019-07-25T09:35:23.000Z</time>
      </trkpt>
      <trkpt lat="43.75671" lon="7.12551">
        <ele>418</ele>
        <time>2019-07-25T09:35:24.000Z</time>
      </trkpt>
      <trkpt lat="43.75669" lon="7.12553">
        <ele>417.60000610352</ele>
        <time>2019-07-25T09:35:25.000Z</time>
      </trkpt>
      <trkpt lat="43.75665" lon="7.12555">
        <ele>416.60000610352</ele>
        <time>2019-07-25T09:35:27.000Z</time>
      </trkpt>
      <trkpt lat="43.75664" lon="7.12555">
        <ele>416.39999389648</ele>
        <time>2019-07-25T09:35:29.000Z</time>
      </trkpt>
      <trkpt lat="43.7566" lon="7.12559">
        <ele>417.20001220703</ele>
        <time>2019-07-25T09:35:33.000Z</time>
      </trkpt>
      <trkpt lat="43.75659" lon="7.1256">
        <ele>417.39999389648</ele>
        <time>2019-07-25T09:35:34.000Z</time>
      </trkpt>
      <trkpt lat="43.75654" lon="7.12565">
        <ele>417.39999389648</ele>
        <time>2019-07-25T09:35:38.000Z</time>
      </trkpt>
      <trkpt lat="43.75654" lon="7.12566">
        <ele>417.79998779297</ele>
        <time>2019-07-25T09:35:42.000Z</time>
      </trkpt>
      <trkpt lat="43.75651" lon="7.12567">
        <ele>418.20001220703</ele>
        <time>2019-07-25T09:35:49.000Z</time>
      </trkpt>
      <trkpt lat="43.75647" lon="7.1257">
        <ele>417.79998779297</ele>
        <time>2019-07-25T09:35:56.000Z</time>
      </trkpt>
      <trkpt lat="43.75642" lon="7.12572">
        <ele>417.20001220703</ele>
        <time>2019-07-25T09:36:01.000Z</time>
      </trkpt>
      <trkpt lat="43.75633" lon="7.12577">
        <ele>416.60000610352</ele>
        <time>2019-07-25T09:36:04.000Z</time>
      </trkpt>
      <trkpt lat="43.75631" lon="7.12578">
        <ele>416.20001220703</ele>
        <time>2019-07-25T09:36:05.000Z</time>
      </trkpt>
      <trkpt lat="43.75629" lon="7.12577">
        <ele>415.39999389648</ele>
        <time>2019-07-25T09:36:06.000Z</time>
      </trkpt>
      <trkpt lat="43.7562" lon="7.12577">
        <ele>414.39999389648</ele>
        <time>2019-07-25T09:36:09.000Z</time>
      </trkpt>
      <trkpt lat="43.75613" lon="7.12576">
        <ele>413.39999389648</ele>
        <time>2019-07-25T09:36:11.000Z</time>
      </trkpt>
      <trkpt lat="43.7561" lon="7.12577">
        <ele>412.60000610352</ele>
        <time>2019-07-25T09:36:12.000Z</time>
      </trkpt>
      <trkpt lat="43.75607" lon="7.12577">
        <ele>411.79998779297</ele>
        <time>2019-07-25T09:36:13.000Z</time>
      </trkpt>
      <trkpt lat="43.75603" lon="7.12575">
        <ele>410.20001220703</ele>
        <time>2019-07-25T09:36:15.000Z</time>
      </trkpt>
      <trkpt lat="43.75601" lon="7.12572">
        <ele>409.39999389648</ele>
        <time>2019-07-25T09:36:16.000Z</time>
      </trkpt>
      <trkpt lat="43.75598" lon="7.1257">
        <ele>408.79998779297</ele>
        <time>2019-07-25T09:36:17.000Z</time>
      </trkpt>
      <trkpt lat="43.75592" lon="7.12567">
        <ele>407.20001220703</ele>
        <time>2019-07-25T09:36:19.000Z</time>
      </trkpt>
      <trkpt lat="43.75584" lon="7.12564">
        <ele>405.20001220703</ele>
        <time>2019-07-25T09:36:21.000Z</time>
      </trkpt>
      <trkpt lat="43.75581" lon="7.12563">
        <ele>404.39999389648</ele>
        <time>2019-07-25T09:36:22.000Z</time>
      </trkpt>
      <trkpt lat="43.75576" lon="7.12564">
        <ele>403.79998779297</ele>
        <time>2019-07-25T09:36:23.000Z</time>
      </trkpt>
      <trkpt lat="43.75567" lon="7.1257">
        <ele>401.79998779297</ele>
        <time>2019-07-25T09:36:25.000Z</time>
      </trkpt>
      <trkpt lat="43.75562" lon="7.12582">
        <ele>399.79998779297</ele>
        <time>2019-07-25T09:36:27.000Z</time>
      </trkpt>
      <trkpt lat="43.75559" lon="7.12587">
        <ele>399.20001220703</ele>
        <time>2019-07-25T09:36:28.000Z</time>
      </trkpt>
      <trkpt lat="43.75552" lon="7.12594">
        <ele>398.60000610352</ele>
        <time>2019-07-25T09:36:30.000Z</time>
      </trkpt>
      <trkpt lat="43.75549" lon="7.12597">
        <ele>398.39999389648</ele>
        <time>2019-07-25T09:36:31.000Z</time>
      </trkpt>
      <trkpt lat="43.75545" lon="7.12602">
        <ele>397.79998779297</ele>
        <time>2019-07-25T09:36:34.000Z</time>
      </trkpt>
      <trkpt lat="43.75545" lon="7.12602">
        <ele>397.39999389648</ele>
        <time>2019-07-25T09:36:39.000Z</time>
      </trkpt>
      <trkpt lat="43.75546" lon="7.12598">
        <ele>397</ele>
        <time>2019-07-25T09:36:44.000Z</time>
      </trkpt>
      <trkpt lat="43.75549" lon="7.12593">
        <ele>396.79998779297</ele>
        <time>2019-07-25T09:36:47.000Z</time>
      </trkpt>
      <trkpt lat="43.75549" lon="7.1259">
        <ele>396.39999389648</ele>
        <time>2019-07-25T09:36:48.000Z</time>
      </trkpt>
      <trkpt lat="43.75551" lon="7.1258">
        <ele>395.20001220703</ele>
        <time>2019-07-25T09:36:51.000Z</time>
      </trkpt>
      <trkpt lat="43.75551" lon="7.12577">
        <ele>394.79998779297</ele>
        <time>2019-07-25T09:36:52.000Z</time>
      </trkpt>
      <trkpt lat="43.7555" lon="7.1257">
        <ele>394</ele>
        <time>2019-07-25T09:36:54.000Z</time>
      </trkpt>
      <trkpt lat="43.75552" lon="7.12564">
        <ele>392.60000610352</ele>
        <time>2019-07-25T09:36:56.000Z</time>
      </trkpt>
      <trkpt lat="43.75555" lon="7.12557">
        <ele>391.20001220703</ele>
        <time>2019-07-25T09:36:58.000Z</time>
      </trkpt>
      <trkpt lat="43.75563" lon="7.1255">
        <ele>390.20001220703</ele>
        <time>2019-07-25T09:37:01.000Z</time>
      </trkpt>
      <trkpt lat="43.75572" lon="7.12543">
        <ele>389</ele>
        <time>2019-07-25T09:37:05.000Z</time>
      </trkpt>
      <trkpt lat="43.75575" lon="7.12541">
        <ele>388.60000610352</ele>
        <time>2019-07-25T09:37:06.000Z</time>
      </trkpt>
      <trkpt lat="43.75579" lon="7.12536">
        <ele>387.79998779297</ele>
        <time>2019-07-25T09:37:08.000Z</time>
      </trkpt>
      <trkpt lat="43.75582" lon="7.12531">
        <ele>386.20001220703</ele>
        <time>2019-07-25T09:37:10.000Z</time>
      </trkpt>
      <trkpt lat="43.75585" lon="7.12525">
        <ele>384.79998779297</ele>
        <time>2019-07-25T09:37:12.000Z</time>
      </trkpt>
      <trkpt lat="43.75587" lon="7.1252">
        <ele>384.20001220703</ele>
        <time>2019-07-25T09:37:13.000Z</time>
      </trkpt>
      <trkpt lat="43.75588" lon="7.12514">
        <ele>383.39999389648</ele>
        <time>2019-07-25T09:37:14.000Z</time>
      </trkpt>
      <trkpt lat="43.75591" lon="7.12507">
        <ele>381.79998779297</ele>
        <time>2019-07-25T09:37:16.000Z</time>
      </trkpt>
      <trkpt lat="43.75594" lon="7.12499">
        <ele>380.20001220703</ele>
        <time>2019-07-25T09:37:18.000Z</time>
      </trkpt>
      <trkpt lat="43.75596" lon="7.12491">
        <ele>379.20001220703</ele>
        <time>2019-07-25T09:37:20.000Z</time>
      </trkpt>
      <trkpt lat="43.75597" lon="7.12488">
        <ele>378.60000610352</ele>
        <time>2019-07-25T09:37:21.000Z</time>
      </trkpt>
      <trkpt lat="43.75596" lon="7.12483">
        <ele>378</ele>
        <time>2019-07-25T09:37:23.000Z</time>
      </trkpt>
      <trkpt lat="43.75595" lon="7.12483">
        <ele>376.39999389648</ele>
        <time>2019-07-25T09:37:25.000Z</time>
      </trkpt>
      <trkpt lat="43.75593" lon="7.12482">
        <ele>375.20001220703</ele>
        <time>2019-07-25T09:37:27.000Z</time>
      </trkpt>
      <trkpt lat="43.75592" lon="7.12479">
        <ele>374</ele>
        <time>2019-07-25T09:37:29.000Z</time>
      </trkpt>
      <trkpt lat="43.75595" lon="7.12477">
        <ele>373.20001220703</ele>
        <time>2019-07-25T09:37:31.000Z</time>
      </trkpt>
      <trkpt lat="43.75595" lon="7.12475">
        <ele>372.60000610352</ele>
        <time>2019-07-25T09:37:32.000Z</time>
      </trkpt>
      <trkpt lat="43.75592" lon="7.12474">
        <ele>371.79998779297</ele>
        <time>2019-07-25T09:37:34.000Z</time>
      </trkpt>
      <trkpt lat="43.75591" lon="7.12474">
        <ele>371.20001220703</ele>
        <time>2019-07-25T09:37:35.000Z</time>
      </trkpt>
      <trkpt lat="43.75589" lon="7.12476">
        <ele>370.20001220703</ele>
        <time>2019-07-25T09:37:37.000Z</time>
      </trkpt>
      <trkpt lat="43.75588" lon="7.12477">
        <ele>369.60000610352</ele>
        <time>2019-07-25T09:37:38.000Z</time>
      </trkpt>
      <trkpt lat="43.75588" lon="7.12475">
        <ele>369</ele>
        <time>2019-07-25T09:37:39.000Z</time>
      </trkpt>
      <trkpt lat="43.75589" lon="7.12472">
        <ele>368.79998779297</ele>
        <time>2019-07-25T09:37:40.000Z</time>
      </trkpt>
      <trkpt lat="43.7559" lon="7.12466">
        <ele>367.79998779297</ele>
        <time>2019-07-25T09:37:43.000Z</time>
      </trkpt>
      <trkpt lat="43.75586" lon="7.12467">
        <ele>366.79998779297</ele>
        <time>2019-07-25T09:37:45.000Z</time>
      </trkpt>
      <trkpt lat="43.75584" lon="7.12466">
        <ele>366.20001220703</ele>
        <time>2019-07-25T09:37:46.000Z</time>
      </trkpt>
      <trkpt lat="43.75586" lon="7.12463">
        <ele>365.39999389648</ele>
        <time>2019-07-25T09:37:48.000Z</time>
      </trkpt>
      <trkpt lat="43.75587" lon="7.1246">
        <ele>365.20001220703</ele>
        <time>2019-07-25T09:37:49.000Z</time>
      </trkpt>
      <trkpt lat="43.75589" lon="7.12454">
        <ele>364.20001220703</ele>
        <time>2019-07-25T09:37:51.000Z</time>
      </trkpt>
      <trkpt lat="43.75588" lon="7.12453">
        <ele>363.79998779297</ele>
        <time>2019-07-25T09:37:52.000Z</time>
      </trkpt>
      <trkpt lat="43.75585" lon="7.12453">
        <ele>363.20001220703</ele>
        <time>2019-07-25T09:37:53.000Z</time>
      </trkpt>
      <trkpt lat="43.75579" lon="7.12453">
        <ele>361.60000610352</ele>
        <time>2019-07-25T09:37:55.000Z</time>
      </trkpt>
      <trkpt lat="43.75575" lon="7.12453">
        <ele>360.20001220703</ele>
        <time>2019-07-25T09:37:57.000Z</time>
      </trkpt>
      <trkpt lat="43.75575" lon="7.1245">
        <ele>359.39999389648</ele>
        <time>2019-07-25T09:37:58.000Z</time>
      </trkpt>
      <trkpt lat="43.75576" lon="7.12448">
        <ele>358.60000610352</ele>
        <time>2019-07-25T09:37:59.000Z</time>
      </trkpt>
      <trkpt lat="43.75575" lon="7.12445">
        <ele>357.20001220703</ele>
        <time>2019-07-25T09:38:01.000Z</time>
      </trkpt>
      <trkpt lat="43.75573" lon="7.12446">
        <ele>356.60000610352</ele>
        <time>2019-07-25T09:38:02.000Z</time>
      </trkpt>
      <trkpt lat="43.75571" lon="7.12446">
        <ele>356</ele>
        <time>2019-07-25T09:38:03.000Z</time>
      </trkpt>
      <trkpt lat="43.75565" lon="7.12447">
        <ele>354.20001220703</ele>
        <time>2019-07-25T09:38:06.000Z</time>
      </trkpt>
      <trkpt lat="43.75564" lon="7.12447">
        <ele>352.39999389648</ele>
        <time>2019-07-25T09:38:08.000Z</time>
      </trkpt>
      <trkpt lat="43.75563" lon="7.12448">
        <ele>351</ele>
        <time>2019-07-25T09:38:10.000Z</time>
      </trkpt>
      <trkpt lat="43.75562" lon="7.12451">
        <ele>350.60000610352</ele>
        <time>2019-07-25T09:38:14.000Z</time>
      </trkpt>
      <trkpt lat="43.7556" lon="7.12453">
        <ele>350.60000610352</ele>
        <time>2019-07-25T09:38:16.000Z</time>
      </trkpt>
      <trkpt lat="43.75554" lon="7.1246">
        <ele>351</ele>
        <time>2019-07-25T09:38:20.000Z</time>
      </trkpt>
      <trkpt lat="43.75551" lon="7.12462">
        <ele>351</ele>
        <time>2019-07-25T09:38:21.000Z</time>
      </trkpt>
      <trkpt lat="43.75534" lon="7.12483">
        <ele>350.60000610352</ele>
        <time>2019-07-25T09:38:28.000Z</time>
      </trkpt>
      <trkpt lat="43.75523" lon="7.12499">
        <ele>350.39999389648</ele>
        <time>2019-07-25T09:38:33.000Z</time>
      </trkpt>
      <trkpt lat="43.75506" lon="7.12506">
        <ele>351</ele>
        <time>2019-07-25T09:38:39.000Z</time>
      </trkpt>
      <trkpt lat="43.7549" lon="7.12504">
        <ele>351</ele>
        <time>2019-07-25T09:38:44.000Z</time>
      </trkpt>
      <trkpt lat="43.75473" lon="7.12507">
        <ele>350.60000610352</ele>
        <time>2019-07-25T09:38:49.000Z</time>
      </trkpt>
      <trkpt lat="43.75463" lon="7.12528">
        <ele>350.60000610352</ele>
        <time>2019-07-25T09:38:54.000Z</time>
      </trkpt>
      <trkpt lat="43.75457" lon="7.12551">
        <ele>350.79998779297</ele>
        <time>2019-07-25T09:38:59.000Z</time>
      </trkpt>
      <trkpt lat="43.75447" lon="7.12576">
        <ele>350.60000610352</ele>
        <time>2019-07-25T09:39:04.000Z</time>
      </trkpt>
      <trkpt lat="43.75436" lon="7.12593">
        <ele>350.79998779297</ele>
        <time>2019-07-25T09:39:08.000Z</time>
      </trkpt>
      <trkpt lat="43.75428" lon="7.12606">
        <ele>350.39999389648</ele>
        <time>2019-07-25T09:39:11.000Z</time>
      </trkpt>
      <trkpt lat="43.75413" lon="7.12632">
        <ele>350.20001220703</ele>
        <time>2019-07-25T09:39:17.000Z</time>
      </trkpt>
      <trkpt lat="43.7541" lon="7.1265">
        <ele>350</ele>
        <time>2019-07-25T09:39:20.000Z</time>
      </trkpt>
      <trkpt lat="43.7541" lon="7.12657">
        <ele>350</ele>
        <time>2019-07-25T09:39:21.000Z</time>
      </trkpt>
      <trkpt lat="43.75404" lon="7.12687">
        <ele>349.79998779297</ele>
        <time>2019-07-25T09:39:26.000Z</time>
      </trkpt>
      <trkpt lat="43.75399" lon="7.12716">
        <ele>349.60000610352</ele>
        <time>2019-07-25T09:39:31.000Z</time>
      </trkpt>
      <trkpt lat="43.75399" lon="7.12722">
        <ele>349.60000610352</ele>
        <time>2019-07-25T09:39:32.000Z</time>
      </trkpt>
      <trkpt lat="43.75397" lon="7.12735">
        <ele>349.39999389648</ele>
        <time>2019-07-25T09:39:34.000Z</time>
      </trkpt>
      <trkpt lat="43.75391" lon="7.12745">
        <ele>348.79998779297</ele>
        <time>2019-07-25T09:39:36.000Z</time>
      </trkpt>
      <trkpt lat="43.75386" lon="7.12754">
        <ele>348.39999389648</ele>
        <time>2019-07-25T09:39:38.000Z</time>
      </trkpt>
      <trkpt lat="43.75383" lon="7.12765">
        <ele>348.20001220703</ele>
        <time>2019-07-25T09:39:40.000Z</time>
      </trkpt>
      <trkpt lat="43.75373" lon="7.12791">
        <ele>348</ele>
        <time>2019-07-25T09:39:44.000Z</time>
      </trkpt>
      <trkpt lat="43.75371" lon="7.12798">
        <ele>347.60000610352</ele>
        <time>2019-07-25T09:39:45.000Z</time>
      </trkpt>
      <trkpt lat="43.75365" lon="7.1281">
        <ele>347</ele>
        <time>2019-07-25T09:39:47.000Z</time>
      </trkpt>
      <trkpt lat="43.75355" lon="7.12826">
        <ele>346.60000610352</ele>
        <time>2019-07-25T09:39:50.000Z</time>
      </trkpt>
      <trkpt lat="43.75339" lon="7.12846">
        <ele>346.79998779297</ele>
        <time>2019-07-25T09:39:54.000Z</time>
      </trkpt>
      <trkpt lat="43.75331" lon="7.12864">
        <ele>346.39999389648</ele>
        <time>2019-07-25T09:39:57.000Z</time>
      </trkpt>
      <trkpt lat="43.75329" lon="7.12876">
        <ele>346.39999389648</ele>
        <time>2019-07-25T09:39:59.000Z</time>
      </trkpt>
      <trkpt lat="43.75322" lon="7.12908">
        <ele>346.60000610352</ele>
        <time>2019-07-25T09:40:04.000Z</time>
      </trkpt>
      <trkpt lat="43.7531" lon="7.12927">
        <ele>345.79998779297</ele>
        <time>2019-07-25T09:40:08.000Z</time>
      </trkpt>
      <trkpt lat="43.75302" lon="7.12931">
        <ele>345.39999389648</ele>
        <time>2019-07-25T09:40:10.000Z</time>
      </trkpt>
      <trkpt lat="43.75299" lon="7.12936">
        <ele>345.39999389648</ele>
        <time>2019-07-25T09:40:11.000Z</time>
      </trkpt>
      <trkpt lat="43.75288" lon="7.12952">
        <ele>345.60000610352</ele>
        <time>2019-07-25T09:40:14.000Z</time>
      </trkpt>
      <trkpt lat="43.7527" lon="7.1295">
        <ele>345</ele>
        <time>2019-07-25T09:40:17.000Z</time>
      </trkpt>
      <trkpt lat="43.75264" lon="7.12948">
        <ele>344.39999389648</ele>
        <time>2019-07-25T09:40:18.000Z</time>
      </trkpt>
      <trkpt lat="43.75259" lon="7.12945">
        <ele>344</ele>
        <time>2019-07-25T09:40:19.000Z</time>
      </trkpt>
      <trkpt lat="43.75246" lon="7.12941">
        <ele>343</ele>
        <time>2019-07-25T09:40:21.000Z</time>
      </trkpt>
      <trkpt lat="43.7524" lon="7.12938">
        <ele>342.39999389648</ele>
        <time>2019-07-25T09:40:22.000Z</time>
      </trkpt>
      <trkpt lat="43.75233" lon="7.12935">
        <ele>342</ele>
        <time>2019-07-25T09:40:23.000Z</time>
      </trkpt>
      <trkpt lat="43.75228" lon="7.12929">
        <ele>341.60000610352</ele>
        <time>2019-07-25T09:40:24.000Z</time>
      </trkpt>
      <trkpt lat="43.75221" lon="7.12924">
        <ele>340.60000610352</ele>
        <time>2019-07-25T09:40:25.000Z</time>
      </trkpt>
      <trkpt lat="43.75206" lon="7.1292">
        <ele>339</ele>
        <time>2019-07-25T09:40:27.000Z</time>
      </trkpt>
      <trkpt lat="43.75198" lon="7.12921">
        <ele>338.39999389648</ele>
        <time>2019-07-25T09:40:28.000Z</time>
      </trkpt>
      <trkpt lat="43.75191" lon="7.12924">
        <ele>337.20001220703</ele>
        <time>2019-07-25T09:40:29.000Z</time>
      </trkpt>
      <trkpt lat="43.75179" lon="7.12935">
        <ele>336.20001220703</ele>
        <time>2019-07-25T09:40:31.000Z</time>
      </trkpt>
      <trkpt lat="43.75174" lon="7.12943">
        <ele>335.60000610352</ele>
        <time>2019-07-25T09:40:32.000Z</time>
      </trkpt>
      <trkpt lat="43.75164" lon="7.1296">
        <ele>334.39999389648</ele>
        <time>2019-07-25T09:40:34.000Z</time>
      </trkpt>
      <trkpt lat="43.75159" lon="7.12969">
        <ele>334.20001220703</ele>
        <time>2019-07-25T09:40:35.000Z</time>
      </trkpt>
      <trkpt lat="43.75149" lon="7.12983">
        <ele>333</ele>
        <time>2019-07-25T09:40:37.000Z</time>
      </trkpt>
      <trkpt lat="43.75143" lon="7.12987">
        <ele>331.79998779297</ele>
        <time>2019-07-25T09:40:38.000Z</time>
      </trkpt>
      <trkpt lat="43.75123" lon="7.12982">
        <ele>330.79998779297</ele>
        <time>2019-07-25T09:40:41.000Z</time>
      </trkpt>
      <trkpt lat="43.75101" lon="7.12974">
        <ele>329.60000610352</ele>
        <time>2019-07-25T09:40:44.000Z</time>
      </trkpt>
      <trkpt lat="43.75088" lon="7.1298">
        <ele>328.20001220703</ele>
        <time>2019-07-25T09:40:46.000Z</time>
      </trkpt>
      <trkpt lat="43.75081" lon="7.12985">
        <ele>327.79998779297</ele>
        <time>2019-07-25T09:40:47.000Z</time>
      </trkpt>
      <trkpt lat="43.75075" lon="7.12991">
        <ele>327.20001220703</ele>
        <time>2019-07-25T09:40:48.000Z</time>
      </trkpt>
      <trkpt lat="43.75056" lon="7.13004">
        <ele>326</ele>
        <time>2019-07-25T09:40:51.000Z</time>
      </trkpt>
      <trkpt lat="43.7505" lon="7.13006">
        <ele>326.20001220703</ele>
        <time>2019-07-25T09:40:52.000Z</time>
      </trkpt>
      <trkpt lat="43.75026" lon="7.13005">
        <ele>325.39999389648</ele>
        <time>2019-07-25T09:40:56.000Z</time>
      </trkpt>
      <trkpt lat="43.75019" lon="7.13004">
        <ele>324.79998779297</ele>
        <time>2019-07-25T09:40:57.000Z</time>
      </trkpt>
      <trkpt lat="43.75012" lon="7.13004">
        <ele>324.20001220703</ele>
        <time>2019-07-25T09:40:58.000Z</time>
      </trkpt>
      <trkpt lat="43.75005" lon="7.13007">
        <ele>323.60000610352</ele>
        <time>2019-07-25T09:40:59.000Z</time>
      </trkpt>
      <trkpt lat="43.7499" lon="7.13018">
        <ele>322.39999389648</ele>
        <time>2019-07-25T09:41:01.000Z</time>
      </trkpt>
      <trkpt lat="43.74982" lon="7.13024">
        <ele>321.39999389648</ele>
        <time>2019-07-25T09:41:02.000Z</time>
      </trkpt>
      <trkpt lat="43.74973" lon="7.13029">
        <ele>320.39999389648</ele>
        <time>2019-07-25T09:41:03.000Z</time>
      </trkpt>
      <trkpt lat="43.74956" lon="7.1304">
        <ele>318.60000610352</ele>
        <time>2019-07-25T09:41:05.000Z</time>
      </trkpt>
      <trkpt lat="43.74948" lon="7.13046">
        <ele>316.79998779297</ele>
        <time>2019-07-25T09:41:06.000Z</time>
      </trkpt>
      <trkpt lat="43.74941" lon="7.13052">
        <ele>315.60000610352</ele>
        <time>2019-07-25T09:41:07.000Z</time>
      </trkpt>
      <trkpt lat="43.74932" lon="7.13065">
        <ele>314.60000610352</ele>
        <time>2019-07-25T09:41:09.000Z</time>
      </trkpt>
      <trkpt lat="43.7493" lon="7.13071">
        <ele>314.39999389648</ele>
        <time>2019-07-25T09:41:10.000Z</time>
      </trkpt>
      <trkpt lat="43.74927" lon="7.13086">
        <ele>314.79998779297</ele>
        <time>2019-07-25T09:41:12.000Z</time>
      </trkpt>
      <trkpt lat="43.74921" lon="7.13106">
        <ele>314.60000610352</ele>
        <time>2019-07-25T09:41:15.000Z</time>
      </trkpt>
      <trkpt lat="43.74916" lon="7.13122">
        <ele>314.39999389648</ele>
        <time>2019-07-25T09:41:17.000Z</time>
      </trkpt>
      <trkpt lat="43.74906" lon="7.13131">
        <ele>314.20001220703</ele>
        <time>2019-07-25T09:41:19.000Z</time>
      </trkpt>
      <trkpt lat="43.74884" lon="7.13136">
        <ele>315</ele>
        <time>2019-07-25T09:41:23.000Z</time>
      </trkpt>
      <trkpt lat="43.74879" lon="7.13137">
        <ele>315.20001220703</ele>
        <time>2019-07-25T09:41:24.000Z</time>
      </trkpt>
      <trkpt lat="43.74859" lon="7.13142">
        <ele>315.20001220703</ele>
        <time>2019-07-25T09:41:28.000Z</time>
      </trkpt>
      <trkpt lat="43.74851" lon="7.13148">
        <ele>315.20001220703</ele>
        <time>2019-07-25T09:41:30.000Z</time>
      </trkpt>
      <trkpt lat="43.74835" lon="7.13163">
        <ele>315.20001220703</ele>
        <time>2019-07-25T09:41:34.000Z</time>
      </trkpt>
      <trkpt lat="43.74828" lon="7.13173">
        <ele>315</ele>
        <time>2019-07-25T09:41:36.000Z</time>
      </trkpt>
      <trkpt lat="43.74807" lon="7.13202">
        <ele>315.60000610352</ele>
        <time>2019-07-25T09:41:42.000Z</time>
      </trkpt>
      <trkpt lat="43.74793" lon="7.1322">
        <ele>316</ele>
        <time>2019-07-25T09:41:46.000Z</time>
      </trkpt>
      <trkpt lat="43.74777" lon="7.13246">
        <ele>315.79998779297</ele>
        <time>2019-07-25T09:41:51.000Z</time>
      </trkpt>
      <trkpt lat="43.74771" lon="7.13259">
        <ele>315.79998779297</ele>
        <time>2019-07-25T09:41:53.000Z</time>
      </trkpt>
      <trkpt lat="43.74743" lon="7.13325">
        <ele>315.79998779297</ele>
        <time>2019-07-25T09:42:04.000Z</time>
      </trkpt>
      <trkpt lat="43.74714" lon="7.13394">
        <ele>315.20001220703</ele>
        <time>2019-07-25T09:42:15.000Z</time>
      </trkpt>
      <trkpt lat="43.74699" lon="7.13424">
        <ele>315</ele>
        <time>2019-07-25T09:42:20.000Z</time>
      </trkpt>
      <trkpt lat="43.7469" lon="7.13434">
        <ele>314.79998779297</ele>
        <time>2019-07-25T09:42:22.000Z</time>
      </trkpt>
      <trkpt lat="43.74673" lon="7.13452">
        <ele>314.79998779297</ele>
        <time>2019-07-25T09:42:26.000Z</time>
      </trkpt>
      <trkpt lat="43.74669" lon="7.13457">
        <ele>314.60000610352</ele>
        <time>2019-07-25T09:42:27.000Z</time>
      </trkpt>
      <trkpt lat="43.74665" lon="7.13461">
        <ele>314.60000610352</ele>
        <time>2019-07-25T09:42:28.000Z</time>
      </trkpt>
      <trkpt lat="43.74648" lon="7.13479">
        <ele>314.39999389648</ele>
        <time>2019-07-25T09:42:32.000Z</time>
      </trkpt>
      <trkpt lat="43.74636" lon="7.13493">
        <ele>314.20001220703</ele>
        <time>2019-07-25T09:42:35.000Z</time>
      </trkpt>
      <trkpt lat="43.74631" lon="7.13497">
        <ele>314.39999389648</ele>
        <time>2019-07-25T09:42:36.000Z</time>
      </trkpt>
      <trkpt lat="43.74612" lon="7.1351">
        <ele>314.39999389648</ele>
        <time>2019-07-25T09:42:40.000Z</time>
      </trkpt>
      <trkpt lat="43.74594" lon="7.13525">
        <ele>314.20001220703</ele>
        <time>2019-07-25T09:42:44.000Z</time>
      </trkpt>
      <trkpt lat="43.74587" lon="7.13536">
        <ele>314.20001220703</ele>
        <time>2019-07-25T09:42:46.000Z</time>
      </trkpt>
      <trkpt lat="43.7458" lon="7.13548">
        <ele>313.79998779297</ele>
        <time>2019-07-25T09:42:48.000Z</time>
      </trkpt>
      <trkpt lat="43.74577" lon="7.13554">
        <ele>313.60000610352</ele>
        <time>2019-07-25T09:42:49.000Z</time>
      </trkpt>
      <trkpt lat="43.74568" lon="7.13574">
        <ele>313.60000610352</ele>
        <time>2019-07-25T09:42:52.000Z</time>
      </trkpt>
      <trkpt lat="43.74545" lon="7.13623">
        <ele>312.79998779297</ele>
        <time>2019-07-25T09:43:00.000Z</time>
      </trkpt>
      <trkpt lat="43.74539" lon="7.13636">
        <ele>312.60000610352</ele>
        <time>2019-07-25T09:43:02.000Z</time>
      </trkpt>
      <trkpt lat="43.74518" lon="7.1368">
        <ele>313</ele>
        <time>2019-07-25T09:43:09.000Z</time>
      </trkpt>
      <trkpt lat="43.7449" lon="7.13736">
        <ele>312.60000610352</ele>
        <time>2019-07-25T09:43:18.000Z</time>
      </trkpt>
      <trkpt lat="43.74465" lon="7.13767">
        <ele>312.79998779297</ele>
        <time>2019-07-25T09:43:24.000Z</time>
      </trkpt>
      <trkpt lat="43.74426" lon="7.1381">
        <ele>312.39999389648</ele>
        <time>2019-07-25T09:43:33.000Z</time>
      </trkpt>
      <trkpt lat="43.74395" lon="7.13856">
        <ele>312.39999389648</ele>
        <time>2019-07-25T09:43:41.000Z</time>
      </trkpt>
      <trkpt lat="43.74383" lon="7.13884">
        <ele>312.39999389648</ele>
        <time>2019-07-25T09:43:45.000Z</time>
      </trkpt>
      <trkpt lat="43.74381" lon="7.13891">
        <ele>312.39999389648</ele>
        <time>2019-07-25T09:43:46.000Z</time>
      </trkpt>
      <trkpt lat="43.74373" lon="7.1394">
        <ele>311.60000610352</ele>
        <time>2019-07-25T09:43:52.000Z</time>
      </trkpt>
      <trkpt lat="43.74366" lon="7.14012">
        <ele>311</ele>
        <time>2019-07-25T09:44:01.000Z</time>
      </trkpt>
      <trkpt lat="43.7436" lon="7.14074">
        <ele>311</ele>
        <time>2019-07-25T09:44:09.000Z</time>
      </trkpt>
      <trkpt lat="43.74363" lon="7.14129">
        <ele>311.20001220703</ele>
        <time>2019-07-25T09:44:16.000Z</time>
      </trkpt>
      <trkpt lat="43.7437" lon="7.14186">
        <ele>310.79998779297</ele>
        <time>2019-07-25T09:44:23.000Z</time>
      </trkpt>
      <trkpt lat="43.74369" lon="7.14195">
        <ele>310.79998779297</ele>
        <time>2019-07-25T09:44:24.000Z</time>
      </trkpt>
      <trkpt lat="43.74368" lon="7.14202">
        <ele>310.79998779297</ele>
        <time>2019-07-25T09:44:25.000Z</time>
      </trkpt>
      <trkpt lat="43.74362" lon="7.14226">
        <ele>310.60000610352</ele>
        <time>2019-07-25T09:44:28.000Z</time>
      </trkpt>
      <trkpt lat="43.7436" lon="7.14233">
        <ele>310.39999389648</ele>
        <time>2019-07-25T09:44:29.000Z</time>
      </trkpt>
      <trkpt lat="43.74349" lon="7.14295">
        <ele>310.39999389648</ele>
        <time>2019-07-25T09:44:37.000Z</time>
      </trkpt>
      <trkpt lat="43.74349" lon="7.14336">
        <ele>310.20001220703</ele>
        <time>2019-07-25T09:44:43.000Z</time>
      </trkpt>
      <trkpt lat="43.74348" lon="7.14338">
        <ele>310.20001220703</ele>
        <time>2019-07-25T09:44:44.000Z</time>
      </trkpt>
      <trkpt lat="43.74348" lon="7.14339">
        <ele>310.20001220703</ele>
        <time>2019-07-25T09:44:46.000Z</time>
      </trkpt>
      <trkpt lat="43.74347" lon="7.14338">
        <ele>310.39999389648</ele>
        <time>2019-07-25T09:44:52.000Z</time>
      </trkpt>
      <trkpt lat="43.74347" lon="7.14338">
        <ele>310</ele>
        <time>2019-07-25T09:44:58.000Z</time>
      </trkpt>
      <trkpt lat="43.74349" lon="7.14338">
        <ele>310</ele>
        <time>2019-07-25T09:45:11.000Z</time>
      </trkpt>
      <trkpt lat="43.7435" lon="7.14337">
        <ele>310.20001220703</ele>
        <time>2019-07-25T09:45:18.000Z</time>
      </trkpt>
      <trkpt lat="43.74351" lon="7.14337">
        <ele>310</ele>
        <time>2019-07-25T09:45:24.000Z</time>
      </trkpt>
      <trkpt lat="43.74352" lon="7.14337">
        <ele>310</ele>
        <time>2019-07-25T09:45:37.000Z</time>
      </trkpt>
      <trkpt lat="43.74352" lon="7.14337">
        <ele>310</ele>
        <time>2019-07-25T09:45:45.000Z</time>
      </trkpt>
      <trkpt lat="43.74353" lon="7.14337">
        <ele>310.20001220703</ele>
        <time>2019-07-25T09:45:57.000Z</time>
      </trkpt>
      <trkpt lat="43.74354" lon="7.14338">
        <ele>310</ele>
        <time>2019-07-25T09:46:06.000Z</time>
      </trkpt>
      <trkpt lat="43.74354" lon="7.14338">
        <ele>310.20001220703</ele>
        <time>2019-07-25T09:46:15.000Z</time>
      </trkpt>
      <trkpt lat="43.74355" lon="7.14339">
        <ele>310.39999389648</ele>
        <time>2019-07-25T09:46:24.000Z</time>
      </trkpt>
      <trkpt lat="43.74355" lon="7.14338">
        <ele>310.20001220703</ele>
        <time>2019-07-25T09:46:32.000Z</time>
      </trkpt>
      <trkpt lat="43.74355" lon="7.14339">
        <ele>310.20001220703</ele>
        <time>2019-07-25T09:46:39.000Z</time>
      </trkpt>
      <trkpt lat="43.74354" lon="7.14338">
        <ele>310</ele>
        <time>2019-07-25T09:46:51.000Z</time>
      </trkpt>
      <trkpt lat="43.74354" lon="7.14336">
        <ele>310</ele>
        <time>2019-07-25T09:47:14.000Z</time>
      </trkpt>
      <trkpt lat="43.74355" lon="7.14335">
        <ele>309.79998779297</ele>
        <time>2019-07-25T09:47:41.000Z</time>
      </trkpt>
      <trkpt lat="43.74356" lon="7.14335">
        <ele>310</ele>
        <time>2019-07-25T09:47:59.000Z</time>
      </trkpt>
      <trkpt lat="43.74357" lon="7.14336">
        <ele>310</ele>
        <time>2019-07-25T09:48:20.000Z</time>
      </trkpt>
      <trkpt lat="43.74357" lon="7.14336">
        <ele>310.20001220703</ele>
        <time>2019-07-25T09:48:27.000Z</time>
      </trkpt>
    </trkseg>
  </trk>
</gpx>